GFSSE_prec_precacc_009.txt.gz
Total_Precipitation_Accumulation
0.01 0.00 0.00 0.00 0.00 0.00 0.00 0.00 0.00 0.00 0.01 0.06 0.07 0.10 0.13 0.10 0.11 0.14 0.13 0.12 0.12 0.15 0.21 0.23 0.21 0.11 0.00 0.00 0.00 0.01 0.01 0.00 0.00 0.00 0.00 0.01 0.00 0.00 0.00 0.00 0.01 0.02 0.02
0.00 0.00 0.00 0.00 0.00 0.00 0.00 0.00 0.00 0.01 0.01 0.02 0.04 0.07 0.12 0.14 0.24 0.29 0.28 0.29 0.34 0.30 0.33 0.26 0.22 0.19 0.12 0.11 0.05 0.02 0.02 0.01 0.00 0.00 0.00 0.00 0.00 0.00 0.00 0.00 0.00 0.01 0.03
0.01 0.00 0.00 0.00 0.00 0.00 0.00 0.00 0.00 0.01 0.01 0.03 0.04 0.11 0.20 0.27 0.47 0.49 0.36 0.33 0.53 0.68 0.54 0.40 0.34 0.42 0.40 0.26 0.09 0.03 0.02 0.01 0.00 0.00 0.00 0.00 0.00 0.00 0.00 0.00 0.00 0.01 0.02
0.00 0.00 0.00 0.00 0.00 0.00 0.00 0.00 0.00 0.00 0.00 0.00 0.00 0.05 0.22 0.28 0.30 0.31 0.43 0.34 0.27 0.46 0.58 0.50 0.71 1.07 0.90 0.64 0.22 0.09 0.05 0.01 0.00 0.00 0.00 0.00 0.00 0.00 0.00 0.00 0.00 0.00 0.01
0.00 0.00 0.00 0.00 0.00 0.00 0.00 0.00 0.00 0.00 0.00 0.00 0.01 0.03 0.12 0.10 0.18 0.18 0.24 0.13 0.10 0.15 0.40 0.58 0.69 0.93 0.82 0.97 0.78 0.32 0.14 0.03 0.00 0.00 0.00 0.00 0.00 0.01 0.00 0.00 0.00 0.00 0.00
0.00 0.00 0.00 0.00 0.00 0.00 0.00 0.00 0.00 0.00 0.00 0.00 0.00 0.01 0.07 0.07 0.08 0.11 0.18 0.24 0.41 0.42 0.69 1.08 1.73 1.27 0.72 1.05 1.09 0.65 0.24 0.02 0.00 0.00 0.00 0.00 0.00 0.01 0.00 0.00 0.02 0.02 0.01
0.00 0.00 0.00 0.00 0.00 0.00 0.00 0.00 0.00 0.00 0.00 0.00 0.00 0.00 0.00 0.01 0.03 0.05 0.06 0.18 0.52 1.17 1.32 1.11 1.24 1.41 0.98 0.29 0.15 0.20 0.10 0.03 0.00 0.00 0.00 0.00 0.00 0.01 0.00 0.00 0.02 0.02 0.01
0.00 0.00 0.00 0.00 0.00 0.00 0.00 0.00 0.00 0.00 0.00 0.00 0.00 0.00 0.00 0.00 0.00 0.00 0.01 0.04 0.07 0.10 0.15 0.16 0.14 0.11 0.16 0.09 0.03 0.03 0.03 0.02 0.00 0.00 0.00 0.00 0.01 0.02 0.01 0.00 0.00 0.01 0.01
0.00 0.00 0.00 0.00 0.00 0.00 0.00 0.00 0.00 0.00 0.00 0.00 0.00 0.00 0.01 0.01 0.00 0.00 0.00 0.00 0.00 0.03 0.06 0.09 0.08 0.02 0.01 0.01 0.01 0.01 0.00 0.00 0.00 0.00 0.00 0.00 0.01 0.03 0.03 0.04 0.00 0.00 0.00
0.00 0.00 0.00 0.00 0.00 0.00 0.00 0.00 0.00 0.00 0.00 0.00 0.00 0.00 0.00 0.00 0.00 0.00 0.01 0.01 0.01 0.03 0.05 0.07 0.08 0.03 0.01 0.00 0.00 0.00 0.00 0.00 0.00 0.00 0.00 0.00 0.01 0.02 0.05 0.08 0.05 0.01 0.01
0.00 0.00 0.00 0.00 0.00 0.00 0.00 0.00 0.00 0.00 0.00 0.00 0.00 0.00 0.00 0.02 0.00 0.00 0.02 0.03 0.04 0.03 0.04 0.06 0.09 0.05 0.01 0.00 0.00 0.00 0.00 0.00 0.00 0.00 0.00 0.00 0.00 0.02 0.03 0.08 0.08 0.04 0.02
0.00 0.00 0.00 0.00 0.00 0.00 0.00 0.00 0.02 0.02 0.00 0.00 0.01 0.00 0.00 0.01 0.00 0.00 0.01 0.04 0.07 0.06 0.06 0.13 0.15 0.08 0.04 0.04 0.02 0.00 0.00 0.00 0.00 0.00 0.01 0.00 0.01 0.01 0.02 0.06 0.07 0.04 0.02
0.00 0.00 0.00 0.00 0.00 0.00 0.00 0.00 0.02 0.01 0.00 0.00 0.00 0.00 0.00 0.00 0.00 0.00 0.00 0.02 0.08 0.10 0.18 0.18 0.37 0.41 0.34 0.20 0.11 0.09 0.03 0.00 0.00 0.00 0.00 0.00 0.01 0.01 0.02 0.05 0.07 0.05 0.02
0.00 0.00 0.00 0.00 0.00 0.00 0.00 0.00 0.00 0.00 0.00 0.00 0.00 0.00 0.00 0.00 0.00 0.00 0.00 0.00 0.04 0.08 0.10 0.19 0.39 0.33 0.26 0.31 0.28 0.16 0.08 0.04 0.01 0.01 0.01 0.01 0.00 0.00 0.00 0.01 0.03 0.07 0.04
0.00 0.00 0.00 0.00 0.00 0.00 0.00 0.00 0.00 0.00 0.00 0.00 0.00 0.00 0.00 0.00 0.00 0.00 0.00 0.00 0.00 0.00 0.03 0.04 0.06 0.12 0.14 0.13 0.11 0.11 0.07 0.05 0.03 0.01 0.00 0.01 0.01 0.01 0.00 0.00 0.02 0.08 0.07
0.00 0.00 0.00 0.00 0.00 0.00 0.00 0.00 0.00 0.00 0.00 0.00 0.00 0.00 0.00 0.00 0.00 0.00 0.00 0.00 0.00 0.01 0.01 0.02 0.03 0.04 0.05 0.06 0.10 0.10 0.06 0.05 0.03 0.03 0.02 0.02 0.02 0.01 0.00 0.01 0.01 0.07 0.15
0.00 0.00 0.00 0.00 0.00 0.00 0.00 0.00 0.00 0.00 0.00 0.00 0.00 0.00 0.00 0.00 0.00 0.00 0.00 0.00 0.00 0.00 0.00 0.00 0.00 0.02 0.04 0.07 0.12 0.19 0.16 0.09 0.06 0.05 0.04 0.05 0.06 0.05 0.02 0.00 0.00 0.02 0.08
0.00 0.00 0.00 0.00 0.00 0.00 0.00 0.00 0.00 0.00 0.00 0.00 0.00 0.00 0.00 0.00 0.00 0.00 0.00 0.00 0.00 0.00 0.00 0.00 0.00 0.00 0.01 0.04 0.05 0.04 0.02 0.04 0.04 0.03 0.02 0.03 0.06 0.07 0.07 0.02 0.00 0.00 0.02
0.00 0.00 0.00 0.00 0.00 0.00 0.00 0.00 0.00 0.00 0.00 0.00 0.00 0.00 0.00 0.00 0.00 0.00 0.00 0.00 0.00 0.00 0.00 0.00 0.00 0.00 0.00 0.00 0.00 0.01 0.01 0.01 0.02 0.03 0.02 0.01 0.01 0.02 0.04 0.04 0.01 0.00 0.00
0.00 0.00 0.00 0.00 0.00 0.00 0.00 0.00 0.00 0.00 0.00 0.00 0.00 0.00 0.00 0.00 0.00 0.00 0.00 0.00 0.00 0.00 0.00 0.00 0.00 0.00 0.00 0.00 0.00 0.00 0.00 0.02 0.02 0.03 0.03 0.02 0.02 0.02 0.02 0.03 0.01 0.00 0.00
0.00 0.00 0.00 0.00 0.00 0.00 0.00 0.00 0.00 0.00 0.00 0.00 0.00 0.00 0.00 0.00 0.00 0.00 0.00 0.00 0.00 0.00 0.00 0.00 0.00 0.00 0.00 0.00 0.00 0.00 0.00 0.00 0.01 0.04 0.05 0.08 0.08 0.07 0.05 0.05 0.05 0.02 0.00
0.00 0.00 0.00 0.00 0.00 0.00 0.00 0.00 0.00 0.00 0.00 0.00 0.00 0.00 0.00 0.00 0.00 0.00 0.00 0.00 0.00 0.00 0.00 0.00 0.00 0.00 0.00 0.00 0.00 0.00 0.00 0.00 0.00 0.01 0.03 0.07 0.08 0.10 0.11 0.07 0.08 0.07 0.02
0.00 0.00 0.00 0.00 0.00 0.00 0.00 0.00 0.00 0.00 0.00 0.00 0.00 0.00 0.00 0.00 0.00 0.00 0.00 0.00 0.00 0.00 0.00 0.00 0.00 0.00 0.00 0.00 0.00 0.00 0.00 0.00 0.00 0.00 0.01 0.02 0.05 0.05 0.06 0.07 0.06 0.09 0.06
0.00 0.00 0.00 0.00 0.00 0.00 0.00 0.00 0.00 0.00 0.00 0.00 0.00 0.00 0.00 0.00 0.00 0.00 0.00 0.00 0.00 0.00 0.00 0.00 0.00 0.00 0.00 0.00 0.00 0.00 0.00 0.00 0.00 0.00 0.00 0.00 0.01 0.02 0.04 0.04 0.04 0.04 0.07
0.00 0.00 0.00 0.00 0.00 0.00 0.00 0.00 0.00 0.00 0.00 0.00 0.00 0.00 0.00 0.00 0.00 0.00 0.00 0.00 0.00 0.00 0.00 0.00 0.00 0.00 0.00 0.00 0.00 0.00 0.00 0.00 0.00 0.00 0.00 0.00 0.00 0.00 0.01 0.04 0.05 0.06 0.06
0.00 0.00 0.00 0.00 0.00 0.00 0.00 0.00 0.00 0.00 0.00 0.00 0.00 0.00 0.00 0.00 0.00 0.00 0.00 0.00 0.00 0.00 0.00 0.00 0.00 0.00 0.00 0.00 0.00 0.00 0.00 0.00 0.00 0.00 0.00 0.00 0.00 0.00 0.00 0.00 0.01 0.03 0.04

GFSSE_prec_precacc_015.txt.gz
Total_Precipitation_Accumulation
0.02 0.00 0.00 0.00 0.00 0.00 0.00 0.00 0.00 0.00 0.01 0.06 0.07 0.10 0.13 0.11 0.13 0.16 0.14 0.13 0.14 0.16 0.21 0.23 0.21 0.11 0.00 0.02 0.02 0.02 0.02 0.03 0.02 0.01 0.01 0.01 0.02 0.05 0.04 0.07 0.03 0.04 0.08
0.01 0.00 0.00 0.00 0.00 0.00 0.00 0.00 0.00 0.01 0.01 0.02 0.04 0.07 0.12 0.14 0.24 0.29 0.28 0.29 0.34 0.30 0.33 0.26 0.22 0.19 0.12 0.12 0.08 0.05 0.05 0.05 0.03 0.02 0.01 0.00 0.01 0.01 0.02 0.02 0.01 0.03 0.06
0.01 0.00 0.00 0.00 0.00 0.00 0.00 0.00 0.00 0.01 0.01 0.03 0.04 0.11 0.21 0.27 0.47 0.49 0.36 0.33 0.54 0.68 0.54 0.40 0.34 0.42 0.40 0.26 0.11 0.07 0.06 0.06 0.04 0.02 0.01 0.00 0.00 0.01 0.01 0.00 0.00 0.03 0.05
0.00 0.00 0.00 0.00 0.00 0.00 0.00 0.00 0.00 0.00 0.00 0.00 0.00 0.05 0.23 0.29 0.30 0.31 0.44 0.37 0.33 0.46 0.58 0.50 0.72 1.07 0.90 0.70 0.32 0.16 0.10 0.04 0.02 0.01 0.01 0.00 0.02 0.03 0.02 0.00 0.01 0.01 0.03
0.00 0.00 0.00 0.00 0.00 0.00 0.00 0.00 0.00 0.00 0.00 0.00 0.01 0.03 0.12 0.10 0.18 0.19 0.29 0.14 0.10 0.15 0.40 0.58 0.69 0.93 0.82 0.98 1.07 0.67 0.29 0.07 0.02 0.00 0.00 0.00 0.00 0.02 0.02 0.01 0.01 0.01 0.01
0.00 0.00 0.00 0.00 0.00 0.00 0.00 0.00 0.00 0.00 0.00 0.00 0.00 0.01 0.07 0.07 0.08 0.11 0.23 0.32 0.44 0.42 0.69 1.09 1.73 1.27 0.72 1.05 1.11 0.71 0.30 0.04 0.01 0.00 0.00 0.00 0.00 0.02 0.01 0.01 0.03 0.03 0.02
0.00 0.00 0.00 0.00 0.00 0.00 0.00 0.00 0.00 0.00 0.00 0.00 0.00 0.00 0.00 0.01 0.03 0.05 0.06 0.18 0.52 1.17 1.32 1.11 1.24 1.41 0.98 0.29 0.15 0.21 0.14 0.05 0.07 0.10 0.10 0.01 0.00 0.03 0.06 0.04 0.04 0.03 0.02
0.00 0.00 0.00 0.00 0.00 0.00 0.00 0.00 0.00 0.00 0.00 0.00 0.00 0.00 0.00 0.00 0.00 0.00 0.01 0.04 0.07 0.10 0.15 0.16 0.14 0.11 0.16 0.09 0.03 0.03 0.04 0.05 0.05 0.15 0.14 0.07 0.01 0.03 0.06 0.06 0.02 0.01 0.02
0.00 0.00 0.00 0.00 0.00 0.00 0.00 0.00 0.00 0.00 0.00 0.00 0.00 0.00 0.01 0.01 0.00 0.00 0.00 0.00 0.00 0.03 0.06 0.09 0.08 0.02 0.01 0.01 0.01 0.01 0.01 0.01 0.05 0.07 0.06 0.03 0.02 0.05 0.08 0.10 0.03 0.01 0.00
0.00 0.00 0.00 0.00 0.00 0.00 0.00 0.00 0.00 0.00 0.00 0.00 0.00 0.00 0.00 0.00 0.00 0.00 0.01 0.01 0.01 0.03 0.05 0.07 0.08 0.03 0.02 0.00 0.00 0.00 0.00 0.00 0.00 0.00 0.00 0.01 0.03 0.06 0.12 0.18 0.14 0.09 0.04
0.00 0.00 0.00 0.00 0.00 0.00 0.00 0.00 0.00 0.00 0.00 0.00 0.00 0.00 0.00 0.02 0.00 0.00 0.02 0.03 0.04 0.03 0.04 0.06 0.09 0.05 0.01 0.00 0.00 0.00 0.00 0.00 0.00 0.00 0.00 0.00 0.02 0.06 0.11 0.17 0.19 0.15 0.11
0.01 0.00 0.00 0.00 0.00 0.00 0.00 0.00 0.02 0.02 0.00 0.00 0.01 0.00 0.00 0.01 0.00 0.00 0.01 0.04 0.07 0.06 0.06 0.13 0.15 0.08 0.04 0.04 0.02 0.00 0.00 0.00 0.00 0.00 0.01 0.00 0.02 0.03 0.09 0.15 0.16 0.14 0.12
0.00 0.00 0.00 0.00 0.00 0.00 0.00 0.00 0.02 0.01 0.00 0.00 0.00 0.00 0.00 0.00 0.00 0.00 0.00 0.02 0.08 0.10 0.18 0.18 0.37 0.41 0.34 0.20 0.11 0.09 0.03 0.00 0.00 0.00 0.00 0.00 0.02 0.02 0.10 0.16 0.17 0.17 0.16
0.00 0.00 0.00 0.00 0.00 0.00 0.00 0.00 0.00 0.00 0.00 0.00 0.00 0.00 0.00 0.00 0.00 0.00 0.00 0.00 0.04 0.08 0.10 0.19 0.39 0.33 0.26 0.31 0.28 0.16 0.08 0.04 0.01 0.01 0.01 0.01 0.01 0.00 0.00 0.04 0.15 0.24 0.21
0.00 0.00 0.00 0.00 0.00 0.00 0.00 0.00 0.00 0.00 0.00 0.00 0.00 0.00 0.00 0.00 0.00 0.00 0.00 0.00 0.00 0.00 0.03 0.04 0.06 0.12 0.14 0.13 0.11 0.11 0.07 0.05 0.03 0.01 0.00 0.01 0.01 0.01 0.00 0.00 0.04 0.17 0.27
0.00 0.00 0.00 0.00 0.00 0.00 0.00 0.00 0.00 0.00 0.00 0.00 0.00 0.00 0.00 0.00 0.00 0.00 0.00 0.00 0.00 0.01 0.01 0.02 0.03 0.04 0.05 0.06 0.10 0.10 0.06 0.05 0.03 0.03 0.02 0.02 0.02 0.01 0.00 0.01 0.01 0.08 0.22
0.00 0.00 0.00 0.00 0.00 0.00 0.00 0.00 0.00 0.00 0.00 0.00 0.00 0.00 0.00 0.00 0.00 0.00 0.00 0.00 0.00 0.00 0.00 0.00 0.00 0.02 0.04 0.07 0.12 0.19 0.16 0.09 0.06 0.05 0.04 0.05 0.06 0.08 0.07 0.01 0.00 0.03 0.10
0.00 0.00 0.00 0.00 0.00 0.00 0.00 0.00 0.00 0.00 0.00 0.00 0.00 0.00 0.00 0.00 0.00 0.00 0.00 0.00 0.00 0.00 0.00 0.00 0.00 0.00 0.01 0.04 0.05 0.04 0.02 0.04 0.04 0.03 0.02 0.03 0.07 0.11 0.16 0.15 0.08 0.04 0.05
0.00 0.00 0.00 0.00 0.00 0.00 0.00 0.00 0.00 0.00 0.00 0.00 0.00 0.00 0.00 0.00 0.00 0.00 0.00 0.00 0.00 0.00 0.00 0.00 0.00 0.00 0.00 0.00 0.00 0.01 0.01 0.01 0.02 0.03 0.02 0.01 0.01 0.03 0.08 0.10 0.13 0.13 0.11
0.00 0.00 0.00 0.00 0.00 0.00 0.00 0.00 0.00 0.00 0.00 0.00 0.00 0.00 0.00 0.00 0.00 0.00 0.00 0.00 0.00 0.00 0.00 0.00 0.00 0.00 0.00 0.00 0.00 0.00 0.00 0.02 0.02 0.03 0.03 0.02 0.02 0.02 0.02 0.04 0.05 0.07 0.11
0.00 0.00 0.00 0.00 0.00 0.00 0.00 0.00 0.00 0.00 0.00 0.00 0.00 0.00 0.00 0.00 0.00 0.00 0.00 0.00 0.00 0.00 0.00 0.00 0.00 0.00 0.00 0.00 0.00 0.00 0.00 0.00 0.01 0.04 0.05 0.08 0.08 0.07 0.05 0.05 0.06 0.04 0.04
0.00 0.00 0.00 0.00 0.00 0.00 0.00 0.00 0.00 0.00 0.00 0.00 0.00 0.00 0.00 0.00 0.00 0.00 0.00 0.00 0.00 0.00 0.00 0.00 0.00 0.00 0.00 0.00 0.00 0.00 0.00 0.00 0.00 0.01 0.03 0.07 0.08 0.10 0.11 0.07 0.08 0.07 0.03
0.00 0.00 0.00 0.00 0.00 0.00 0.00 0.00 0.00 0.00 0.00 0.00 0.00 0.00 0.00 0.00 0.00 0.00 0.00 0.00 0.00 0.00 0.00 0.00 0.00 0.00 0.00 0.00 0.00 0.00 0.00 0.00 0.00 0.00 0.01 0.02 0.05 0.05 0.06 0.07 0.06 0.09 0.06
0.00 0.00 0.00 0.00 0.00 0.00 0.00 0.00 0.00 0.00 0.00 0.00 0.00 0.00 0.00 0.00 0.00 0.00 0.00 0.00 0.00 0.00 0.00 0.00 0.00 0.00 0.00 0.00 0.00 0.00 0.00 0.00 0.00 0.00 0.00 0.00 0.01 0.02 0.04 0.04 0.04 0.04 0.07
0.00 0.00 0.00 0.00 0.00 0.00 0.00 0.00 0.00 0.00 0.00 0.00 0.00 0.00 0.00 0.00 0.00 0.00 0.00 0.00 0.00 0.00 0.00 0.00 0.00 0.00 0.00 0.00 0.00 0.00 0.00 0.00 0.00 0.00 0.00 0.00 0.00 0.00 0.01 0.04 0.05 0.06 0.06
0.00 0.00 0.00 0.00 0.00 0.00 0.00 0.00 0.00 0.00 0.00 0.00 0.00 0.00 0.00 0.00 0.00 0.00 0.00 0.00 0.00 0.00 0.00 0.00 0.00 0.00 0.00 0.00 0.00 0.00 0.00 0.00 0.00 0.00 0.00 0.00 0.00 0.00 0.00 0.00 0.01 0.03 0.04

GFSSE_prec_precacc_021.txt.gz
Total_Precipitation_Accumulation
0.02 0.00 0.00 0.00 0.00 0.02 0.03 0.00 0.00 0.00 0.01 0.06 0.07 0.11 0.15 0.16 0.22 0.30 0.24 0.22 0.22 0.22 0.23 0.23 0.21 0.11 0.00 0.02 0.02 0.02 0.02 0.03 0.02 0.01 0.01 0.01 0.02 0.05 0.04 0.07 0.04 0.05 0.13
0.01 0.00 0.00 0.00 0.00 0.05 0.09 0.04 0.01 0.01 0.01 0.02 0.04 0.07 0.13 0.19 0.30 0.36 0.34 0.32 0.35 0.30 0.33 0.26 0.23 0.19 0.12 0.12 0.08 0.05 0.05 0.05 0.03 0.02 0.01 0.00 0.01 0.01 0.02 0.03 0.01 0.04 0.08
0.01 0.00 0.00 0.00 0.00 0.02 0.04 0.05 0.03 0.02 0.01 0.03 0.04 0.11 0.21 0.29 0.48 0.51 0.37 0.33 0.54 0.69 0.54 0.40 0.37 0.46 0.44 0.27 0.11 0.07 0.06 0.06 0.04 0.02 0.01 0.00 0.00 0.01 0.01 0.01 0.01 0.04 0.06
0.00 0.00 0.00 0.00 0.00 0.00 0.00 0.00 0.00 0.00 0.00 0.00 0.00 0.05 0.24 0.31 0.33 0.31 0.44 0.41 0.43 0.46 0.58 0.50 0.74 1.13 0.96 0.72 0.33 0.17 0.11 0.04 0.02 0.02 0.01 0.00 0.02 0.03 0.02 0.00 0.02 0.03 0.04
0.00 0.00 0.00 0.00 0.00 0.00 0.00 0.00 0.00 0.00 0.00 0.00 0.01 0.03 0.12 0.11 0.23 0.23 0.41 0.32 0.19 0.15 0.40 0.58 0.70 0.93 0.82 0.98 1.07 0.68 0.29 0.07 0.02 0.01 0.03 0.00 0.00 0.03 0.02 0.01 0.03 0.04 0.03
0.00 0.00 0.00 0.00 0.00 0.00 0.00 0.00 0.00 0.00 0.00 0.00 0.00 0.01 0.07 0.08 0.13 0.18 0.37 0.44 0.50 0.42 0.69 1.09 1.73 1.28 0.72 1.05 1.11 0.71 0.30 0.04 0.01 0.02 0.07 0.03 0.02 0.03 0.06 0.07 0.06 0.05 0.05
0.00 0.00 0.00 0.00 0.00 0.00 0.00 0.00 0.00 0.00 0.00 0.00 0.00 0.00 0.00 0.01 0.03 0.05 0.07 0.19 0.52 1.17 1.32 1.11 1.24 1.41 0.98 0.29 0.15 0.21 0.14 0.05 0.07 0.13 0.13 0.08 0.06 0.08 0.11 0.09 0.08 0.07 0.05
0.00 0.00 0.00 0.00 0.00 0.00 0.00 0.00 0.00 0.00 0.00 0.00 0.00 0.00 0.00 0.00 0.00 0.00 0.01 0.04 0.07 0.10 0.15 0.16 0.14 0.11 0.16 0.09 0.03 0.03 0.04 0.05 0.05 0.16 0.17 0.15 0.12 0.08 0.07 0.08 0.04 0.04 0.05
0.00 0.00 0.00 0.00 0.00 0.00 0.00 0.00 0.00 0.00 0.00 0.00 0.00 0.00 0.01 0.01 0.00 0.00 0.00 0.00 0.00 0.03 0.06 0.09 0.08 0.02 0.01 0.01 0.01 0.01 0.01 0.01 0.05 0.08 0.07 0.06 0.08 0.11 0.09 0.11 0.06 0.05 0.03
0.00 0.00 0.00 0.00 0.00 0.00 0.00 0.00 0.00 0.00 0.00 0.00 0.00 0.00 0.00 0.00 0.00 0.00 0.01 0.01 0.01 0.03 0.05 0.07 0.08 0.03 0.02 0.00 0.00 0.00 0.00 0.00 0.00 0.00 0.00 0.01 0.04 0.07 0.15 0.23 0.18 0.15 0.10
0.00 0.00 0.00 0.00 0.00 0.00 0.00 0.00 0.00 0.00 0.00 0.00 0.00 0.00 0.00 0.02 0.00 0.00 0.02 0.03 0.04 0.03 0.04 0.06 0.09 0.05 0.01 0.00 0.00 0.00 0.00 0.00 0.00 0.00 0.00 0.00 0.02 0.06 0.13 0.19 0.24 0.23 0.20
0.01 0.00 0.00 0.00 0.00 0.00 0.00 0.00 0.02 0.02 0.00 0.00 0.01 0.00 0.00 0.01 0.00 0.00 0.01 0.04 0.07 0.06 0.06 0.13 0.15 0.08 0.04 0.04 0.02 0.00 0.00 0.00 0.00 0.00 0.01 0.00 0.02 0.03 0.10 0.16 0.17 0.16 0.16
0.00 0.00 0.00 0.00 0.00 0.00 0.00 0.00 0.02 0.01 0.00 0.00 0.00 0.00 0.00 0.00 0.00 0.00 0.00 0.02 0.08 0.10 0.18 0.18 0.37 0.41 0.34 0.20 0.11 0.09 0.03 0.00 0.00 0.00 0.00 0.00 0.02 0.02 0.10 0.17 0.18 0.20 0.21
0.00 0.00 0.00 0.00 0.00 0.00 0.00 0.00 0.00 0.00 0.00 0.00 0.00 0.00 0.00 0.00 0.00 0.00 0.00 0.00 0.04 0.08 0.10 0.19 0.39 0.33 0.26 0.31 0.28 0.16 0.08 0.04 0.01 0.01 0.01 0.01 0.01 0.00 0.00 0.04 0.15 0.25 0.24
0.00 0.00 0.00 0.00 0.00 0.00 0.00 0.00 0.00 0.00 0.00 0.00 0.00 0.00 0.00 0.00 0.00 0.00 0.00 0.00 0.00 0.00 0.03 0.04 0.06 0.12 0.14 0.13 0.11 0.11 0.07 0.05 0.03 0.01 0.00 0.01 0.01 0.01 0.00 0.00 0.04 0.17 0.27
0.00 0.00 0.00 0.00 0.00 0.00 0.00 0.00 0.00 0.00 0.00 0.00 0.00 0.00 0.00 0.00 0.00 0.00 0.00 0.00 0.00 0.01 0.01 0.02 0.03 0.04 0.05 0.06 0.10 0.10 0.06 0.05 0.03 0.03 0.02 0.02 0.02 0.01 0.00 0.01 0.01 0.08 0.22
0.00 0.00 0.00 0.00 0.00 0.00 0.00 0.00 0.00 0.00 0.00 0.00 0.00 0.00 0.00 0.00 0.00 0.00 0.00 0.00 0.00 0.00 0.00 0.00 0.00 0.02 0.04 0.07 0.12 0.19 0.16 0.09 0.06 0.05 0.04 0.05 0.06 0.08 0.07 0.01 0.00 0.03 0.10
0.00 0.00 0.00 0.00 0.00 0.00 0.00 0.00 0.00 0.00 0.00 0.00 0.00 0.00 0.00 0.00 0.00 0.00 0.00 0.00 0.00 0.00 0.00 0.00 0.00 0.00 0.01 0.04 0.05 0.04 0.02 0.04 0.04 0.03 0.02 0.03 0.07 0.11 0.16 0.15 0.08 0.04 0.05
0.00 0.00 0.00 0.00 0.00 0.00 0.00 0.00 0.00 0.00 0.00 0.00 0.00 0.00 0.00 0.00 0.00 0.00 0.00 0.00 0.00 0.00 0.00 0.00 0.00 0.00 0.00 0.00 0.00 0.01 0.01 0.01 0.02 0.03 0.02 0.01 0.01 0.03 0.08 0.10 0.13 0.13 0.11
0.00 0.00 0.00 0.00 0.00 0.00 0.00 0.00 0.00 0.00 0.00 0.00 0.00 0.00 0.00 0.00 0.00 0.00 0.00 0.00 0.00 0.00 0.00 0.00 0.00 0.00 0.00 0.00 0.00 0.00 0.00 0.02 0.02 0.03 0.03 0.02 0.02 0.02 0.02 0.04 0.05 0.07 0.11
0.00 0.00 0.00 0.00 0.00 0.00 0.00 0.00 0.00 0.00 0.00 0.00 0.00 0.00 0.00 0.00 0.00 0.00 0.00 0.00 0.00 0.00 0.00 0.00 0.00 0.00 0.00 0.00 0.00 0.00 0.00 0.00 0.01 0.04 0.05 0.08 0.08 0.07 0.05 0.05 0.06 0.04 0.04
0.00 0.00 0.00 0.00 0.00 0.00 0.00 0.00 0.00 0.00 0.00 0.00 0.00 0.00 0.00 0.00 0.00 0.00 0.00 0.00 0.00 0.00 0.00 0.00 0.00 0.00 0.00 0.00 0.00 0.00 0.00 0.00 0.00 0.01 0.03 0.07 0.08 0.10 0.11 0.07 0.08 0.07 0.03
0.00 0.00 0.00 0.00 0.00 0.00 0.00 0.00 0.00 0.00 0.00 0.00 0.00 0.00 0.00 0.00 0.00 0.00 0.00 0.00 0.00 0.00 0.00 0.00 0.00 0.00 0.00 0.00 0.00 0.00 0.00 0.00 0.00 0.00 0.01 0.02 0.05 0.05 0.06 0.07 0.06 0.09 0.06
0.00 0.00 0.00 0.00 0.00 0.00 0.00 0.00 0.00 0.00 0.00 0.00 0.00 0.00 0.00 0.00 0.00 0.00 0.00 0.00 0.00 0.00 0.00 0.00 0.00 0.00 0.00 0.00 0.00 0.00 0.00 0.00 0.00 0.00 0.00 0.00 0.01 0.02 0.04 0.04 0.04 0.04 0.07
0.00 0.00 0.00 0.00 0.00 0.00 0.00 0.00 0.00 0.00 0.00 0.00 0.00 0.00 0.00 0.00 0.00 0.00 0.00 0.00 0.00 0.00 0.00 0.00 0.00 0.00 0.00 0.00 0.00 0.00 0.00 0.00 0.00 0.00 0.00 0.00 0.00 0.00 0.01 0.04 0.05 0.06 0.06
0.00 0.00 0.00 0.00 0.00 0.00 0.00 0.00 0.00 0.00 0.00 0.00 0.00 0.00 0.00 0.00 0.00 0.00 0.00 0.00 0.00 0.00 0.00 0.00 0.00 0.00 0.00 0.00 0.00 0.00 0.00 0.00 0.00 0.01 0.01 0.00 0.00 0.00 0.00 0.00 0.01 0.03 0.04

GFSSE_prec_precacc_027.txt.gz
Total_Precipitation_Accumulation
0.02 0.00 0.00 0.00 0.01 0.04 0.03 0.00 0.00 0.00 0.02 0.06 0.09 0.13 0.16 0.16 0.23 0.31 0.26 0.24 0.25 0.25 0.29 0.25 0.21 0.11 0.00 0.02 0.02 0.02 0.02 0.03 0.03 0.01 0.01 0.01 0.02 0.05 0.05 0.08 0.05 0.12 0.22
0.01 0.00 0.00 0.00 0.01 0.06 0.11 0.05 0.02 0.01 0.02 0.05 0.10 0.11 0.16 0.20 0.32 0.39 0.37 0.35 0.39 0.33 0.33 0.27 0.23 0.19 0.12 0.12 0.08 0.05 0.05 0.05 0.03 0.02 0.01 0.00 0.01 0.01 0.02 0.03 0.02 0.07 0.11
0.01 0.00 0.00 0.00 0.00 0.02 0.06 0.07 0.05 0.03 0.02 0.05 0.08 0.16 0.27 0.33 0.50 0.51 0.37 0.33 0.54 0.69 0.54 0.40 0.37 0.49 0.45 0.27 0.11 0.07 0.06 0.06 0.04 0.02 0.01 0.01 0.02 0.01 0.01 0.01 0.01 0.04 0.08
0.00 0.00 0.00 0.00 0.00 0.00 0.00 0.00 0.00 0.00 0.01 0.02 0.03 0.07 0.28 0.35 0.33 0.31 0.44 0.41 0.43 0.46 0.58 0.50 0.75 1.15 0.97 0.72 0.33 0.17 0.11 0.05 0.02 0.02 0.01 0.00 0.02 0.03 0.02 0.00 0.02 0.04 0.05
0.00 0.00 0.00 0.00 0.00 0.00 0.00 0.00 0.00 0.00 0.00 0.00 0.01 0.05 0.12 0.12 0.25 0.24 0.44 0.33 0.19 0.15 0.40 0.59 0.71 0.93 0.83 0.98 1.08 0.69 0.31 0.08 0.02 0.02 0.04 0.01 0.01 0.05 0.02 0.01 0.03 0.05 0.04
0.00 0.00 0.00 0.00 0.00 0.00 0.00 0.00 0.00 0.00 0.00 0.00 0.00 0.01 0.07 0.08 0.13 0.18 0.39 0.46 0.51 0.43 0.75 1.15 1.76 1.28 0.72 1.05 1.11 0.71 0.30 0.04 0.01 0.02 0.08 0.04 0.04 0.08 0.07 0.09 0.07 0.06 0.06
0.00 0.00 0.00 0.00 0.00 0.00 0.00 0.00 0.00 0.00 0.00 0.00 0.00 0.00 0.00 0.01 0.03 0.05 0.07 0.19 0.52 1.17 1.32 1.12 1.24 1.41 0.98 0.29 0.15 0.21 0.14 0.05 0.07 0.13 0.14 0.09 0.13 0.12 0.13 0.15 0.12 0.08 0.06
0.00 0.00 0.00 0.00 0.00 0.00 0.00 0.00 0.00 0.00 0.00 0.00 0.00 0.00 0.00 0.00 0.00 0.00 0.01 0.04 0.07 0.10 0.15 0.16 0.14 0.11 0.16 0.09 0.03 0.03 0.04 0.05 0.05 0.16 0.17 0.16 0.14 0.09 0.07 0.11 0.08 0.06 0.06
0.00 0.00 0.00 0.00 0.00 0.00 0.00 0.00 0.00 0.00 0.00 0.00 0.00 0.00 0.01 0.01 0.00 0.00 0.00 0.00 0.00 0.03 0.06 0.09 0.08 0.02 0.01 0.01 0.01 0.01 0.01 0.01 0.05 0.08 0.07 0.06 0.08 0.11 0.17 0.20 0.13 0.10 0.06
0.00 0.00 0.00 0.00 0.00 0.00 0.00 0.00 0.00 0.00 0.00 0.00 0.00 0.00 0.00 0.00 0.00 0.00 0.01 0.01 0.01 0.03 0.05 0.07 0.08 0.03 0.02 0.00 0.00 0.00 0.00 0.00 0.00 0.00 0.00 0.01 0.04 0.07 0.17 0.29 0.26 0.23 0.14
0.00 0.00 0.00 0.00 0.00 0.00 0.00 0.00 0.00 0.00 0.00 0.00 0.00 0.00 0.00 0.02 0.00 0.00 0.02 0.03 0.04 0.03 0.04 0.06 0.09 0.05 0.01 0.00 0.00 0.00 0.00 0.00 0.00 0.00 0.00 0.00 0.02 0.06 0.13 0.19 0.24 0.25 0.24
0.01 0.00 0.00 0.00 0.00 0.00 0.00 0.00 0.02 0.02 0.00 0.00 0.01 0.00 0.00 0.01 0.00 0.00 0.01 0.04 0.07 0.06 0.06 0.13 0.15 0.08 0.04 0.04 0.02 0.00 0.00 0.00 0.00 0.00 0.01 0.00 0.02 0.03 0.10 0.16 0.17 0.16 0.16
0.00 0.00 0.00 0.00 0.00 0.00 0.00 0.00 0.02 0.01 0.00 0.00 0.00 0.00 0.00 0.00 0.00 0.00 0.00 0.02 0.08 0.10 0.18 0.18 0.37 0.41 0.34 0.20 0.11 0.09 0.03 0.00 0.00 0.00 0.00 0.00 0.02 0.02 0.10 0.17 0.18 0.20 0.22
0.00 0.00 0.00 0.00 0.00 0.00 0.00 0.00 0.00 0.00 0.00 0.00 0.00 0.00 0.00 0.00 0.00 0.00 0.00 0.00 0.04 0.08 0.10 0.19 0.39 0.33 0.26 0.31 0.28 0.16 0.08 0.04 0.01 0.01 0.01 0.01 0.01 0.00 0.00 0.04 0.15 0.25 0.24
0.00 0.00 0.00 0.00 0.00 0.00 0.00 0.00 0.00 0.00 0.00 0.00 0.00 0.00 0.00 0.00 0.00 0.00 0.00 0.00 0.00 0.00 0.03 0.04 0.06 0.12 0.14 0.13 0.11 0.11 0.07 0.05 0.03 0.01 0.00 0.01 0.01 0.01 0.00 0.00 0.04 0.17 0.27
0.00 0.00 0.00 0.00 0.00 0.00 0.00 0.00 0.00 0.00 0.00 0.00 0.00 0.00 0.00 0.00 0.00 0.00 0.00 0.00 0.00 0.01 0.01 0.02 0.03 0.04 0.05 0.06 0.10 0.10 0.06 0.05 0.03 0.03 0.02 0.02 0.02 0.01 0.00 0.01 0.01 0.08 0.22
0.00 0.00 0.00 0.00 0.00 0.00 0.00 0.00 0.00 0.00 0.00 0.00 0.00 0.00 0.00 0.00 0.00 0.00 0.00 0.00 0.00 0.00 0.00 0.00 0.00 0.02 0.04 0.07 0.12 0.19 0.16 0.09 0.06 0.05 0.04 0.05 0.06 0.08 0.07 0.01 0.00 0.03 0.10
0.00 0.00 0.00 0.00 0.00 0.00 0.00 0.00 0.00 0.00 0.00 0.00 0.00 0.00 0.00 0.00 0.00 0.00 0.00 0.00 0.00 0.00 0.00 0.00 0.00 0.00 0.01 0.04 0.05 0.04 0.02 0.04 0.04 0.03 0.02 0.03 0.07 0.11 0.16 0.15 0.08 0.04 0.05
0.00 0.00 0.00 0.00 0.00 0.00 0.00 0.00 0.00 0.00 0.00 0.00 0.00 0.00 0.00 0.00 0.00 0.00 0.00 0.00 0.00 0.00 0.00 0.00 0.00 0.00 0.00 0.00 0.00 0.01 0.01 0.01 0.02 0.03 0.02 0.01 0.01 0.03 0.08 0.10 0.13 0.13 0.11
0.00 0.00 0.00 0.00 0.00 0.00 0.00 0.00 0.00 0.00 0.00 0.00 0.00 0.00 0.00 0.00 0.00 0.00 0.00 0.00 0.00 0.00 0.00 0.00 0.00 0.00 0.00 0.00 0.00 0.00 0.00 0.02 0.02 0.03 0.03 0.02 0.02 0.02 0.02 0.04 0.05 0.07 0.11
0.00 0.00 0.00 0.00 0.00 0.00 0.00 0.00 0.00 0.00 0.00 0.00 0.00 0.00 0.00 0.00 0.00 0.00 0.00 0.00 0.00 0.00 0.00 0.00 0.00 0.00 0.00 0.00 0.00 0.00 0.00 0.00 0.01 0.04 0.05 0.08 0.08 0.07 0.05 0.05 0.06 0.04 0.04
0.00 0.00 0.00 0.00 0.00 0.00 0.00 0.00 0.00 0.00 0.00 0.00 0.00 0.00 0.00 0.00 0.00 0.00 0.00 0.00 0.00 0.00 0.00 0.00 0.00 0.00 0.00 0.00 0.01 0.01 0.00 0.00 0.00 0.01 0.03 0.07 0.08 0.10 0.11 0.07 0.08 0.07 0.03
0.00 0.00 0.00 0.00 0.00 0.00 0.00 0.00 0.00 0.00 0.00 0.00 0.00 0.00 0.00 0.00 0.00 0.00 0.00 0.00 0.00 0.00 0.00 0.00 0.00 0.00 0.00 0.00 0.00 0.01 0.01 0.00 0.00 0.00 0.01 0.02 0.05 0.05 0.06 0.07 0.06 0.09 0.06
0.00 0.00 0.00 0.00 0.00 0.00 0.00 0.00 0.00 0.00 0.00 0.00 0.00 0.00 0.00 0.00 0.00 0.00 0.00 0.00 0.00 0.00 0.00 0.00 0.00 0.00 0.00 0.00 0.00 0.00 0.01 0.02 0.02 0.01 0.00 0.00 0.01 0.02 0.04 0.04 0.04 0.04 0.07
0.00 0.00 0.00 0.00 0.00 0.00 0.00 0.00 0.00 0.00 0.00 0.00 0.00 0.00 0.00 0.00 0.00 0.00 0.00 0.00 0.00 0.00 0.00 0.00 0.00 0.00 0.00 0.00 0.00 0.00 0.01 0.01 0.01 0.02 0.01 0.01 0.02 0.00 0.01 0.04 0.05 0.06 0.06
0.00 0.00 0.00 0.00 0.00 0.00 0.00 0.00 0.00 0.00 0.00 0.00 0.00 0.00 0.00 0.00 0.00 0.00 0.00 0.00 0.00 0.00 0.00 0.00 0.00 0.00 0.00 0.00 0.00 0.00 0.00 0.00 0.00 0.01 0.01 0.00 0.03 0.05 0.02 0.02 0.02 0.03 0.04

GFSSE_prec_precacc_030.txt.gz
Total_Precipitation_Accumulation
0.02 0.00 0.00 0.00 0.01 0.04 0.03 0.00 0.00 0.00 0.02 0.06 0.09 0.13 0.16 0.16 0.23 0.31 0.27 0.26 0.28 0.26 0.30 0.25 0.21 0.11 0.00 0.02 0.02 0.02 0.02 0.03 0.03 0.01 0.01 0.01 0.02 0.05 0.05 0.08 0.05 0.12 0.23
0.01 0.00 0.00 0.00 0.01 0.06 0.11 0.05 0.02 0.01 0.02 0.05 0.10 0.12 0.16 0.21 0.32 0.40 0.38 0.37 0.41 0.33 0.33 0.27 0.23 0.19 0.12 0.12 0.08 0.05 0.05 0.05 0.03 0.02 0.01 0.00 0.01 0.02 0.02 0.03 0.02 0.08 0.13
0.01 0.00 0.00 0.00 0.00 0.02 0.06 0.07 0.05 0.03 0.02 0.05 0.08 0.16 0.27 0.33 0.50 0.51 0.37 0.33 0.54 0.69 0.54 0.40 0.37 0.49 0.45 0.27 0.11 0.07 0.06 0.06 0.04 0.02 0.01 0.05 0.09 0.06 0.02 0.01 0.01 0.05 0.09
0.00 0.00 0.00 0.00 0.00 0.00 0.00 0.00 0.00 0.00 0.01 0.02 0.03 0.07 0.28 0.35 0.33 0.31 0.44 0.41 0.43 0.47 0.58 0.50 0.75 1.15 0.97 0.72 0.34 0.17 0.11 0.05 0.02 0.02 0.02 0.08 0.11 0.08 0.03 0.00 0.02 0.04 0.06
0.00 0.00 0.00 0.00 0.00 0.00 0.00 0.00 0.00 0.00 0.00 0.00 0.01 0.05 0.12 0.12 0.25 0.24 0.44 0.33 0.19 0.18 0.45 0.60 0.71 0.93 0.83 0.98 1.08 0.69 0.31 0.08 0.02 0.02 0.04 0.01 0.08 0.09 0.02 0.02 0.03 0.05 0.04
0.00 0.00 0.00 0.00 0.00 0.00 0.00 0.00 0.00 0.00 0.00 0.00 0.00 0.01 0.07 0.08 0.13 0.18 0.39 0.46 0.51 0.44 0.77 1.15 1.76 1.28 0.72 1.05 1.11 0.71 0.30 0.04 0.01 0.02 0.08 0.06 0.11 0.12 0.10 0.09 0.08 0.06 0.07
0.00 0.00 0.00 0.00 0.00 0.00 0.00 0.00 0.00 0.00 0.00 0.00 0.00 0.00 0.00 0.01 0.03 0.05 0.07 0.19 0.52 1.17 1.32 1.12 1.24 1.41 0.98 0.29 0.15 0.21 0.14 0.05 0.07 0.13 0.14 0.10 0.14 0.12 0.13 0.15 0.15 0.09 0.07
0.00 0.00 0.00 0.00 0.00 0.00 0.00 0.00 0.00 0.00 0.00 0.00 0.00 0.00 0.00 0.00 0.00 0.00 0.01 0.04 0.07 0.10 0.15 0.16 0.14 0.11 0.16 0.09 0.03 0.03 0.04 0.05 0.05 0.16 0.17 0.16 0.14 0.09 0.07 0.11 0.09 0.07 0.07
0.00 0.00 0.00 0.00 0.00 0.00 0.00 0.00 0.00 0.00 0.00 0.00 0.00 0.00 0.01 0.01 0.00 0.00 0.00 0.00 0.00 0.03 0.06 0.09 0.08 0.02 0.01 0.01 0.01 0.01 0.01 0.01 0.05 0.08 0.07 0.06 0.08 0.11 0.17 0.20 0.15 0.11 0.08
0.00 0.00 0.00 0.00 0.00 0.00 0.00 0.00 0.00 0.00 0.00 0.00 0.00 0.00 0.00 0.00 0.00 0.00 0.01 0.01 0.01 0.03 0.05 0.07 0.08 0.03 0.02 0.00 0.00 0.00 0.00 0.00 0.00 0.00 0.00 0.01 0.04 0.07 0.17 0.29 0.27 0.24 0.16
0.00 0.00 0.00 0.00 0.00 0.00 0.00 0.00 0.00 0.00 0.00 0.00 0.00 0.00 0.00 0.02 0.00 0.00 0.02 0.03 0.04 0.03 0.04 0.06 0.09 0.05 0.01 0.00 0.00 0.00 0.00 0.00 0.00 0.00 0.00 0.00 0.02 0.06 0.13 0.19 0.24 0.25 0.24
0.01 0.00 0.00 0.00 0.00 0.00 0.00 0.00 0.02 0.02 0.00 0.00 0.01 0.00 0.00 0.01 0.00 0.00 0.01 0.04 0.07 0.06 0.06 0.13 0.15 0.08 0.04 0.04 0.02 0.00 0.00 0.00 0.00 0.00 0.01 0.00 0.02 0.03 0.10 0.16 0.17 0.16 0.16
0.00 0.00 0.00 0.00 0.00 0.00 0.00 0.00 0.02 0.01 0.00 0.00 0.00 0.00 0.00 0.00 0.00 0.00 0.00 0.02 0.09 0.10 0.18 0.18 0.37 0.41 0.34 0.20 0.11 0.09 0.03 0.00 0.00 0.00 0.00 0.00 0.02 0.02 0.10 0.17 0.18 0.20 0.22
0.00 0.00 0.00 0.00 0.00 0.00 0.00 0.00 0.00 0.00 0.00 0.00 0.00 0.00 0.00 0.00 0.00 0.00 0.00 0.00 0.04 0.08 0.10 0.19 0.39 0.33 0.26 0.31 0.28 0.16 0.08 0.04 0.01 0.01 0.01 0.01 0.01 0.00 0.00 0.04 0.15 0.25 0.24
0.00 0.00 0.00 0.00 0.00 0.00 0.00 0.00 0.00 0.00 0.00 0.00 0.00 0.00 0.00 0.00 0.00 0.00 0.00 0.00 0.00 0.00 0.03 0.04 0.06 0.12 0.14 0.13 0.11 0.11 0.07 0.05 0.03 0.01 0.00 0.01 0.01 0.01 0.00 0.00 0.04 0.17 0.27
0.00 0.00 0.00 0.00 0.00 0.00 0.00 0.00 0.00 0.00 0.00 0.00 0.00 0.00 0.00 0.00 0.00 0.00 0.00 0.00 0.00 0.01 0.01 0.02 0.03 0.04 0.05 0.06 0.10 0.10 0.06 0.05 0.03 0.03 0.02 0.02 0.02 0.01 0.00 0.01 0.01 0.08 0.22
0.00 0.00 0.00 0.00 0.00 0.00 0.00 0.00 0.00 0.00 0.00 0.00 0.00 0.00 0.00 0.00 0.00 0.00 0.00 0.00 0.00 0.00 0.00 0.00 0.00 0.02 0.04 0.07 0.12 0.19 0.16 0.09 0.06 0.05 0.04 0.05 0.06 0.08 0.07 0.01 0.00 0.03 0.10
0.00 0.00 0.00 0.00 0.00 0.00 0.00 0.00 0.00 0.00 0.00 0.00 0.00 0.00 0.00 0.00 0.00 0.00 0.00 0.00 0.00 0.00 0.00 0.00 0.00 0.00 0.01 0.04 0.05 0.04 0.02 0.04 0.04 0.03 0.02 0.03 0.07 0.11 0.16 0.15 0.08 0.04 0.05
0.00 0.00 0.00 0.00 0.00 0.00 0.00 0.00 0.00 0.00 0.00 0.00 0.00 0.00 0.00 0.00 0.00 0.00 0.00 0.00 0.00 0.00 0.00 0.00 0.00 0.00 0.00 0.00 0.00 0.01 0.01 0.01 0.02 0.03 0.02 0.01 0.01 0.03 0.08 0.10 0.13 0.13 0.11
0.00 0.00 0.00 0.00 0.00 0.00 0.01 0.00 0.00 0.00 0.00 0.00 0.00 0.00 0.00 0.00 0.00 0.00 0.00 0.00 0.00 0.00 0.00 0.00 0.00 0.00 0.00 0.00 0.00 0.00 0.00 0.02 0.02 0.03 0.03 0.02 0.02 0.02 0.02 0.04 0.05 0.07 0.11
0.00 0.00 0.00 0.00 0.03 0.02 0.00 0.00 0.00 0.00 0.00 0.00 0.00 0.00 0.00 0.00 0.00 0.00 0.00 0.00 0.00 0.00 0.00 0.00 0.00 0.00 0.00 0.00 0.01 0.00 0.00 0.00 0.01 0.04 0.05 0.08 0.08 0.07 0.05 0.05 0.06 0.04 0.04
0.00 0.00 0.00 0.00 0.00 0.00 0.00 0.00 0.00 0.00 0.00 0.00 0.00 0.00 0.00 0.00 0.00 0.00 0.00 0.00 0.00 0.00 0.00 0.00 0.00 0.00 0.00 0.00 0.01 0.01 0.00 0.00 0.00 0.01 0.03 0.07 0.08 0.10 0.11 0.07 0.08 0.07 0.03
0.00 0.00 0.00 0.00 0.00 0.00 0.00 0.00 0.00 0.00 0.00 0.00 0.00 0.00 0.00 0.00 0.00 0.00 0.00 0.00 0.00 0.00 0.00 0.00 0.00 0.00 0.00 0.00 0.00 0.02 0.02 0.01 0.01 0.00 0.01 0.05 0.06 0.06 0.07 0.07 0.06 0.09 0.06
0.00 0.00 0.00 0.00 0.00 0.00 0.00 0.00 0.00 0.00 0.00 0.00 0.00 0.00 0.00 0.00 0.00 0.00 0.00 0.00 0.00 0.00 0.00 0.00 0.00 0.00 0.00 0.00 0.00 0.00 0.02 0.04 0.04 0.02 0.00 0.00 0.04 0.07 0.08 0.08 0.08 0.07 0.07
0.00 0.00 0.00 0.00 0.00 0.00 0.00 0.00 0.00 0.00 0.00 0.00 0.00 0.00 0.00 0.00 0.00 0.00 0.00 0.00 0.00 0.00 0.00 0.00 0.00 0.00 0.00 0.00 0.00 0.00 0.01 0.01 0.01 0.03 0.01 0.01 0.03 0.05 0.05 0.09 0.10 0.11 0.09
0.00 0.00 0.00 0.00 0.00 0.00 0.00 0.00 0.00 0.00 0.00 0.00 0.00 0.00 0.00 0.00 0.00 0.00 0.00 0.00 0.00 0.00 0.00 0.00 0.00 0.00 0.00 0.00 0.00 0.00 0.00 0.00 0.00 0.01 0.01 0.00 0.03 0.07 0.04 0.06 0.08 0.09 0.10

GFSSE_prec_precacc_033.txt.gz
Total_Precipitation_Accumulation
0.02 0.00 0.00 0.00 0.01 0.04 0.03 0.00 0.00 0.00 0.02 0.06 0.09 0.13 0.16 0.16 0.23 0.31 0.27 0.26 0.28 0.26 0.30 0.25 0.21 0.11 0.00 0.02 0.02 0.02 0.02 0.03 0.03 0.01 0.01 0.03 0.06 0.05 0.05 0.08 0.05 0.12 0.25
0.01 0.00 0.00 0.00 0.01 0.06 0.11 0.05 0.02 0.01 0.02 0.05 0.10 0.12 0.16 0.21 0.32 0.40 0.38 0.37 0.41 0.33 0.33 0.27 0.23 0.19 0.12 0.12 0.08 0.05 0.05 0.05 0.03 0.02 0.01 0.00 0.03 0.04 0.03 0.04 0.03 0.09 0.14
0.01 0.00 0.00 0.00 0.00 0.02 0.06 0.07 0.05 0.03 0.02 0.05 0.08 0.16 0.27 0.33 0.50 0.51 0.37 0.33 0.54 0.69 0.54 0.40 0.37 0.49 0.45 0.27 0.11 0.07 0.06 0.06 0.04 0.02 0.01 0.08 0.17 0.10 0.08 0.04 0.03 0.05 0.09
0.01 0.00 0.00 0.00 0.00 0.00 0.00 0.00 0.00 0.00 0.01 0.02 0.03 0.07 0.28 0.35 0.33 0.31 0.44 0.41 0.43 0.47 0.59 0.50 0.75 1.15 0.97 0.72 0.34 0.17 0.11 0.05 0.02 0.02 0.02 0.10 0.18 0.16 0.12 0.05 0.06 0.05 0.06
0.01 0.00 0.00 0.00 0.00 0.00 0.00 0.00 0.00 0.00 0.00 0.00 0.01 0.05 0.12 0.12 0.25 0.24 0.44 0.33 0.19 0.18 0.45 0.60 0.71 0.93 0.83 0.98 1.08 0.69 0.31 0.08 0.02 0.02 0.04 0.02 0.11 0.18 0.12 0.07 0.07 0.09 0.05
0.00 0.00 0.00 0.00 0.00 0.00 0.00 0.00 0.00 0.00 0.00 0.00 0.00 0.01 0.07 0.08 0.13 0.18 0.39 0.46 0.51 0.44 0.77 1.15 1.76 1.28 0.72 1.05 1.11 0.71 0.30 0.04 0.01 0.02 0.08 0.06 0.12 0.19 0.14 0.11 0.09 0.08 0.08
0.00 0.00 0.00 0.00 0.00 0.00 0.00 0.00 0.00 0.00 0.00 0.00 0.00 0.00 0.00 0.01 0.03 0.05 0.07 0.19 0.52 1.17 1.32 1.12 1.24 1.41 0.98 0.29 0.15 0.21 0.14 0.05 0.07 0.13 0.14 0.10 0.14 0.16 0.15 0.16 0.15 0.10 0.08
0.00 0.00 0.00 0.00 0.00 0.00 0.00 0.00 0.00 0.00 0.00 0.00 0.00 0.00 0.00 0.00 0.00 0.00 0.01 0.04 0.07 0.10 0.15 0.16 0.14 0.11 0.16 0.09 0.03 0.03 0.04 0.05 0.05 0.16 0.17 0.16 0.14 0.09 0.07 0.13 0.11 0.08 0.07
0.00 0.00 0.00 0.00 0.00 0.00 0.00 0.00 0.00 0.00 0.00 0.00 0.00 0.00 0.01 0.01 0.00 0.00 0.00 0.00 0.00 0.03 0.06 0.09 0.08 0.02 0.01 0.01 0.01 0.01 0.01 0.01 0.05 0.08 0.07 0.06 0.08 0.11 0.17 0.20 0.15 0.13 0.08
0.00 0.00 0.00 0.00 0.00 0.00 0.00 0.00 0.00 0.00 0.00 0.00 0.00 0.00 0.00 0.00 0.00 0.00 0.01 0.01 0.01 0.03 0.05 0.07 0.08 0.03 0.02 0.00 0.00 0.00 0.00 0.00 0.00 0.00 0.00 0.01 0.04 0.07 0.17 0.29 0.27 0.24 0.18
0.00 0.00 0.00 0.00 0.00 0.00 0.00 0.00 0.00 0.00 0.00 0.00 0.00 0.00 0.00 0.02 0.00 0.00 0.02 0.03 0.04 0.03 0.04 0.06 0.09 0.05 0.01 0.00 0.00 0.00 0.00 0.00 0.00 0.00 0.00 0.00 0.02 0.06 0.13 0.19 0.24 0.25 0.24
0.01 0.00 0.00 0.00 0.00 0.00 0.00 0.00 0.02 0.02 0.00 0.00 0.01 0.00 0.00 0.01 0.00 0.00 0.01 0.04 0.07 0.06 0.06 0.13 0.15 0.08 0.04 0.04 0.02 0.00 0.00 0.00 0.00 0.00 0.01 0.00 0.02 0.03 0.10 0.16 0.17 0.16 0.16
0.00 0.00 0.00 0.00 0.00 0.00 0.00 0.00 0.02 0.01 0.00 0.00 0.00 0.00 0.00 0.00 0.00 0.00 0.00 0.02 0.09 0.10 0.18 0.18 0.37 0.41 0.34 0.20 0.11 0.09 0.03 0.00 0.00 0.00 0.00 0.00 0.02 0.02 0.10 0.17 0.18 0.20 0.22
0.00 0.00 0.00 0.00 0.00 0.00 0.00 0.00 0.00 0.00 0.00 0.00 0.00 0.00 0.00 0.00 0.00 0.00 0.00 0.00 0.04 0.08 0.10 0.19 0.39 0.33 0.26 0.31 0.28 0.16 0.08 0.04 0.01 0.01 0.01 0.01 0.01 0.00 0.00 0.04 0.15 0.25 0.24
0.00 0.00 0.00 0.00 0.00 0.00 0.00 0.00 0.00 0.00 0.00 0.00 0.00 0.00 0.00 0.00 0.00 0.00 0.00 0.00 0.00 0.00 0.03 0.04 0.06 0.12 0.14 0.13 0.11 0.11 0.07 0.05 0.03 0.01 0.00 0.01 0.01 0.01 0.00 0.00 0.04 0.17 0.27
0.00 0.00 0.00 0.00 0.00 0.00 0.00 0.00 0.00 0.00 0.00 0.00 0.00 0.00 0.00 0.00 0.00 0.00 0.00 0.00 0.00 0.01 0.01 0.02 0.03 0.04 0.05 0.06 0.10 0.10 0.06 0.05 0.03 0.03 0.02 0.02 0.02 0.01 0.00 0.01 0.01 0.08 0.22
0.00 0.00 0.00 0.00 0.00 0.00 0.00 0.00 0.00 0.00 0.00 0.00 0.00 0.00 0.00 0.00 0.00 0.00 0.00 0.00 0.00 0.00 0.00 0.00 0.00 0.02 0.04 0.07 0.12 0.19 0.16 0.09 0.06 0.05 0.04 0.05 0.06 0.08 0.07 0.01 0.00 0.03 0.10
0.00 0.00 0.00 0.00 0.10 0.06 0.02 0.00 0.00 0.00 0.00 0.00 0.00 0.00 0.00 0.00 0.00 0.00 0.00 0.00 0.00 0.00 0.00 0.00 0.00 0.00 0.01 0.04 0.05 0.04 0.02 0.04 0.04 0.03 0.02 0.03 0.07 0.11 0.16 0.15 0.08 0.04 0.05
0.00 0.00 0.01 0.00 0.04 0.14 0.11 0.03 0.00 0.00 0.00 0.00 0.00 0.00 0.00 0.00 0.00 0.00 0.00 0.00 0.00 0.00 0.00 0.00 0.00 0.00 0.00 0.00 0.00 0.01 0.01 0.01 0.02 0.03 0.02 0.01 0.01 0.03 0.08 0.10 0.13 0.13 0.11
0.00 0.00 0.02 0.01 0.06 0.08 0.07 0.02 0.01 0.00 0.00 0.00 0.00 0.00 0.00 0.00 0.00 0.00 0.00 0.00 0.00 0.00 0.00 0.00 0.00 0.00 0.00 0.00 0.00 0.00 0.00 0.02 0.02 0.03 0.03 0.02 0.02 0.02 0.02 0.04 0.05 0.07 0.11
0.01 0.01 0.01 0.00 0.06 0.05 0.02 0.01 0.00 0.00 0.00 0.00 0.00 0.00 0.00 0.00 0.00 0.00 0.00 0.00 0.00 0.00 0.00 0.00 0.00 0.00 0.00 0.00 0.01 0.00 0.00 0.00 0.01 0.04 0.05 0.08 0.08 0.07 0.05 0.05 0.06 0.04 0.04
0.01 0.00 0.00 0.00 0.00 0.00 0.00 0.00 0.00 0.00 0.00 0.00 0.00 0.00 0.00 0.00 0.00 0.00 0.00 0.00 0.00 0.00 0.00 0.00 0.00 0.00 0.00 0.00 0.01 0.01 0.00 0.00 0.00 0.01 0.03 0.07 0.08 0.12 0.12 0.08 0.08 0.07 0.03
0.00 0.00 0.00 0.00 0.00 0.00 0.00 0.00 0.00 0.00 0.00 0.00 0.00 0.00 0.00 0.00 0.00 0.00 0.00 0.00 0.00 0.00 0.00 0.00 0.00 0.00 0.00 0.00 0.00 0.02 0.02 0.01 0.01 0.00 0.01 0.05 0.07 0.07 0.08 0.09 0.08 0.09 0.06
0.00 0.00 0.00 0.00 0.00 0.00 0.00 0.00 0.00 0.00 0.00 0.00 0.00 0.00 0.00 0.00 0.00 0.00 0.00 0.00 0.00 0.00 0.00 0.00 0.00 0.00 0.00 0.00 0.00 0.00 0.02 0.05 0.04 0.02 0.00 0.00 0.04 0.07 0.11 0.13 0.14 0.13 0.11
0.00 0.00 0.00 0.00 0.00 0.00 0.00 0.00 0.00 0.00 0.00 0.00 0.00 0.00 0.00 0.00 0.00 0.00 0.00 0.00 0.00 0.00 0.00 0.00 0.00 0.00 0.00 0.00 0.00 0.00 0.01 0.01 0.01 0.03 0.01 0.01 0.03 0.05 0.06 0.11 0.15 0.21 0.25
0.00 0.00 0.00 0.00 0.00 0.00 0.00 0.00 0.00 0.00 0.00 0.00 0.00 0.00 0.00 0.00 0.00 0.00 0.00 0.00 0.00 0.00 0.00 0.00 0.00 0.00 0.00 0.00 0.00 0.00 0.00 0.00 0.00 0.01 0.01 0.00 0.03 0.07 0.04 0.07 0.08 0.12 0.18

GFSSE_prec_precacc_036.txt.gz
Total_Precipitation_Accumulation
0.02 0.00 0.00 0.00 0.01 0.04 0.03 0.00 0.00 0.00 0.02 0.06 0.09 0.13 0.16 0.16 0.23 0.31 0.28 0.27 0.29 0.26 0.30 0.25 0.21 0.11 0.00 0.02 0.02 0.02 0.02 0.03 0.03 0.01 0.01 0.03 0.09 0.07 0.05 0.15 0.07 0.13 0.25
0.01 0.00 0.00 0.00 0.01 0.06 0.11 0.05 0.02 0.01 0.02 0.05 0.10 0.12 0.16 0.21 0.32 0.40 0.38 0.37 0.41 0.33 0.33 0.27 0.23 0.19 0.12 0.12 0.08 0.05 0.05 0.05 0.03 0.02 0.01 0.01 0.06 0.10 0.05 0.07 0.03 0.09 0.14
0.01 0.00 0.00 0.00 0.00 0.02 0.06 0.07 0.05 0.03 0.02 0.05 0.08 0.16 0.27 0.33 0.50 0.51 0.37 0.33 0.54 0.69 0.54 0.40 0.37 0.49 0.45 0.27 0.11 0.07 0.06 0.06 0.04 0.02 0.01 0.12 0.21 0.13 0.12 0.07 0.06 0.07 0.09
0.01 0.00 0.00 0.00 0.00 0.00 0.00 0.00 0.00 0.00 0.01 0.02 0.03 0.07 0.28 0.35 0.33 0.31 0.44 0.41 0.43 0.47 0.59 0.50 0.75 1.15 0.97 0.72 0.34 0.17 0.11 0.05 0.02 0.02 0.02 0.12 0.22 0.16 0.12 0.06 0.09 0.08 0.07
0.01 0.00 0.00 0.00 0.00 0.00 0.00 0.00 0.00 0.00 0.00 0.00 0.01 0.05 0.12 0.12 0.25 0.24 0.44 0.33 0.19 0.18 0.45 0.60 0.71 0.93 0.83 0.98 1.08 0.69 0.31 0.08 0.02 0.02 0.04 0.03 0.12 0.20 0.13 0.09 0.08 0.10 0.05
0.00 0.00 0.00 0.00 0.00 0.00 0.00 0.00 0.00 0.00 0.00 0.00 0.00 0.01 0.07 0.08 0.13 0.18 0.39 0.46 0.51 0.44 0.77 1.15 1.76 1.28 0.72 1.05 1.11 0.71 0.30 0.04 0.01 0.02 0.08 0.06 0.12 0.21 0.17 0.14 0.10 0.08 0.08
0.00 0.00 0.00 0.00 0.00 0.00 0.00 0.00 0.00 0.00 0.00 0.00 0.00 0.00 0.00 0.01 0.03 0.05 0.07 0.19 0.52 1.17 1.32 1.12 1.24 1.41 0.98 0.29 0.15 0.21 0.14 0.05 0.07 0.13 0.14 0.10 0.15 0.20 0.20 0.18 0.16 0.11 0.09
0.00 0.00 0.00 0.00 0.00 0.00 0.00 0.00 0.00 0.00 0.00 0.00 0.00 0.00 0.00 0.00 0.00 0.00 0.01 0.04 0.07 0.10 0.15 0.16 0.14 0.11 0.16 0.09 0.03 0.03 0.04 0.05 0.05 0.16 0.17 0.16 0.15 0.11 0.10 0.13 0.12 0.09 0.10
0.00 0.00 0.00 0.00 0.00 0.00 0.00 0.00 0.00 0.00 0.00 0.00 0.00 0.00 0.01 0.01 0.00 0.00 0.00 0.00 0.00 0.03 0.06 0.09 0.08 0.02 0.01 0.01 0.01 0.01 0.01 0.01 0.05 0.08 0.07 0.06 0.08 0.11 0.17 0.20 0.15 0.14 0.09
0.00 0.00 0.00 0.00 0.00 0.00 0.00 0.00 0.00 0.00 0.00 0.00 0.00 0.00 0.00 0.00 0.00 0.00 0.01 0.01 0.01 0.03 0.05 0.07 0.08 0.03 0.02 0.00 0.00 0.00 0.00 0.00 0.00 0.00 0.00 0.01 0.04 0.07 0.17 0.29 0.27 0.24 0.18
0.00 0.00 0.00 0.00 0.00 0.00 0.00 0.00 0.00 0.00 0.00 0.00 0.00 0.00 0.00 0.02 0.00 0.00 0.02 0.03 0.04 0.03 0.04 0.06 0.09 0.05 0.01 0.00 0.00 0.00 0.00 0.00 0.00 0.00 0.00 0.00 0.02 0.06 0.13 0.19 0.24 0.25 0.24
0.01 0.00 0.00 0.00 0.00 0.00 0.00 0.00 0.02 0.02 0.00 0.00 0.01 0.00 0.00 0.01 0.00 0.00 0.01 0.04 0.07 0.06 0.06 0.13 0.15 0.08 0.04 0.04 0.02 0.00 0.00 0.00 0.00 0.00 0.01 0.00 0.02 0.03 0.10 0.16 0.17 0.16 0.16
0.00 0.00 0.00 0.00 0.00 0.00 0.00 0.00 0.02 0.01 0.00 0.00 0.00 0.00 0.00 0.00 0.00 0.00 0.00 0.02 0.09 0.10 0.18 0.18 0.37 0.41 0.34 0.20 0.11 0.09 0.03 0.00 0.00 0.00 0.00 0.00 0.02 0.02 0.10 0.17 0.18 0.20 0.22
0.00 0.00 0.00 0.00 0.00 0.00 0.00 0.00 0.00 0.00 0.00 0.00 0.00 0.00 0.00 0.00 0.00 0.00 0.00 0.00 0.04 0.08 0.10 0.19 0.39 0.33 0.26 0.31 0.28 0.16 0.08 0.04 0.01 0.01 0.01 0.01 0.01 0.00 0.00 0.04 0.15 0.25 0.24
0.00 0.00 0.00 0.00 0.00 0.00 0.00 0.00 0.00 0.00 0.00 0.00 0.00 0.00 0.00 0.00 0.00 0.00 0.00 0.00 0.00 0.00 0.03 0.04 0.06 0.12 0.14 0.13 0.11 0.11 0.07 0.05 0.03 0.01 0.00 0.01 0.01 0.01 0.00 0.00 0.04 0.17 0.27
0.00 0.00 0.00 0.00 0.00 0.00 0.00 0.00 0.00 0.00 0.00 0.00 0.00 0.00 0.00 0.00 0.00 0.00 0.00 0.00 0.00 0.01 0.01 0.02 0.03 0.04 0.05 0.06 0.10 0.10 0.06 0.05 0.03 0.03 0.02 0.02 0.02 0.01 0.00 0.01 0.01 0.08 0.22
0.00 0.00 0.00 0.00 0.01 0.04 0.01 0.00 0.00 0.00 0.00 0.00 0.00 0.00 0.00 0.00 0.00 0.00 0.00 0.00 0.00 0.00 0.00 0.00 0.00 0.02 0.04 0.07 0.12 0.19 0.16 0.09 0.06 0.05 0.04 0.05 0.06 0.08 0.07 0.01 0.00 0.03 0.10
0.00 0.00 0.00 0.03 0.17 0.18 0.10 0.01 0.00 0.00 0.00 0.00 0.00 0.00 0.00 0.00 0.00 0.00 0.00 0.00 0.00 0.00 0.00 0.00 0.00 0.00 0.01 0.04 0.05 0.04 0.02 0.04 0.04 0.03 0.02 0.03 0.07 0.11 0.16 0.15 0.08 0.04 0.05
0.00 0.00 0.03 0.12 0.12 0.27 0.19 0.06 0.01 0.00 0.00 0.00 0.00 0.00 0.00 0.00 0.00 0.00 0.00 0.00 0.00 0.00 0.00 0.00 0.00 0.00 0.00 0.00 0.00 0.01 0.01 0.01 0.02 0.03 0.02 0.01 0.01 0.03 0.08 0.10 0.13 0.13 0.11
0.00 0.01 0.09 0.15 0.21 0.22 0.19 0.06 0.02 0.00 0.00 0.00 0.00 0.00 0.00 0.00 0.00 0.00 0.00 0.00 0.00 0.00 0.00 0.00 0.00 0.00 0.00 0.00 0.00 0.00 0.00 0.02 0.02 0.03 0.03 0.02 0.02 0.02 0.02 0.04 0.05 0.07 0.11
0.04 0.07 0.08 0.11 0.18 0.14 0.07 0.03 0.01 0.00 0.00 0.00 0.00 0.00 0.00 0.00 0.00 0.00 0.00 0.00 0.00 0.00 0.00 0.00 0.00 0.00 0.00 0.00 0.01 0.00 0.00 0.00 0.01 0.04 0.05 0.08 0.08 0.07 0.05 0.05 0.06 0.04 0.04
0.07 0.07 0.04 0.01 0.00 0.00 0.00 0.00 0.00 0.00 0.00 0.00 0.00 0.00 0.00 0.00 0.00 0.00 0.00 0.00 0.00 0.00 0.00 0.00 0.00 0.00 0.00 0.00 0.01 0.01 0.00 0.00 0.00 0.01 0.03 0.07 0.08 0.12 0.12 0.08 0.08 0.07 0.03
0.01 0.00 0.00 0.00 0.00 0.00 0.00 0.00 0.00 0.00 0.00 0.00 0.00 0.00 0.00 0.00 0.00 0.00 0.00 0.00 0.00 0.00 0.00 0.00 0.00 0.00 0.00 0.00 0.00 0.02 0.02 0.01 0.01 0.00 0.01 0.05 0.07 0.07 0.08 0.09 0.08 0.09 0.06
0.00 0.00 0.00 0.00 0.00 0.00 0.00 0.00 0.00 0.00 0.00 0.00 0.00 0.00 0.00 0.00 0.00 0.00 0.00 0.00 0.00 0.00 0.00 0.00 0.00 0.00 0.00 0.00 0.00 0.00 0.02 0.05 0.04 0.03 0.00 0.00 0.04 0.07 0.11 0.13 0.14 0.14 0.13
0.00 0.00 0.00 0.00 0.00 0.00 0.00 0.00 0.00 0.00 0.00 0.00 0.00 0.00 0.00 0.00 0.00 0.00 0.00 0.00 0.00 0.00 0.00 0.00 0.00 0.00 0.00 0.00 0.00 0.00 0.01 0.01 0.01 0.03 0.01 0.01 0.03 0.05 0.06 0.11 0.15 0.21 0.26
0.00 0.00 0.00 0.00 0.00 0.00 0.00 0.00 0.00 0.00 0.00 0.00 0.00 0.00 0.00 0.00 0.00 0.00 0.00 0.00 0.00 0.00 0.00 0.00 0.00 0.00 0.00 0.00 0.00 0.00 0.00 0.00 0.00 0.01 0.02 0.00 0.03 0.07 0.04 0.07 0.08 0.12 0.18

GFSSE_prec_precacc_039.txt.gz
Total_Precipitation_Accumulation
0.02 0.00 0.00 0.00 0.01 0.04 0.03 0.00 0.00 0.00 0.02 0.06 0.09 0.13 0.16 0.16 0.23 0.31 0.28 0.28 0.30 0.27 0.30 0.25 0.21 0.11 0.00 0.02 0.02 0.02 0.02 0.03 0.03 0.01 0.01 0.03 0.09 0.07 0.05 0.15 0.07 0.13 0.26
0.01 0.00 0.00 0.00 0.01 0.06 0.11 0.05 0.02 0.01 0.02 0.05 0.10 0.12 0.16 0.21 0.32 0.40 0.38 0.37 0.41 0.33 0.33 0.27 0.23 0.19 0.12 0.12 0.08 0.05 0.05 0.05 0.03 0.02 0.01 0.01 0.06 0.10 0.05 0.07 0.04 0.10 0.14
0.01 0.00 0.00 0.00 0.00 0.02 0.06 0.07 0.05 0.03 0.02 0.05 0.08 0.16 0.27 0.33 0.50 0.51 0.37 0.33 0.54 0.69 0.54 0.40 0.37 0.49 0.45 0.27 0.11 0.07 0.06 0.06 0.04 0.02 0.01 0.12 0.21 0.14 0.13 0.07 0.07 0.10 0.11
0.01 0.00 0.00 0.00 0.00 0.00 0.00 0.00 0.00 0.00 0.01 0.02 0.03 0.07 0.28 0.35 0.33 0.31 0.44 0.41 0.43 0.47 0.59 0.50 0.75 1.15 0.97 0.72 0.34 0.17 0.11 0.05 0.02 0.02 0.02 0.12 0.22 0.16 0.12 0.06 0.09 0.09 0.09
0.01 0.00 0.00 0.00 0.00 0.00 0.00 0.00 0.00 0.00 0.00 0.00 0.01 0.05 0.12 0.12 0.25 0.24 0.44 0.33 0.19 0.18 0.45 0.60 0.71 0.93 0.83 0.98 1.08 0.69 0.31 0.08 0.02 0.02 0.04 0.03 0.13 0.20 0.13 0.09 0.08 0.10 0.05
0.00 0.00 0.00 0.00 0.00 0.00 0.00 0.00 0.00 0.00 0.00 0.00 0.00 0.01 0.07 0.08 0.13 0.18 0.39 0.46 0.51 0.44 0.77 1.15 1.76 1.28 0.72 1.05 1.11 0.71 0.30 0.04 0.01 0.02 0.08 0.06 0.12 0.21 0.17 0.14 0.10 0.08 0.08
0.00 0.00 0.00 0.00 0.00 0.00 0.00 0.00 0.00 0.00 0.00 0.00 0.00 0.00 0.00 0.01 0.03 0.05 0.07 0.19 0.52 1.17 1.32 1.12 1.24 1.41 0.98 0.29 0.15 0.21 0.14 0.05 0.07 0.13 0.14 0.10 0.15 0.22 0.21 0.19 0.16 0.11 0.09
0.00 0.00 0.00 0.00 0.00 0.00 0.00 0.00 0.00 0.00 0.00 0.00 0.00 0.00 0.00 0.00 0.00 0.00 0.01 0.04 0.07 0.10 0.15 0.16 0.14 0.11 0.16 0.09 0.03 0.03 0.04 0.05 0.05 0.16 0.17 0.16 0.15 0.13 0.11 0.15 0.12 0.09 0.10
0.00 0.00 0.00 0.00 0.00 0.00 0.00 0.00 0.00 0.00 0.00 0.00 0.00 0.00 0.01 0.01 0.00 0.00 0.00 0.00 0.00 0.03 0.06 0.09 0.08 0.02 0.01 0.01 0.01 0.01 0.01 0.01 0.05 0.08 0.07 0.06 0.08 0.13 0.20 0.21 0.16 0.14 0.09
0.00 0.00 0.00 0.00 0.00 0.00 0.00 0.00 0.00 0.00 0.00 0.00 0.00 0.00 0.00 0.00 0.00 0.00 0.01 0.01 0.01 0.03 0.05 0.07 0.08 0.03 0.02 0.00 0.00 0.00 0.00 0.00 0.00 0.00 0.00 0.01 0.04 0.07 0.20 0.30 0.27 0.24 0.18
0.00 0.00 0.00 0.00 0.00 0.00 0.00 0.00 0.00 0.00 0.00 0.00 0.00 0.00 0.00 0.02 0.00 0.00 0.02 0.03 0.04 0.03 0.04 0.06 0.09 0.05 0.01 0.00 0.00 0.00 0.00 0.00 0.00 0.00 0.00 0.00 0.02 0.06 0.14 0.20 0.24 0.25 0.24
0.01 0.00 0.00 0.00 0.00 0.00 0.00 0.00 0.02 0.02 0.00 0.00 0.01 0.00 0.00 0.01 0.00 0.00 0.01 0.04 0.07 0.06 0.06 0.13 0.15 0.08 0.04 0.04 0.02 0.00 0.00 0.00 0.00 0.00 0.01 0.00 0.02 0.03 0.10 0.16 0.17 0.16 0.16
0.00 0.00 0.00 0.00 0.00 0.00 0.00 0.00 0.02 0.01 0.00 0.00 0.00 0.00 0.00 0.00 0.00 0.00 0.00 0.02 0.09 0.10 0.18 0.18 0.37 0.41 0.34 0.20 0.11 0.09 0.03 0.00 0.00 0.00 0.00 0.00 0.02 0.02 0.10 0.17 0.18 0.20 0.22
0.00 0.00 0.00 0.00 0.00 0.00 0.00 0.00 0.00 0.00 0.00 0.00 0.00 0.00 0.00 0.00 0.00 0.00 0.00 0.00 0.04 0.08 0.10 0.19 0.39 0.33 0.26 0.31 0.28 0.16 0.08 0.04 0.01 0.01 0.01 0.01 0.01 0.00 0.00 0.04 0.15 0.25 0.24
0.00 0.00 0.00 0.00 0.00 0.00 0.00 0.00 0.00 0.00 0.00 0.00 0.00 0.00 0.00 0.00 0.00 0.00 0.00 0.00 0.00 0.00 0.03 0.04 0.06 0.12 0.14 0.13 0.11 0.11 0.07 0.05 0.03 0.01 0.00 0.01 0.01 0.01 0.00 0.00 0.04 0.17 0.27
0.00 0.00 0.00 0.00 0.00 0.00 0.00 0.00 0.00 0.00 0.00 0.00 0.00 0.00 0.00 0.00 0.00 0.00 0.00 0.00 0.00 0.01 0.01 0.02 0.03 0.04 0.05 0.06 0.10 0.10 0.06 0.05 0.03 0.03 0.02 0.02 0.02 0.01 0.00 0.01 0.01 0.08 0.22
0.00 0.00 0.00 0.00 0.01 0.06 0.02 0.00 0.00 0.00 0.00 0.00 0.00 0.00 0.00 0.00 0.00 0.00 0.00 0.00 0.00 0.00 0.00 0.00 0.00 0.02 0.04 0.07 0.12 0.19 0.16 0.09 0.06 0.05 0.04 0.05 0.06 0.08 0.07 0.01 0.00 0.03 0.10
0.00 0.00 0.00 0.03 0.18 0.24 0.18 0.02 0.00 0.00 0.00 0.00 0.00 0.00 0.00 0.00 0.00 0.00 0.00 0.00 0.00 0.00 0.00 0.00 0.00 0.00 0.01 0.04 0.05 0.04 0.02 0.04 0.04 0.03 0.02 0.03 0.07 0.11 0.16 0.15 0.08 0.04 0.05
0.00 0.00 0.08 0.22 0.23 0.39 0.30 0.10 0.03 0.00 0.00 0.00 0.00 0.00 0.00 0.00 0.00 0.00 0.00 0.00 0.00 0.00 0.00 0.00 0.00 0.00 0.00 0.00 0.00 0.01 0.01 0.01 0.02 0.03 0.02 0.01 0.01 0.03 0.08 0.10 0.13 0.13 0.11
0.00 0.03 0.23 0.39 0.41 0.38 0.33 0.16 0.04 0.01 0.00 0.00 0.00 0.00 0.00 0.00 0.00 0.00 0.00 0.00 0.00 0.00 0.00 0.00 0.00 0.00 0.00 0.00 0.00 0.00 0.00 0.02 0.02 0.03 0.03 0.02 0.02 0.02 0.02 0.04 0.05 0.07 0.11
0.06 0.18 0.30 0.34 0.35 0.21 0.13 0.07 0.02 0.01 0.01 0.00 0.00 0.00 0.00 0.00 0.00 0.00 0.00 0.00 0.00 0.00 0.00 0.00 0.00 0.00 0.00 0.00 0.01 0.00 0.00 0.00 0.01 0.04 0.05 0.08 0.08 0.07 0.05 0.05 0.06 0.04 0.04
0.15 0.16 0.09 0.04 0.01 0.01 0.00 0.00 0.00 0.00 0.00 0.00 0.00 0.00 0.00 0.00 0.00 0.00 0.00 0.00 0.00 0.00 0.00 0.00 0.00 0.00 0.00 0.00 0.01 0.01 0.00 0.00 0.00 0.01 0.03 0.07 0.08 0.12 0.12 0.08 0.08 0.07 0.03
0.04 0.01 0.00 0.00 0.00 0.00 0.00 0.00 0.00 0.00 0.00 0.00 0.00 0.00 0.00 0.00 0.00 0.00 0.00 0.00 0.00 0.00 0.00 0.00 0.00 0.00 0.00 0.00 0.00 0.02 0.02 0.01 0.01 0.00 0.01 0.05 0.07 0.07 0.08 0.09 0.08 0.09 0.06
0.00 0.00 0.00 0.00 0.00 0.00 0.00 0.00 0.00 0.00 0.00 0.00 0.00 0.00 0.00 0.00 0.00 0.00 0.00 0.00 0.00 0.00 0.00 0.00 0.00 0.00 0.00 0.00 0.00 0.00 0.02 0.05 0.04 0.03 0.00 0.00 0.04 0.07 0.11 0.13 0.14 0.14 0.13
0.00 0.00 0.00 0.00 0.00 0.00 0.00 0.00 0.00 0.00 0.00 0.00 0.00 0.00 0.00 0.00 0.00 0.00 0.00 0.00 0.00 0.00 0.00 0.00 0.00 0.00 0.00 0.00 0.00 0.00 0.01 0.01 0.01 0.03 0.01 0.01 0.03 0.05 0.06 0.11 0.15 0.21 0.26
0.00 0.00 0.00 0.00 0.00 0.00 0.00 0.00 0.00 0.00 0.00 0.00 0.00 0.00 0.00 0.00 0.00 0.00 0.00 0.00 0.00 0.00 0.00 0.00 0.00 0.00 0.00 0.00 0.00 0.00 0.00 0.00 0.00 0.01 0.02 0.00 0.03 0.07 0.04 0.07 0.08 0.12 0.18

GFSSE_prec_precacc_042.txt.gz
Total_Precipitation_Accumulation
0.02 0.00 0.00 0.00 0.01 0.04 0.03 0.00 0.00 0.00 0.02 0.06 0.09 0.13 0.16 0.16 0.23 0.32 0.29 0.30 0.32 0.28 0.30 0.25 0.21 0.11 0.00 0.02 0.02 0.02 0.02 0.03 0.03 0.01 0.01 0.03 0.09 0.07 0.05 0.15 0.07 0.13 0.27
0.01 0.00 0.00 0.00 0.01 0.06 0.11 0.05 0.02 0.01 0.02 0.05 0.10 0.12 0.16 0.21 0.32 0.40 0.38 0.37 0.41 0.33 0.33 0.27 0.23 0.19 0.12 0.12 0.08 0.05 0.05 0.05 0.03 0.02 0.01 0.01 0.06 0.10 0.05 0.08 0.05 0.10 0.15
0.01 0.00 0.00 0.00 0.00 0.02 0.06 0.07 0.05 0.03 0.02 0.05 0.08 0.16 0.27 0.33 0.50 0.51 0.37 0.33 0.54 0.69 0.54 0.40 0.37 0.49 0.45 0.27 0.11 0.07 0.06 0.06 0.04 0.02 0.01 0.12 0.21 0.14 0.13 0.07 0.08 0.11 0.13
0.01 0.00 0.00 0.00 0.00 0.00 0.00 0.00 0.00 0.00 0.01 0.02 0.03 0.07 0.28 0.35 0.33 0.31 0.44 0.41 0.43 0.47 0.59 0.50 0.75 1.15 0.97 0.72 0.34 0.17 0.11 0.05 0.02 0.02 0.02 0.12 0.22 0.16 0.12 0.06 0.10 0.10 0.10
0.01 0.00 0.00 0.00 0.00 0.00 0.00 0.00 0.00 0.00 0.00 0.00 0.01 0.05 0.12 0.12 0.25 0.24 0.44 0.33 0.19 0.18 0.45 0.60 0.71 0.93 0.83 0.98 1.08 0.69 0.31 0.08 0.02 0.02 0.04 0.03 0.13 0.20 0.13 0.09 0.08 0.10 0.05
0.00 0.00 0.00 0.00 0.00 0.00 0.00 0.00 0.00 0.00 0.00 0.00 0.00 0.01 0.07 0.08 0.13 0.18 0.39 0.46 0.51 0.44 0.77 1.15 1.76 1.28 0.72 1.05 1.11 0.71 0.30 0.04 0.01 0.02 0.08 0.06 0.12 0.21 0.17 0.14 0.10 0.08 0.08
0.00 0.00 0.00 0.00 0.00 0.00 0.00 0.00 0.00 0.00 0.00 0.00 0.00 0.00 0.00 0.01 0.03 0.05 0.07 0.19 0.52 1.17 1.32 1.12 1.24 1.41 0.98 0.29 0.15 0.21 0.14 0.05 0.07 0.13 0.14 0.10 0.15 0.22 0.21 0.19 0.16 0.11 0.09
0.00 0.00 0.00 0.00 0.00 0.00 0.00 0.00 0.00 0.00 0.00 0.00 0.00 0.00 0.00 0.00 0.00 0.00 0.01 0.04 0.07 0.10 0.15 0.16 0.14 0.11 0.16 0.09 0.03 0.03 0.04 0.05 0.05 0.16 0.17 0.16 0.15 0.13 0.12 0.15 0.12 0.09 0.10
0.00 0.00 0.00 0.00 0.00 0.00 0.00 0.00 0.00 0.00 0.00 0.00 0.00 0.00 0.01 0.01 0.00 0.00 0.00 0.00 0.00 0.03 0.06 0.09 0.08 0.02 0.01 0.01 0.01 0.01 0.01 0.01 0.05 0.08 0.07 0.06 0.08 0.13 0.20 0.21 0.16 0.14 0.09
0.00 0.00 0.00 0.00 0.00 0.00 0.00 0.00 0.00 0.00 0.00 0.00 0.00 0.00 0.00 0.00 0.00 0.00 0.01 0.01 0.01 0.03 0.05 0.07 0.08 0.03 0.02 0.00 0.00 0.00 0.00 0.00 0.00 0.00 0.00 0.01 0.04 0.08 0.20 0.30 0.27 0.24 0.18
0.00 0.00 0.00 0.00 0.00 0.00 0.00 0.00 0.00 0.00 0.00 0.00 0.00 0.00 0.00 0.02 0.00 0.00 0.02 0.03 0.04 0.03 0.04 0.06 0.09 0.05 0.01 0.00 0.00 0.00 0.00 0.00 0.00 0.00 0.00 0.00 0.02 0.06 0.14 0.20 0.24 0.25 0.24
0.01 0.00 0.00 0.00 0.00 0.00 0.00 0.00 0.02 0.02 0.00 0.00 0.01 0.00 0.00 0.01 0.00 0.00 0.01 0.04 0.07 0.06 0.06 0.13 0.15 0.08 0.04 0.04 0.02 0.00 0.00 0.00 0.00 0.00 0.01 0.00 0.02 0.03 0.10 0.16 0.17 0.16 0.16
0.00 0.00 0.00 0.00 0.00 0.00 0.00 0.00 0.02 0.01 0.00 0.00 0.00 0.00 0.00 0.00 0.00 0.00 0.00 0.02 0.09 0.10 0.18 0.18 0.37 0.41 0.34 0.20 0.11 0.09 0.03 0.00 0.00 0.00 0.00 0.00 0.02 0.02 0.10 0.17 0.18 0.20 0.22
0.00 0.00 0.00 0.00 0.00 0.00 0.00 0.00 0.00 0.00 0.00 0.00 0.00 0.00 0.00 0.00 0.00 0.00 0.00 0.00 0.04 0.08 0.10 0.19 0.39 0.33 0.26 0.31 0.28 0.16 0.08 0.04 0.01 0.01 0.01 0.01 0.01 0.00 0.00 0.04 0.15 0.25 0.24
0.00 0.00 0.00 0.00 0.00 0.00 0.00 0.00 0.00 0.00 0.00 0.00 0.00 0.00 0.00 0.00 0.00 0.00 0.00 0.00 0.00 0.00 0.03 0.04 0.06 0.12 0.14 0.13 0.11 0.11 0.07 0.05 0.03 0.01 0.00 0.01 0.01 0.01 0.00 0.00 0.04 0.17 0.27
0.00 0.00 0.00 0.00 0.00 0.00 0.00 0.00 0.00 0.00 0.00 0.00 0.00 0.00 0.00 0.00 0.00 0.00 0.00 0.00 0.00 0.01 0.01 0.02 0.03 0.04 0.05 0.06 0.10 0.10 0.06 0.05 0.03 0.03 0.02 0.02 0.02 0.01 0.00 0.01 0.01 0.08 0.22
0.00 0.00 0.00 0.00 0.01 0.06 0.02 0.00 0.00 0.00 0.00 0.00 0.00 0.00 0.00 0.00 0.00 0.00 0.00 0.00 0.00 0.00 0.00 0.00 0.00 0.02 0.04 0.07 0.12 0.19 0.16 0.09 0.06 0.05 0.04 0.05 0.06 0.08 0.07 0.01 0.00 0.03 0.10
0.00 0.00 0.02 0.11 0.19 0.25 0.19 0.02 0.01 0.00 0.01 0.02 0.01 0.00 0.00 0.01 0.00 0.00 0.00 0.00 0.00 0.00 0.00 0.00 0.00 0.00 0.01 0.04 0.05 0.04 0.02 0.04 0.04 0.03 0.02 0.03 0.07 0.11 0.16 0.15 0.08 0.04 0.05
0.00 0.01 0.20 0.36 0.27 0.43 0.46 0.29 0.08 0.03 0.03 0.03 0.01 0.00 0.00 0.00 0.00 0.00 0.00 0.00 0.00 0.00 0.00 0.00 0.00 0.00 0.00 0.00 0.00 0.01 0.01 0.01 0.02 0.03 0.02 0.01 0.01 0.03 0.08 0.10 0.13 0.13 0.11
0.00 0.06 0.40 0.58 0.54 0.63 0.64 0.31 0.17 0.06 0.01 0.00 0.00 0.00 0.00 0.00 0.00 0.00 0.00 0.00 0.00 0.00 0.00 0.00 0.00 0.00 0.00 0.00 0.00 0.00 0.00 0.02 0.02 0.03 0.03 0.02 0.02 0.02 0.02 0.04 0.05 0.07 0.11
0.06 0.24 0.54 0.60 0.61 0.37 0.26 0.14 0.04 0.01 0.01 0.00 0.00 0.00 0.00 0.00 0.00 0.00 0.00 0.00 0.00 0.00 0.00 0.00 0.00 0.00 0.00 0.00 0.01 0.00 0.00 0.00 0.01 0.04 0.05 0.08 0.08 0.07 0.05 0.05 0.06 0.04 0.04
0.22 0.29 0.21 0.12 0.04 0.01 0.00 0.00 0.00 0.00 0.00 0.00 0.00 0.00 0.00 0.00 0.00 0.00 0.00 0.00 0.00 0.00 0.00 0.00 0.00 0.00 0.00 0.00 0.01 0.01 0.00 0.00 0.00 0.01 0.03 0.07 0.08 0.12 0.12 0.08 0.08 0.07 0.03
0.10 0.03 0.00 0.00 0.00 0.00 0.00 0.00 0.00 0.00 0.00 0.00 0.00 0.00 0.00 0.00 0.00 0.00 0.00 0.00 0.00 0.00 0.00 0.00 0.00 0.00 0.00 0.00 0.00 0.02 0.02 0.01 0.01 0.00 0.01 0.05 0.07 0.07 0.08 0.09 0.08 0.09 0.06
0.00 0.00 0.00 0.00 0.00 0.00 0.00 0.00 0.00 0.00 0.00 0.00 0.00 0.00 0.00 0.00 0.00 0.00 0.00 0.00 0.00 0.00 0.00 0.00 0.00 0.00 0.00 0.00 0.00 0.00 0.02 0.05 0.04 0.03 0.00 0.00 0.04 0.07 0.11 0.13 0.14 0.14 0.13
0.00 0.00 0.00 0.00 0.00 0.00 0.00 0.00 0.00 0.00 0.00 0.00 0.00 0.00 0.00 0.00 0.00 0.00 0.00 0.00 0.00 0.00 0.00 0.00 0.00 0.00 0.00 0.00 0.00 0.00 0.01 0.01 0.01 0.03 0.01 0.01 0.03 0.05 0.06 0.11 0.15 0.21 0.26
0.00 0.00 0.00 0.00 0.00 0.00 0.00 0.00 0.00 0.00 0.00 0.00 0.00 0.00 0.00 0.00 0.00 0.00 0.00 0.00 0.00 0.00 0.00 0.00 0.00 0.00 0.00 0.00 0.00 0.00 0.00 0.00 0.00 0.02 0.03 0.01 0.03 0.07 0.04 0.07 0.08 0.12 0.18

GFSSE_prec_precacc_045.txt.gz
Total_Precipitation_Accumulation
0.02 0.00 0.00 0.01 0.01 0.04 0.03 0.00 0.00 0.00 0.02 0.06 0.09 0.13 0.17 0.17 0.23 0.32 0.29 0.30 0.33 0.29 0.30 0.25 0.21 0.11 0.00 0.02 0.02 0.02 0.02 0.03 0.03 0.01 0.01 0.03 0.09 0.07 0.06 0.16 0.07 0.13 0.27
0.01 0.00 0.00 0.02 0.01 0.06 0.11 0.05 0.02 0.01 0.02 0.05 0.10 0.12 0.16 0.21 0.32 0.40 0.38 0.38 0.41 0.33 0.33 0.27 0.23 0.19 0.12 0.12 0.08 0.05 0.05 0.05 0.03 0.02 0.01 0.01 0.06 0.10 0.05 0.08 0.06 0.11 0.15
0.01 0.00 0.00 0.00 0.00 0.02 0.06 0.07 0.05 0.03 0.02 0.05 0.08 0.16 0.27 0.33 0.50 0.51 0.37 0.33 0.54 0.69 0.54 0.40 0.37 0.49 0.45 0.27 0.11 0.07 0.06 0.06 0.04 0.02 0.01 0.12 0.21 0.14 0.13 0.08 0.08 0.12 0.14
0.01 0.00 0.00 0.00 0.00 0.00 0.00 0.00 0.00 0.00 0.01 0.02 0.03 0.07 0.28 0.35 0.33 0.31 0.44 0.41 0.43 0.47 0.59 0.50 0.75 1.15 0.97 0.72 0.34 0.17 0.11 0.05 0.02 0.02 0.02 0.12 0.22 0.16 0.12 0.06 0.10 0.12 0.10
0.01 0.00 0.00 0.00 0.00 0.00 0.00 0.00 0.00 0.00 0.00 0.00 0.01 0.05 0.12 0.12 0.25 0.24 0.44 0.33 0.19 0.18 0.45 0.60 0.71 0.93 0.83 0.98 1.08 0.69 0.31 0.08 0.02 0.02 0.04 0.03 0.13 0.20 0.13 0.09 0.08 0.10 0.05
0.00 0.00 0.00 0.00 0.00 0.00 0.00 0.00 0.00 0.00 0.00 0.00 0.00 0.01 0.07 0.08 0.13 0.18 0.39 0.46 0.51 0.44 0.77 1.15 1.76 1.28 0.72 1.05 1.11 0.71 0.30 0.04 0.01 0.02 0.08 0.06 0.12 0.21 0.17 0.15 0.10 0.08 0.08
0.00 0.00 0.00 0.00 0.00 0.00 0.00 0.00 0.00 0.00 0.00 0.00 0.00 0.00 0.00 0.01 0.03 0.05 0.07 0.19 0.52 1.17 1.32 1.12 1.24 1.41 0.98 0.29 0.15 0.21 0.14 0.05 0.07 0.13 0.14 0.10 0.15 0.22 0.21 0.20 0.17 0.11 0.09
0.00 0.00 0.00 0.00 0.00 0.00 0.00 0.00 0.00 0.00 0.00 0.00 0.00 0.00 0.00 0.00 0.00 0.00 0.01 0.04 0.07 0.10 0.15 0.16 0.14 0.11 0.16 0.09 0.03 0.03 0.04 0.05 0.05 0.16 0.17 0.16 0.15 0.13 0.12 0.15 0.12 0.09 0.10
0.00 0.00 0.00 0.00 0.00 0.00 0.00 0.00 0.00 0.00 0.00 0.00 0.00 0.00 0.01 0.01 0.00 0.00 0.00 0.00 0.00 0.03 0.06 0.09 0.08 0.02 0.01 0.01 0.01 0.01 0.01 0.01 0.05 0.08 0.07 0.06 0.08 0.13 0.20 0.21 0.16 0.14 0.09
0.00 0.00 0.00 0.00 0.00 0.00 0.00 0.00 0.00 0.00 0.00 0.00 0.00 0.00 0.00 0.00 0.00 0.00 0.01 0.01 0.01 0.03 0.05 0.07 0.08 0.03 0.02 0.00 0.00 0.00 0.00 0.00 0.00 0.00 0.00 0.01 0.04 0.08 0.20 0.30 0.27 0.24 0.18
0.00 0.00 0.00 0.00 0.00 0.00 0.00 0.00 0.00 0.00 0.00 0.00 0.00 0.00 0.00 0.02 0.00 0.00 0.02 0.03 0.04 0.03 0.04 0.06 0.09 0.05 0.01 0.00 0.00 0.00 0.00 0.00 0.00 0.00 0.00 0.00 0.02 0.06 0.14 0.20 0.24 0.25 0.24
0.01 0.00 0.00 0.00 0.00 0.00 0.00 0.00 0.02 0.02 0.00 0.00 0.01 0.00 0.00 0.01 0.00 0.00 0.01 0.04 0.07 0.06 0.06 0.13 0.15 0.08 0.04 0.04 0.02 0.00 0.00 0.00 0.00 0.00 0.01 0.00 0.02 0.03 0.10 0.16 0.17 0.16 0.16
0.00 0.00 0.00 0.00 0.00 0.00 0.00 0.00 0.02 0.01 0.00 0.00 0.00 0.00 0.00 0.00 0.00 0.00 0.00 0.02 0.09 0.10 0.18 0.18 0.37 0.41 0.34 0.20 0.11 0.09 0.03 0.00 0.00 0.00 0.00 0.00 0.02 0.02 0.10 0.17 0.18 0.20 0.22
0.00 0.00 0.00 0.00 0.00 0.00 0.00 0.00 0.00 0.00 0.00 0.00 0.00 0.00 0.00 0.00 0.00 0.00 0.00 0.00 0.04 0.08 0.10 0.19 0.39 0.33 0.26 0.31 0.28 0.16 0.08 0.04 0.01 0.01 0.01 0.01 0.01 0.00 0.00 0.04 0.15 0.25 0.24
0.00 0.00 0.00 0.00 0.00 0.00 0.00 0.00 0.00 0.00 0.00 0.00 0.00 0.00 0.00 0.00 0.00 0.00 0.00 0.00 0.00 0.00 0.03 0.04 0.06 0.12 0.14 0.13 0.11 0.11 0.07 0.05 0.03 0.01 0.00 0.01 0.01 0.01 0.00 0.00 0.04 0.17 0.27
0.00 0.00 0.00 0.00 0.00 0.00 0.00 0.00 0.00 0.01 0.01 0.03 0.04 0.06 0.07 0.03 0.03 0.00 0.00 0.00 0.00 0.01 0.01 0.02 0.03 0.04 0.05 0.06 0.10 0.10 0.06 0.05 0.03 0.03 0.02 0.02 0.02 0.01 0.00 0.01 0.01 0.08 0.22
0.00 0.00 0.00 0.00 0.01 0.06 0.02 0.00 0.00 0.00 0.01 0.03 0.07 0.08 0.09 0.08 0.04 0.01 0.00 0.00 0.00 0.00 0.00 0.00 0.00 0.02 0.04 0.07 0.12 0.19 0.16 0.09 0.06 0.05 0.04 0.05 0.06 0.08 0.07 0.01 0.00 0.03 0.10
0.00 0.00 0.03 0.16 0.26 0.27 0.19 0.02 0.01 0.01 0.01 0.07 0.09 0.07 0.09 0.07 0.03 0.00 0.00 0.00 0.00 0.00 0.00 0.00 0.00 0.00 0.01 0.04 0.05 0.04 0.02 0.04 0.04 0.03 0.02 0.03 0.07 0.11 0.16 0.15 0.08 0.04 0.05
0.00 0.01 0.21 0.49 0.49 0.53 0.49 0.42 0.37 0.14 0.05 0.07 0.04 0.01 0.00 0.00 0.00 0.00 0.00 0.00 0.00 0.00 0.00 0.00 0.00 0.00 0.00 0.00 0.00 0.01 0.01 0.01 0.02 0.03 0.02 0.01 0.01 0.03 0.08 0.10 0.13 0.13 0.11
0.01 0.06 0.42 0.67 0.69 0.88 1.09 0.67 0.35 0.11 0.03 0.00 0.00 0.00 0.00 0.00 0.00 0.00 0.00 0.00 0.00 0.00 0.00 0.00 0.00 0.00 0.00 0.00 0.00 0.00 0.00 0.02 0.02 0.03 0.03 0.02 0.02 0.02 0.02 0.04 0.05 0.07 0.11
0.07 0.27 0.61 0.78 0.90 0.68 0.37 0.16 0.04 0.01 0.01 0.00 0.00 0.00 0.00 0.00 0.00 0.00 0.00 0.00 0.00 0.00 0.00 0.00 0.00 0.00 0.00 0.00 0.01 0.00 0.00 0.00 0.01 0.04 0.05 0.08 0.08 0.07 0.05 0.05 0.06 0.04 0.04
0.26 0.34 0.26 0.17 0.08 0.02 0.00 0.00 0.00 0.00 0.00 0.00 0.00 0.00 0.00 0.00 0.00 0.00 0.00 0.00 0.00 0.00 0.00 0.00 0.00 0.00 0.00 0.00 0.01 0.01 0.00 0.00 0.00 0.01 0.03 0.07 0.08 0.12 0.12 0.08 0.08 0.07 0.03
0.11 0.03 0.00 0.00 0.00 0.00 0.00 0.00 0.00 0.00 0.00 0.00 0.00 0.00 0.00 0.00 0.00 0.00 0.00 0.00 0.00 0.00 0.00 0.00 0.00 0.00 0.00 0.00 0.00 0.02 0.02 0.01 0.01 0.00 0.01 0.05 0.07 0.07 0.08 0.09 0.08 0.09 0.06
0.00 0.00 0.00 0.00 0.00 0.00 0.00 0.00 0.00 0.00 0.00 0.00 0.00 0.00 0.00 0.00 0.00 0.00 0.00 0.00 0.00 0.00 0.00 0.00 0.00 0.00 0.00 0.00 0.00 0.00 0.02 0.05 0.05 0.03 0.00 0.00 0.04 0.07 0.11 0.13 0.14 0.14 0.13
0.00 0.00 0.00 0.00 0.00 0.00 0.00 0.00 0.00 0.00 0.00 0.00 0.00 0.00 0.00 0.00 0.00 0.00 0.00 0.00 0.00 0.00 0.00 0.00 0.00 0.00 0.00 0.00 0.00 0.00 0.01 0.01 0.01 0.03 0.01 0.01 0.03 0.05 0.06 0.11 0.15 0.21 0.26
0.00 0.00 0.00 0.00 0.00 0.00 0.00 0.00 0.00 0.00 0.00 0.00 0.00 0.00 0.00 0.00 0.00 0.00 0.00 0.00 0.00 0.00 0.00 0.00 0.00 0.00 0.00 0.00 0.00 0.00 0.00 0.01 0.01 0.02 0.04 0.02 0.03 0.07 0.04 0.07 0.08 0.12 0.18

GFSSE_prec_precacc_048.txt.gz
Total_Precipitation_Accumulation
0.02 0.00 0.02 0.02 0.01 0.04 0.03 0.00 0.00 0.00 0.02 0.06 0.09 0.13 0.17 0.17 0.23 0.32 0.30 0.31 0.33 0.29 0.30 0.25 0.21 0.11 0.00 0.02 0.02 0.02 0.02 0.03 0.03 0.01 0.01 0.03 0.09 0.07 0.06 0.16 0.07 0.13 0.27
0.01 0.00 0.02 0.03 0.01 0.06 0.11 0.05 0.02 0.01 0.02 0.05 0.10 0.12 0.17 0.21 0.32 0.40 0.39 0.38 0.41 0.33 0.33 0.27 0.23 0.19 0.12 0.12 0.08 0.05 0.05 0.05 0.03 0.02 0.01 0.01 0.06 0.10 0.05 0.09 0.06 0.11 0.15
0.01 0.00 0.01 0.01 0.00 0.02 0.06 0.07 0.05 0.03 0.02 0.05 0.08 0.16 0.27 0.33 0.50 0.51 0.37 0.33 0.54 0.69 0.54 0.40 0.37 0.49 0.45 0.27 0.11 0.07 0.06 0.06 0.04 0.02 0.01 0.12 0.21 0.14 0.13 0.08 0.09 0.12 0.14
0.01 0.00 0.00 0.00 0.00 0.00 0.00 0.00 0.00 0.00 0.01 0.02 0.03 0.07 0.28 0.35 0.33 0.31 0.44 0.41 0.43 0.47 0.59 0.50 0.75 1.15 0.97 0.72 0.34 0.17 0.11 0.05 0.02 0.02 0.02 0.12 0.22 0.17 0.13 0.06 0.10 0.12 0.10
0.01 0.00 0.00 0.00 0.00 0.00 0.00 0.00 0.00 0.00 0.00 0.00 0.01 0.05 0.12 0.12 0.25 0.24 0.44 0.33 0.19 0.18 0.45 0.60 0.71 0.93 0.83 0.98 1.08 0.69 0.31 0.08 0.02 0.02 0.04 0.03 0.14 0.21 0.14 0.09 0.08 0.10 0.05
0.00 0.01 0.00 0.00 0.01 0.00 0.00 0.00 0.00 0.00 0.00 0.00 0.00 0.01 0.07 0.08 0.13 0.18 0.39 0.46 0.51 0.44 0.77 1.15 1.76 1.28 0.72 1.05 1.11 0.71 0.30 0.04 0.01 0.02 0.08 0.06 0.14 0.25 0.19 0.15 0.10 0.08 0.08
0.00 0.01 0.00 0.01 0.01 0.00 0.00 0.00 0.00 0.00 0.00 0.00 0.00 0.00 0.00 0.01 0.03 0.05 0.07 0.19 0.52 1.17 1.32 1.12 1.24 1.41 0.98 0.29 0.15 0.21 0.14 0.05 0.07 0.13 0.14 0.10 0.15 0.22 0.21 0.20 0.17 0.11 0.09
0.00 0.00 0.00 0.00 0.00 0.00 0.00 0.00 0.00 0.00 0.00 0.00 0.00 0.00 0.00 0.00 0.00 0.00 0.01 0.04 0.07 0.10 0.15 0.16 0.14 0.11 0.16 0.09 0.03 0.03 0.04 0.05 0.05 0.16 0.17 0.16 0.15 0.13 0.12 0.15 0.12 0.09 0.10
0.00 0.00 0.00 0.00 0.00 0.00 0.00 0.00 0.00 0.00 0.00 0.00 0.00 0.00 0.01 0.01 0.00 0.00 0.00 0.00 0.00 0.03 0.06 0.09 0.08 0.02 0.01 0.01 0.01 0.01 0.01 0.01 0.05 0.08 0.07 0.06 0.08 0.13 0.20 0.21 0.16 0.14 0.09
0.00 0.00 0.00 0.00 0.00 0.00 0.00 0.00 0.00 0.00 0.00 0.00 0.00 0.00 0.00 0.00 0.00 0.00 0.01 0.01 0.01 0.03 0.05 0.07 0.08 0.03 0.02 0.00 0.00 0.00 0.00 0.00 0.00 0.00 0.00 0.01 0.04 0.08 0.20 0.30 0.27 0.24 0.18
0.00 0.00 0.00 0.00 0.00 0.00 0.00 0.00 0.00 0.00 0.00 0.00 0.00 0.00 0.00 0.02 0.00 0.00 0.02 0.03 0.04 0.03 0.04 0.06 0.09 0.05 0.01 0.00 0.00 0.00 0.00 0.00 0.00 0.00 0.00 0.00 0.02 0.06 0.14 0.20 0.24 0.25 0.24
0.01 0.00 0.00 0.00 0.00 0.00 0.00 0.00 0.02 0.02 0.00 0.00 0.01 0.00 0.00 0.01 0.00 0.00 0.01 0.04 0.07 0.06 0.06 0.13 0.15 0.08 0.04 0.04 0.02 0.00 0.00 0.00 0.00 0.00 0.01 0.00 0.02 0.03 0.10 0.16 0.17 0.16 0.16
0.00 0.00 0.00 0.00 0.00 0.00 0.00 0.00 0.02 0.01 0.00 0.00 0.00 0.00 0.00 0.00 0.00 0.01 0.02 0.02 0.09 0.10 0.18 0.18 0.37 0.41 0.34 0.20 0.11 0.09 0.03 0.00 0.00 0.00 0.00 0.00 0.02 0.02 0.10 0.17 0.18 0.20 0.22
0.00 0.00 0.00 0.00 0.00 0.00 0.00 0.00 0.00 0.00 0.00 0.00 0.00 0.00 0.00 0.05 0.06 0.04 0.02 0.01 0.04 0.08 0.10 0.19 0.39 0.33 0.26 0.31 0.28 0.16 0.08 0.04 0.01 0.01 0.01 0.01 0.01 0.00 0.00 0.04 0.15 0.25 0.24
0.00 0.00 0.00 0.00 0.00 0.00 0.00 0.00 0.00 0.00 0.00 0.00 0.00 0.00 0.00 0.02 0.04 0.02 0.01 0.00 0.00 0.00 0.03 0.04 0.06 0.12 0.14 0.13 0.11 0.11 0.07 0.05 0.03 0.01 0.00 0.01 0.01 0.01 0.00 0.00 0.04 0.17 0.27
0.00 0.00 0.00 0.00 0.00 0.00 0.00 0.00 0.00 0.01 0.01 0.04 0.04 0.06 0.09 0.09 0.10 0.04 0.01 0.00 0.00 0.01 0.01 0.02 0.03 0.04 0.05 0.06 0.10 0.10 0.06 0.05 0.03 0.03 0.02 0.02 0.02 0.01 0.00 0.01 0.01 0.08 0.22
0.00 0.00 0.00 0.01 0.01 0.06 0.02 0.00 0.00 0.00 0.01 0.03 0.08 0.08 0.10 0.14 0.12 0.07 0.02 0.00 0.00 0.00 0.00 0.00 0.00 0.02 0.04 0.07 0.12 0.19 0.16 0.09 0.06 0.05 0.04 0.05 0.06 0.08 0.07 0.01 0.00 0.03 0.10
0.00 0.00 0.04 0.21 0.35 0.31 0.21 0.03 0.01 0.01 0.03 0.09 0.09 0.08 0.11 0.11 0.07 0.02 0.00 0.01 0.00 0.00 0.00 0.00 0.00 0.00 0.01 0.04 0.05 0.04 0.02 0.04 0.04 0.03 0.02 0.03 0.07 0.11 0.16 0.15 0.08 0.04 0.05
0.00 0.01 0.21 0.51 0.62 0.73 0.56 0.47 0.47 0.35 0.16 0.08 0.04 0.01 0.01 0.01 0.00 0.00 0.00 0.00 0.00 0.00 0.00 0.00 0.00 0.00 0.00 0.00 0.00 0.01 0.01 0.01 0.02 0.03 0.02 0.01 0.01 0.03 0.08 0.10 0.13 0.13 0.11
0.01 0.06 0.42 0.68 0.76 1.03 1.53 1.31 0.62 0.15 0.03 0.00 0.00 0.00 0.00 0.00 0.00 0.00 0.00 0.00 0.00 0.00 0.00 0.00 0.00 0.00 0.00 0.00 0.00 0.00 0.00 0.02 0.02 0.03 0.03 0.02 0.02 0.02 0.02 0.04 0.05 0.07 0.11
0.08 0.27 0.62 0.80 0.98 0.87 0.59 0.20 0.04 0.01 0.01 0.00 0.00 0.00 0.00 0.00 0.00 0.00 0.00 0.00 0.00 0.00 0.00 0.00 0.00 0.00 0.00 0.00 0.01 0.00 0.00 0.00 0.01 0.04 0.05 0.08 0.08 0.07 0.05 0.05 0.06 0.04 0.04
0.26 0.34 0.26 0.18 0.08 0.02 0.00 0.00 0.00 0.00 0.00 0.00 0.00 0.00 0.00 0.00 0.00 0.00 0.00 0.00 0.00 0.00 0.00 0.00 0.00 0.00 0.00 0.00 0.01 0.01 0.00 0.00 0.00 0.01 0.03 0.07 0.08 0.12 0.12 0.08 0.08 0.07 0.03
0.11 0.03 0.00 0.00 0.00 0.00 0.00 0.00 0.00 0.00 0.00 0.00 0.00 0.00 0.00 0.00 0.00 0.00 0.00 0.00 0.00 0.00 0.00 0.00 0.00 0.00 0.00 0.00 0.00 0.02 0.02 0.01 0.01 0.00 0.01 0.05 0.07 0.07 0.08 0.09 0.08 0.09 0.06
0.00 0.00 0.00 0.00 0.00 0.00 0.00 0.00 0.00 0.00 0.00 0.00 0.00 0.00 0.00 0.00 0.00 0.00 0.00 0.00 0.00 0.00 0.00 0.00 0.00 0.00 0.00 0.00 0.00 0.00 0.02 0.05 0.05 0.03 0.00 0.00 0.04 0.07 0.11 0.13 0.14 0.14 0.13
0.00 0.00 0.00 0.00 0.00 0.00 0.00 0.00 0.00 0.00 0.00 0.00 0.00 0.00 0.00 0.00 0.00 0.00 0.00 0.00 0.00 0.00 0.00 0.00 0.00 0.00 0.00 0.00 0.00 0.00 0.01 0.01 0.01 0.04 0.02 0.01 0.03 0.05 0.06 0.11 0.15 0.21 0.26
0.00 0.00 0.00 0.00 0.00 0.00 0.00 0.00 0.00 0.00 0.00 0.00 0.00 0.00 0.00 0.00 0.00 0.00 0.00 0.00 0.00 0.00 0.00 0.00 0.00 0.00 0.00 0.00 0.01 0.01 0.01 0.02 0.01 0.04 0.07 0.04 0.04 0.07 0.04 0.07 0.08 0.12 0.18

GFSSE_prec_precacc_054.txt.gz
Total_Precipitation_Accumulation
0.02 0.00 0.02 0.02 0.02 0.04 0.03 0.00 0.00 0.00 0.02 0.06 0.09 0.13 0.17 0.17 0.23 0.32 0.30 0.31 0.33 0.29 0.30 0.25 0.21 0.11 0.00 0.02 0.02 0.02 0.02 0.03 0.03 0.01 0.01 0.03 0.09 0.07 0.06 0.16 0.08 0.14 0.27
0.03 0.01 0.02 0.03 0.01 0.06 0.11 0.05 0.02 0.01 0.02 0.05 0.10 0.12 0.17 0.21 0.32 0.40 0.39 0.38 0.41 0.33 0.33 0.27 0.23 0.19 0.12 0.12 0.08 0.05 0.05 0.05 0.03 0.02 0.01 0.02 0.09 0.10 0.05 0.09 0.06 0.11 0.15
0.02 0.02 0.01 0.01 0.00 0.02 0.06 0.07 0.05 0.03 0.02 0.05 0.08 0.16 0.27 0.33 0.50 0.51 0.37 0.33 0.54 0.69 0.54 0.40 0.37 0.49 0.45 0.27 0.11 0.07 0.06 0.06 0.04 0.02 0.01 0.16 0.23 0.15 0.13 0.08 0.09 0.12 0.14
0.01 0.01 0.01 0.00 0.00 0.00 0.00 0.01 0.01 0.02 0.02 0.02 0.03 0.07 0.28 0.35 0.33 0.31 0.44 0.41 0.43 0.47 0.59 0.50 0.75 1.15 0.97 0.72 0.34 0.17 0.11 0.05 0.02 0.02 0.02 0.15 0.23 0.17 0.13 0.07 0.11 0.12 0.10
0.07 0.06 0.02 0.00 0.01 0.00 0.00 0.01 0.01 0.02 0.01 0.00 0.01 0.05 0.12 0.12 0.25 0.24 0.44 0.33 0.19 0.18 0.45 0.60 0.71 0.93 0.83 0.98 1.08 0.69 0.31 0.08 0.02 0.02 0.06 0.04 0.14 0.22 0.15 0.09 0.08 0.10 0.05
0.18 0.14 0.03 0.04 0.05 0.02 0.01 0.01 0.02 0.01 0.00 0.00 0.00 0.01 0.07 0.08 0.13 0.18 0.39 0.46 0.51 0.44 0.77 1.15 1.76 1.28 0.72 1.05 1.11 0.71 0.30 0.04 0.01 0.02 0.08 0.06 0.15 0.27 0.20 0.15 0.10 0.08 0.08
0.37 0.16 0.03 0.08 0.08 0.02 0.02 0.03 0.00 0.00 0.00 0.00 0.00 0.00 0.00 0.01 0.03 0.05 0.07 0.19 0.52 1.17 1.32 1.12 1.24 1.41 0.98 0.29 0.15 0.21 0.14 0.05 0.07 0.13 0.14 0.10 0.15 0.22 0.21 0.20 0.17 0.11 0.09
0.58 0.18 0.04 0.07 0.08 0.04 0.03 0.00 0.00 0.00 0.00 0.00 0.00 0.00 0.00 0.00 0.00 0.00 0.01 0.04 0.07 0.10 0.15 0.16 0.14 0.11 0.16 0.09 0.03 0.03 0.04 0.05 0.05 0.16 0.17 0.16 0.15 0.13 0.12 0.15 0.12 0.09 0.10
0.67 0.38 0.08 0.04 0.02 0.01 0.00 0.00 0.00 0.00 0.00 0.00 0.00 0.00 0.01 0.01 0.00 0.00 0.00 0.00 0.00 0.03 0.06 0.09 0.08 0.02 0.01 0.01 0.01 0.01 0.01 0.01 0.05 0.08 0.07 0.06 0.08 0.13 0.20 0.21 0.16 0.14 0.09
0.28 0.09 0.02 0.01 0.00 0.00 0.00 0.00 0.00 0.00 0.00 0.00 0.00 0.00 0.00 0.00 0.00 0.00 0.01 0.01 0.01 0.03 0.05 0.07 0.08 0.03 0.02 0.00 0.00 0.00 0.00 0.00 0.00 0.00 0.00 0.01 0.04 0.08 0.20 0.30 0.27 0.24 0.18
0.45 0.13 0.02 0.00 0.00 0.00 0.00 0.00 0.00 0.00 0.00 0.00 0.00 0.00 0.00 0.02 0.00 0.00 0.02 0.03 0.04 0.03 0.04 0.06 0.09 0.05 0.01 0.00 0.00 0.00 0.00 0.00 0.00 0.00 0.00 0.00 0.02 0.06 0.14 0.20 0.24 0.25 0.24
0.41 0.06 0.00 0.00 0.00 0.00 0.00 0.00 0.02 0.02 0.00 0.00 0.01 0.00 0.00 0.02 0.01 0.00 0.01 0.04 0.07 0.06 0.06 0.13 0.15 0.08 0.04 0.04 0.02 0.00 0.00 0.00 0.00 0.00 0.01 0.00 0.02 0.03 0.10 0.16 0.17 0.16 0.16
0.04 0.01 0.00 0.00 0.00 0.00 0.00 0.00 0.02 0.01 0.00 0.00 0.00 0.01 0.01 0.01 0.03 0.04 0.10 0.13 0.11 0.11 0.18 0.18 0.37 0.41 0.34 0.20 0.11 0.09 0.03 0.00 0.00 0.00 0.00 0.00 0.02 0.02 0.10 0.17 0.18 0.20 0.22
0.00 0.00 0.00 0.00 0.00 0.00 0.00 0.00 0.00 0.00 0.00 0.00 0.03 0.04 0.09 0.16 0.21 0.12 0.06 0.03 0.05 0.09 0.10 0.19 0.39 0.33 0.26 0.31 0.28 0.16 0.08 0.04 0.01 0.01 0.01 0.01 0.01 0.00 0.00 0.04 0.15 0.25 0.24
0.00 0.00 0.00 0.00 0.00 0.00 0.00 0.00 0.01 0.01 0.05 0.09 0.13 0.17 0.25 0.40 0.43 0.28 0.19 0.02 0.01 0.01 0.03 0.04 0.06 0.12 0.14 0.13 0.11 0.11 0.07 0.05 0.03 0.01 0.00 0.01 0.01 0.01 0.00 0.00 0.04 0.17 0.27
0.00 0.00 0.00 0.00 0.00 0.00 0.00 0.02 0.03 0.05 0.06 0.09 0.12 0.15 0.14 0.19 0.18 0.09 0.07 0.05 0.03 0.02 0.01 0.02 0.03 0.04 0.05 0.06 0.10 0.10 0.06 0.05 0.03 0.03 0.02 0.02 0.02 0.01 0.00 0.01 0.01 0.08 0.22
0.00 0.00 0.00 0.01 0.01 0.06 0.02 0.00 0.00 0.00 0.01 0.03 0.08 0.08 0.10 0.14 0.12 0.08 0.04 0.02 0.01 0.00 0.00 0.00 0.00 0.02 0.04 0.07 0.12 0.19 0.16 0.09 0.06 0.05 0.04 0.05 0.06 0.08 0.07 0.01 0.00 0.03 0.10
0.00 0.00 0.04 0.21 0.35 0.32 0.22 0.03 0.02 0.02 0.05 0.12 0.10 0.08 0.11 0.11 0.07 0.02 0.00 0.01 0.00 0.00 0.00 0.00 0.00 0.00 0.01 0.04 0.05 0.04 0.02 0.04 0.04 0.03 0.02 0.03 0.07 0.11 0.16 0.15 0.08 0.04 0.05
0.00 0.01 0.21 0.53 0.77 0.89 0.65 0.56 0.69 0.64 0.36 0.17 0.06 0.02 0.02 0.01 0.00 0.00 0.00 0.00 0.00 0.00 0.00 0.00 0.00 0.00 0.00 0.00 0.00 0.01 0.01 0.01 0.02 0.03 0.02 0.01 0.01 0.03 0.08 0.10 0.13 0.13 0.11
0.01 0.06 0.42 0.74 0.92 1.09 1.65 1.49 0.86 0.27 0.08 0.02 0.00 0.00 0.00 0.00 0.00 0.00 0.00 0.00 0.00 0.00 0.00 0.00 0.00 0.00 0.00 0.00 0.00 0.00 0.00 0.02 0.02 0.03 0.03 0.02 0.02 0.02 0.02 0.04 0.05 0.07 0.11
0.08 0.27 0.69 0.86 1.00 0.90 0.62 0.22 0.05 0.01 0.01 0.00 0.00 0.00 0.00 0.00 0.00 0.00 0.00 0.00 0.00 0.00 0.00 0.00 0.00 0.00 0.00 0.00 0.01 0.00 0.00 0.00 0.01 0.04 0.05 0.08 0.08 0.07 0.05 0.05 0.06 0.04 0.04
0.26 0.35 0.32 0.19 0.09 0.03 0.00 0.00 0.00 0.00 0.00 0.00 0.00 0.00 0.00 0.00 0.00 0.00 0.00 0.00 0.00 0.00 0.00 0.00 0.00 0.00 0.00 0.00 0.01 0.01 0.00 0.00 0.00 0.01 0.03 0.07 0.08 0.12 0.12 0.08 0.08 0.07 0.03
0.13 0.09 0.02 0.00 0.00 0.00 0.00 0.00 0.00 0.00 0.00 0.00 0.00 0.00 0.00 0.00 0.00 0.00 0.00 0.00 0.00 0.00 0.00 0.00 0.00 0.00 0.00 0.00 0.00 0.02 0.02 0.01 0.01 0.00 0.01 0.05 0.07 0.07 0.08 0.09 0.08 0.09 0.06
0.00 0.00 0.00 0.00 0.00 0.00 0.00 0.00 0.00 0.00 0.00 0.00 0.00 0.00 0.00 0.00 0.00 0.00 0.00 0.00 0.00 0.00 0.00 0.00 0.00 0.00 0.00 0.00 0.00 0.00 0.02 0.05 0.05 0.03 0.00 0.00 0.04 0.07 0.11 0.13 0.14 0.14 0.13
0.00 0.00 0.00 0.00 0.00 0.00 0.00 0.00 0.00 0.00 0.00 0.00 0.00 0.00 0.00 0.00 0.00 0.00 0.00 0.00 0.00 0.00 0.00 0.00 0.00 0.00 0.00 0.00 0.00 0.00 0.01 0.01 0.02 0.07 0.05 0.02 0.03 0.05 0.06 0.11 0.15 0.21 0.26
0.00 0.00 0.00 0.00 0.00 0.00 0.00 0.00 0.00 0.00 0.00 0.00 0.00 0.00 0.00 0.00 0.00 0.00 0.00 0.00 0.00 0.00 0.00 0.00 0.00 0.00 0.00 0.01 0.01 0.03 0.05 0.06 0.06 0.09 0.14 0.08 0.05 0.07 0.04 0.07 0.08 0.12 0.18

GFSSE_prec_precacc_057.txt.gz
Total_Precipitation_Accumulation
0.03 0.00 0.02 0.02 0.02 0.04 0.03 0.00 0.00 0.00 0.02 0.06 0.09 0.13 0.17 0.17 0.23 0.32 0.30 0.31 0.33 0.29 0.30 0.25 0.21 0.11 0.00 0.02 0.02 0.02 0.02 0.03 0.03 0.01 0.01 0.04 0.09 0.07 0.06 0.17 0.08 0.14 0.27
0.07 0.01 0.02 0.03 0.01 0.06 0.11 0.05 0.02 0.01 0.02 0.05 0.10 0.12 0.17 0.21 0.32 0.40 0.39 0.38 0.41 0.33 0.33 0.27 0.23 0.19 0.12 0.12 0.08 0.05 0.05 0.05 0.03 0.02 0.02 0.03 0.12 0.14 0.05 0.09 0.06 0.11 0.15
0.14 0.02 0.01 0.01 0.00 0.02 0.06 0.07 0.05 0.03 0.02 0.05 0.08 0.16 0.27 0.33 0.50 0.51 0.37 0.33 0.54 0.69 0.54 0.40 0.37 0.49 0.45 0.27 0.11 0.07 0.06 0.06 0.04 0.02 0.02 0.16 0.23 0.19 0.13 0.09 0.09 0.12 0.14
0.06 0.01 0.01 0.00 0.00 0.00 0.00 0.01 0.01 0.02 0.02 0.02 0.03 0.07 0.28 0.35 0.33 0.31 0.44 0.41 0.43 0.47 0.59 0.50 0.75 1.15 0.97 0.72 0.34 0.17 0.11 0.05 0.02 0.02 0.06 0.20 0.23 0.17 0.13 0.07 0.11 0.12 0.10
0.10 0.06 0.02 0.00 0.01 0.00 0.00 0.01 0.01 0.02 0.01 0.00 0.01 0.05 0.12 0.12 0.25 0.24 0.44 0.33 0.19 0.18 0.45 0.60 0.71 0.93 0.83 0.98 1.08 0.69 0.31 0.08 0.02 0.03 0.08 0.05 0.14 0.22 0.15 0.09 0.08 0.10 0.05
0.21 0.15 0.04 0.05 0.07 0.03 0.01 0.01 0.02 0.01 0.00 0.00 0.00 0.01 0.07 0.08 0.13 0.18 0.39 0.46 0.51 0.44 0.77 1.15 1.76 1.28 0.72 1.05 1.11 0.71 0.30 0.04 0.01 0.04 0.08 0.06 0.15 0.27 0.20 0.15 0.10 0.08 0.08
0.62 0.29 0.10 0.09 0.10 0.04 0.04 0.03 0.00 0.00 0.00 0.00 0.00 0.00 0.00 0.01 0.03 0.05 0.07 0.19 0.52 1.17 1.32 1.12 1.24 1.41 0.98 0.29 0.15 0.21 0.14 0.05 0.07 0.13 0.14 0.10 0.15 0.22 0.21 0.20 0.17 0.11 0.09
1.13 0.56 0.24 0.15 0.14 0.09 0.06 0.00 0.00 0.00 0.00 0.00 0.00 0.00 0.00 0.00 0.00 0.00 0.01 0.04 0.07 0.10 0.15 0.16 0.14 0.11 0.16 0.09 0.03 0.03 0.04 0.05 0.05 0.16 0.17 0.16 0.15 0.13 0.12 0.15 0.12 0.09 0.10
0.92 0.78 0.41 0.15 0.11 0.03 0.00 0.00 0.00 0.00 0.00 0.00 0.00 0.00 0.01 0.01 0.00 0.00 0.00 0.00 0.00 0.03 0.06 0.09 0.08 0.02 0.01 0.01 0.01 0.01 0.01 0.01 0.05 0.08 0.07 0.06 0.08 0.13 0.20 0.21 0.16 0.14 0.09
0.42 0.40 0.33 0.05 0.02 0.00 0.00 0.00 0.00 0.00 0.00 0.00 0.00 0.00 0.00 0.00 0.00 0.00 0.01 0.01 0.01 0.03 0.05 0.07 0.08 0.03 0.02 0.00 0.00 0.00 0.00 0.00 0.00 0.00 0.00 0.01 0.04 0.08 0.20 0.30 0.27 0.24 0.18
0.73 0.54 0.27 0.03 0.00 0.00 0.00 0.00 0.00 0.00 0.00 0.00 0.00 0.00 0.00 0.02 0.00 0.00 0.02 0.03 0.04 0.03 0.04 0.06 0.09 0.05 0.01 0.00 0.00 0.00 0.00 0.00 0.00 0.00 0.00 0.00 0.02 0.06 0.14 0.20 0.24 0.25 0.24
0.81 0.41 0.12 0.03 0.00 0.00 0.00 0.00 0.02 0.02 0.00 0.00 0.01 0.00 0.00 0.02 0.01 0.00 0.01 0.04 0.07 0.06 0.06 0.13 0.15 0.08 0.04 0.04 0.02 0.00 0.00 0.00 0.00 0.00 0.01 0.00 0.02 0.03 0.10 0.16 0.17 0.16 0.16
0.14 0.22 0.12 0.00 0.00 0.00 0.00 0.00 0.02 0.01 0.00 0.00 0.00 0.02 0.02 0.01 0.04 0.05 0.11 0.16 0.12 0.12 0.18 0.18 0.37 0.41 0.34 0.20 0.11 0.09 0.03 0.00 0.00 0.00 0.00 0.00 0.02 0.02 0.10 0.17 0.18 0.20 0.22
0.06 0.06 0.01 0.00 0.00 0.00 0.00 0.00 0.00 0.00 0.00 0.01 0.04 0.05 0.10 0.16 0.21 0.13 0.08 0.10 0.08 0.09 0.10 0.19 0.39 0.33 0.26 0.31 0.28 0.16 0.08 0.04 0.01 0.01 0.01 0.01 0.01 0.00 0.00 0.04 0.15 0.25 0.24
0.02 0.00 0.00 0.00 0.00 0.00 0.00 0.00 0.01 0.02 0.05 0.10 0.13 0.17 0.25 0.40 0.44 0.30 0.20 0.03 0.01 0.01 0.04 0.04 0.07 0.12 0.14 0.13 0.11 0.11 0.07 0.05 0.03 0.01 0.00 0.01 0.01 0.01 0.00 0.00 0.04 0.17 0.27
0.00 0.00 0.00 0.00 0.00 0.00 0.00 0.02 0.03 0.05 0.06 0.09 0.12 0.15 0.14 0.19 0.21 0.12 0.08 0.06 0.04 0.02 0.01 0.03 0.03 0.04 0.05 0.06 0.10 0.10 0.06 0.05 0.03 0.03 0.02 0.02 0.02 0.01 0.00 0.01 0.01 0.08 0.22
0.00 0.00 0.00 0.01 0.01 0.06 0.02 0.00 0.00 0.00 0.01 0.03 0.08 0.08 0.10 0.14 0.12 0.08 0.04 0.02 0.01 0.00 0.00 0.00 0.00 0.02 0.04 0.07 0.12 0.19 0.16 0.09 0.06 0.05 0.04 0.05 0.06 0.08 0.07 0.01 0.00 0.03 0.10
0.00 0.00 0.04 0.21 0.36 0.32 0.22 0.03 0.02 0.02 0.05 0.12 0.10 0.08 0.11 0.11 0.07 0.02 0.00 0.01 0.00 0.00 0.00 0.00 0.00 0.00 0.01 0.04 0.05 0.04 0.02 0.04 0.04 0.03 0.02 0.03 0.07 0.11 0.16 0.15 0.08 0.04 0.05
0.00 0.01 0.21 0.53 0.79 0.89 0.65 0.56 0.69 0.65 0.36 0.17 0.06 0.02 0.02 0.01 0.00 0.00 0.00 0.00 0.00 0.00 0.00 0.00 0.00 0.00 0.00 0.00 0.00 0.01 0.01 0.01 0.02 0.03 0.02 0.01 0.01 0.03 0.08 0.10 0.13 0.13 0.11
0.01 0.06 0.42 0.76 0.96 1.09 1.66 1.49 0.86 0.27 0.08 0.02 0.00 0.00 0.00 0.00 0.00 0.00 0.00 0.00 0.00 0.00 0.00 0.00 0.00 0.00 0.00 0.00 0.00 0.00 0.00 0.02 0.02 0.03 0.03 0.02 0.02 0.02 0.02 0.04 0.05 0.07 0.11
0.08 0.27 0.70 0.92 1.05 0.90 0.63 0.23 0.05 0.01 0.01 0.00 0.00 0.00 0.00 0.00 0.00 0.00 0.00 0.00 0.00 0.00 0.00 0.00 0.00 0.00 0.00 0.00 0.01 0.00 0.00 0.00 0.01 0.04 0.05 0.08 0.08 0.07 0.05 0.05 0.06 0.04 0.04
0.26 0.36 0.38 0.22 0.14 0.04 0.01 0.00 0.00 0.00 0.00 0.00 0.00 0.00 0.00 0.00 0.00 0.00 0.00 0.00 0.00 0.00 0.00 0.00 0.00 0.00 0.00 0.00 0.01 0.01 0.00 0.00 0.00 0.01 0.03 0.07 0.08 0.12 0.12 0.08 0.08 0.07 0.03
0.14 0.17 0.05 0.03 0.02 0.00 0.00 0.00 0.00 0.00 0.00 0.00 0.00 0.00 0.00 0.00 0.00 0.00 0.00 0.00 0.00 0.00 0.00 0.00 0.00 0.00 0.00 0.00 0.00 0.02 0.02 0.01 0.01 0.00 0.01 0.05 0.07 0.07 0.08 0.09 0.08 0.09 0.06
0.01 0.03 0.00 0.00 0.00 0.00 0.00 0.00 0.00 0.00 0.00 0.00 0.00 0.00 0.00 0.00 0.00 0.00 0.00 0.00 0.00 0.00 0.00 0.00 0.00 0.00 0.00 0.00 0.00 0.00 0.02 0.05 0.05 0.03 0.00 0.00 0.04 0.07 0.11 0.13 0.14 0.14 0.13
0.00 0.00 0.00 0.00 0.00 0.00 0.00 0.00 0.00 0.00 0.00 0.00 0.00 0.00 0.00 0.00 0.00 0.00 0.00 0.00 0.00 0.00 0.00 0.00 0.00 0.00 0.00 0.00 0.00 0.00 0.01 0.01 0.02 0.07 0.05 0.02 0.03 0.05 0.06 0.11 0.15 0.21 0.26
0.00 0.00 0.00 0.00 0.00 0.00 0.00 0.00 0.00 0.00 0.00 0.00 0.00 0.00 0.00 0.00 0.00 0.00 0.00 0.00 0.00 0.00 0.00 0.00 0.00 0.00 0.00 0.01 0.01 0.03 0.05 0.06 0.06 0.09 0.14 0.08 0.05 0.07 0.04 0.07 0.08 0.12 0.18

GFSSE_prec_precacc_060.txt.gz
Total_Precipitation_Accumulation
0.03 0.00 0.02 0.02 0.02 0.04 0.03 0.00 0.00 0.00 0.02 0.06 0.09 0.13 0.17 0.17 0.23 0.32 0.30 0.31 0.33 0.29 0.30 0.25 0.21 0.11 0.00 0.02 0.02 0.02 0.02 0.03 0.03 0.01 0.02 0.06 0.10 0.07 0.07 0.19 0.11 0.14 0.30
0.07 0.01 0.02 0.03 0.02 0.06 0.11 0.05 0.02 0.01 0.02 0.05 0.10 0.12 0.17 0.21 0.32 0.40 0.39 0.38 0.41 0.33 0.33 0.27 0.23 0.19 0.12 0.12 0.08 0.05 0.05 0.05 0.03 0.02 0.03 0.07 0.19 0.15 0.05 0.10 0.07 0.11 0.15
0.14 0.02 0.01 0.01 0.00 0.02 0.06 0.08 0.05 0.04 0.02 0.05 0.08 0.16 0.27 0.33 0.50 0.51 0.37 0.33 0.54 0.69 0.54 0.40 0.37 0.49 0.45 0.27 0.11 0.07 0.06 0.06 0.04 0.02 0.02 0.17 0.27 0.19 0.13 0.09 0.09 0.12 0.14
0.06 0.02 0.01 0.00 0.00 0.00 0.01 0.01 0.03 0.02 0.02 0.02 0.03 0.07 0.28 0.35 0.33 0.31 0.44 0.41 0.43 0.47 0.59 0.50 0.75 1.15 0.97 0.72 0.34 0.17 0.11 0.05 0.02 0.02 0.06 0.20 0.23 0.17 0.13 0.07 0.11 0.12 0.10
0.10 0.06 0.02 0.01 0.01 0.00 0.00 0.02 0.02 0.02 0.01 0.00 0.01 0.05 0.12 0.12 0.25 0.24 0.44 0.33 0.19 0.18 0.45 0.60 0.71 0.93 0.83 0.98 1.08 0.69 0.31 0.08 0.02 0.03 0.08 0.05 0.14 0.22 0.15 0.09 0.08 0.10 0.05
0.21 0.20 0.07 0.09 0.09 0.03 0.02 0.02 0.02 0.01 0.00 0.00 0.00 0.01 0.07 0.08 0.13 0.18 0.39 0.46 0.51 0.44 0.77 1.15 1.76 1.28 0.72 1.05 1.11 0.71 0.30 0.04 0.01 0.04 0.08 0.06 0.15 0.27 0.20 0.15 0.10 0.08 0.08
0.69 0.52 0.27 0.22 0.24 0.12 0.06 0.05 0.02 0.00 0.00 0.00 0.00 0.00 0.00 0.01 0.03 0.05 0.07 0.19 0.52 1.17 1.32 1.12 1.24 1.41 0.98 0.29 0.15 0.21 0.14 0.05 0.07 0.13 0.14 0.10 0.15 0.22 0.21 0.20 0.17 0.11 0.09
1.23 0.82 0.60 0.48 0.43 0.25 0.10 0.03 0.00 0.00 0.00 0.00 0.00 0.00 0.00 0.00 0.00 0.00 0.01 0.04 0.07 0.10 0.15 0.16 0.14 0.11 0.16 0.09 0.03 0.03 0.04 0.05 0.05 0.16 0.17 0.16 0.15 0.13 0.12 0.15 0.12 0.09 0.10
0.97 1.09 0.92 0.46 0.32 0.12 0.01 0.00 0.00 0.00 0.00 0.00 0.00 0.00 0.01 0.01 0.00 0.00 0.00 0.00 0.00 0.03 0.06 0.09 0.08 0.02 0.01 0.01 0.01 0.01 0.01 0.01 0.05 0.08 0.07 0.06 0.09 0.13 0.20 0.21 0.16 0.14 0.09
1.02 0.58 0.54 0.35 0.21 0.02 0.00 0.00 0.00 0.00 0.00 0.00 0.00 0.00 0.00 0.00 0.00 0.00 0.01 0.01 0.01 0.03 0.05 0.07 0.08 0.03 0.02 0.00 0.00 0.00 0.00 0.00 0.00 0.00 0.00 0.01 0.04 0.08 0.20 0.30 0.27 0.24 0.18
1.23 0.90 0.62 0.32 0.12 0.00 0.00 0.00 0.00 0.00 0.00 0.00 0.00 0.00 0.00 0.02 0.00 0.00 0.02 0.03 0.04 0.03 0.04 0.06 0.09 0.05 0.01 0.00 0.00 0.00 0.00 0.00 0.00 0.00 0.00 0.00 0.02 0.06 0.14 0.20 0.24 0.25 0.24
0.91 0.57 0.34 0.24 0.01 0.00 0.00 0.00 0.02 0.02 0.00 0.00 0.01 0.00 0.00 0.02 0.01 0.00 0.01 0.04 0.07 0.06 0.06 0.13 0.15 0.08 0.04 0.04 0.02 0.00 0.00 0.00 0.00 0.00 0.01 0.00 0.02 0.03 0.10 0.16 0.17 0.16 0.16
0.19 0.32 0.23 0.05 0.00 0.00 0.00 0.00 0.02 0.01 0.00 0.00 0.00 0.02 0.02 0.01 0.04 0.05 0.11 0.16 0.12 0.12 0.18 0.18 0.37 0.41 0.34 0.20 0.11 0.09 0.03 0.00 0.00 0.00 0.00 0.00 0.02 0.02 0.10 0.17 0.18 0.20 0.22
0.09 0.16 0.13 0.03 0.00 0.00 0.00 0.00 0.00 0.00 0.00 0.01 0.04 0.05 0.10 0.16 0.21 0.13 0.08 0.10 0.08 0.09 0.10 0.19 0.39 0.33 0.26 0.31 0.28 0.16 0.08 0.04 0.01 0.01 0.01 0.01 0.01 0.00 0.00 0.04 0.15 0.25 0.24
0.11 0.03 0.01 0.00 0.00 0.00 0.00 0.00 0.01 0.02 0.05 0.10 0.13 0.17 0.25 0.40 0.44 0.30 0.20 0.03 0.01 0.01 0.04 0.04 0.07 0.12 0.14 0.13 0.11 0.11 0.07 0.05 0.03 0.01 0.00 0.01 0.01 0.01 0.00 0.00 0.04 0.17 0.27
0.02 0.01 0.00 0.00 0.00 0.00 0.00 0.02 0.03 0.05 0.06 0.09 0.12 0.15 0.14 0.19 0.21 0.12 0.08 0.06 0.04 0.02 0.01 0.03 0.03 0.04 0.05 0.06 0.10 0.10 0.06 0.05 0.03 0.03 0.02 0.02 0.02 0.01 0.00 0.01 0.01 0.08 0.22
0.00 0.00 0.00 0.01 0.01 0.06 0.02 0.00 0.00 0.00 0.01 0.03 0.08 0.08 0.10 0.14 0.12 0.08 0.04 0.02 0.01 0.00 0.00 0.00 0.00 0.02 0.04 0.07 0.12 0.19 0.16 0.09 0.06 0.05 0.04 0.05 0.06 0.08 0.07 0.01 0.00 0.03 0.10
0.00 0.00 0.04 0.21 0.36 0.32 0.22 0.03 0.02 0.02 0.05 0.12 0.10 0.08 0.11 0.11 0.07 0.02 0.00 0.01 0.00 0.00 0.00 0.00 0.00 0.00 0.01 0.04 0.05 0.04 0.02 0.04 0.04 0.03 0.02 0.03 0.07 0.11 0.16 0.15 0.08 0.04 0.05
0.00 0.01 0.21 0.53 0.79 0.89 0.65 0.56 0.69 0.65 0.36 0.17 0.06 0.02 0.02 0.01 0.00 0.00 0.00 0.00 0.00 0.00 0.00 0.00 0.00 0.00 0.00 0.00 0.00 0.01 0.01 0.01 0.02 0.03 0.02 0.01 0.01 0.03 0.08 0.10 0.13 0.13 0.11
0.01 0.06 0.42 0.76 0.96 1.09 1.66 1.49 0.86 0.27 0.08 0.02 0.00 0.00 0.00 0.00 0.00 0.00 0.00 0.00 0.00 0.00 0.00 0.00 0.00 0.00 0.00 0.00 0.00 0.00 0.00 0.02 0.02 0.03 0.03 0.02 0.02 0.02 0.02 0.04 0.05 0.07 0.11
0.08 0.27 0.70 0.92 1.06 0.90 0.63 0.23 0.05 0.01 0.01 0.00 0.00 0.00 0.00 0.00 0.00 0.00 0.00 0.00 0.00 0.00 0.00 0.00 0.00 0.00 0.00 0.00 0.01 0.00 0.00 0.00 0.01 0.04 0.05 0.08 0.08 0.07 0.05 0.05 0.06 0.04 0.04
0.26 0.36 0.39 0.22 0.16 0.04 0.01 0.00 0.00 0.00 0.00 0.00 0.00 0.00 0.00 0.00 0.00 0.00 0.00 0.00 0.00 0.00 0.00 0.00 0.00 0.00 0.00 0.00 0.01 0.01 0.00 0.00 0.00 0.01 0.03 0.07 0.08 0.12 0.12 0.08 0.08 0.07 0.03
0.14 0.17 0.06 0.04 0.04 0.00 0.00 0.00 0.00 0.00 0.00 0.00 0.00 0.00 0.00 0.00 0.00 0.00 0.00 0.00 0.00 0.00 0.00 0.00 0.00 0.00 0.00 0.00 0.00 0.02 0.02 0.01 0.01 0.00 0.01 0.05 0.07 0.07 0.08 0.09 0.08 0.09 0.06
0.01 0.03 0.02 0.03 0.02 0.00 0.00 0.00 0.00 0.00 0.00 0.00 0.00 0.00 0.00 0.00 0.00 0.00 0.00 0.00 0.00 0.00 0.00 0.00 0.00 0.00 0.00 0.00 0.00 0.00 0.02 0.05 0.05 0.03 0.00 0.00 0.04 0.07 0.11 0.13 0.14 0.14 0.13
0.00 0.02 0.08 0.04 0.01 0.00 0.00 0.00 0.00 0.00 0.00 0.00 0.00 0.00 0.00 0.00 0.00 0.00 0.00 0.00 0.00 0.00 0.00 0.00 0.00 0.00 0.00 0.00 0.00 0.00 0.01 0.01 0.02 0.07 0.05 0.02 0.03 0.05 0.06 0.11 0.15 0.21 0.26
0.03 0.06 0.04 0.00 0.00 0.00 0.00 0.00 0.00 0.00 0.00 0.00 0.00 0.00 0.00 0.00 0.00 0.00 0.00 0.00 0.00 0.00 0.00 0.00 0.00 0.00 0.00 0.01 0.01 0.03 0.05 0.06 0.06 0.09 0.14 0.08 0.05 0.07 0.04 0.07 0.08 0.12 0.18

GFSSE_prec_precacc_063.txt.gz
Total_Precipitation_Accumulation
0.03 0.01 0.02 0.02 0.02 0.04 0.03 0.00 0.00 0.00 0.02 0.06 0.09 0.13 0.17 0.17 0.23 0.32 0.30 0.31 0.33 0.29 0.30 0.25 0.21 0.11 0.00 0.02 0.02 0.02 0.02 0.03 0.03 0.02 0.04 0.08 0.10 0.07 0.07 0.19 0.11 0.14 0.30
0.08 0.02 0.02 0.03 0.02 0.06 0.11 0.05 0.02 0.02 0.02 0.05 0.10 0.12 0.17 0.21 0.32 0.40 0.39 0.38 0.41 0.33 0.33 0.27 0.23 0.19 0.12 0.12 0.08 0.05 0.05 0.05 0.03 0.03 0.05 0.09 0.19 0.15 0.05 0.10 0.07 0.11 0.15
0.15 0.03 0.01 0.01 0.00 0.02 0.06 0.08 0.06 0.04 0.02 0.05 0.08 0.16 0.27 0.33 0.50 0.51 0.37 0.33 0.54 0.69 0.54 0.40 0.37 0.49 0.45 0.27 0.11 0.07 0.06 0.06 0.04 0.03 0.02 0.17 0.27 0.19 0.13 0.09 0.09 0.12 0.14
0.06 0.02 0.01 0.00 0.00 0.00 0.01 0.01 0.03 0.03 0.02 0.02 0.03 0.07 0.28 0.35 0.33 0.31 0.44 0.41 0.43 0.47 0.59 0.50 0.75 1.15 0.97 0.72 0.34 0.17 0.11 0.05 0.02 0.02 0.06 0.20 0.23 0.17 0.13 0.07 0.11 0.12 0.10
0.11 0.07 0.03 0.05 0.02 0.00 0.00 0.02 0.02 0.02 0.01 0.00 0.01 0.05 0.12 0.12 0.25 0.24 0.44 0.33 0.19 0.18 0.45 0.60 0.71 0.93 0.83 0.98 1.08 0.69 0.31 0.08 0.02 0.03 0.08 0.05 0.14 0.22 0.15 0.09 0.08 0.10 0.05
0.22 0.24 0.14 0.28 0.13 0.03 0.03 0.02 0.03 0.01 0.00 0.00 0.00 0.01 0.07 0.08 0.13 0.18 0.39 0.46 0.51 0.44 0.77 1.15 1.76 1.28 0.72 1.05 1.11 0.71 0.30 0.04 0.01 0.04 0.08 0.06 0.15 0.27 0.20 0.15 0.10 0.08 0.08
0.84 0.75 0.60 0.48 0.38 0.19 0.08 0.06 0.02 0.00 0.00 0.00 0.00 0.00 0.00 0.01 0.03 0.05 0.07 0.19 0.52 1.17 1.32 1.12 1.24 1.41 0.98 0.29 0.15 0.21 0.14 0.05 0.07 0.13 0.14 0.10 0.15 0.22 0.21 0.20 0.17 0.11 0.09
1.35 0.95 0.85 0.78 0.79 0.52 0.18 0.04 0.00 0.00 0.00 0.00 0.00 0.00 0.00 0.00 0.00 0.00 0.01 0.04 0.07 0.10 0.15 0.16 0.14 0.11 0.16 0.09 0.03 0.03 0.04 0.05 0.05 0.16 0.17 0.16 0.15 0.13 0.12 0.15 0.12 0.09 0.10
1.09 1.17 1.18 0.81 0.75 0.34 0.01 0.00 0.00 0.00 0.00 0.00 0.00 0.00 0.01 0.01 0.00 0.00 0.00 0.00 0.00 0.03 0.06 0.09 0.08 0.02 0.01 0.01 0.01 0.01 0.01 0.01 0.05 0.08 0.07 0.06 0.09 0.13 0.20 0.21 0.16 0.14 0.09
1.18 0.77 0.73 0.50 0.40 0.09 0.00 0.00 0.00 0.00 0.00 0.00 0.00 0.00 0.00 0.00 0.00 0.00 0.01 0.01 0.01 0.03 0.05 0.07 0.08 0.03 0.02 0.00 0.00 0.00 0.00 0.00 0.00 0.00 0.00 0.01 0.04 0.08 0.20 0.30 0.27 0.24 0.18
1.98 2.32 1.13 0.48 0.36 0.10 0.00 0.00 0.00 0.00 0.00 0.00 0.00 0.00 0.00 0.02 0.00 0.00 0.02 0.03 0.04 0.03 0.04 0.06 0.09 0.05 0.01 0.00 0.00 0.00 0.00 0.00 0.00 0.00 0.00 0.00 0.02 0.06 0.14 0.20 0.24 0.25 0.24
1.31 1.22 0.76 0.48 0.13 0.01 0.00 0.00 0.02 0.02 0.00 0.00 0.01 0.00 0.00 0.02 0.01 0.00 0.01 0.04 0.07 0.06 0.06 0.13 0.15 0.08 0.04 0.04 0.02 0.00 0.00 0.00 0.00 0.00 0.01 0.00 0.02 0.03 0.10 0.16 0.17 0.16 0.16
0.68 0.59 0.46 0.20 0.10 0.00 0.00 0.00 0.02 0.01 0.00 0.00 0.00 0.02 0.02 0.01 0.04 0.05 0.11 0.16 0.12 0.12 0.18 0.18 0.37 0.41 0.34 0.20 0.11 0.09 0.03 0.00 0.00 0.00 0.00 0.00 0.02 0.02 0.10 0.17 0.18 0.20 0.22
0.22 0.27 0.24 0.14 0.02 0.00 0.00 0.00 0.00 0.00 0.00 0.01 0.04 0.05 0.10 0.16 0.21 0.13 0.08 0.10 0.08 0.09 0.10 0.19 0.39 0.33 0.26 0.31 0.28 0.16 0.08 0.04 0.01 0.01 0.01 0.01 0.01 0.00 0.00 0.04 0.15 0.25 0.24
0.14 0.07 0.07 0.02 0.00 0.00 0.00 0.00 0.01 0.02 0.05 0.10 0.13 0.17 0.25 0.40 0.44 0.30 0.20 0.03 0.01 0.01 0.04 0.04 0.07 0.12 0.14 0.13 0.11 0.11 0.07 0.05 0.03 0.01 0.00 0.01 0.01 0.01 0.00 0.00 0.04 0.17 0.27
0.02 0.01 0.01 0.00 0.00 0.00 0.00 0.02 0.03 0.05 0.06 0.09 0.12 0.15 0.14 0.19 0.21 0.12 0.08 0.06 0.04 0.02 0.01 0.03 0.03 0.04 0.05 0.06 0.10 0.10 0.06 0.05 0.03 0.03 0.02 0.02 0.02 0.01 0.00 0.01 0.01 0.08 0.22
0.00 0.00 0.00 0.01 0.01 0.06 0.02 0.00 0.00 0.00 0.01 0.04 0.09 0.08 0.10 0.14 0.12 0.08 0.04 0.02 0.01 0.00 0.00 0.00 0.00 0.02 0.04 0.07 0.12 0.19 0.16 0.09 0.06 0.05 0.04 0.05 0.06 0.08 0.07 0.01 0.00 0.03 0.10
0.00 0.00 0.04 0.21 0.36 0.32 0.22 0.03 0.02 0.02 0.05 0.13 0.11 0.08 0.11 0.11 0.07 0.02 0.00 0.01 0.00 0.00 0.00 0.00 0.00 0.00 0.01 0.04 0.05 0.04 0.02 0.04 0.04 0.03 0.02 0.03 0.07 0.11 0.16 0.15 0.08 0.04 0.05
0.00 0.01 0.21 0.53 0.79 0.89 0.65 0.56 0.69 0.65 0.36 0.17 0.06 0.02 0.02 0.01 0.00 0.00 0.00 0.00 0.00 0.00 0.00 0.00 0.00 0.00 0.00 0.00 0.00 0.01 0.01 0.01 0.02 0.03 0.02 0.01 0.01 0.03 0.08 0.10 0.13 0.13 0.11
0.01 0.06 0.42 0.76 0.96 1.09 1.66 1.49 0.86 0.27 0.08 0.02 0.00 0.00 0.00 0.00 0.00 0.00 0.00 0.00 0.00 0.00 0.00 0.00 0.00 0.00 0.00 0.00 0.00 0.00 0.00 0.02 0.02 0.03 0.03 0.02 0.02 0.02 0.02 0.04 0.05 0.07 0.11
0.08 0.27 0.70 0.92 1.06 0.90 0.63 0.23 0.05 0.01 0.01 0.00 0.00 0.00 0.00 0.00 0.00 0.00 0.00 0.00 0.00 0.00 0.00 0.00 0.00 0.00 0.00 0.00 0.01 0.00 0.00 0.00 0.01 0.04 0.05 0.08 0.08 0.07 0.05 0.05 0.06 0.04 0.04
0.26 0.36 0.39 0.22 0.16 0.04 0.01 0.00 0.00 0.00 0.00 0.00 0.00 0.00 0.00 0.00 0.00 0.00 0.00 0.00 0.00 0.00 0.00 0.00 0.00 0.00 0.00 0.00 0.01 0.01 0.00 0.00 0.00 0.01 0.03 0.07 0.08 0.12 0.12 0.08 0.08 0.07 0.03
0.14 0.17 0.06 0.04 0.04 0.01 0.02 0.03 0.02 0.00 0.00 0.00 0.00 0.00 0.00 0.00 0.00 0.00 0.00 0.00 0.00 0.00 0.00 0.00 0.00 0.00 0.00 0.00 0.00 0.02 0.02 0.01 0.01 0.00 0.01 0.05 0.07 0.07 0.08 0.09 0.08 0.09 0.06
0.01 0.03 0.02 0.06 0.09 0.06 0.06 0.09 0.04 0.00 0.00 0.00 0.00 0.00 0.00 0.00 0.00 0.00 0.00 0.00 0.00 0.00 0.00 0.00 0.00 0.00 0.00 0.00 0.00 0.00 0.02 0.05 0.05 0.03 0.00 0.00 0.04 0.07 0.11 0.13 0.14 0.14 0.13
0.03 0.03 0.09 0.12 0.10 0.04 0.05 0.04 0.00 0.00 0.00 0.00 0.00 0.00 0.00 0.00 0.00 0.00 0.00 0.00 0.00 0.00 0.00 0.00 0.00 0.00 0.00 0.00 0.00 0.00 0.01 0.01 0.02 0.07 0.05 0.02 0.03 0.05 0.06 0.11 0.15 0.21 0.26
0.10 0.15 0.13 0.08 0.04 0.02 0.03 0.00 0.00 0.00 0.00 0.00 0.00 0.00 0.00 0.00 0.00 0.00 0.00 0.00 0.00 0.00 0.00 0.00 0.00 0.00 0.00 0.01 0.01 0.03 0.05 0.06 0.06 0.09 0.14 0.08 0.05 0.07 0.04 0.07 0.08 0.12 0.18

GFSSE_prec_precacc_069.txt.gz
Total_Precipitation_Accumulation
0.04 0.01 0.02 0.02 0.02 0.04 0.03 0.00 0.00 0.00 0.02 0.07 0.09 0.14 0.17 0.17 0.23 0.32 0.30 0.31 0.33 0.29 0.30 0.25 0.21 0.11 0.00 0.02 0.02 0.02 0.02 0.03 0.03 0.03 0.04 0.08 0.10 0.07 0.07 0.19 0.11 0.14 0.30
0.09 0.02 0.02 0.03 0.02 0.06 0.11 0.05 0.02 0.02 0.02 0.05 0.10 0.12 0.17 0.21 0.32 0.40 0.39 0.38 0.41 0.33 0.33 0.27 0.23 0.19 0.12 0.12 0.08 0.05 0.05 0.05 0.03 0.03 0.05 0.09 0.19 0.15 0.05 0.10 0.07 0.11 0.15
0.17 0.05 0.01 0.01 0.00 0.02 0.06 0.08 0.06 0.04 0.02 0.05 0.08 0.16 0.27 0.33 0.50 0.51 0.37 0.33 0.54 0.69 0.54 0.40 0.37 0.49 0.45 0.27 0.11 0.07 0.06 0.06 0.04 0.03 0.02 0.17 0.27 0.19 0.13 0.09 0.09 0.12 0.14
0.09 0.05 0.03 0.01 0.00 0.00 0.01 0.01 0.03 0.03 0.02 0.02 0.03 0.07 0.28 0.35 0.33 0.31 0.44 0.41 0.43 0.47 0.59 0.50 0.75 1.15 0.97 0.72 0.34 0.17 0.11 0.05 0.02 0.02 0.06 0.20 0.23 0.17 0.13 0.07 0.11 0.12 0.10
0.14 0.08 0.05 0.14 0.04 0.00 0.01 0.03 0.02 0.02 0.01 0.00 0.01 0.05 0.12 0.12 0.25 0.24 0.44 0.33 0.19 0.18 0.45 0.60 0.71 0.93 0.83 0.98 1.08 0.69 0.31 0.08 0.02 0.03 0.08 0.05 0.14 0.22 0.15 0.09 0.08 0.10 0.05
0.27 0.28 0.29 0.51 0.28 0.04 0.03 0.03 0.03 0.01 0.00 0.00 0.00 0.01 0.07 0.08 0.13 0.18 0.39 0.46 0.51 0.44 0.77 1.15 1.76 1.28 0.72 1.05 1.11 0.71 0.30 0.04 0.01 0.04 0.08 0.06 0.15 0.27 0.20 0.15 0.10 0.08 0.08
0.92 0.97 0.74 0.74 0.68 0.25 0.17 0.11 0.03 0.00 0.00 0.00 0.00 0.00 0.00 0.01 0.03 0.05 0.07 0.19 0.52 1.17 1.32 1.12 1.24 1.41 0.98 0.29 0.15 0.21 0.14 0.05 0.07 0.13 0.14 0.10 0.15 0.22 0.21 0.20 0.17 0.11 0.09
1.80 1.50 1.24 1.09 1.25 0.88 0.53 0.15 0.00 0.00 0.00 0.00 0.00 0.00 0.00 0.00 0.00 0.00 0.01 0.04 0.07 0.10 0.15 0.16 0.14 0.11 0.16 0.09 0.03 0.03 0.04 0.05 0.05 0.16 0.17 0.16 0.15 0.13 0.12 0.15 0.12 0.09 0.10
1.69 1.80 1.59 1.14 1.01 0.63 0.26 0.02 0.00 0.00 0.00 0.00 0.00 0.00 0.01 0.01 0.00 0.00 0.00 0.00 0.00 0.03 0.06 0.09 0.08 0.02 0.01 0.01 0.01 0.01 0.01 0.01 0.05 0.08 0.07 0.06 0.09 0.13 0.20 0.21 0.16 0.14 0.09
1.68 1.16 1.17 1.29 1.06 0.54 0.21 0.08 0.00 0.00 0.00 0.00 0.00 0.00 0.00 0.00 0.00 0.00 0.01 0.01 0.01 0.03 0.05 0.07 0.08 0.03 0.02 0.00 0.00 0.00 0.00 0.00 0.00 0.00 0.00 0.01 0.04 0.08 0.20 0.30 0.27 0.24 0.18
2.24 3.03 2.44 1.93 1.50 0.59 0.16 0.08 0.00 0.00 0.00 0.00 0.00 0.00 0.00 0.02 0.00 0.00 0.02 0.03 0.04 0.03 0.04 0.06 0.09 0.05 0.01 0.00 0.00 0.00 0.00 0.00 0.00 0.00 0.00 0.00 0.02 0.06 0.14 0.20 0.24 0.25 0.24
1.63 1.71 1.80 1.32 0.68 0.50 0.11 0.01 0.02 0.02 0.00 0.00 0.01 0.00 0.00 0.02 0.01 0.00 0.01 0.04 0.07 0.06 0.06 0.13 0.15 0.08 0.04 0.04 0.02 0.00 0.00 0.00 0.00 0.00 0.01 0.00 0.02 0.03 0.10 0.16 0.17 0.16 0.16
1.12 1.10 1.04 0.54 0.41 0.25 0.04 0.00 0.02 0.01 0.00 0.00 0.00 0.02 0.02 0.01 0.04 0.05 0.11 0.16 0.12 0.12 0.18 0.18 0.37 0.41 0.34 0.20 0.11 0.09 0.03 0.00 0.00 0.00 0.00 0.00 0.02 0.02 0.10 0.17 0.18 0.20 0.22
0.75 0.76 0.71 0.41 0.24 0.19 0.01 0.00 0.00 0.00 0.00 0.01 0.04 0.05 0.10 0.16 0.21 0.13 0.08 0.10 0.08 0.09 0.10 0.19 0.39 0.33 0.26 0.31 0.28 0.16 0.08 0.04 0.01 0.01 0.01 0.01 0.01 0.00 0.01 0.04 0.15 0.25 0.24
0.45 0.26 0.25 0.12 0.11 0.04 0.00 0.00 0.01 0.02 0.05 0.10 0.13 0.17 0.25 0.40 0.44 0.30 0.20 0.04 0.02 0.01 0.04 0.04 0.07 0.12 0.14 0.13 0.11 0.11 0.07 0.05 0.03 0.01 0.00 0.01 0.01 0.01 0.00 0.00 0.04 0.17 0.27
0.09 0.04 0.03 0.04 0.03 0.01 0.00 0.02 0.03 0.05 0.06 0.09 0.12 0.16 0.16 0.22 0.23 0.14 0.09 0.06 0.04 0.02 0.01 0.03 0.03 0.04 0.05 0.06 0.10 0.10 0.06 0.05 0.03 0.03 0.02 0.02 0.02 0.01 0.00 0.01 0.01 0.08 0.22
0.00 0.00 0.00 0.01 0.02 0.07 0.02 0.00 0.00 0.00 0.01 0.05 0.11 0.11 0.15 0.19 0.16 0.09 0.04 0.02 0.01 0.00 0.00 0.00 0.00 0.02 0.04 0.07 0.12 0.19 0.16 0.09 0.06 0.05 0.04 0.05 0.06 0.08 0.07 0.01 0.00 0.03 0.10
0.00 0.00 0.04 0.22 0.36 0.32 0.22 0.03 0.02 0.02 0.09 0.20 0.16 0.12 0.13 0.12 0.08 0.02 0.00 0.01 0.00 0.00 0.00 0.00 0.00 0.00 0.01 0.04 0.05 0.04 0.02 0.04 0.04 0.03 0.02 0.03 0.07 0.11 0.16 0.15 0.08 0.04 0.05
0.00 0.01 0.21 0.53 0.79 0.89 0.65 0.56 0.69 0.65 0.47 0.30 0.15 0.04 0.02 0.01 0.00 0.00 0.00 0.00 0.00 0.00 0.00 0.00 0.00 0.00 0.00 0.00 0.00 0.01 0.01 0.01 0.02 0.03 0.02 0.01 0.01 0.03 0.08 0.10 0.13 0.13 0.11
0.01 0.06 0.42 0.77 0.96 1.09 1.66 1.49 0.87 0.31 0.16 0.12 0.08 0.04 0.00 0.00 0.00 0.00 0.00 0.00 0.00 0.00 0.00 0.00 0.00 0.00 0.00 0.00 0.00 0.00 0.00 0.02 0.02 0.03 0.03 0.02 0.02 0.02 0.02 0.04 0.05 0.07 0.11
0.08 0.27 0.70 0.92 1.07 0.90 0.63 0.23 0.05 0.05 0.07 0.09 0.03 0.01 0.00 0.00 0.00 0.00 0.00 0.00 0.00 0.00 0.00 0.00 0.00 0.00 0.00 0.00 0.01 0.00 0.00 0.00 0.01 0.04 0.05 0.08 0.08 0.07 0.05 0.05 0.06 0.04 0.04
0.26 0.36 0.39 0.22 0.16 0.04 0.01 0.00 0.01 0.02 0.03 0.03 0.01 0.00 0.00 0.00 0.00 0.00 0.00 0.00 0.00 0.00 0.00 0.00 0.00 0.00 0.00 0.00 0.01 0.01 0.00 0.00 0.00 0.01 0.03 0.07 0.08 0.12 0.12 0.08 0.08 0.07 0.03
0.14 0.17 0.06 0.04 0.04 0.02 0.02 0.06 0.09 0.09 0.06 0.02 0.01 0.00 0.00 0.00 0.00 0.00 0.00 0.00 0.00 0.00 0.00 0.00 0.00 0.00 0.00 0.00 0.00 0.02 0.02 0.01 0.01 0.00 0.01 0.05 0.07 0.07 0.08 0.09 0.08 0.09 0.06
0.01 0.03 0.02 0.06 0.09 0.09 0.11 0.20 0.18 0.13 0.11 0.05 0.00 0.00 0.00 0.00 0.00 0.00 0.00 0.00 0.00 0.00 0.00 0.00 0.00 0.00 0.00 0.00 0.00 0.00 0.02 0.05 0.05 0.03 0.00 0.00 0.04 0.07 0.11 0.13 0.14 0.14 0.13
0.04 0.04 0.09 0.13 0.14 0.10 0.15 0.23 0.17 0.15 0.12 0.05 0.00 0.00 0.00 0.00 0.00 0.00 0.00 0.00 0.00 0.00 0.00 0.00 0.00 0.00 0.00 0.00 0.00 0.00 0.01 0.01 0.02 0.07 0.05 0.02 0.03 0.05 0.06 0.11 0.15 0.21 0.26
0.11 0.17 0.15 0.13 0.14 0.14 0.20 0.23 0.22 0.16 0.09 0.03 0.00 0.00 0.00 0.00 0.00 0.00 0.00 0.00 0.00 0.00 0.00 0.00 0.00 0.00 0.00 0.01 0.01 0.03 0.05 0.06 0.06 0.09 0.14 0.08 0.05 0.07 0.04 0.07 0.08 0.12 0.18

GFSSE_prec_precacc_072.txt.gz
Total_Precipitation_Accumulation
0.05 0.01 0.02 0.02 0.03 0.05 0.03 0.00 0.00 0.00 0.02 0.07 0.09 0.14 0.17 0.17 0.23 0.32 0.30 0.31 0.33 0.29 0.30 0.25 0.21 0.11 0.00 0.02 0.02 0.02 0.03 0.03 0.03 0.03 0.04 0.08 0.10 0.07 0.07 0.19 0.11 0.14 0.30
0.10 0.03 0.03 0.04 0.02 0.06 0.11 0.05 0.02 0.02 0.02 0.05 0.10 0.12 0.17 0.21 0.32 0.40 0.39 0.38 0.41 0.33 0.33 0.27 0.23 0.19 0.12 0.12 0.08 0.05 0.05 0.05 0.03 0.03 0.05 0.09 0.19 0.15 0.05 0.10 0.07 0.11 0.15
0.18 0.05 0.01 0.01 0.00 0.02 0.06 0.08 0.06 0.04 0.02 0.05 0.08 0.16 0.27 0.33 0.50 0.51 0.37 0.33 0.54 0.69 0.54 0.40 0.37 0.49 0.45 0.27 0.11 0.07 0.06 0.06 0.04 0.03 0.02 0.17 0.27 0.19 0.13 0.09 0.09 0.12 0.14
0.10 0.05 0.03 0.01 0.00 0.00 0.01 0.01 0.03 0.03 0.02 0.02 0.03 0.07 0.28 0.35 0.33 0.31 0.44 0.41 0.43 0.47 0.59 0.50 0.75 1.15 0.97 0.72 0.34 0.17 0.11 0.05 0.02 0.02 0.06 0.20 0.23 0.17 0.13 0.07 0.11 0.12 0.10
0.15 0.08 0.05 0.14 0.04 0.00 0.01 0.03 0.02 0.02 0.01 0.00 0.01 0.05 0.12 0.12 0.25 0.24 0.44 0.33 0.19 0.18 0.45 0.60 0.71 0.93 0.83 0.98 1.08 0.69 0.31 0.08 0.02 0.03 0.08 0.05 0.14 0.22 0.15 0.09 0.08 0.10 0.05
0.29 0.28 0.29 0.52 0.31 0.04 0.03 0.03 0.03 0.01 0.00 0.00 0.00 0.01 0.07 0.08 0.13 0.18 0.39 0.46 0.51 0.44 0.77 1.15 1.76 1.28 0.72 1.05 1.11 0.71 0.30 0.04 0.01 0.04 0.08 0.06 0.15 0.27 0.20 0.15 0.10 0.08 0.08
0.96 0.98 0.74 0.78 0.74 0.25 0.17 0.11 0.03 0.00 0.00 0.00 0.00 0.00 0.00 0.01 0.03 0.05 0.07 0.19 0.52 1.17 1.32 1.12 1.24 1.41 0.98 0.29 0.15 0.21 0.14 0.05 0.07 0.13 0.14 0.10 0.15 0.22 0.21 0.20 0.17 0.11 0.09
2.04 1.65 1.31 1.30 1.45 0.98 0.62 0.15 0.00 0.00 0.00 0.00 0.00 0.00 0.00 0.00 0.00 0.00 0.01 0.04 0.07 0.10 0.15 0.16 0.14 0.11 0.16 0.09 0.03 0.03 0.04 0.05 0.05 0.16 0.17 0.16 0.15 0.13 0.12 0.15 0.12 0.09 0.10
2.13 2.06 1.81 1.32 1.26 0.87 0.46 0.02 0.00 0.00 0.00 0.00 0.00 0.00 0.01 0.01 0.00 0.00 0.00 0.00 0.00 0.03 0.06 0.09 0.08 0.02 0.01 0.01 0.01 0.01 0.01 0.01 0.05 0.08 0.07 0.06 0.09 0.13 0.20 0.21 0.16 0.14 0.09
2.10 1.49 1.38 1.52 1.34 0.84 0.36 0.14 0.00 0.00 0.00 0.00 0.00 0.00 0.00 0.00 0.00 0.00 0.01 0.01 0.01 0.03 0.05 0.07 0.08 0.03 0.02 0.00 0.00 0.00 0.00 0.00 0.00 0.00 0.00 0.01 0.04 0.08 0.20 0.30 0.27 0.24 0.18
2.53 3.41 2.77 2.21 1.84 0.83 0.26 0.17 0.01 0.00 0.00 0.00 0.00 0.00 0.00 0.02 0.00 0.00 0.02 0.03 0.04 0.03 0.04 0.06 0.09 0.05 0.01 0.00 0.00 0.00 0.00 0.00 0.00 0.00 0.00 0.00 0.02 0.06 0.14 0.20 0.24 0.25 0.24
1.69 1.96 2.26 1.87 1.28 0.94 0.37 0.12 0.05 0.02 0.00 0.00 0.01 0.00 0.00 0.02 0.01 0.00 0.01 0.04 0.07 0.06 0.06 0.13 0.15 0.08 0.04 0.04 0.02 0.00 0.00 0.00 0.00 0.00 0.01 0.00 0.02 0.03 0.10 0.16 0.17 0.16 0.16
1.16 1.19 1.18 0.66 0.49 0.41 0.27 0.22 0.12 0.02 0.00 0.00 0.00 0.02 0.02 0.01 0.04 0.05 0.11 0.16 0.12 0.12 0.18 0.18 0.37 0.41 0.34 0.20 0.11 0.09 0.03 0.00 0.00 0.00 0.00 0.00 0.02 0.02 0.10 0.17 0.18 0.20 0.22
0.93 0.90 0.80 0.48 0.27 0.21 0.03 0.01 0.01 0.00 0.00 0.01 0.04 0.05 0.10 0.16 0.21 0.13 0.08 0.10 0.08 0.09 0.10 0.19 0.39 0.33 0.26 0.31 0.28 0.16 0.08 0.04 0.01 0.01 0.01 0.01 0.01 0.00 0.01 0.04 0.15 0.25 0.24
0.82 0.90 0.62 0.37 0.25 0.13 0.05 0.01 0.01 0.02 0.05 0.10 0.13 0.17 0.25 0.40 0.44 0.30 0.20 0.04 0.02 0.02 0.04 0.04 0.07 0.12 0.14 0.13 0.11 0.11 0.07 0.05 0.03 0.01 0.00 0.01 0.01 0.01 0.00 0.01 0.04 0.17 0.27
0.31 0.35 0.34 0.27 0.14 0.10 0.03 0.03 0.03 0.05 0.06 0.09 0.12 0.16 0.16 0.22 0.24 0.16 0.11 0.07 0.05 0.02 0.01 0.03 0.03 0.04 0.05 0.06 0.10 0.10 0.06 0.05 0.03 0.03 0.02 0.02 0.02 0.01 0.00 0.01 0.01 0.08 0.22
0.06 0.10 0.09 0.05 0.07 0.14 0.04 0.00 0.00 0.00 0.01 0.05 0.11 0.12 0.16 0.24 0.21 0.13 0.05 0.02 0.01 0.00 0.00 0.00 0.00 0.02 0.04 0.07 0.12 0.19 0.16 0.09 0.06 0.05 0.04 0.05 0.06 0.08 0.07 0.01 0.00 0.03 0.10
0.02 0.01 0.05 0.22 0.40 0.39 0.22 0.03 0.02 0.02 0.09 0.21 0.18 0.16 0.19 0.16 0.10 0.03 0.00 0.01 0.00 0.00 0.00 0.00 0.00 0.00 0.01 0.04 0.05 0.04 0.02 0.04 0.04 0.03 0.02 0.03 0.07 0.11 0.16 0.15 0.08 0.04 0.05
0.00 0.01 0.21 0.53 0.85 0.94 0.66 0.56 0.69 0.65 0.47 0.31 0.18 0.07 0.07 0.03 0.01 0.00 0.00 0.00 0.00 0.00 0.00 0.00 0.00 0.00 0.00 0.00 0.00 0.01 0.01 0.01 0.02 0.03 0.02 0.01 0.01 0.03 0.08 0.10 0.13 0.13 0.11
0.01 0.06 0.42 0.77 1.02 1.10 1.66 1.49 0.87 0.31 0.17 0.14 0.11 0.11 0.10 0.01 0.00 0.00 0.00 0.00 0.00 0.00 0.00 0.00 0.00 0.00 0.00 0.00 0.00 0.00 0.00 0.02 0.02 0.03 0.03 0.02 0.02 0.02 0.02 0.04 0.05 0.07 0.11
0.08 0.27 0.70 0.92 1.09 0.90 0.63 0.23 0.05 0.06 0.10 0.14 0.08 0.08 0.04 0.00 0.00 0.00 0.00 0.00 0.00 0.00 0.00 0.00 0.00 0.00 0.00 0.00 0.01 0.00 0.00 0.00 0.01 0.04 0.05 0.08 0.08 0.07 0.05 0.05 0.06 0.04 0.04
0.26 0.36 0.39 0.22 0.17 0.06 0.01 0.00 0.01 0.02 0.06 0.08 0.04 0.02 0.00 0.00 0.00 0.00 0.00 0.00 0.00 0.00 0.00 0.00 0.00 0.00 0.00 0.00 0.01 0.01 0.00 0.00 0.00 0.01 0.03 0.07 0.08 0.12 0.12 0.08 0.08 0.07 0.03
0.14 0.17 0.06 0.04 0.05 0.03 0.03 0.06 0.09 0.09 0.06 0.05 0.04 0.03 0.00 0.00 0.00 0.00 0.00 0.00 0.00 0.00 0.00 0.00 0.00 0.00 0.00 0.00 0.00 0.02 0.02 0.01 0.01 0.00 0.01 0.05 0.07 0.07 0.08 0.09 0.08 0.09 0.06
0.01 0.03 0.02 0.06 0.09 0.09 0.11 0.20 0.18 0.13 0.13 0.09 0.05 0.02 0.00 0.00 0.00 0.00 0.00 0.00 0.00 0.00 0.00 0.00 0.00 0.00 0.00 0.00 0.00 0.00 0.02 0.05 0.05 0.03 0.00 0.00 0.04 0.07 0.11 0.13 0.14 0.14 0.13
0.04 0.04 0.09 0.13 0.14 0.10 0.15 0.23 0.18 0.15 0.14 0.12 0.07 0.04 0.00 0.00 0.00 0.00 0.00 0.00 0.00 0.00 0.00 0.00 0.00 0.00 0.00 0.00 0.00 0.00 0.01 0.01 0.02 0.07 0.05 0.02 0.03 0.05 0.06 0.11 0.15 0.21 0.26
0.11 0.17 0.15 0.13 0.14 0.14 0.20 0.25 0.24 0.18 0.12 0.09 0.07 0.04 0.01 0.00 0.00 0.00 0.00 0.00 0.00 0.00 0.00 0.00 0.00 0.00 0.00 0.01 0.01 0.03 0.05 0.06 0.06 0.09 0.14 0.08 0.05 0.07 0.04 0.07 0.08 0.12 0.18

GFSSE_prec_precacc_075.txt.gz
Total_Precipitation_Accumulation
0.05 0.01 0.02 0.03 0.04 0.05 0.03 0.00 0.00 0.00 0.02 0.07 0.09 0.14 0.17 0.17 0.23 0.32 0.30 0.31 0.33 0.29 0.30 0.25 0.21 0.11 0.00 0.02 0.02 0.02 0.03 0.03 0.03 0.03 0.04 0.08 0.10 0.07 0.07 0.19 0.11 0.14 0.30
0.10 0.03 0.03 0.04 0.03 0.07 0.11 0.05 0.02 0.02 0.02 0.05 0.10 0.12 0.17 0.21 0.32 0.40 0.39 0.38 0.41 0.33 0.33 0.27 0.23 0.19 0.12 0.12 0.08 0.05 0.05 0.05 0.03 0.03 0.05 0.09 0.19 0.15 0.05 0.10 0.07 0.11 0.15
0.18 0.05 0.01 0.02 0.01 0.02 0.06 0.08 0.06 0.04 0.02 0.05 0.08 0.16 0.27 0.33 0.50 0.51 0.37 0.33 0.54 0.69 0.54 0.40 0.37 0.49 0.45 0.27 0.11 0.07 0.06 0.06 0.04 0.03 0.02 0.17 0.27 0.19 0.13 0.09 0.09 0.12 0.14
0.10 0.05 0.03 0.01 0.01 0.00 0.01 0.01 0.03 0.03 0.02 0.02 0.03 0.07 0.28 0.35 0.33 0.31 0.44 0.41 0.43 0.47 0.59 0.50 0.75 1.15 0.97 0.72 0.34 0.17 0.11 0.05 0.02 0.02 0.06 0.20 0.23 0.17 0.13 0.07 0.11 0.12 0.10
0.15 0.08 0.05 0.15 0.05 0.01 0.01 0.03 0.03 0.03 0.01 0.00 0.01 0.05 0.12 0.12 0.25 0.24 0.44 0.33 0.19 0.18 0.45 0.60 0.71 0.93 0.83 0.98 1.08 0.69 0.31 0.08 0.02 0.03 0.08 0.05 0.14 0.22 0.15 0.09 0.08 0.10 0.05
0.30 0.28 0.29 0.52 0.31 0.04 0.04 0.03 0.03 0.01 0.00 0.00 0.00 0.01 0.07 0.08 0.13 0.18 0.39 0.46 0.51 0.44 0.77 1.15 1.76 1.28 0.72 1.05 1.11 0.71 0.30 0.04 0.01 0.04 0.08 0.06 0.15 0.27 0.20 0.15 0.10 0.08 0.08
0.99 1.00 0.74 0.80 0.78 0.26 0.17 0.11 0.03 0.00 0.00 0.00 0.00 0.00 0.00 0.01 0.03 0.05 0.07 0.19 0.52 1.17 1.32 1.12 1.24 1.41 0.98 0.29 0.15 0.21 0.14 0.05 0.07 0.13 0.14 0.10 0.15 0.22 0.21 0.20 0.17 0.11 0.09
2.34 1.78 1.31 1.36 1.60 1.04 0.63 0.15 0.00 0.00 0.00 0.00 0.00 0.00 0.00 0.00 0.00 0.00 0.01 0.04 0.07 0.10 0.15 0.16 0.14 0.11 0.16 0.09 0.03 0.03 0.04 0.05 0.05 0.16 0.17 0.16 0.15 0.13 0.12 0.15 0.12 0.09 0.10
3.30 2.63 1.89 1.45 1.48 1.04 0.55 0.07 0.00 0.00 0.00 0.00 0.00 0.00 0.01 0.01 0.00 0.00 0.00 0.00 0.00 0.03 0.06 0.09 0.08 0.02 0.01 0.01 0.01 0.01 0.01 0.01 0.05 0.08 0.07 0.06 0.09 0.13 0.20 0.21 0.16 0.14 0.09
3.19 2.93 1.60 1.70 1.54 1.02 0.52 0.21 0.00 0.00 0.00 0.00 0.00 0.00 0.00 0.00 0.00 0.00 0.01 0.01 0.01 0.03 0.05 0.07 0.08 0.03 0.02 0.00 0.00 0.00 0.00 0.00 0.00 0.00 0.00 0.01 0.04 0.08 0.20 0.30 0.27 0.24 0.18
2.95 3.82 3.02 2.41 1.98 1.00 0.47 0.26 0.01 0.00 0.00 0.00 0.00 0.00 0.00 0.02 0.00 0.00 0.02 0.03 0.04 0.03 0.04 0.06 0.09 0.05 0.01 0.00 0.00 0.00 0.00 0.00 0.00 0.00 0.00 0.00 0.02 0.06 0.14 0.20 0.24 0.25 0.24
1.78 2.07 2.52 2.15 1.54 1.10 0.52 0.26 0.07 0.02 0.00 0.00 0.01 0.00 0.00 0.02 0.01 0.00 0.01 0.04 0.07 0.06 0.06 0.13 0.15 0.08 0.04 0.04 0.02 0.00 0.00 0.00 0.00 0.00 0.01 0.00 0.02 0.03 0.11 0.16 0.17 0.16 0.16
1.24 1.27 1.29 0.88 0.83 0.72 0.50 0.32 0.17 0.03 0.00 0.00 0.00 0.02 0.02 0.01 0.04 0.05 0.11 0.16 0.12 0.12 0.18 0.18 0.37 0.41 0.34 0.20 0.11 0.09 0.03 0.00 0.00 0.00 0.00 0.00 0.02 0.02 0.11 0.17 0.18 0.20 0.22
1.06 1.00 0.91 0.61 0.36 0.26 0.05 0.02 0.03 0.02 0.01 0.01 0.04 0.05 0.10 0.16 0.21 0.13 0.08 0.10 0.08 0.09 0.10 0.19 0.39 0.33 0.26 0.31 0.28 0.16 0.08 0.04 0.01 0.01 0.01 0.01 0.01 0.00 0.01 0.05 0.15 0.25 0.24
0.91 1.02 0.82 0.49 0.34 0.16 0.06 0.02 0.01 0.02 0.05 0.10 0.13 0.17 0.25 0.41 0.48 0.34 0.21 0.04 0.02 0.02 0.04 0.04 0.07 0.12 0.14 0.13 0.11 0.11 0.07 0.05 0.03 0.01 0.00 0.01 0.01 0.01 0.00 0.01 0.04 0.17 0.27
0.43 0.42 0.48 0.53 0.33 0.23 0.09 0.07 0.07 0.05 0.06 0.09 0.13 0.17 0.18 0.30 0.31 0.18 0.11 0.07 0.05 0.03 0.01 0.03 0.03 0.04 0.05 0.06 0.10 0.10 0.06 0.05 0.03 0.03 0.02 0.02 0.02 0.01 0.00 0.01 0.01 0.08 0.22
0.13 0.24 0.28 0.34 0.41 0.37 0.15 0.03 0.01 0.00 0.01 0.06 0.15 0.18 0.20 0.30 0.24 0.14 0.05 0.02 0.01 0.00 0.00 0.00 0.00 0.02 0.04 0.07 0.12 0.19 0.16 0.09 0.06 0.05 0.04 0.05 0.06 0.08 0.07 0.01 0.00 0.03 0.10
0.06 0.13 0.18 0.39 0.58 0.52 0.26 0.04 0.02 0.02 0.10 0.24 0.22 0.21 0.19 0.16 0.10 0.03 0.00 0.01 0.00 0.00 0.00 0.00 0.00 0.00 0.01 0.04 0.05 0.04 0.02 0.04 0.04 0.03 0.02 0.03 0.07 0.11 0.16 0.15 0.08 0.04 0.05
0.01 0.03 0.27 0.61 1.00 1.03 0.69 0.57 0.69 0.66 0.52 0.38 0.25 0.16 0.08 0.03 0.01 0.00 0.00 0.00 0.00 0.00 0.00 0.00 0.00 0.00 0.00 0.00 0.00 0.01 0.01 0.01 0.02 0.03 0.02 0.01 0.01 0.03 0.08 0.10 0.13 0.13 0.11
0.01 0.06 0.43 0.81 1.13 1.21 1.71 1.50 0.87 0.33 0.25 0.20 0.16 0.17 0.11 0.02 0.00 0.00 0.00 0.00 0.00 0.00 0.00 0.00 0.00 0.00 0.00 0.00 0.00 0.00 0.00 0.02 0.02 0.03 0.03 0.02 0.02 0.02 0.02 0.04 0.05 0.07 0.11
0.08 0.27 0.70 0.97 1.19 0.95 0.65 0.23 0.05 0.07 0.12 0.17 0.12 0.10 0.05 0.02 0.00 0.00 0.00 0.00 0.00 0.00 0.00 0.00 0.00 0.00 0.00 0.00 0.01 0.00 0.00 0.00 0.01 0.04 0.05 0.08 0.08 0.07 0.05 0.05 0.06 0.04 0.04
0.26 0.36 0.40 0.27 0.25 0.10 0.01 0.00 0.01 0.03 0.07 0.11 0.11 0.04 0.01 0.01 0.00 0.00 0.00 0.00 0.00 0.00 0.00 0.00 0.00 0.00 0.00 0.00 0.01 0.01 0.00 0.00 0.00 0.01 0.03 0.07 0.08 0.12 0.12 0.08 0.08 0.07 0.03
0.14 0.17 0.06 0.05 0.11 0.09 0.05 0.06 0.09 0.14 0.08 0.07 0.09 0.04 0.02 0.01 0.00 0.00 0.00 0.00 0.00 0.00 0.00 0.00 0.00 0.00 0.00 0.00 0.00 0.02 0.02 0.01 0.01 0.00 0.01 0.05 0.07 0.07 0.08 0.09 0.08 0.09 0.06
0.01 0.03 0.02 0.06 0.10 0.13 0.17 0.21 0.18 0.15 0.14 0.09 0.05 0.04 0.03 0.02 0.00 0.00 0.00 0.00 0.00 0.00 0.00 0.00 0.00 0.00 0.00 0.00 0.00 0.00 0.02 0.05 0.05 0.03 0.00 0.00 0.04 0.07 0.11 0.13 0.14 0.14 0.13
0.04 0.04 0.09 0.13 0.14 0.11 0.16 0.26 0.18 0.16 0.16 0.15 0.08 0.07 0.07 0.05 0.01 0.00 0.00 0.00 0.00 0.00 0.00 0.00 0.00 0.00 0.00 0.00 0.00 0.00 0.01 0.01 0.02 0.07 0.05 0.02 0.03 0.05 0.06 0.11 0.15 0.21 0.26
0.11 0.17 0.15 0.13 0.14 0.14 0.20 0.26 0.24 0.18 0.13 0.09 0.08 0.07 0.04 0.01 0.00 0.00 0.00 0.00 0.00 0.00 0.00 0.00 0.00 0.00 0.00 0.01 0.01 0.03 0.05 0.06 0.06 0.09 0.14 0.08 0.05 0.07 0.04 0.07 0.08 0.12 0.18

GFSSE_prec_precacc_078.txt.gz
Total_Precipitation_Accumulation
0.09 0.01 0.02 0.03 0.04 0.05 0.03 0.00 0.00 0.00 0.02 0.07 0.09 0.14 0.17 0.17 0.23 0.32 0.30 0.31 0.33 0.29 0.30 0.25 0.21 0.11 0.00 0.02 0.02 0.02 0.03 0.03 0.03 0.03 0.04 0.08 0.10 0.07 0.07 0.19 0.11 0.14 0.30
0.13 0.03 0.03 0.04 0.03 0.07 0.11 0.05 0.02 0.02 0.02 0.05 0.10 0.12 0.17 0.21 0.32 0.40 0.39 0.38 0.41 0.33 0.34 0.27 0.23 0.19 0.12 0.12 0.08 0.05 0.05 0.05 0.03 0.03 0.05 0.09 0.19 0.15 0.05 0.10 0.07 0.11 0.15
0.20 0.05 0.02 0.02 0.01 0.02 0.07 0.08 0.06 0.04 0.02 0.05 0.08 0.16 0.27 0.33 0.50 0.51 0.37 0.33 0.54 0.69 0.54 0.40 0.37 0.49 0.45 0.27 0.11 0.07 0.06 0.06 0.04 0.03 0.02 0.17 0.27 0.19 0.13 0.09 0.09 0.12 0.14
0.18 0.05 0.03 0.02 0.01 0.01 0.01 0.02 0.03 0.03 0.02 0.02 0.03 0.07 0.28 0.35 0.33 0.31 0.44 0.41 0.44 0.47 0.59 0.50 0.75 1.15 0.97 0.72 0.34 0.17 0.11 0.05 0.02 0.02 0.06 0.20 0.23 0.17 0.13 0.07 0.11 0.12 0.10
0.26 0.08 0.06 0.15 0.05 0.02 0.01 0.03 0.03 0.03 0.01 0.00 0.01 0.05 0.12 0.12 0.25 0.24 0.44 0.33 0.19 0.19 0.45 0.60 0.71 0.93 0.83 0.98 1.08 0.69 0.31 0.08 0.02 0.03 0.08 0.05 0.14 0.22 0.15 0.09 0.08 0.10 0.05
0.35 0.30 0.31 0.56 0.34 0.10 0.10 0.06 0.04 0.01 0.00 0.00 0.00 0.01 0.07 0.08 0.13 0.18 0.39 0.46 0.51 0.44 0.77 1.16 1.76 1.28 0.72 1.05 1.11 0.71 0.30 0.04 0.01 0.04 0.08 0.06 0.15 0.27 0.20 0.15 0.10 0.08 0.08
1.09 1.09 0.78 0.86 0.81 0.30 0.23 0.12 0.03 0.00 0.00 0.00 0.00 0.00 0.00 0.01 0.03 0.05 0.07 0.19 0.52 1.17 1.33 1.12 1.24 1.41 0.98 0.29 0.15 0.21 0.14 0.05 0.07 0.13 0.14 0.10 0.15 0.22 0.21 0.20 0.17 0.11 0.09
2.54 1.87 1.31 1.38 1.62 1.08 0.67 0.15 0.00 0.00 0.00 0.00 0.00 0.00 0.00 0.00 0.00 0.00 0.01 0.04 0.07 0.10 0.15 0.16 0.14 0.11 0.16 0.09 0.03 0.03 0.04 0.05 0.05 0.16 0.17 0.16 0.15 0.13 0.12 0.15 0.12 0.09 0.10
4.48 3.56 1.99 1.67 1.67 1.15 0.59 0.08 0.00 0.00 0.00 0.00 0.00 0.00 0.01 0.01 0.00 0.00 0.00 0.00 0.00 0.03 0.06 0.09 0.08 0.02 0.01 0.01 0.01 0.01 0.01 0.01 0.05 0.08 0.07 0.06 0.09 0.13 0.20 0.21 0.16 0.14 0.09
5.28 6.30 3.05 2.14 1.82 1.16 0.55 0.26 0.00 0.00 0.00 0.00 0.00 0.00 0.00 0.00 0.00 0.00 0.01 0.01 0.01 0.03 0.05 0.07 0.08 0.03 0.02 0.00 0.00 0.00 0.00 0.00 0.00 0.00 0.00 0.01 0.04 0.08 0.20 0.30 0.27 0.24 0.18
3.39 4.38 3.59 2.97 2.17 1.04 0.47 0.30 0.01 0.00 0.00 0.00 0.00 0.00 0.00 0.02 0.00 0.00 0.02 0.03 0.04 0.03 0.04 0.06 0.09 0.05 0.01 0.00 0.00 0.00 0.00 0.00 0.00 0.00 0.00 0.00 0.02 0.07 0.14 0.20 0.24 0.25 0.24
1.92 2.22 2.69 2.40 1.75 1.19 0.55 0.28 0.07 0.02 0.00 0.00 0.01 0.00 0.00 0.02 0.01 0.00 0.01 0.04 0.07 0.06 0.06 0.13 0.15 0.08 0.04 0.04 0.02 0.00 0.00 0.00 0.00 0.00 0.01 0.00 0.02 0.03 0.11 0.16 0.17 0.16 0.16
1.28 1.33 1.36 1.01 0.92 0.84 0.60 0.41 0.20 0.05 0.01 0.00 0.00 0.02 0.02 0.01 0.04 0.05 0.11 0.16 0.12 0.12 0.18 0.18 0.37 0.41 0.34 0.20 0.11 0.09 0.03 0.00 0.00 0.00 0.00 0.00 0.02 0.02 0.11 0.17 0.18 0.20 0.22
1.18 1.10 1.02 0.73 0.49 0.33 0.15 0.14 0.07 0.03 0.02 0.01 0.04 0.06 0.10 0.16 0.21 0.13 0.08 0.10 0.08 0.09 0.10 0.19 0.39 0.33 0.26 0.31 0.28 0.16 0.08 0.04 0.01 0.01 0.01 0.01 0.01 0.00 0.02 0.05 0.15 0.25 0.24
1.02 1.12 0.97 0.64 0.45 0.21 0.08 0.03 0.02 0.03 0.05 0.10 0.14 0.17 0.25 0.41 0.48 0.34 0.21 0.04 0.02 0.02 0.04 0.04 0.07 0.12 0.14 0.13 0.11 0.11 0.07 0.05 0.03 0.01 0.00 0.01 0.01 0.01 0.01 0.01 0.04 0.17 0.27
0.54 0.54 0.54 0.66 0.47 0.31 0.12 0.09 0.08 0.07 0.09 0.11 0.16 0.20 0.23 0.33 0.34 0.21 0.12 0.07 0.05 0.03 0.01 0.03 0.03 0.04 0.05 0.06 0.10 0.10 0.06 0.05 0.03 0.03 0.02 0.02 0.02 0.01 0.00 0.01 0.01 0.08 0.22
0.19 0.37 0.40 0.43 0.54 0.51 0.28 0.08 0.03 0.04 0.05 0.08 0.18 0.25 0.31 0.34 0.28 0.15 0.05 0.02 0.01 0.00 0.00 0.00 0.00 0.02 0.04 0.07 0.12 0.19 0.16 0.09 0.06 0.05 0.04 0.05 0.06 0.08 0.07 0.01 0.00 0.03 0.10
0.08 0.16 0.22 0.48 0.72 0.64 0.39 0.14 0.07 0.04 0.11 0.28 0.26 0.29 0.31 0.24 0.11 0.03 0.00 0.01 0.00 0.00 0.00 0.00 0.00 0.00 0.01 0.04 0.05 0.04 0.02 0.04 0.04 0.03 0.02 0.03 0.07 0.11 0.16 0.15 0.08 0.04 0.05
0.01 0.04 0.31 0.68 1.07 1.06 0.73 0.58 0.70 0.68 0.54 0.43 0.33 0.31 0.19 0.08 0.01 0.04 0.01 0.00 0.00 0.00 0.00 0.00 0.00 0.00 0.00 0.00 0.00 0.01 0.01 0.01 0.02 0.03 0.02 0.01 0.01 0.03 0.08 0.10 0.13 0.13 0.11
0.02 0.06 0.43 0.82 1.14 1.22 1.74 1.51 0.88 0.35 0.27 0.26 0.22 0.31 0.23 0.06 0.01 0.08 0.02 0.00 0.00 0.00 0.00 0.00 0.00 0.00 0.00 0.00 0.00 0.00 0.00 0.02 0.02 0.03 0.03 0.02 0.02 0.02 0.02 0.04 0.05 0.07 0.11
0.08 0.27 0.70 0.98 1.22 0.98 0.68 0.23 0.05 0.07 0.14 0.23 0.20 0.20 0.12 0.09 0.00 0.02 0.01 0.00 0.00 0.00 0.00 0.00 0.00 0.00 0.00 0.00 0.01 0.00 0.00 0.00 0.01 0.04 0.05 0.08 0.08 0.07 0.05 0.05 0.06 0.04 0.04
0.26 0.36 0.40 0.28 0.29 0.13 0.05 0.00 0.01 0.03 0.09 0.16 0.23 0.10 0.06 0.09 0.07 0.01 0.01 0.00 0.00 0.00 0.00 0.00 0.00 0.00 0.00 0.00 0.01 0.01 0.00 0.00 0.00 0.01 0.03 0.07 0.08 0.12 0.12 0.08 0.08 0.07 0.03
0.14 0.17 0.06 0.05 0.15 0.11 0.05 0.06 0.09 0.15 0.13 0.12 0.25 0.14 0.02 0.04 0.05 0.02 0.00 0.00 0.00 0.00 0.00 0.00 0.00 0.00 0.00 0.00 0.00 0.02 0.02 0.01 0.01 0.00 0.01 0.05 0.07 0.07 0.08 0.09 0.08 0.09 0.06
0.01 0.03 0.02 0.06 0.11 0.15 0.19 0.22 0.18 0.16 0.14 0.09 0.09 0.05 0.04 0.03 0.02 0.01 0.01 0.00 0.00 0.00 0.00 0.00 0.00 0.00 0.00 0.00 0.00 0.00 0.02 0.05 0.05 0.03 0.00 0.00 0.04 0.07 0.11 0.13 0.14 0.14 0.13
0.04 0.04 0.09 0.13 0.14 0.11 0.17 0.31 0.19 0.17 0.18 0.18 0.09 0.09 0.08 0.07 0.05 0.06 0.01 0.00 0.00 0.00 0.00 0.00 0.00 0.00 0.00 0.00 0.00 0.00 0.01 0.01 0.02 0.07 0.05 0.02 0.03 0.05 0.06 0.11 0.15 0.21 0.26
0.11 0.17 0.15 0.13 0.14 0.14 0.21 0.26 0.26 0.18 0.14 0.10 0.08 0.09 0.07 0.04 0.03 0.00 0.00 0.00 0.00 0.00 0.00 0.00 0.00 0.00 0.00 0.01 0.01 0.03 0.05 0.06 0.06 0.09 0.14 0.08 0.05 0.07 0.04 0.07 0.08 0.12 0.18

GFSSE_prec_precacc_081.txt.gz
Total_Precipitation_Accumulation
0.20 0.02 0.02 0.03 0.04 0.05 0.03 0.00 0.00 0.00 0.02 0.07 0.09 0.14 0.17 0.17 0.23 0.32 0.30 0.31 0.33 0.29 0.30 0.25 0.21 0.11 0.00 0.02 0.02 0.02 0.03 0.03 0.03 0.03 0.04 0.08 0.10 0.07 0.07 0.19 0.11 0.14 0.30
0.22 0.06 0.03 0.04 0.03 0.07 0.11 0.05 0.02 0.02 0.02 0.05 0.10 0.12 0.17 0.21 0.32 0.40 0.39 0.38 0.42 0.33 0.34 0.27 0.23 0.19 0.12 0.12 0.08 0.05 0.05 0.05 0.03 0.03 0.05 0.09 0.19 0.15 0.05 0.10 0.07 0.11 0.15
0.55 0.46 0.13 0.03 0.01 0.02 0.07 0.08 0.06 0.04 0.02 0.05 0.08 0.16 0.27 0.33 0.50 0.51 0.37 0.33 0.55 0.69 0.54 0.40 0.37 0.49 0.45 0.27 0.11 0.07 0.06 0.06 0.04 0.03 0.02 0.17 0.27 0.19 0.13 0.09 0.09 0.12 0.14
1.31 0.81 0.38 0.05 0.03 0.01 0.01 0.02 0.03 0.03 0.02 0.02 0.03 0.07 0.28 0.35 0.33 0.31 0.44 0.41 0.44 0.47 0.59 0.50 0.75 1.15 0.97 0.72 0.34 0.17 0.11 0.05 0.02 0.02 0.06 0.20 0.23 0.17 0.13 0.07 0.11 0.12 0.10
0.90 0.88 0.70 0.41 0.18 0.07 0.03 0.03 0.03 0.03 0.01 0.00 0.01 0.05 0.12 0.12 0.25 0.24 0.44 0.33 0.20 0.19 0.45 0.60 0.71 0.93 0.83 0.98 1.08 0.69 0.31 0.08 0.02 0.03 0.08 0.05 0.14 0.22 0.15 0.09 0.08 0.10 0.05
0.76 0.83 1.16 0.90 0.51 0.15 0.11 0.06 0.04 0.01 0.00 0.00 0.00 0.01 0.07 0.08 0.13 0.18 0.39 0.46 0.51 0.44 0.77 1.16 1.76 1.28 0.72 1.05 1.11 0.71 0.30 0.04 0.01 0.04 0.08 0.06 0.15 0.27 0.20 0.15 0.10 0.08 0.08
1.29 1.38 1.38 1.11 0.84 0.31 0.23 0.12 0.03 0.00 0.00 0.00 0.00 0.00 0.00 0.01 0.03 0.05 0.07 0.19 0.52 1.17 1.33 1.12 1.24 1.41 0.98 0.29 0.15 0.21 0.14 0.05 0.07 0.13 0.14 0.10 0.15 0.22 0.21 0.20 0.17 0.11 0.09
3.10 2.48 2.06 1.61 1.67 1.19 0.70 0.15 0.00 0.00 0.00 0.00 0.00 0.00 0.00 0.00 0.00 0.00 0.01 0.04 0.07 0.10 0.15 0.16 0.14 0.11 0.16 0.09 0.03 0.03 0.04 0.05 0.05 0.16 0.17 0.16 0.15 0.13 0.12 0.15 0.12 0.09 0.10
5.58 5.35 3.09 2.18 2.02 1.36 0.65 0.09 0.01 0.00 0.00 0.00 0.00 0.00 0.01 0.01 0.00 0.00 0.00 0.00 0.00 0.03 0.06 0.09 0.08 0.02 0.01 0.01 0.01 0.01 0.01 0.01 0.05 0.08 0.07 0.06 0.09 0.13 0.20 0.21 0.16 0.14 0.09
6.34 8.88 5.74 3.70 2.22 1.31 0.62 0.27 0.00 0.00 0.00 0.00 0.00 0.00 0.00 0.00 0.00 0.00 0.01 0.01 0.01 0.03 0.05 0.07 0.08 0.03 0.02 0.00 0.00 0.00 0.00 0.00 0.00 0.00 0.00 0.01 0.04 0.08 0.20 0.30 0.27 0.24 0.18
3.59 5.07 5.42 5.48 3.55 1.24 0.55 0.32 0.01 0.00 0.00 0.00 0.00 0.00 0.00 0.02 0.00 0.00 0.02 0.03 0.04 0.03 0.04 0.06 0.09 0.05 0.01 0.00 0.00 0.00 0.00 0.00 0.00 0.00 0.00 0.00 0.02 0.07 0.14 0.20 0.24 0.25 0.24
1.98 2.33 3.14 3.24 3.20 1.70 0.61 0.29 0.07 0.02 0.00 0.00 0.01 0.00 0.00 0.02 0.01 0.00 0.01 0.04 0.07 0.06 0.06 0.13 0.15 0.08 0.04 0.04 0.02 0.00 0.00 0.00 0.00 0.00 0.01 0.00 0.02 0.03 0.11 0.16 0.17 0.16 0.16
1.31 1.38 1.41 1.09 1.10 1.03 0.64 0.43 0.21 0.05 0.01 0.00 0.00 0.02 0.02 0.01 0.04 0.05 0.11 0.16 0.12 0.12 0.18 0.18 0.37 0.41 0.34 0.20 0.11 0.09 0.03 0.00 0.00 0.00 0.00 0.00 0.02 0.02 0.11 0.17 0.18 0.20 0.22
1.19 1.11 1.03 0.73 0.50 0.33 0.15 0.14 0.08 0.05 0.03 0.02 0.04 0.06 0.10 0.16 0.21 0.13 0.08 0.10 0.08 0.09 0.10 0.19 0.39 0.33 0.26 0.31 0.28 0.16 0.08 0.04 0.01 0.01 0.01 0.01 0.01 0.00 0.02 0.05 0.15 0.25 0.24
1.10 1.14 0.98 0.67 0.50 0.22 0.10 0.04 0.02 0.03 0.05 0.10 0.15 0.19 0.25 0.41 0.48 0.34 0.21 0.04 0.02 0.02 0.04 0.04 0.07 0.12 0.14 0.13 0.11 0.11 0.07 0.05 0.03 0.01 0.00 0.01 0.01 0.01 0.01 0.01 0.04 0.17 0.27
0.59 0.55 0.56 0.71 0.56 0.39 0.16 0.11 0.09 0.07 0.09 0.12 0.18 0.24 0.25 0.33 0.34 0.21 0.12 0.07 0.05 0.03 0.01 0.03 0.03 0.04 0.05 0.06 0.10 0.10 0.06 0.05 0.03 0.03 0.02 0.02 0.02 0.01 0.00 0.01 0.01 0.08 0.22
0.24 0.43 0.43 0.45 0.56 0.54 0.32 0.12 0.05 0.05 0.05 0.09 0.21 0.30 0.34 0.35 0.28 0.16 0.08 0.03 0.01 0.00 0.00 0.00 0.00 0.02 0.04 0.07 0.12 0.19 0.16 0.09 0.06 0.05 0.04 0.05 0.06 0.08 0.07 0.01 0.00 0.03 0.10
0.08 0.20 0.26 0.51 0.77 0.69 0.42 0.16 0.09 0.06 0.14 0.30 0.28 0.32 0.35 0.27 0.16 0.10 0.06 0.02 0.00 0.00 0.00 0.00 0.00 0.00 0.01 0.04 0.05 0.04 0.02 0.04 0.04 0.03 0.02 0.03 0.07 0.11 0.16 0.15 0.08 0.04 0.05
0.02 0.04 0.32 0.70 1.09 1.10 0.77 0.61 0.72 0.69 0.55 0.43 0.33 0.31 0.20 0.16 0.07 0.06 0.04 0.02 0.01 0.00 0.00 0.00 0.00 0.00 0.00 0.00 0.00 0.01 0.01 0.01 0.02 0.03 0.02 0.01 0.01 0.03 0.08 0.10 0.13 0.13 0.11
0.02 0.07 0.43 0.82 1.14 1.23 1.74 1.51 0.88 0.35 0.28 0.27 0.23 0.31 0.25 0.17 0.17 0.17 0.09 0.03 0.01 0.00 0.00 0.00 0.00 0.00 0.00 0.00 0.00 0.00 0.00 0.02 0.02 0.03 0.03 0.02 0.02 0.02 0.02 0.04 0.05 0.07 0.11
0.08 0.27 0.70 0.98 1.22 0.98 0.68 0.23 0.05 0.08 0.15 0.23 0.21 0.22 0.15 0.17 0.09 0.13 0.04 0.03 0.00 0.00 0.00 0.00 0.00 0.00 0.00 0.00 0.01 0.00 0.00 0.00 0.01 0.04 0.05 0.08 0.08 0.07 0.05 0.05 0.06 0.04 0.04
0.26 0.36 0.40 0.28 0.29 0.13 0.05 0.00 0.01 0.03 0.09 0.16 0.23 0.12 0.11 0.19 0.17 0.06 0.01 0.01 0.00 0.00 0.00 0.00 0.00 0.00 0.00 0.00 0.01 0.01 0.00 0.00 0.00 0.01 0.03 0.07 0.08 0.12 0.12 0.08 0.08 0.07 0.03
0.14 0.17 0.06 0.05 0.15 0.11 0.05 0.06 0.09 0.15 0.14 0.13 0.28 0.20 0.09 0.18 0.25 0.19 0.02 0.00 0.00 0.00 0.00 0.00 0.00 0.00 0.00 0.00 0.00 0.02 0.02 0.01 0.01 0.00 0.01 0.05 0.07 0.07 0.08 0.09 0.08 0.09 0.06
0.01 0.03 0.02 0.06 0.11 0.15 0.19 0.23 0.18 0.16 0.14 0.09 0.09 0.06 0.07 0.07 0.03 0.03 0.01 0.00 0.00 0.00 0.00 0.00 0.00 0.00 0.00 0.00 0.00 0.00 0.02 0.05 0.05 0.03 0.00 0.00 0.04 0.07 0.11 0.13 0.14 0.14 0.13
0.04 0.04 0.09 0.13 0.14 0.11 0.17 0.31 0.19 0.17 0.18 0.18 0.09 0.09 0.08 0.09 0.06 0.06 0.02 0.00 0.00 0.00 0.00 0.00 0.00 0.00 0.00 0.00 0.00 0.00 0.01 0.01 0.02 0.07 0.05 0.02 0.03 0.05 0.06 0.11 0.15 0.21 0.26
0.11 0.17 0.15 0.13 0.14 0.14 0.21 0.26 0.26 0.18 0.14 0.10 0.08 0.09 0.07 0.04 0.03 0.02 0.01 0.00 0.00 0.00 0.00 0.00 0.00 0.00 0.00 0.01 0.01 0.03 0.05 0.06 0.06 0.09 0.14 0.08 0.05 0.07 0.04 0.07 0.08 0.12 0.18

GFSSE_prec_precacc_087.txt.gz
Total_Precipitation_Accumulation
0.25 0.03 0.03 0.04 0.04 0.05 0.03 0.00 0.00 0.00 0.02 0.07 0.09 0.14 0.17 0.17 0.23 0.32 0.30 0.31 0.33 0.29 0.30 0.25 0.21 0.11 0.00 0.02 0.02 0.02 0.03 0.03 0.03 0.03 0.04 0.08 0.10 0.07 0.07 0.19 0.11 0.14 0.30
0.23 0.09 0.05 0.04 0.04 0.07 0.11 0.05 0.02 0.02 0.02 0.05 0.10 0.12 0.17 0.21 0.32 0.40 0.39 0.38 0.42 0.33 0.34 0.27 0.23 0.19 0.12 0.12 0.08 0.05 0.05 0.05 0.03 0.03 0.05 0.09 0.19 0.15 0.05 0.10 0.07 0.11 0.15
0.57 0.49 0.39 0.09 0.02 0.03 0.07 0.08 0.06 0.04 0.02 0.05 0.08 0.16 0.27 0.33 0.50 0.51 0.37 0.33 0.55 0.69 0.54 0.40 0.37 0.49 0.45 0.27 0.11 0.07 0.06 0.06 0.04 0.03 0.02 0.17 0.27 0.19 0.13 0.09 0.10 0.13 0.14
1.32 0.88 0.85 0.57 0.09 0.02 0.01 0.02 0.03 0.03 0.02 0.02 0.03 0.07 0.28 0.35 0.33 0.31 0.45 0.41 0.44 0.47 0.59 0.50 0.75 1.15 0.97 0.72 0.34 0.17 0.11 0.05 0.02 0.02 0.06 0.20 0.23 0.17 0.13 0.07 0.11 0.12 0.11
0.99 1.15 1.04 1.08 0.87 0.31 0.13 0.05 0.03 0.03 0.01 0.00 0.01 0.05 0.12 0.12 0.25 0.25 0.45 0.33 0.20 0.19 0.45 0.60 0.71 0.93 0.83 0.98 1.08 0.69 0.31 0.08 0.02 0.03 0.08 0.05 0.14 0.22 0.15 0.09 0.08 0.10 0.06
0.89 0.94 1.38 1.40 0.93 0.55 0.50 0.20 0.06 0.01 0.00 0.00 0.00 0.01 0.07 0.08 0.13 0.18 0.39 0.46 0.51 0.44 0.77 1.16 1.76 1.28 0.72 1.05 1.11 0.71 0.30 0.04 0.01 0.04 0.08 0.06 0.15 0.27 0.20 0.15 0.10 0.08 0.08
1.33 1.53 1.74 1.75 1.59 0.55 0.45 0.36 0.14 0.01 0.00 0.00 0.00 0.00 0.00 0.01 0.03 0.05 0.07 0.19 0.52 1.17 1.33 1.12 1.24 1.41 0.98 0.29 0.15 0.21 0.14 0.05 0.07 0.13 0.14 0.10 0.15 0.22 0.21 0.20 0.17 0.11 0.09
3.15 2.67 2.86 2.57 2.68 2.02 1.01 0.46 0.22 0.09 0.00 0.00 0.00 0.00 0.00 0.00 0.00 0.00 0.01 0.04 0.07 0.10 0.15 0.16 0.14 0.11 0.16 0.09 0.03 0.03 0.04 0.05 0.05 0.16 0.17 0.16 0.15 0.13 0.12 0.15 0.12 0.09 0.10
5.75 5.67 4.21 4.11 2.74 2.34 1.92 0.53 0.30 0.16 0.01 0.00 0.00 0.00 0.01 0.01 0.00 0.00 0.00 0.00 0.00 0.03 0.06 0.09 0.08 0.02 0.01 0.01 0.01 0.01 0.01 0.01 0.05 0.08 0.07 0.06 0.09 0.13 0.20 0.21 0.16 0.14 0.09
6.48 9.24 6.53 5.97 4.07 2.58 1.94 1.41 0.36 0.23 0.04 0.00 0.00 0.00 0.00 0.00 0.00 0.00 0.01 0.01 0.01 0.03 0.05 0.07 0.08 0.03 0.02 0.00 0.00 0.00 0.00 0.00 0.00 0.00 0.00 0.01 0.04 0.08 0.20 0.30 0.27 0.24 0.18
3.63 5.15 5.77 7.15 5.74 2.96 1.72 1.70 0.72 0.47 0.09 0.00 0.00 0.00 0.00 0.02 0.00 0.00 0.02 0.03 0.04 0.03 0.04 0.06 0.09 0.05 0.01 0.00 0.00 0.00 0.00 0.00 0.00 0.00 0.00 0.00 0.02 0.07 0.14 0.20 0.24 0.25 0.24
2.02 2.34 3.29 5.26 6.66 3.96 2.22 0.98 0.71 0.64 0.21 0.01 0.01 0.00 0.01 0.02 0.01 0.01 0.02 0.04 0.07 0.06 0.06 0.13 0.15 0.08 0.04 0.04 0.02 0.00 0.00 0.00 0.00 0.00 0.01 0.00 0.02 0.03 0.11 0.16 0.17 0.16 0.16
1.35 1.40 1.46 2.37 4.00 3.32 2.57 1.13 0.60 0.58 0.16 0.00 0.00 0.02 0.02 0.01 0.04 0.06 0.11 0.16 0.12 0.12 0.18 0.18 0.37 0.41 0.34 0.20 0.11 0.09 0.03 0.00 0.00 0.00 0.00 0.00 0.02 0.03 0.11 0.17 0.18 0.20 0.22
1.20 1.12 1.05 0.81 1.58 1.73 1.31 0.79 0.36 0.21 0.06 0.02 0.04 0.06 0.10 0.16 0.21 0.13 0.08 0.10 0.08 0.09 0.10 0.19 0.39 0.33 0.26 0.31 0.28 0.16 0.08 0.04 0.01 0.01 0.01 0.01 0.01 0.00 0.02 0.05 0.15 0.25 0.24
1.10 1.15 0.99 0.68 0.68 0.77 0.76 0.54 0.21 0.08 0.05 0.10 0.15 0.19 0.25 0.41 0.48 0.34 0.21 0.04 0.02 0.02 0.04 0.04 0.07 0.12 0.14 0.13 0.11 0.11 0.07 0.05 0.03 0.01 0.00 0.01 0.01 0.01 0.01 0.01 0.04 0.17 0.27
0.66 0.56 0.56 0.71 0.58 0.47 0.42 0.35 0.19 0.08 0.09 0.12 0.18 0.24 0.25 0.33 0.34 0.21 0.12 0.07 0.05 0.03 0.01 0.03 0.03 0.04 0.05 0.06 0.10 0.10 0.06 0.05 0.03 0.03 0.02 0.02 0.02 0.01 0.00 0.01 0.01 0.08 0.22
0.39 0.43 0.43 0.47 0.59 0.57 0.43 0.15 0.07 0.05 0.06 0.09 0.21 0.30 0.34 0.35 0.28 0.16 0.08 0.03 0.01 0.00 0.00 0.00 0.00 0.02 0.04 0.07 0.12 0.19 0.16 0.09 0.06 0.05 0.04 0.05 0.06 0.08 0.07 0.01 0.00 0.03 0.10
0.18 0.28 0.28 0.53 0.81 0.70 0.44 0.18 0.09 0.06 0.15 0.30 0.28 0.32 0.37 0.31 0.16 0.10 0.06 0.02 0.00 0.00 0.00 0.00 0.00 0.00 0.01 0.04 0.05 0.04 0.02 0.04 0.04 0.03 0.02 0.03 0.07 0.11 0.16 0.15 0.08 0.04 0.05
0.07 0.12 0.47 0.77 1.12 1.13 0.79 0.64 0.74 0.70 0.55 0.43 0.33 0.31 0.20 0.21 0.09 0.07 0.04 0.02 0.01 0.00 0.00 0.00 0.00 0.00 0.00 0.00 0.00 0.01 0.01 0.01 0.02 0.03 0.02 0.01 0.01 0.03 0.08 0.10 0.13 0.13 0.11
0.09 0.10 0.61 1.02 1.19 1.27 1.78 1.54 0.91 0.37 0.29 0.27 0.23 0.31 0.25 0.18 0.24 0.23 0.12 0.03 0.02 0.00 0.00 0.00 0.00 0.00 0.00 0.00 0.00 0.00 0.00 0.02 0.02 0.03 0.03 0.02 0.02 0.02 0.02 0.04 0.05 0.07 0.11
0.10 0.29 0.75 1.08 1.30 1.00 0.71 0.24 0.06 0.09 0.19 0.25 0.21 0.22 0.15 0.17 0.10 0.18 0.08 0.04 0.00 0.00 0.00 0.00 0.00 0.00 0.00 0.00 0.01 0.00 0.00 0.00 0.01 0.04 0.05 0.08 0.08 0.07 0.05 0.05 0.06 0.04 0.04
0.26 0.36 0.40 0.30 0.31 0.14 0.07 0.00 0.01 0.04 0.10 0.17 0.23 0.12 0.11 0.19 0.18 0.07 0.02 0.07 0.00 0.00 0.00 0.00 0.00 0.00 0.00 0.00 0.01 0.01 0.00 0.00 0.00 0.01 0.03 0.07 0.08 0.12 0.12 0.08 0.08 0.07 0.03
0.14 0.17 0.06 0.05 0.15 0.11 0.05 0.06 0.09 0.15 0.14 0.13 0.28 0.20 0.09 0.18 0.28 0.22 0.02 0.02 0.02 0.01 0.00 0.00 0.00 0.00 0.00 0.00 0.00 0.02 0.02 0.01 0.01 0.00 0.01 0.05 0.07 0.07 0.08 0.09 0.08 0.09 0.06
0.01 0.03 0.02 0.06 0.11 0.15 0.19 0.23 0.18 0.16 0.14 0.09 0.09 0.06 0.07 0.08 0.09 0.07 0.01 0.01 0.01 0.00 0.01 0.00 0.00 0.00 0.00 0.00 0.00 0.00 0.02 0.05 0.05 0.03 0.00 0.00 0.04 0.07 0.11 0.13 0.14 0.14 0.13
0.04 0.04 0.09 0.13 0.14 0.11 0.17 0.31 0.19 0.17 0.18 0.18 0.09 0.09 0.08 0.10 0.08 0.08 0.02 0.03 0.02 0.00 0.01 0.01 0.01 0.00 0.00 0.00 0.00 0.00 0.01 0.01 0.02 0.07 0.05 0.02 0.03 0.05 0.06 0.11 0.15 0.21 0.26
0.11 0.17 0.15 0.13 0.14 0.14 0.21 0.26 0.26 0.18 0.14 0.10 0.08 0.09 0.07 0.05 0.06 0.02 0.01 0.00 0.01 0.02 0.05 0.05 0.04 0.02 0.01 0.01 0.01 0.03 0.05 0.06 0.06 0.09 0.14 0.08 0.05 0.07 0.04 0.07 0.08 0.12 0.18

GFSSE_prec_precacc_093.txt.gz
Total_Precipitation_Accumulation
0.29 0.03 0.03 0.04 0.04 0.06 0.03 0.00 0.00 0.00 0.02 0.07 0.09 0.14 0.17 0.17 0.23 0.32 0.30 0.31 0.33 0.29 0.30 0.25 0.21 0.11 0.00 0.02 0.02 0.02 0.03 0.03 0.03 0.03 0.04 0.08 0.10 0.08 0.07 0.19 0.11 0.14 0.30
0.25 0.09 0.05 0.05 0.04 0.07 0.11 0.05 0.02 0.02 0.02 0.05 0.10 0.12 0.17 0.21 0.32 0.40 0.39 0.38 0.42 0.33 0.34 0.27 0.23 0.19 0.12 0.12 0.08 0.05 0.05 0.05 0.03 0.03 0.05 0.09 0.20 0.16 0.06 0.11 0.09 0.13 0.17
0.58 0.50 0.39 0.10 0.02 0.03 0.07 0.08 0.06 0.04 0.02 0.05 0.08 0.16 0.27 0.33 0.50 0.51 0.37 0.33 0.55 0.69 0.54 0.40 0.37 0.49 0.45 0.27 0.11 0.07 0.06 0.06 0.04 0.03 0.02 0.17 0.27 0.20 0.13 0.09 0.11 0.15 0.16
1.33 0.88 0.85 0.57 0.09 0.02 0.01 0.02 0.03 0.03 0.02 0.02 0.03 0.07 0.28 0.35 0.33 0.31 0.45 0.41 0.44 0.47 0.59 0.50 0.75 1.15 0.97 0.72 0.34 0.17 0.11 0.05 0.02 0.02 0.06 0.20 0.23 0.17 0.13 0.07 0.12 0.13 0.12
1.15 1.17 1.04 1.10 0.87 0.31 0.13 0.06 0.04 0.03 0.01 0.00 0.01 0.05 0.12 0.12 0.25 0.25 0.45 0.33 0.20 0.19 0.45 0.60 0.71 0.93 0.83 0.98 1.08 0.69 0.31 0.08 0.02 0.03 0.08 0.05 0.14 0.22 0.16 0.10 0.09 0.10 0.06
1.12 1.23 1.41 1.41 0.95 0.56 0.50 0.20 0.07 0.02 0.00 0.00 0.00 0.01 0.07 0.08 0.13 0.18 0.39 0.46 0.51 0.44 0.78 1.16 1.76 1.28 0.72 1.05 1.11 0.71 0.30 0.04 0.01 0.04 0.08 0.06 0.15 0.27 0.20 0.15 0.10 0.08 0.08
1.81 2.28 2.46 1.95 1.73 0.60 0.45 0.36 0.15 0.04 0.01 0.00 0.00 0.00 0.00 0.01 0.03 0.05 0.07 0.20 0.53 1.18 1.33 1.12 1.24 1.41 0.98 0.29 0.15 0.21 0.14 0.05 0.07 0.13 0.14 0.10 0.15 0.22 0.21 0.20 0.17 0.11 0.09
3.36 3.33 4.25 3.48 3.37 2.66 1.29 0.48 0.23 0.14 0.07 0.02 0.00 0.00 0.00 0.00 0.00 0.01 0.02 0.04 0.07 0.10 0.15 0.16 0.14 0.11 0.16 0.09 0.03 0.03 0.04 0.05 0.05 0.16 0.17 0.16 0.15 0.13 0.12 0.15 0.12 0.09 0.10
5.85 5.84 5.12 5.60 3.30 2.66 2.47 0.84 0.37 0.22 0.15 0.10 0.03 0.01 0.01 0.01 0.00 0.01 0.00 0.00 0.00 0.03 0.06 0.09 0.08 0.02 0.01 0.01 0.01 0.01 0.01 0.01 0.05 0.08 0.07 0.06 0.09 0.13 0.20 0.21 0.16 0.14 0.09
6.57 9.34 6.71 6.50 4.40 2.78 2.29 1.77 0.48 0.30 0.23 0.15 0.10 0.05 0.01 0.00 0.00 0.01 0.01 0.01 0.01 0.03 0.05 0.07 0.08 0.03 0.02 0.00 0.00 0.00 0.00 0.00 0.00 0.00 0.00 0.01 0.04 0.08 0.20 0.30 0.27 0.24 0.18
3.69 5.27 5.82 7.28 6.03 3.32 2.00 2.08 0.98 0.66 0.35 0.22 0.20 0.14 0.02 0.02 0.00 0.00 0.02 0.03 0.04 0.03 0.04 0.06 0.09 0.05 0.01 0.00 0.00 0.00 0.00 0.00 0.00 0.00 0.00 0.00 0.02 0.07 0.14 0.20 0.24 0.25 0.24
2.08 2.39 3.31 5.34 6.91 4.31 2.75 1.70 1.17 0.90 0.57 0.34 0.22 0.16 0.03 0.03 0.01 0.01 0.02 0.04 0.07 0.06 0.06 0.13 0.15 0.08 0.04 0.04 0.02 0.00 0.00 0.00 0.00 0.00 0.01 0.00 0.02 0.03 0.11 0.16 0.17 0.16 0.16
1.35 1.40 1.46 2.46 4.20 3.65 3.01 2.36 1.52 0.95 0.61 0.40 0.22 0.19 0.06 0.01 0.04 0.06 0.11 0.16 0.12 0.12 0.18 0.18 0.37 0.41 0.34 0.20 0.11 0.09 0.03 0.00 0.00 0.00 0.00 0.00 0.02 0.03 0.11 0.17 0.18 0.20 0.22
1.21 1.13 1.07 0.82 1.85 1.94 1.65 1.86 1.25 0.64 0.42 0.29 0.25 0.28 0.17 0.16 0.21 0.13 0.08 0.10 0.08 0.09 0.10 0.19 0.39 0.33 0.26 0.31 0.28 0.16 0.08 0.04 0.01 0.01 0.01 0.01 0.01 0.00 0.02 0.05 0.15 0.25 0.24
1.11 1.15 1.02 0.69 0.85 1.40 1.50 1.44 0.88 0.26 0.20 0.21 0.26 0.36 0.33 0.41 0.48 0.34 0.21 0.04 0.02 0.02 0.04 0.04 0.07 0.12 0.14 0.13 0.11 0.11 0.07 0.05 0.03 0.01 0.00 0.01 0.01 0.01 0.01 0.01 0.04 0.17 0.27
0.70 0.57 0.58 0.72 0.59 0.84 1.34 0.97 0.75 0.27 0.13 0.16 0.26 0.34 0.34 0.35 0.34 0.21 0.12 0.07 0.05 0.03 0.01 0.03 0.03 0.04 0.05 0.06 0.10 0.10 0.06 0.05 0.03 0.03 0.02 0.02 0.02 0.01 0.00 0.01 0.01 0.08 0.22
0.48 0.45 0.45 0.47 0.59 0.97 1.17 0.85 0.63 0.37 0.15 0.13 0.27 0.40 0.51 0.39 0.28 0.16 0.08 0.03 0.01 0.00 0.00 0.00 0.00 0.02 0.04 0.07 0.12 0.19 0.16 0.09 0.06 0.05 0.04 0.05 0.06 0.08 0.07 0.01 0.00 0.03 0.10
0.37 0.30 0.31 0.53 0.81 0.89 0.96 0.75 0.64 0.47 0.31 0.34 0.33 0.42 0.52 0.36 0.16 0.10 0.06 0.02 0.00 0.00 0.00 0.00 0.00 0.00 0.01 0.04 0.05 0.04 0.02 0.04 0.04 0.03 0.02 0.03 0.07 0.11 0.16 0.15 0.08 0.04 0.05
0.12 0.16 0.50 0.81 1.16 1.24 1.03 0.93 1.12 1.00 0.71 0.49 0.38 0.38 0.25 0.23 0.09 0.07 0.04 0.02 0.01 0.00 0.00 0.00 0.00 0.00 0.00 0.00 0.00 0.01 0.01 0.01 0.02 0.03 0.02 0.01 0.01 0.03 0.08 0.10 0.13 0.13 0.11
0.12 0.12 0.67 1.06 1.32 1.35 1.88 1.68 1.05 0.47 0.37 0.31 0.26 0.34 0.27 0.19 0.25 0.23 0.12 0.03 0.02 0.00 0.00 0.00 0.00 0.00 0.00 0.00 0.00 0.00 0.00 0.02 0.02 0.03 0.03 0.02 0.02 0.02 0.02 0.04 0.05 0.07 0.11
0.12 0.31 0.81 1.20 1.51 1.13 0.74 0.33 0.17 0.14 0.22 0.26 0.22 0.23 0.16 0.18 0.12 0.19 0.08 0.04 0.00 0.00 0.00 0.00 0.00 0.01 0.01 0.00 0.01 0.00 0.00 0.00 0.01 0.04 0.05 0.08 0.08 0.07 0.05 0.05 0.06 0.04 0.04
0.27 0.37 0.41 0.36 0.53 0.21 0.10 0.07 0.12 0.08 0.11 0.18 0.24 0.13 0.12 0.20 0.20 0.09 0.02 0.07 0.00 0.00 0.00 0.01 0.01 0.02 0.01 0.00 0.01 0.01 0.00 0.00 0.00 0.01 0.03 0.07 0.08 0.12 0.12 0.08 0.08 0.07 0.03
0.15 0.17 0.06 0.06 0.27 0.21 0.08 0.10 0.14 0.23 0.16 0.14 0.28 0.20 0.09 0.18 0.31 0.24 0.04 0.03 0.02 0.01 0.01 0.01 0.01 0.01 0.01 0.00 0.00 0.02 0.02 0.01 0.01 0.00 0.01 0.05 0.07 0.07 0.08 0.09 0.08 0.09 0.06
0.02 0.03 0.02 0.06 0.13 0.17 0.19 0.23 0.19 0.17 0.17 0.10 0.09 0.06 0.07 0.08 0.10 0.10 0.03 0.02 0.02 0.02 0.01 0.03 0.03 0.03 0.02 0.01 0.00 0.00 0.02 0.05 0.05 0.03 0.00 0.00 0.04 0.07 0.11 0.13 0.14 0.14 0.13
0.04 0.04 0.09 0.13 0.15 0.12 0.17 0.31 0.19 0.17 0.18 0.18 0.09 0.09 0.08 0.10 0.09 0.08 0.04 0.05 0.04 0.01 0.06 0.06 0.03 0.04 0.05 0.04 0.03 0.01 0.01 0.01 0.02 0.07 0.05 0.02 0.03 0.05 0.06 0.11 0.15 0.21 0.26
0.11 0.17 0.15 0.13 0.14 0.15 0.21 0.26 0.26 0.18 0.14 0.10 0.08 0.09 0.07 0.05 0.06 0.02 0.01 0.01 0.01 0.02 0.06 0.08 0.13 0.10 0.08 0.06 0.04 0.05 0.07 0.08 0.09 0.13 0.15 0.09 0.06 0.07 0.04 0.07 0.08 0.12 0.18

GFSSE_prec_precacc_096.txt.gz
Total_Precipitation_Accumulation
0.29 0.03 0.03 0.04 0.04 0.06 0.03 0.00 0.00 0.00 0.02 0.07 0.09 0.14 0.17 0.17 0.23 0.32 0.30 0.31 0.33 0.30 0.30 0.25 0.21 0.11 0.00 0.02 0.02 0.02 0.03 0.03 0.03 0.03 0.04 0.08 0.10 0.08 0.07 0.19 0.11 0.14 0.30
0.25 0.09 0.05 0.05 0.04 0.07 0.11 0.05 0.02 0.02 0.02 0.05 0.10 0.12 0.17 0.21 0.32 0.40 0.39 0.38 0.42 0.34 0.34 0.27 0.23 0.19 0.12 0.12 0.08 0.05 0.05 0.05 0.03 0.03 0.05 0.10 0.20 0.16 0.06 0.11 0.10 0.13 0.17
0.58 0.50 0.39 0.10 0.02 0.03 0.07 0.08 0.06 0.04 0.02 0.05 0.08 0.16 0.27 0.34 0.50 0.51 0.37 0.33 0.55 0.69 0.54 0.40 0.37 0.49 0.45 0.27 0.11 0.07 0.06 0.06 0.04 0.03 0.02 0.17 0.28 0.21 0.14 0.10 0.12 0.16 0.17
1.33 0.88 0.85 0.57 0.09 0.02 0.02 0.02 0.03 0.03 0.02 0.02 0.03 0.08 0.28 0.35 0.33 0.31 0.45 0.41 0.44 0.47 0.59 0.50 0.75 1.15 0.97 0.72 0.34 0.17 0.11 0.05 0.02 0.02 0.06 0.20 0.23 0.18 0.14 0.08 0.12 0.13 0.12
1.15 1.17 1.04 1.10 0.87 0.32 0.14 0.06 0.04 0.03 0.01 0.00 0.01 0.05 0.12 0.12 0.25 0.25 0.45 0.33 0.20 0.19 0.45 0.60 0.71 0.93 0.83 0.98 1.08 0.69 0.31 0.08 0.02 0.03 0.08 0.05 0.14 0.22 0.16 0.10 0.09 0.10 0.06
1.13 1.26 1.45 1.44 0.96 0.56 0.51 0.21 0.07 0.02 0.00 0.00 0.00 0.01 0.07 0.08 0.13 0.18 0.39 0.46 0.51 0.44 0.78 1.16 1.76 1.28 0.72 1.05 1.11 0.71 0.30 0.04 0.01 0.04 0.08 0.06 0.15 0.27 0.20 0.15 0.10 0.08 0.08
1.83 2.55 3.26 2.72 2.11 0.76 0.46 0.36 0.15 0.04 0.01 0.00 0.00 0.00 0.00 0.01 0.03 0.05 0.07 0.20 0.53 1.18 1.33 1.12 1.24 1.41 0.98 0.29 0.15 0.21 0.14 0.05 0.07 0.13 0.14 0.10 0.15 0.22 0.21 0.20 0.17 0.11 0.09
3.36 3.45 5.09 5.61 4.76 3.31 1.66 0.55 0.26 0.14 0.07 0.02 0.00 0.00 0.00 0.00 0.00 0.01 0.02 0.04 0.07 0.10 0.15 0.16 0.14 0.11 0.16 0.09 0.03 0.03 0.04 0.05 0.05 0.16 0.17 0.16 0.15 0.13 0.12 0.15 0.12 0.09 0.10
5.85 5.86 5.26 7.51 5.07 3.45 3.13 1.57 1.26 0.47 0.18 0.11 0.03 0.01 0.01 0.01 0.00 0.01 0.00 0.00 0.00 0.03 0.06 0.09 0.08 0.02 0.01 0.01 0.01 0.01 0.01 0.01 0.05 0.08 0.07 0.06 0.09 0.13 0.20 0.21 0.16 0.14 0.09
6.58 9.34 6.73 6.72 5.15 3.33 2.63 2.05 0.89 0.94 0.51 0.17 0.10 0.05 0.01 0.00 0.00 0.01 0.01 0.01 0.01 0.03 0.05 0.07 0.08 0.03 0.02 0.00 0.00 0.00 0.00 0.00 0.00 0.00 0.00 0.01 0.04 0.08 0.20 0.30 0.27 0.24 0.18
3.69 5.27 5.83 7.30 6.09 3.44 2.05 2.19 1.22 1.29 0.68 0.24 0.20 0.14 0.02 0.02 0.00 0.00 0.02 0.03 0.04 0.03 0.04 0.06 0.09 0.05 0.01 0.00 0.00 0.00 0.00 0.00 0.00 0.00 0.00 0.00 0.02 0.07 0.14 0.20 0.24 0.25 0.24
2.09 2.40 3.32 5.34 6.93 4.33 2.81 1.80 1.32 1.14 0.87 0.39 0.22 0.16 0.03 0.03 0.01 0.01 0.02 0.04 0.07 0.06 0.06 0.13 0.15 0.08 0.04 0.04 0.02 0.00 0.00 0.00 0.00 0.00 0.01 0.00 0.02 0.03 0.11 0.16 0.17 0.16 0.16
1.36 1.43 1.47 2.48 4.22 3.71 3.07 2.49 1.67 1.14 0.87 0.57 0.26 0.19 0.07 0.02 0.05 0.06 0.11 0.16 0.12 0.12 0.18 0.18 0.37 0.41 0.34 0.20 0.11 0.09 0.03 0.00 0.00 0.00 0.00 0.00 0.02 0.03 0.11 0.17 0.18 0.20 0.22
1.21 1.15 1.09 0.85 1.86 1.97 1.72 1.96 1.46 0.86 0.65 0.47 0.37 0.32 0.18 0.16 0.22 0.13 0.08 0.10 0.08 0.09 0.10 0.19 0.39 0.33 0.26 0.31 0.28 0.16 0.08 0.04 0.01 0.01 0.01 0.01 0.01 0.00 0.02 0.05 0.15 0.25 0.24
1.11 1.16 1.04 0.71 0.87 1.42 1.53 1.54 1.09 0.52 0.45 0.42 0.42 0.43 0.34 0.41 0.48 0.34 0.21 0.04 0.02 0.02 0.04 0.04 0.07 0.12 0.14 0.13 0.11 0.11 0.07 0.05 0.03 0.01 0.00 0.01 0.01 0.01 0.01 0.01 0.04 0.17 0.27
0.70 0.57 0.58 0.72 0.60 0.85 1.37 1.00 0.98 0.54 0.27 0.37 0.47 0.38 0.34 0.35 0.34 0.21 0.12 0.07 0.05 0.03 0.01 0.03 0.03 0.04 0.05 0.06 0.10 0.10 0.06 0.05 0.03 0.03 0.02 0.02 0.02 0.01 0.00 0.01 0.01 0.08 0.22
0.48 0.45 0.45 0.48 0.60 0.98 1.18 0.90 0.76 0.60 0.26 0.19 0.41 0.49 0.53 0.39 0.28 0.16 0.08 0.03 0.01 0.00 0.00 0.00 0.00 0.02 0.04 0.07 0.12 0.19 0.16 0.09 0.06 0.05 0.04 0.05 0.06 0.08 0.07 0.01 0.00 0.03 0.10
0.37 0.31 0.31 0.53 0.81 0.92 1.01 0.86 0.86 0.68 0.47 0.43 0.41 0.55 0.59 0.36 0.16 0.10 0.06 0.02 0.00 0.00 0.00 0.00 0.00 0.00 0.01 0.04 0.05 0.04 0.02 0.04 0.04 0.03 0.02 0.03 0.07 0.11 0.16 0.15 0.08 0.04 0.05
0.12 0.16 0.50 0.81 1.17 1.35 1.21 1.11 1.47 1.22 0.89 0.62 0.52 0.57 0.39 0.25 0.09 0.07 0.04 0.02 0.01 0.00 0.00 0.00 0.00 0.00 0.00 0.00 0.00 0.01 0.01 0.01 0.02 0.03 0.02 0.01 0.01 0.03 0.08 0.10 0.13 0.13 0.11
0.12 0.12 0.67 1.06 1.32 1.38 2.06 1.86 1.56 0.80 0.66 0.55 0.48 0.56 0.47 0.23 0.25 0.23 0.12 0.03 0.02 0.00 0.00 0.00 0.00 0.00 0.00 0.00 0.00 0.00 0.00 0.02 0.02 0.03 0.03 0.02 0.02 0.02 0.02 0.04 0.05 0.07 0.11
0.12 0.31 0.81 1.21 1.52 1.14 0.77 0.50 0.57 0.42 0.45 0.49 0.45 0.44 0.31 0.21 0.12 0.19 0.08 0.04 0.00 0.00 0.00 0.00 0.00 0.01 0.01 0.01 0.01 0.00 0.00 0.00 0.01 0.04 0.05 0.08 0.08 0.07 0.05 0.05 0.06 0.04 0.04
0.27 0.37 0.41 0.37 0.53 0.21 0.14 0.18 0.31 0.19 0.24 0.29 0.34 0.22 0.18 0.22 0.21 0.09 0.02 0.07 0.00 0.00 0.00 0.01 0.01 0.02 0.02 0.02 0.02 0.02 0.00 0.00 0.00 0.01 0.03 0.07 0.08 0.12 0.12 0.08 0.08 0.07 0.03
0.15 0.17 0.06 0.06 0.27 0.21 0.10 0.13 0.21 0.32 0.24 0.19 0.32 0.24 0.12 0.20 0.31 0.24 0.04 0.03 0.02 0.01 0.01 0.01 0.01 0.01 0.02 0.02 0.01 0.02 0.02 0.01 0.01 0.00 0.01 0.05 0.07 0.07 0.08 0.09 0.08 0.09 0.06
0.02 0.03 0.02 0.06 0.13 0.18 0.19 0.23 0.21 0.22 0.21 0.11 0.09 0.06 0.08 0.09 0.10 0.10 0.03 0.02 0.02 0.02 0.01 0.03 0.03 0.03 0.02 0.02 0.02 0.01 0.03 0.05 0.05 0.03 0.00 0.00 0.04 0.07 0.11 0.13 0.14 0.14 0.13
0.04 0.04 0.09 0.13 0.15 0.12 0.17 0.31 0.19 0.17 0.19 0.22 0.10 0.09 0.08 0.10 0.09 0.08 0.04 0.05 0.04 0.01 0.06 0.06 0.04 0.04 0.05 0.04 0.04 0.04 0.03 0.01 0.02 0.07 0.05 0.02 0.03 0.05 0.06 0.11 0.15 0.21 0.26
0.12 0.17 0.15 0.13 0.14 0.15 0.21 0.26 0.26 0.18 0.14 0.10 0.09 0.10 0.07 0.05 0.06 0.02 0.01 0.01 0.01 0.02 0.06 0.08 0.14 0.11 0.10 0.09 0.07 0.07 0.08 0.09 0.09 0.15 0.25 0.18 0.11 0.08 0.04 0.07 0.08 0.12 0.18

GFSSE_prec_precacc_102.txt.gz
Total_Precipitation_Accumulation
0.29 0.03 0.03 0.04 0.04 0.06 0.04 0.00 0.00 0.00 0.02 0.07 0.09 0.14 0.17 0.17 0.23 0.32 0.30 0.31 0.33 0.30 0.30 0.25 0.21 0.11 0.00 0.02 0.02 0.02 0.03 0.03 0.03 0.03 0.04 0.08 0.10 0.08 0.07 0.19 0.11 0.15 0.31
0.25 0.09 0.07 0.05 0.04 0.08 0.11 0.05 0.02 0.02 0.02 0.05 0.10 0.13 0.17 0.21 0.32 0.40 0.39 0.38 0.42 0.34 0.34 0.27 0.23 0.19 0.12 0.12 0.08 0.05 0.05 0.05 0.03 0.03 0.05 0.10 0.20 0.16 0.06 0.11 0.10 0.13 0.17
0.58 0.50 0.40 0.10 0.02 0.04 0.08 0.08 0.06 0.04 0.02 0.05 0.08 0.16 0.27 0.34 0.50 0.51 0.37 0.34 0.55 0.70 0.55 0.40 0.38 0.49 0.46 0.27 0.11 0.07 0.06 0.06 0.04 0.03 0.03 0.17 0.28 0.21 0.15 0.10 0.12 0.16 0.17
1.33 0.88 0.85 0.57 0.09 0.04 0.03 0.03 0.03 0.03 0.02 0.02 0.03 0.10 0.31 0.37 0.33 0.31 0.45 0.41 0.44 0.47 0.59 0.50 0.75 1.16 0.98 0.72 0.34 0.17 0.11 0.05 0.02 0.02 0.06 0.20 0.24 0.20 0.15 0.08 0.12 0.13 0.12
1.15 1.17 1.04 1.11 0.87 0.32 0.16 0.07 0.04 0.07 0.02 0.00 0.03 0.13 0.19 0.16 0.27 0.25 0.45 0.33 0.20 0.19 0.45 0.60 0.71 0.93 0.83 0.98 1.08 0.69 0.31 0.08 0.02 0.03 0.08 0.05 0.14 0.23 0.16 0.10 0.09 0.10 0.06
1.13 1.26 1.45 1.45 0.97 0.59 0.60 0.24 0.08 0.08 0.01 0.00 0.01 0.04 0.15 0.23 0.15 0.18 0.39 0.46 0.51 0.44 0.78 1.16 1.76 1.28 0.72 1.05 1.11 0.71 0.30 0.04 0.01 0.04 0.08 0.06 0.15 0.27 0.20 0.15 0.10 0.08 0.08
1.83 2.55 3.31 2.97 2.41 1.10 0.98 0.76 0.33 0.14 0.04 0.00 0.01 0.05 0.09 0.52 0.22 0.06 0.07 0.20 0.53 1.18 1.33 1.12 1.24 1.41 0.98 0.29 0.15 0.21 0.14 0.05 0.07 0.13 0.14 0.10 0.15 0.22 0.21 0.20 0.17 0.11 0.09
3.36 3.45 5.11 5.72 5.42 4.22 2.66 1.89 1.51 1.05 0.50 0.15 0.05 0.05 0.02 0.19 0.29 0.05 0.02 0.04 0.07 0.10 0.15 0.16 0.14 0.11 0.16 0.09 0.03 0.03 0.04 0.05 0.05 0.16 0.17 0.16 0.15 0.13 0.12 0.15 0.12 0.09 0.10
5.85 5.86 5.26 7.51 5.13 4.02 4.23 3.27 3.31 2.19 1.39 0.52 0.19 0.10 0.06 0.05 0.01 0.01 0.00 0.00 0.00 0.03 0.06 0.09 0.08 0.02 0.01 0.01 0.01 0.01 0.01 0.01 0.05 0.08 0.07 0.06 0.09 0.13 0.20 0.21 0.16 0.14 0.09
6.58 9.34 6.73 6.72 5.23 3.50 3.41 3.94 3.20 3.29 2.37 1.11 0.36 0.23 0.09 0.08 0.02 0.01 0.01 0.01 0.01 0.03 0.05 0.07 0.08 0.03 0.02 0.00 0.00 0.00 0.00 0.00 0.00 0.00 0.00 0.01 0.05 0.08 0.20 0.30 0.27 0.24 0.18
3.69 5.27 5.84 7.31 6.11 3.63 2.51 3.41 2.91 3.51 2.83 1.47 0.61 0.37 0.16 0.07 0.01 0.00 0.02 0.03 0.04 0.03 0.04 0.06 0.09 0.05 0.01 0.00 0.00 0.00 0.00 0.00 0.00 0.00 0.00 0.00 0.02 0.07 0.14 0.20 0.24 0.25 0.24
2.10 2.40 3.33 5.34 6.93 4.40 2.97 2.10 2.19 2.87 4.41 1.69 0.53 0.36 0.20 0.06 0.01 0.02 0.02 0.05 0.07 0.06 0.06 0.13 0.15 0.08 0.04 0.04 0.02 0.00 0.00 0.00 0.00 0.00 0.01 0.01 0.02 0.03 0.11 0.16 0.17 0.16 0.16
1.36 1.46 1.47 2.49 4.22 3.72 3.11 2.57 2.20 2.37 4.02 2.99 0.62 0.31 0.17 0.06 0.12 0.11 0.13 0.17 0.12 0.12 0.18 0.18 0.37 0.41 0.34 0.20 0.11 0.09 0.03 0.00 0.00 0.00 0.00 0.00 0.02 0.03 0.11 0.17 0.18 0.20 0.22
1.21 1.18 1.12 0.87 1.90 1.99 1.76 2.08 1.90 1.25 1.61 3.12 1.16 0.54 0.22 0.21 0.31 0.18 0.11 0.10 0.08 0.09 0.10 0.19 0.39 0.33 0.26 0.31 0.28 0.16 0.08 0.04 0.01 0.01 0.01 0.01 0.01 0.00 0.02 0.05 0.15 0.25 0.24
1.11 1.16 1.07 0.80 0.97 1.54 1.67 1.74 1.41 0.69 0.68 1.50 1.54 0.71 0.40 0.45 0.54 0.41 0.25 0.04 0.02 0.02 0.04 0.04 0.07 0.12 0.14 0.13 0.11 0.11 0.07 0.05 0.03 0.01 0.00 0.01 0.01 0.01 0.01 0.01 0.04 0.17 0.27
0.70 0.58 0.60 0.77 0.64 0.92 1.49 1.20 1.24 0.71 0.37 0.76 1.51 0.67 0.46 0.41 0.37 0.21 0.14 0.09 0.05 0.03 0.01 0.03 0.03 0.04 0.05 0.06 0.10 0.10 0.06 0.05 0.03 0.03 0.02 0.02 0.02 0.01 0.00 0.01 0.01 0.08 0.22
0.49 0.45 0.46 0.49 0.62 1.00 1.21 1.02 0.94 0.74 0.42 0.40 0.93 0.80 0.78 0.50 0.31 0.16 0.09 0.06 0.02 0.00 0.00 0.00 0.00 0.02 0.04 0.07 0.12 0.19 0.16 0.09 0.06 0.05 0.04 0.05 0.06 0.08 0.07 0.01 0.00 0.03 0.10
0.38 0.31 0.31 0.54 0.82 0.93 1.02 0.90 0.97 0.79 0.57 0.61 0.62 0.79 0.87 0.65 0.22 0.11 0.06 0.03 0.01 0.00 0.00 0.00 0.00 0.00 0.01 0.04 0.05 0.04 0.02 0.04 0.04 0.03 0.02 0.03 0.07 0.11 0.16 0.15 0.08 0.04 0.05
0.12 0.17 0.51 0.81 1.17 1.36 1.22 1.13 1.52 1.31 1.03 0.77 0.70 0.71 0.56 0.46 0.20 0.07 0.05 0.06 0.03 0.00 0.00 0.00 0.00 0.00 0.00 0.00 0.00 0.01 0.01 0.01 0.02 0.03 0.02 0.01 0.01 0.03 0.08 0.10 0.13 0.13 0.11
0.13 0.12 0.68 1.07 1.33 1.39 2.07 1.89 1.66 0.97 0.80 0.78 0.62 0.70 0.58 0.37 0.34 0.24 0.13 0.05 0.06 0.03 0.02 0.00 0.00 0.00 0.00 0.00 0.00 0.00 0.00 0.02 0.02 0.03 0.03 0.02 0.02 0.02 0.02 0.04 0.05 0.07 0.11
0.12 0.31 0.81 1.21 1.52 1.15 0.77 0.56 0.83 0.79 0.72 0.81 0.68 0.60 0.47 0.36 0.22 0.22 0.08 0.05 0.01 0.01 0.03 0.00 0.00 0.01 0.01 0.01 0.01 0.00 0.00 0.00 0.01 0.04 0.05 0.08 0.08 0.07 0.05 0.05 0.06 0.04 0.04
0.27 0.38 0.41 0.37 0.54 0.22 0.15 0.23 0.51 0.58 0.64 0.64 0.75 0.58 0.46 0.39 0.30 0.13 0.04 0.08 0.00 0.00 0.01 0.01 0.01 0.02 0.02 0.02 0.03 0.02 0.00 0.00 0.00 0.01 0.03 0.07 0.08 0.12 0.12 0.08 0.08 0.07 0.03
0.15 0.17 0.06 0.06 0.27 0.22 0.10 0.16 0.40 0.65 0.72 0.81 0.95 0.76 0.50 0.43 0.40 0.29 0.08 0.05 0.03 0.01 0.01 0.01 0.01 0.01 0.02 0.02 0.02 0.03 0.02 0.01 0.01 0.00 0.01 0.05 0.07 0.07 0.08 0.09 0.08 0.09 0.06
0.02 0.03 0.02 0.06 0.13 0.18 0.20 0.24 0.32 0.62 0.64 0.71 0.67 0.46 0.44 0.36 0.24 0.17 0.08 0.05 0.04 0.03 0.01 0.03 0.03 0.03 0.02 0.02 0.02 0.01 0.03 0.05 0.06 0.04 0.00 0.00 0.04 0.07 0.11 0.13 0.14 0.14 0.13
0.04 0.04 0.10 0.13 0.15 0.12 0.17 0.31 0.22 0.31 0.44 0.60 0.63 0.58 0.46 0.40 0.26 0.18 0.10 0.07 0.07 0.06 0.10 0.07 0.04 0.04 0.05 0.04 0.04 0.04 0.03 0.02 0.03 0.08 0.06 0.02 0.03 0.05 0.06 0.11 0.15 0.21 0.26
0.12 0.17 0.16 0.13 0.14 0.15 0.21 0.27 0.27 0.19 0.16 0.22 0.37 0.41 0.37 0.30 0.21 0.14 0.10 0.07 0.08 0.09 0.14 0.13 0.15 0.12 0.10 0.09 0.08 0.09 0.08 0.09 0.10 0.16 0.26 0.20 0.15 0.10 0.05 0.07 0.09 0.12 0.18

GFSSE_prec_precacc_105.txt.gz
Total_Precipitation_Accumulation
0.29 0.03 0.03 0.04 0.04 0.06 0.04 0.00 0.00 0.00 0.02 0.07 0.09 0.14 0.17 0.17 0.23 0.32 0.30 0.31 0.33 0.30 0.30 0.25 0.21 0.11 0.00 0.02 0.02 0.02 0.03 0.03 0.03 0.03 0.04 0.09 0.11 0.08 0.07 0.19 0.11 0.15 0.31
0.25 0.09 0.07 0.05 0.04 0.08 0.11 0.05 0.02 0.02 0.02 0.05 0.10 0.13 0.17 0.21 0.32 0.40 0.39 0.38 0.42 0.34 0.34 0.27 0.23 0.19 0.12 0.12 0.08 0.05 0.05 0.05 0.03 0.03 0.05 0.10 0.21 0.16 0.06 0.11 0.11 0.14 0.18
0.58 0.50 0.40 0.10 0.02 0.04 0.08 0.08 0.06 0.04 0.02 0.05 0.09 0.16 0.27 0.34 0.50 0.51 0.37 0.34 0.55 0.70 0.55 0.40 0.38 0.49 0.46 0.27 0.11 0.07 0.06 0.06 0.04 0.03 0.03 0.17 0.28 0.21 0.15 0.11 0.13 0.17 0.18
1.33 0.88 0.85 0.57 0.09 0.04 0.03 0.03 0.03 0.03 0.02 0.02 0.03 0.11 0.31 0.38 0.33 0.31 0.45 0.41 0.44 0.47 0.59 0.50 0.75 1.16 0.98 0.72 0.34 0.17 0.11 0.05 0.02 0.02 0.06 0.20 0.24 0.20 0.15 0.08 0.13 0.14 0.12
1.15 1.17 1.04 1.11 0.87 0.32 0.16 0.07 0.04 0.07 0.02 0.00 0.03 0.14 0.22 0.24 0.32 0.26 0.45 0.33 0.20 0.19 0.45 0.60 0.71 0.93 0.83 0.98 1.08 0.69 0.31 0.09 0.02 0.03 0.08 0.05 0.14 0.23 0.16 0.10 0.09 0.10 0.06
1.13 1.26 1.45 1.45 0.97 0.59 0.60 0.24 0.08 0.08 0.01 0.01 0.01 0.04 0.16 0.38 0.32 0.24 0.39 0.46 0.51 0.44 0.78 1.16 1.76 1.28 0.72 1.05 1.11 0.71 0.30 0.04 0.01 0.04 0.08 0.06 0.15 0.27 0.20 0.15 0.10 0.08 0.08
1.83 2.55 3.31 2.97 2.41 1.10 0.98 0.77 0.33 0.17 0.07 0.08 0.10 0.09 0.11 0.61 0.47 0.20 0.12 0.20 0.53 1.18 1.33 1.12 1.24 1.41 0.98 0.29 0.15 0.21 0.14 0.05 0.07 0.13 0.14 0.10 0.15 0.22 0.21 0.20 0.17 0.11 0.09
3.36 3.45 5.11 5.72 5.42 4.22 2.66 1.89 1.53 1.27 0.82 0.61 0.27 0.10 0.05 0.29 0.51 0.15 0.08 0.05 0.07 0.10 0.15 0.16 0.14 0.11 0.16 0.09 0.03 0.03 0.04 0.05 0.05 0.16 0.17 0.16 0.15 0.13 0.12 0.15 0.12 0.09 0.10
5.85 5.86 5.26 7.51 5.13 4.02 4.23 3.27 3.32 2.35 1.97 1.44 1.08 0.42 0.12 0.11 0.10 0.03 0.01 0.00 0.00 0.03 0.06 0.09 0.08 0.02 0.01 0.01 0.01 0.01 0.01 0.01 0.05 0.08 0.07 0.06 0.09 0.13 0.20 0.21 0.16 0.14 0.09
6.58 9.34 6.73 6.72 5.23 3.50 3.41 3.95 3.22 3.33 2.49 1.74 1.33 1.03 0.21 0.27 0.15 0.08 0.02 0.01 0.01 0.03 0.05 0.07 0.08 0.03 0.02 0.00 0.00 0.00 0.00 0.00 0.00 0.00 0.00 0.01 0.05 0.08 0.20 0.30 0.27 0.24 0.18
3.69 5.27 5.84 7.31 6.11 3.63 2.51 3.41 2.93 3.56 2.90 1.65 1.30 1.86 0.45 0.17 0.21 0.10 0.03 0.03 0.04 0.03 0.04 0.06 0.09 0.05 0.01 0.00 0.00 0.00 0.00 0.00 0.00 0.00 0.00 0.00 0.02 0.07 0.14 0.20 0.24 0.25 0.24
2.10 2.40 3.33 5.34 6.93 4.40 2.97 2.10 2.19 2.89 4.46 1.91 1.18 1.45 0.74 0.15 0.08 0.04 0.02 0.05 0.07 0.06 0.06 0.13 0.15 0.08 0.04 0.04 0.02 0.00 0.00 0.00 0.00 0.00 0.01 0.01 0.02 0.03 0.11 0.16 0.17 0.16 0.16
1.36 1.46 1.47 2.49 4.22 3.72 3.11 2.57 2.22 2.39 4.08 3.16 1.19 0.84 0.80 0.22 0.19 0.12 0.13 0.17 0.12 0.12 0.18 0.18 0.37 0.41 0.34 0.20 0.11 0.09 0.03 0.00 0.00 0.00 0.00 0.00 0.02 0.03 0.11 0.17 0.18 0.20 0.22
1.21 1.18 1.12 0.87 1.90 1.99 1.76 2.09 1.98 1.34 1.94 3.59 1.56 0.95 0.58 0.40 0.36 0.19 0.11 0.10 0.08 0.09 0.10 0.19 0.39 0.33 0.26 0.31 0.28 0.16 0.08 0.04 0.01 0.01 0.01 0.01 0.01 0.00 0.02 0.05 0.15 0.25 0.24
1.11 1.16 1.07 0.80 0.97 1.54 1.67 1.74 1.47 0.76 0.99 2.37 1.99 1.21 0.55 0.53 0.56 0.41 0.25 0.04 0.02 0.02 0.04 0.04 0.07 0.12 0.14 0.13 0.11 0.11 0.07 0.05 0.03 0.01 0.00 0.01 0.01 0.01 0.01 0.01 0.04 0.17 0.27
0.70 0.58 0.60 0.77 0.65 0.94 1.51 1.21 1.31 0.78 0.59 1.50 2.08 1.30 0.63 0.44 0.38 0.21 0.14 0.09 0.05 0.03 0.01 0.03 0.03 0.04 0.05 0.06 0.10 0.10 0.06 0.05 0.03 0.03 0.02 0.02 0.02 0.01 0.00 0.01 0.01 0.08 0.22
0.49 0.45 0.46 0.50 0.63 1.03 1.29 1.04 0.99 0.81 0.49 0.67 1.56 1.42 1.02 0.56 0.34 0.17 0.09 0.06 0.02 0.00 0.00 0.00 0.00 0.02 0.04 0.07 0.12 0.19 0.16 0.09 0.06 0.05 0.04 0.05 0.06 0.08 0.07 0.01 0.00 0.03 0.10
0.38 0.31 0.31 0.54 0.83 0.94 1.06 0.97 1.01 0.81 0.58 0.69 0.85 1.13 1.03 0.74 0.32 0.15 0.06 0.03 0.01 0.00 0.00 0.00 0.00 0.00 0.01 0.04 0.05 0.04 0.02 0.04 0.04 0.03 0.02 0.03 0.07 0.11 0.16 0.15 0.08 0.04 0.05
0.12 0.17 0.51 0.81 1.17 1.36 1.22 1.15 1.55 1.34 1.03 0.78 0.72 0.81 0.65 0.58 0.32 0.11 0.07 0.06 0.04 0.01 0.00 0.00 0.00 0.00 0.00 0.00 0.00 0.01 0.01 0.01 0.02 0.03 0.02 0.01 0.01 0.03 0.08 0.10 0.13 0.13 0.11
0.13 0.12 0.68 1.07 1.33 1.39 2.07 1.89 1.66 1.00 0.84 0.79 0.62 0.71 0.59 0.40 0.38 0.28 0.15 0.06 0.12 0.04 0.04 0.01 0.00 0.00 0.00 0.00 0.00 0.00 0.00 0.02 0.02 0.03 0.03 0.02 0.02 0.02 0.02 0.04 0.05 0.07 0.11
0.12 0.31 0.81 1.22 1.52 1.15 0.77 0.56 0.83 0.79 0.75 0.84 0.69 0.60 0.48 0.36 0.25 0.25 0.10 0.06 0.05 0.03 0.05 0.02 0.00 0.01 0.01 0.01 0.01 0.00 0.00 0.00 0.01 0.04 0.05 0.08 0.08 0.07 0.05 0.05 0.06 0.04 0.04
0.27 0.38 0.41 0.37 0.54 0.22 0.15 0.23 0.51 0.58 0.65 0.68 0.84 0.60 0.46 0.40 0.31 0.14 0.04 0.08 0.01 0.03 0.03 0.02 0.01 0.02 0.02 0.02 0.03 0.02 0.00 0.00 0.00 0.01 0.03 0.07 0.08 0.12 0.12 0.08 0.08 0.07 0.03
0.15 0.17 0.06 0.06 0.27 0.22 0.10 0.16 0.40 0.66 0.72 0.84 1.17 1.00 0.53 0.44 0.41 0.30 0.08 0.05 0.03 0.03 0.02 0.02 0.01 0.01 0.02 0.02 0.02 0.03 0.02 0.01 0.01 0.00 0.01 0.05 0.07 0.07 0.08 0.09 0.08 0.09 0.06
0.02 0.03 0.02 0.07 0.13 0.18 0.20 0.24 0.32 0.62 0.65 0.73 0.75 0.86 0.59 0.42 0.28 0.19 0.08 0.05 0.04 0.04 0.02 0.03 0.03 0.03 0.02 0.02 0.02 0.01 0.03 0.05 0.06 0.04 0.00 0.00 0.04 0.07 0.11 0.13 0.14 0.14 0.13
0.04 0.04 0.10 0.13 0.15 0.12 0.17 0.31 0.22 0.31 0.45 0.63 0.76 0.81 0.81 0.58 0.34 0.23 0.11 0.07 0.07 0.06 0.11 0.08 0.05 0.06 0.06 0.05 0.04 0.04 0.03 0.02 0.03 0.08 0.06 0.02 0.03 0.05 0.06 0.11 0.15 0.21 0.26
0.12 0.17 0.16 0.13 0.14 0.15 0.21 0.27 0.27 0.21 0.17 0.24 0.48 0.72 0.74 0.64 0.42 0.26 0.14 0.09 0.10 0.11 0.17 0.14 0.17 0.13 0.13 0.10 0.08 0.09 0.08 0.09 0.10 0.16 0.26 0.20 0.15 0.10 0.05 0.07 0.09 0.12 0.18

GFSSE_prec_precacc_111.txt.gz
Total_Precipitation_Accumulation
0.29 0.03 0.03 0.04 0.04 0.06 0.04 0.00 0.00 0.00 0.02 0.07 0.09 0.14 0.17 0.17 0.24 0.32 0.30 0.31 0.33 0.30 0.30 0.25 0.21 0.11 0.01 0.03 0.03 0.02 0.03 0.03 0.04 0.05 0.06 0.11 0.13 0.10 0.08 0.19 0.11 0.16 0.34
0.25 0.09 0.07 0.05 0.04 0.08 0.11 0.05 0.02 0.02 0.02 0.05 0.10 0.13 0.17 0.21 0.32 0.40 0.39 0.38 0.42 0.34 0.34 0.27 0.23 0.19 0.13 0.13 0.08 0.05 0.05 0.05 0.03 0.03 0.06 0.13 0.23 0.18 0.07 0.11 0.11 0.15 0.19
0.58 0.50 0.40 0.10 0.02 0.04 0.08 0.08 0.06 0.04 0.02 0.05 0.09 0.16 0.27 0.34 0.50 0.51 0.38 0.34 0.55 0.70 0.55 0.41 0.38 0.50 0.46 0.27 0.11 0.07 0.06 0.06 0.04 0.03 0.03 0.17 0.30 0.22 0.15 0.11 0.15 0.18 0.20
1.33 0.88 0.85 0.57 0.09 0.04 0.03 0.03 0.03 0.04 0.02 0.02 0.03 0.11 0.31 0.38 0.33 0.31 0.45 0.41 0.44 0.48 0.60 0.51 0.76 1.16 0.98 0.72 0.34 0.17 0.11 0.05 0.02 0.02 0.06 0.20 0.24 0.20 0.16 0.09 0.13 0.15 0.13
1.15 1.17 1.04 1.11 0.87 0.32 0.16 0.07 0.04 0.07 0.02 0.01 0.03 0.14 0.22 0.24 0.32 0.26 0.45 0.33 0.20 0.19 0.46 0.61 0.72 0.93 0.83 0.98 1.08 0.69 0.31 0.09 0.02 0.03 0.08 0.05 0.14 0.23 0.16 0.10 0.09 0.11 0.07
1.13 1.26 1.45 1.45 0.97 0.59 0.60 0.24 0.08 0.08 0.01 0.02 0.10 0.09 0.18 0.40 0.33 0.25 0.39 0.46 0.51 0.44 0.78 1.17 1.76 1.28 0.72 1.05 1.11 0.71 0.30 0.04 0.01 0.04 0.08 0.06 0.15 0.28 0.20 0.15 0.10 0.09 0.08
1.83 2.55 3.31 2.97 2.41 1.10 0.98 0.77 0.33 0.17 0.07 0.10 0.24 0.40 0.38 0.80 0.62 0.25 0.14 0.21 0.53 1.18 1.33 1.13 1.24 1.41 0.98 0.29 0.15 0.21 0.14 0.05 0.07 0.13 0.14 0.10 0.15 0.23 0.22 0.20 0.17 0.11 0.10
3.36 3.45 5.11 5.72 5.42 4.22 2.66 1.89 1.54 1.36 1.01 0.76 0.44 0.36 0.30 0.66 0.80 0.29 0.11 0.07 0.07 0.10 0.15 0.16 0.14 0.11 0.16 0.09 0.03 0.03 0.04 0.05 0.05 0.16 0.17 0.16 0.15 0.13 0.12 0.15 0.12 0.09 0.10
5.85 5.86 5.26 7.51 5.13 4.02 4.24 3.28 3.33 2.37 2.15 1.85 1.28 0.69 0.30 0.34 0.47 0.25 0.08 0.03 0.00 0.03 0.06 0.09 0.08 0.02 0.01 0.01 0.01 0.01 0.01 0.01 0.05 0.08 0.07 0.06 0.09 0.13 0.20 0.21 0.16 0.14 0.09
6.58 9.34 6.73 6.72 5.23 3.50 3.41 3.96 3.24 3.43 2.81 2.03 1.57 1.28 0.45 0.45 0.34 0.33 0.13 0.04 0.01 0.03 0.05 0.07 0.08 0.03 0.02 0.00 0.00 0.00 0.00 0.00 0.00 0.00 0.00 0.01 0.05 0.09 0.20 0.31 0.27 0.24 0.18
3.69 5.27 5.84 7.31 6.11 3.63 2.51 3.41 2.94 3.64 3.17 2.03 1.57 2.05 0.79 0.38 0.38 0.29 0.10 0.06 0.05 0.03 0.04 0.06 0.09 0.05 0.01 0.00 0.00 0.00 0.00 0.00 0.00 0.00 0.00 0.00 0.02 0.07 0.14 0.20 0.24 0.25 0.24
2.10 2.40 3.33 5.34 6.93 4.40 2.97 2.10 2.19 2.93 4.60 2.32 1.55 1.76 1.41 0.49 0.39 0.25 0.16 0.09 0.09 0.06 0.06 0.13 0.15 0.08 0.04 0.04 0.02 0.00 0.00 0.00 0.00 0.00 0.01 0.01 0.02 0.03 0.11 0.16 0.17 0.16 0.16
1.36 1.46 1.47 2.49 4.22 3.72 3.11 2.57 2.22 2.39 4.11 3.40 1.58 1.16 1.48 0.57 0.54 0.35 0.22 0.22 0.15 0.12 0.18 0.18 0.37 0.41 0.34 0.20 0.11 0.09 0.03 0.00 0.00 0.00 0.00 0.00 0.02 0.03 0.11 0.17 0.18 0.20 0.22
1.21 1.18 1.12 0.87 1.90 1.99 1.76 2.09 1.98 1.35 1.97 3.69 1.78 1.21 0.94 1.04 0.59 0.40 0.15 0.11 0.09 0.09 0.10 0.19 0.39 0.33 0.26 0.31 0.28 0.16 0.08 0.04 0.01 0.01 0.01 0.01 0.01 0.00 0.02 0.05 0.15 0.25 0.24
1.11 1.16 1.07 0.80 0.97 1.54 1.67 1.74 1.47 0.79 1.09 2.56 2.15 1.46 0.72 1.00 0.85 0.53 0.29 0.05 0.02 0.02 0.04 0.04 0.07 0.12 0.14 0.13 0.11 0.11 0.07 0.05 0.03 0.01 0.00 0.01 0.01 0.01 0.01 0.01 0.04 0.17 0.27
0.70 0.58 0.60 0.77 0.65 0.94 1.51 1.21 1.31 0.83 0.87 1.83 2.28 1.59 0.93 0.63 0.64 0.29 0.16 0.09 0.05 0.03 0.01 0.03 0.03 0.04 0.05 0.06 0.10 0.10 0.06 0.05 0.03 0.03 0.02 0.02 0.02 0.01 0.00 0.01 0.01 0.08 0.22
0.49 0.45 0.46 0.50 0.63 1.03 1.29 1.04 0.99 0.84 0.66 1.09 1.93 1.64 1.56 0.78 0.52 0.22 0.10 0.06 0.02 0.00 0.00 0.00 0.00 0.02 0.04 0.07 0.12 0.19 0.16 0.09 0.06 0.05 0.04 0.05 0.06 0.08 0.07 0.01 0.00 0.03 0.10
0.38 0.31 0.31 0.54 0.83 0.94 1.07 0.97 1.01 0.82 0.67 0.97 1.51 1.48 1.46 1.26 0.42 0.18 0.07 0.03 0.01 0.00 0.00 0.00 0.00 0.00 0.01 0.04 0.05 0.04 0.02 0.04 0.04 0.03 0.02 0.03 0.07 0.11 0.16 0.15 0.08 0.04 0.05
0.12 0.17 0.51 0.81 1.17 1.37 1.23 1.16 1.56 1.36 1.06 0.95 1.33 1.30 0.95 1.04 0.41 0.14 0.07 0.06 0.04 0.01 0.00 0.00 0.00 0.00 0.00 0.00 0.00 0.01 0.01 0.01 0.02 0.03 0.02 0.01 0.01 0.03 0.08 0.10 0.13 0.13 0.11
0.13 0.12 0.68 1.07 1.33 1.39 2.07 1.89 1.68 1.02 0.85 0.82 1.08 1.07 0.87 0.61 0.48 0.32 0.16 0.07 0.12 0.04 0.04 0.01 0.00 0.00 0.00 0.00 0.00 0.00 0.00 0.02 0.02 0.03 0.03 0.02 0.02 0.02 0.02 0.04 0.05 0.07 0.11
0.12 0.31 0.81 1.22 1.52 1.15 0.77 0.57 0.84 0.80 0.75 0.85 0.88 0.83 0.65 0.51 0.31 0.28 0.10 0.06 0.05 0.03 0.05 0.02 0.00 0.01 0.01 0.01 0.01 0.00 0.00 0.00 0.01 0.04 0.05 0.08 0.08 0.07 0.05 0.05 0.06 0.04 0.04
0.27 0.38 0.41 0.37 0.54 0.22 0.15 0.23 0.51 0.60 0.66 0.69 0.85 0.67 0.59 0.53 0.39 0.16 0.05 0.08 0.01 0.03 0.03 0.02 0.01 0.02 0.02 0.02 0.03 0.02 0.00 0.00 0.00 0.01 0.03 0.07 0.08 0.12 0.12 0.08 0.08 0.07 0.03
0.15 0.17 0.06 0.06 0.27 0.22 0.10 0.16 0.40 0.67 0.77 0.91 1.23 1.04 0.59 0.53 0.51 0.33 0.09 0.05 0.03 0.03 0.02 0.02 0.01 0.01 0.02 0.02 0.02 0.03 0.02 0.01 0.01 0.00 0.01 0.05 0.07 0.07 0.08 0.09 0.08 0.09 0.06
0.02 0.03 0.02 0.07 0.13 0.18 0.20 0.24 0.32 0.63 0.67 0.77 0.80 1.00 0.66 0.47 0.33 0.24 0.11 0.06 0.05 0.05 0.03 0.04 0.03 0.03 0.02 0.02 0.02 0.01 0.03 0.05 0.06 0.04 0.00 0.00 0.04 0.07 0.11 0.13 0.14 0.14 0.13
0.04 0.04 0.10 0.13 0.15 0.12 0.17 0.32 0.22 0.31 0.45 0.65 0.81 1.10 1.19 0.82 0.48 0.27 0.15 0.10 0.11 0.08 0.16 0.10 0.06 0.08 0.07 0.05 0.04 0.04 0.03 0.02 0.03 0.08 0.06 0.02 0.03 0.05 0.06 0.11 0.15 0.21 0.26
0.12 0.17 0.16 0.13 0.14 0.15 0.21 0.27 0.28 0.21 0.17 0.24 0.50 0.79 1.35 1.37 0.85 0.45 0.22 0.14 0.16 0.18 0.24 0.22 0.22 0.16 0.17 0.14 0.09 0.09 0.08 0.09 0.10 0.16 0.26 0.20 0.15 0.10 0.05 0.07 0.09 0.12 0.18

GFSSE_prec_precacc_114.txt.gz
Total_Precipitation_Accumulation
0.29 0.03 0.03 0.04 0.05 0.06 0.04 0.00 0.00 0.00 0.02 0.07 0.09 0.14 0.17 0.17 0.24 0.32 0.30 0.31 0.33 0.30 0.30 0.25 0.21 0.11 0.01 0.03 0.03 0.02 0.03 0.04 0.04 0.05 0.07 0.12 0.13 0.10 0.08 0.19 0.11 0.16 0.35
0.25 0.09 0.07 0.06 0.04 0.08 0.11 0.05 0.02 0.02 0.02 0.05 0.10 0.13 0.17 0.21 0.32 0.40 0.39 0.38 0.42 0.34 0.34 0.27 0.23 0.19 0.13 0.13 0.08 0.05 0.05 0.06 0.03 0.04 0.07 0.14 0.24 0.18 0.07 0.11 0.11 0.16 0.20
0.58 0.50 0.40 0.10 0.02 0.04 0.08 0.08 0.06 0.05 0.03 0.06 0.09 0.17 0.27 0.34 0.50 0.51 0.38 0.34 0.55 0.70 0.55 0.41 0.39 0.51 0.47 0.28 0.12 0.07 0.06 0.06 0.04 0.03 0.03 0.17 0.30 0.23 0.15 0.11 0.15 0.19 0.20
1.33 0.88 0.85 0.58 0.09 0.04 0.03 0.03 0.03 0.04 0.04 0.05 0.04 0.11 0.31 0.38 0.33 0.31 0.45 0.41 0.44 0.48 0.60 0.51 0.77 1.18 0.99 0.72 0.34 0.17 0.11 0.05 0.02 0.02 0.06 0.20 0.25 0.21 0.16 0.09 0.13 0.15 0.13
1.15 1.17 1.04 1.11 0.87 0.32 0.16 0.07 0.04 0.07 0.03 0.03 0.04 0.14 0.22 0.24 0.34 0.28 0.47 0.33 0.20 0.20 0.46 0.62 0.73 0.95 0.84 0.98 1.08 0.69 0.31 0.09 0.02 0.03 0.08 0.05 0.14 0.24 0.17 0.10 0.09 0.11 0.07
1.13 1.26 1.45 1.45 0.97 0.59 0.60 0.24 0.08 0.08 0.01 0.03 0.11 0.21 0.20 0.41 0.33 0.26 0.40 0.46 0.51 0.44 0.80 1.19 1.78 1.28 0.72 1.05 1.11 0.71 0.30 0.04 0.01 0.04 0.08 0.06 0.15 0.28 0.20 0.15 0.10 0.09 0.09
1.83 2.55 3.31 2.97 2.41 1.10 0.98 0.77 0.33 0.17 0.07 0.10 0.28 0.65 0.61 1.06 0.74 0.35 0.19 0.22 0.53 1.19 1.37 1.16 1.25 1.41 0.98 0.29 0.15 0.21 0.14 0.05 0.07 0.13 0.14 0.10 0.15 0.23 0.22 0.20 0.17 0.11 0.10
3.36 3.45 5.11 5.72 5.42 4.22 2.66 1.89 1.54 1.36 1.01 0.76 0.49 0.50 0.53 0.92 0.91 0.40 0.19 0.13 0.10 0.13 0.19 0.17 0.15 0.12 0.16 0.09 0.03 0.03 0.04 0.05 0.05 0.16 0.17 0.16 0.15 0.13 0.12 0.15 0.12 0.09 0.10
5.85 5.86 5.26 7.51 5.13 4.02 4.24 3.28 3.33 2.37 2.15 1.85 1.31 0.73 0.35 0.36 0.49 0.28 0.18 0.09 0.06 0.07 0.08 0.10 0.08 0.02 0.01 0.01 0.01 0.01 0.01 0.01 0.05 0.08 0.07 0.06 0.09 0.14 0.21 0.22 0.16 0.14 0.10
6.58 9.34 6.73 6.72 5.23 3.50 3.41 3.96 3.24 3.43 2.81 2.03 1.57 1.28 0.45 0.45 0.35 0.36 0.22 0.16 0.07 0.04 0.06 0.08 0.08 0.03 0.02 0.00 0.00 0.00 0.00 0.00 0.00 0.00 0.00 0.01 0.05 0.09 0.21 0.31 0.27 0.24 0.18
3.69 5.27 5.84 7.31 6.11 3.63 2.51 3.42 2.94 3.65 3.19 2.04 1.57 2.05 0.79 0.38 0.38 0.30 0.14 0.12 0.13 0.06 0.04 0.06 0.09 0.05 0.01 0.00 0.00 0.00 0.00 0.00 0.00 0.00 0.00 0.00 0.02 0.07 0.14 0.20 0.25 0.25 0.24
2.10 2.40 3.33 5.34 6.93 4.40 2.97 2.10 2.19 2.93 4.62 2.34 1.56 1.77 1.41 0.50 0.40 0.25 0.18 0.13 0.14 0.08 0.07 0.13 0.15 0.08 0.04 0.04 0.02 0.00 0.00 0.00 0.00 0.00 0.01 0.01 0.02 0.04 0.11 0.16 0.18 0.16 0.16
1.36 1.46 1.47 2.49 4.22 3.72 3.11 2.57 2.22 2.39 4.12 3.45 1.63 1.20 1.49 0.57 0.54 0.36 0.28 0.36 0.20 0.13 0.18 0.18 0.37 0.41 0.34 0.20 0.11 0.09 0.03 0.00 0.00 0.00 0.00 0.01 0.02 0.03 0.11 0.17 0.19 0.20 0.22
1.21 1.18 1.12 0.87 1.90 1.99 1.76 2.09 1.98 1.35 1.97 3.71 1.82 1.30 1.02 1.06 0.60 0.40 0.20 0.22 0.14 0.10 0.10 0.19 0.39 0.33 0.26 0.31 0.28 0.16 0.08 0.04 0.01 0.01 0.01 0.01 0.01 0.00 0.02 0.05 0.15 0.25 0.24
1.11 1.16 1.07 0.80 0.97 1.54 1.67 1.74 1.47 0.79 1.09 2.56 2.17 1.51 0.81 1.08 0.89 0.56 0.34 0.08 0.03 0.02 0.04 0.04 0.07 0.12 0.14 0.13 0.11 0.11 0.07 0.05 0.03 0.01 0.00 0.01 0.01 0.01 0.01 0.01 0.04 0.17 0.28
0.70 0.58 0.60 0.77 0.65 0.94 1.51 1.21 1.31 0.83 0.87 1.84 2.30 1.62 0.99 0.68 0.72 0.37 0.21 0.11 0.06 0.03 0.01 0.03 0.03 0.04 0.05 0.06 0.10 0.10 0.06 0.05 0.03 0.03 0.02 0.02 0.02 0.01 0.00 0.01 0.01 0.08 0.22
0.49 0.45 0.46 0.50 0.63 1.03 1.29 1.04 0.99 0.84 0.66 1.09 1.94 1.66 1.62 0.85 0.59 0.34 0.19 0.07 0.03 0.00 0.00 0.00 0.00 0.02 0.04 0.07 0.12 0.19 0.16 0.09 0.06 0.05 0.04 0.05 0.06 0.08 0.07 0.02 0.00 0.03 0.10
0.38 0.31 0.31 0.54 0.83 0.94 1.07 0.97 1.01 0.82 0.67 0.97 1.52 1.52 1.56 1.44 0.50 0.28 0.17 0.08 0.02 0.01 0.00 0.00 0.00 0.00 0.01 0.04 0.05 0.04 0.02 0.04 0.04 0.03 0.02 0.03 0.07 0.11 0.16 0.15 0.08 0.04 0.05
0.12 0.17 0.51 0.81 1.17 1.37 1.23 1.16 1.56 1.36 1.06 0.95 1.34 1.37 1.03 1.48 0.75 0.21 0.12 0.10 0.06 0.02 0.00 0.00 0.00 0.00 0.00 0.00 0.00 0.01 0.01 0.01 0.02 0.03 0.02 0.01 0.01 0.03 0.08 0.10 0.13 0.13 0.11
0.13 0.12 0.68 1.07 1.33 1.39 2.07 1.89 1.68 1.02 0.85 0.82 1.09 1.12 0.96 1.08 1.07 0.46 0.21 0.09 0.13 0.05 0.04 0.01 0.00 0.00 0.00 0.00 0.00 0.00 0.00 0.02 0.02 0.03 0.03 0.02 0.02 0.02 0.02 0.04 0.05 0.07 0.11
0.12 0.31 0.81 1.22 1.52 1.15 0.77 0.58 0.86 0.80 0.75 0.85 0.91 0.89 0.71 0.82 0.68 0.49 0.14 0.08 0.06 0.04 0.05 0.02 0.00 0.01 0.01 0.01 0.01 0.00 0.00 0.00 0.01 0.04 0.05 0.08 0.08 0.07 0.05 0.05 0.06 0.04 0.04
0.27 0.38 0.41 0.37 0.54 0.22 0.15 0.23 0.52 0.60 0.66 0.69 0.86 0.71 0.65 0.77 0.58 0.25 0.09 0.10 0.02 0.03 0.03 0.02 0.01 0.02 0.02 0.02 0.03 0.02 0.00 0.00 0.00 0.01 0.03 0.07 0.08 0.12 0.12 0.08 0.08 0.07 0.03
0.15 0.17 0.06 0.06 0.27 0.22 0.10 0.16 0.40 0.67 0.77 0.91 1.23 1.06 0.66 0.68 0.62 0.41 0.11 0.05 0.04 0.03 0.02 0.02 0.01 0.01 0.02 0.02 0.02 0.03 0.02 0.01 0.01 0.00 0.01 0.05 0.07 0.07 0.08 0.09 0.08 0.09 0.06
0.02 0.03 0.02 0.07 0.13 0.18 0.20 0.24 0.32 0.63 0.67 0.77 0.80 1.01 0.68 0.54 0.45 0.32 0.15 0.06 0.05 0.06 0.03 0.04 0.03 0.03 0.02 0.02 0.02 0.01 0.03 0.05 0.06 0.04 0.00 0.00 0.04 0.07 0.11 0.13 0.14 0.14 0.13
0.04 0.04 0.10 0.13 0.15 0.12 0.17 0.32 0.22 0.31 0.45 0.65 0.81 1.10 1.21 0.85 0.53 0.34 0.21 0.12 0.11 0.09 0.16 0.10 0.06 0.08 0.07 0.05 0.04 0.04 0.03 0.02 0.03 0.08 0.06 0.02 0.03 0.05 0.06 0.11 0.15 0.21 0.26
0.12 0.17 0.16 0.13 0.14 0.16 0.22 0.27 0.28 0.21 0.17 0.24 0.50 0.79 1.37 1.41 0.87 0.47 0.27 0.17 0.17 0.18 0.24 0.22 0.22 0.16 0.17 0.14 0.09 0.09 0.08 0.09 0.10 0.16 0.26 0.20 0.15 0.10 0.05 0.07 0.09 0.12 0.18

GFSSE_prec_precacc_117.txt.gz
Total_Precipitation_Accumulation
0.29 0.03 0.03 0.04 0.05 0.06 0.04 0.00 0.00 0.00 0.02 0.07 0.09 0.14 0.17 0.17 0.24 0.32 0.30 0.31 0.34 0.30 0.30 0.25 0.21 0.11 0.02 0.03 0.03 0.03 0.04 0.04 0.04 0.06 0.08 0.12 0.13 0.10 0.08 0.19 0.11 0.16 0.35
0.25 0.09 0.07 0.06 0.04 0.08 0.11 0.05 0.02 0.02 0.02 0.05 0.10 0.13 0.17 0.21 0.32 0.40 0.39 0.38 0.42 0.34 0.34 0.27 0.23 0.20 0.14 0.13 0.08 0.05 0.05 0.06 0.04 0.04 0.07 0.15 0.25 0.19 0.07 0.11 0.11 0.16 0.20
0.58 0.50 0.40 0.11 0.03 0.05 0.08 0.08 0.06 0.05 0.04 0.07 0.09 0.17 0.27 0.34 0.50 0.51 0.38 0.34 0.55 0.70 0.56 0.41 0.39 0.51 0.47 0.28 0.12 0.07 0.06 0.06 0.05 0.04 0.03 0.17 0.31 0.24 0.16 0.11 0.15 0.19 0.20
1.33 0.88 0.85 0.58 0.10 0.04 0.03 0.03 0.03 0.05 0.06 0.05 0.04 0.11 0.31 0.38 0.33 0.31 0.45 0.41 0.44 0.48 0.61 0.52 0.78 1.19 1.00 0.72 0.34 0.17 0.11 0.05 0.02 0.02 0.06 0.20 0.26 0.22 0.17 0.09 0.14 0.15 0.13
1.15 1.17 1.04 1.11 0.87 0.32 0.16 0.07 0.04 0.08 0.06 0.06 0.06 0.14 0.22 0.25 0.36 0.37 0.55 0.35 0.20 0.21 0.47 0.64 0.78 0.96 0.84 0.98 1.08 0.69 0.31 0.09 0.02 0.03 0.08 0.05 0.15 0.25 0.17 0.10 0.09 0.11 0.07
1.13 1.26 1.45 1.45 0.97 0.60 0.60 0.24 0.08 0.09 0.03 0.05 0.13 0.31 0.28 0.67 0.70 0.50 0.65 0.58 0.58 0.49 0.83 1.25 1.84 1.30 0.72 1.05 1.11 0.71 0.30 0.04 0.01 0.04 0.08 0.06 0.15 0.29 0.20 0.15 0.10 0.09 0.09
1.83 2.55 3.31 2.97 2.41 1.11 0.98 0.77 0.33 0.17 0.08 0.10 0.29 0.71 1.00 1.63 1.31 0.75 0.49 0.33 0.57 1.22 1.41 1.21 1.30 1.42 0.98 0.29 0.15 0.21 0.14 0.05 0.07 0.13 0.14 0.10 0.15 0.23 0.22 0.20 0.17 0.11 0.10
3.36 3.45 5.11 5.72 5.42 4.22 2.66 1.89 1.54 1.36 1.01 0.77 0.51 0.50 0.54 0.99 1.19 0.67 0.37 0.22 0.14 0.15 0.22 0.23 0.19 0.12 0.16 0.09 0.03 0.03 0.04 0.05 0.05 0.16 0.17 0.16 0.15 0.13 0.12 0.15 0.12 0.09 0.10
5.85 5.86 5.26 7.51 5.13 4.03 4.24 3.28 3.33 2.37 2.15 1.87 1.31 0.73 0.35 0.36 0.49 0.28 0.20 0.16 0.13 0.10 0.12 0.16 0.11 0.02 0.01 0.01 0.01 0.01 0.01 0.01 0.05 0.08 0.07 0.06 0.09 0.14 0.21 0.22 0.16 0.14 0.10
6.58 9.34 6.73 6.72 5.23 3.51 3.41 3.97 3.24 3.43 2.81 2.03 1.57 1.28 0.45 0.45 0.35 0.36 0.22 0.18 0.10 0.07 0.09 0.10 0.09 0.03 0.02 0.00 0.00 0.00 0.00 0.00 0.00 0.00 0.00 0.01 0.05 0.09 0.21 0.31 0.28 0.24 0.19
3.69 5.27 5.84 7.31 6.11 3.63 2.51 3.42 2.95 3.65 3.19 2.04 1.57 2.05 0.79 0.38 0.38 0.30 0.14 0.12 0.13 0.07 0.06 0.07 0.09 0.05 0.01 0.00 0.00 0.00 0.00 0.00 0.00 0.00 0.00 0.00 0.03 0.07 0.14 0.21 0.25 0.25 0.24
2.10 2.40 3.33 5.34 6.93 4.40 2.97 2.10 2.20 2.94 4.63 2.34 1.56 1.77 1.41 0.50 0.40 0.25 0.18 0.14 0.16 0.09 0.07 0.14 0.15 0.08 0.04 0.04 0.02 0.00 0.00 0.00 0.00 0.00 0.01 0.01 0.02 0.04 0.11 0.17 0.18 0.16 0.16
1.36 1.46 1.47 2.49 4.22 3.72 3.11 2.57 2.22 2.40 4.14 3.47 1.66 1.21 1.49 0.57 0.54 0.36 0.28 0.37 0.24 0.15 0.18 0.18 0.38 0.42 0.34 0.20 0.11 0.09 0.03 0.00 0.00 0.00 0.00 0.01 0.02 0.03 0.11 0.17 0.19 0.21 0.22
1.21 1.18 1.12 0.87 1.90 1.99 1.76 2.09 1.98 1.35 1.98 3.73 1.87 1.37 1.05 1.07 0.60 0.40 0.21 0.25 0.16 0.10 0.10 0.19 0.39 0.33 0.26 0.31 0.28 0.16 0.08 0.04 0.01 0.01 0.01 0.01 0.01 0.00 0.02 0.05 0.15 0.25 0.24
1.11 1.16 1.07 0.80 0.97 1.54 1.67 1.74 1.47 0.79 1.09 2.58 2.22 1.59 0.90 1.14 0.92 0.57 0.37 0.16 0.08 0.02 0.04 0.04 0.07 0.12 0.14 0.13 0.11 0.11 0.07 0.05 0.03 0.01 0.00 0.01 0.01 0.01 0.01 0.01 0.04 0.17 0.28
0.70 0.58 0.60 0.77 0.65 0.94 1.51 1.21 1.31 0.83 0.87 1.84 2.31 1.66 1.06 0.75 0.77 0.40 0.28 0.15 0.09 0.05 0.01 0.03 0.03 0.04 0.05 0.06 0.10 0.10 0.06 0.05 0.03 0.03 0.02 0.02 0.02 0.01 0.01 0.01 0.01 0.09 0.22
0.49 0.45 0.46 0.50 0.63 1.03 1.29 1.04 0.99 0.84 0.66 1.10 1.94 1.67 1.63 0.87 0.64 0.41 0.26 0.11 0.05 0.02 0.00 0.00 0.00 0.02 0.04 0.07 0.12 0.19 0.16 0.09 0.06 0.05 0.04 0.05 0.06 0.08 0.07 0.02 0.01 0.03 0.10
0.38 0.31 0.31 0.54 0.83 0.94 1.07 0.97 1.01 0.82 0.67 0.97 1.52 1.53 1.57 1.46 0.55 0.39 0.28 0.14 0.03 0.02 0.00 0.00 0.00 0.00 0.01 0.04 0.05 0.04 0.02 0.04 0.04 0.03 0.02 0.03 0.07 0.11 0.16 0.15 0.09 0.04 0.05
0.12 0.17 0.51 0.81 1.17 1.37 1.23 1.16 1.56 1.36 1.06 0.95 1.34 1.37 1.04 1.53 0.83 0.32 0.32 0.20 0.10 0.03 0.00 0.00 0.00 0.00 0.00 0.00 0.00 0.01 0.01 0.01 0.02 0.03 0.02 0.01 0.01 0.03 0.08 0.10 0.13 0.13 0.11
0.13 0.12 0.68 1.07 1.33 1.39 2.07 1.89 1.68 1.02 0.85 0.82 1.09 1.12 0.96 1.12 1.23 0.72 0.46 0.28 0.21 0.10 0.05 0.01 0.00 0.00 0.00 0.00 0.00 0.00 0.00 0.02 0.02 0.03 0.03 0.02 0.02 0.02 0.02 0.04 0.05 0.07 0.11
0.12 0.31 0.81 1.22 1.52 1.15 0.77 0.58 0.86 0.80 0.75 0.86 0.91 0.89 0.72 0.84 0.82 1.03 0.46 0.20 0.14 0.10 0.06 0.02 0.00 0.01 0.01 0.01 0.01 0.00 0.00 0.00 0.01 0.04 0.05 0.08 0.08 0.07 0.05 0.05 0.06 0.04 0.04
0.27 0.38 0.41 0.37 0.54 0.22 0.15 0.23 0.52 0.60 0.66 0.69 0.86 0.71 0.65 0.79 0.64 0.71 0.47 0.24 0.08 0.07 0.05 0.02 0.01 0.02 0.02 0.02 0.03 0.02 0.00 0.00 0.00 0.01 0.03 0.07 0.08 0.12 0.12 0.08 0.08 0.07 0.03
0.15 0.17 0.06 0.06 0.27 0.22 0.10 0.16 0.40 0.68 0.78 0.92 1.24 1.07 0.67 0.76 0.74 0.61 0.43 0.25 0.09 0.04 0.03 0.02 0.01 0.01 0.02 0.02 0.02 0.03 0.02 0.01 0.01 0.00 0.01 0.05 0.07 0.07 0.08 0.09 0.08 0.09 0.06
0.02 0.03 0.02 0.07 0.13 0.18 0.20 0.24 0.32 0.63 0.68 0.77 0.80 1.01 0.69 0.58 0.57 0.46 0.35 0.34 0.14 0.07 0.04 0.04 0.03 0.03 0.02 0.02 0.02 0.01 0.03 0.05 0.06 0.04 0.00 0.00 0.04 0.07 0.11 0.13 0.14 0.14 0.13
0.04 0.04 0.10 0.13 0.15 0.12 0.18 0.32 0.22 0.31 0.46 0.65 0.82 1.11 1.22 0.85 0.58 0.50 0.37 0.33 0.22 0.11 0.17 0.10 0.06 0.08 0.07 0.05 0.04 0.04 0.03 0.02 0.03 0.08 0.06 0.02 0.03 0.05 0.06 0.11 0.15 0.21 0.26
0.12 0.17 0.16 0.13 0.14 0.16 0.22 0.27 0.28 0.21 0.17 0.24 0.50 0.80 1.38 1.42 0.88 0.54 0.46 0.32 0.26 0.22 0.25 0.22 0.22 0.16 0.17 0.14 0.09 0.09 0.08 0.09 0.10 0.16 0.26 0.20 0.15 0.10 0.05 0.07 0.09 0.12 0.18

GFSSE_prec_precacc_123.txt.gz
Total_Precipitation_Accumulation
0.29 0.03 0.03 0.04 0.05 0.06 0.04 0.00 0.00 0.00 0.02 0.07 0.11 0.14 0.17 0.17 0.24 0.32 0.30 0.31 0.34 0.31 0.35 0.27 0.23 0.12 0.02 0.03 0.03 0.03 0.04 0.04 0.04 0.07 0.11 0.15 0.14 0.11 0.10 0.24 0.15 0.17 0.38
0.25 0.09 0.07 0.06 0.04 0.08 0.11 0.05 0.02 0.02 0.02 0.05 0.11 0.13 0.20 0.22 0.32 0.40 0.39 0.38 0.44 0.40 0.38 0.29 0.26 0.23 0.16 0.15 0.11 0.05 0.05 0.06 0.04 0.05 0.07 0.16 0.26 0.19 0.08 0.16 0.13 0.17 0.21
0.58 0.50 0.40 0.11 0.03 0.05 0.08 0.08 0.06 0.05 0.04 0.07 0.09 0.21 0.33 0.35 0.50 0.52 0.38 0.37 0.61 0.86 0.64 0.45 0.46 0.58 0.48 0.29 0.12 0.07 0.06 0.06 0.05 0.05 0.04 0.17 0.31 0.24 0.16 0.13 0.16 0.19 0.20
1.33 0.88 0.85 0.58 0.10 0.04 0.03 0.03 0.03 0.05 0.06 0.05 0.04 0.13 0.36 0.40 0.34 0.33 0.47 0.47 0.63 0.76 0.77 0.57 0.95 1.38 1.01 0.73 0.34 0.17 0.11 0.05 0.02 0.02 0.06 0.20 0.27 0.23 0.17 0.09 0.15 0.16 0.14
1.15 1.17 1.04 1.11 0.87 0.32 0.16 0.07 0.05 0.09 0.06 0.06 0.07 0.14 0.25 0.26 0.37 0.42 0.80 0.82 0.56 0.55 0.82 0.78 0.90 1.04 0.87 0.98 1.08 0.69 0.31 0.09 0.02 0.03 0.08 0.05 0.16 0.27 0.19 0.12 0.10 0.13 0.11
1.13 1.26 1.45 1.45 0.97 0.60 0.60 0.24 0.08 0.09 0.04 0.05 0.13 0.31 0.30 0.84 0.97 1.16 1.67 2.39 1.91 1.76 1.37 1.67 2.13 1.44 0.75 1.05 1.11 0.71 0.30 0.04 0.01 0.04 0.08 0.06 0.16 0.31 0.21 0.16 0.11 0.09 0.09
1.83 2.55 3.31 2.97 2.41 1.11 0.98 0.77 0.33 0.17 0.09 0.11 0.29 0.71 1.01 1.69 1.46 1.14 0.95 1.01 1.23 2.09 1.85 1.46 1.44 1.44 0.98 0.29 0.15 0.21 0.14 0.05 0.07 0.13 0.14 0.10 0.17 0.24 0.23 0.20 0.17 0.11 0.10
3.36 3.45 5.11 5.72 5.42 4.22 2.66 1.89 1.54 1.36 1.02 0.78 0.55 0.58 0.57 0.99 1.20 0.69 0.39 0.32 0.25 0.30 0.38 0.37 0.26 0.12 0.16 0.09 0.03 0.03 0.04 0.05 0.05 0.16 0.17 0.16 0.16 0.14 0.12 0.15 0.12 0.09 0.10
5.85 5.86 5.26 7.51 5.14 4.03 4.24 3.28 3.33 2.37 2.15 1.89 1.38 0.81 0.42 0.37 0.49 0.28 0.20 0.17 0.13 0.12 0.17 0.25 0.16 0.06 0.02 0.01 0.01 0.01 0.01 0.01 0.05 0.08 0.07 0.06 0.10 0.14 0.21 0.22 0.16 0.14 0.10
6.58 9.34 6.73 6.72 5.23 3.51 3.42 3.97 3.24 3.43 2.81 2.04 1.60 1.31 0.46 0.46 0.36 0.36 0.22 0.18 0.10 0.07 0.10 0.12 0.13 0.07 0.05 0.01 0.00 0.00 0.00 0.00 0.00 0.00 0.00 0.01 0.05 0.09 0.21 0.31 0.28 0.24 0.19
3.69 5.27 5.84 7.31 6.11 3.64 2.51 3.42 2.96 3.65 3.19 2.04 1.58 2.07 0.81 0.39 0.38 0.30 0.14 0.12 0.13 0.07 0.06 0.07 0.18 0.08 0.05 0.02 0.00 0.00 0.00 0.00 0.00 0.00 0.00 0.00 0.03 0.08 0.15 0.21 0.25 0.25 0.25
2.10 2.40 3.33 5.34 6.93 4.40 2.98 2.10 2.21 2.95 4.64 2.34 1.57 1.78 1.43 0.56 0.44 0.27 0.19 0.16 0.19 0.11 0.12 0.37 0.46 0.27 0.10 0.05 0.03 0.00 0.00 0.00 0.00 0.00 0.01 0.01 0.02 0.04 0.12 0.17 0.18 0.16 0.16
1.36 1.46 1.47 2.49 4.22 3.72 3.11 2.58 2.23 2.41 4.16 3.48 1.68 1.24 1.56 0.66 0.64 0.42 0.35 0.41 0.37 0.26 0.35 0.43 0.55 0.55 0.39 0.20 0.11 0.09 0.03 0.00 0.00 0.00 0.00 0.01 0.03 0.04 0.12 0.17 0.19 0.21 0.23
1.21 1.18 1.12 0.87 1.90 1.99 1.77 2.09 1.98 1.37 2.00 3.75 1.89 1.44 1.18 1.17 0.69 0.44 0.27 0.29 0.25 0.22 0.22 0.23 0.44 0.41 0.29 0.31 0.28 0.16 0.08 0.04 0.01 0.01 0.01 0.01 0.02 0.01 0.03 0.06 0.16 0.26 0.25
1.11 1.16 1.07 0.80 0.97 1.54 1.67 1.75 1.47 0.80 1.10 2.59 2.23 1.63 1.00 1.19 0.97 0.65 0.46 0.20 0.12 0.13 0.16 0.12 0.12 0.18 0.16 0.14 0.11 0.11 0.07 0.05 0.03 0.01 0.00 0.01 0.02 0.02 0.02 0.02 0.05 0.18 0.28
0.70 0.58 0.60 0.77 0.65 0.94 1.51 1.21 1.32 0.83 0.87 1.85 2.32 1.67 1.10 0.82 0.81 0.45 0.34 0.31 0.30 0.27 0.20 0.16 0.08 0.08 0.05 0.06 0.11 0.11 0.06 0.05 0.03 0.03 0.02 0.02 0.03 0.02 0.02 0.02 0.02 0.09 0.22
0.49 0.45 0.46 0.50 0.63 1.03 1.29 1.04 0.99 0.84 0.66 1.11 1.95 1.68 1.65 0.94 0.71 0.47 0.32 0.26 0.22 0.30 0.41 0.32 0.16 0.07 0.05 0.08 0.14 0.20 0.16 0.09 0.06 0.05 0.04 0.05 0.06 0.09 0.08 0.03 0.01 0.04 0.10
0.38 0.31 0.31 0.54 0.83 0.94 1.07 0.97 1.01 0.82 0.68 1.01 1.54 1.54 1.58 1.49 0.59 0.50 0.35 0.21 0.17 0.26 0.39 0.39 0.13 0.05 0.02 0.06 0.09 0.05 0.02 0.04 0.04 0.03 0.02 0.03 0.07 0.11 0.16 0.15 0.09 0.05 0.06
0.12 0.17 0.51 0.81 1.17 1.37 1.23 1.16 1.56 1.36 1.08 0.99 1.36 1.38 1.06 1.54 0.86 0.36 0.37 0.27 0.24 0.15 0.19 0.28 0.16 0.03 0.01 0.02 0.03 0.02 0.01 0.01 0.02 0.03 0.02 0.01 0.01 0.03 0.08 0.10 0.13 0.13 0.11
0.13 0.12 0.68 1.07 1.33 1.39 2.07 1.90 1.69 1.03 0.87 0.84 1.12 1.13 0.98 1.14 1.25 0.76 0.51 0.39 0.34 0.33 0.25 0.20 0.13 0.03 0.01 0.00 0.02 0.01 0.00 0.02 0.02 0.03 0.03 0.02 0.02 0.02 0.02 0.04 0.05 0.07 0.11
0.12 0.31 0.81 1.22 1.52 1.15 0.77 0.58 0.86 0.81 0.76 0.86 0.92 0.89 0.72 0.86 0.85 1.07 0.65 0.37 0.28 0.36 0.35 0.28 0.12 0.03 0.03 0.03 0.04 0.02 0.01 0.00 0.01 0.04 0.06 0.08 0.08 0.07 0.05 0.05 0.06 0.04 0.04
0.27 0.38 0.41 0.37 0.54 0.22 0.15 0.23 0.52 0.61 0.67 0.70 0.86 0.71 0.66 0.80 0.66 0.76 0.74 0.60 0.24 0.26 0.35 0.36 0.31 0.08 0.04 0.06 0.04 0.03 0.02 0.03 0.01 0.01 0.03 0.07 0.08 0.12 0.12 0.08 0.08 0.07 0.03
0.15 0.17 0.06 0.06 0.27 0.22 0.10 0.16 0.41 0.68 0.78 0.93 1.25 1.08 0.68 0.77 0.75 0.66 0.64 0.70 0.41 0.29 0.36 0.27 0.29 0.13 0.04 0.05 0.04 0.03 0.03 0.02 0.01 0.00 0.01 0.05 0.07 0.07 0.08 0.09 0.08 0.09 0.06
0.02 0.03 0.02 0.07 0.13 0.18 0.20 0.24 0.32 0.64 0.68 0.78 0.81 1.02 0.70 0.59 0.58 0.49 0.43 0.66 0.61 0.38 0.30 0.28 0.24 0.12 0.04 0.03 0.03 0.02 0.03 0.05 0.06 0.04 0.01 0.00 0.04 0.07 0.11 0.13 0.15 0.14 0.13
0.04 0.04 0.10 0.13 0.15 0.12 0.18 0.32 0.22 0.32 0.46 0.65 0.82 1.11 1.24 0.86 0.59 0.53 0.45 0.57 0.64 0.48 0.46 0.33 0.28 0.22 0.11 0.07 0.05 0.04 0.03 0.02 0.03 0.08 0.06 0.03 0.04 0.05 0.06 0.11 0.15 0.21 0.26
0.12 0.17 0.16 0.13 0.14 0.16 0.22 0.27 0.28 0.21 0.18 0.25 0.51 0.81 1.41 1.43 0.89 0.55 0.49 0.55 0.63 0.64 0.54 0.45 0.43 0.27 0.21 0.16 0.11 0.09 0.08 0.09 0.10 0.16 0.26 0.20 0.15 0.10 0.05 0.07 0.09 0.12 0.18

GFSSE_prec_precacc_129.txt.gz
Total_Precipitation_Accumulation
0.29 0.03 0.03 0.04 0.05 0.06 0.04 0.00 0.00 0.00 0.02 0.07 0.11 0.14 0.17 0.17 0.24 0.32 0.30 0.31 0.34 0.34 0.37 0.28 0.25 0.23 0.24 0.15 0.06 0.04 0.04 0.04 0.05 0.08 0.11 0.15 0.14 0.11 0.13 0.29 0.18 0.17 0.44
0.25 0.09 0.07 0.06 0.04 0.08 0.11 0.05 0.02 0.02 0.02 0.05 0.11 0.13 0.20 0.23 0.33 0.40 0.39 0.38 0.47 0.52 0.52 0.40 0.34 0.33 0.32 0.30 0.14 0.05 0.05 0.06 0.04 0.05 0.08 0.16 0.26 0.20 0.10 0.27 0.16 0.18 0.23
0.58 0.50 0.40 0.11 0.03 0.05 0.08 0.08 0.06 0.05 0.04 0.07 0.09 0.21 0.33 0.37 0.54 0.52 0.39 0.39 0.71 1.13 0.95 0.66 0.59 0.69 0.57 0.43 0.14 0.07 0.06 0.06 0.05 0.05 0.05 0.17 0.32 0.30 0.17 0.26 0.19 0.20 0.21
1.33 0.88 0.85 0.58 0.10 0.04 0.03 0.03 0.03 0.05 0.06 0.05 0.04 0.13 0.36 0.42 0.36 0.35 0.49 0.57 0.86 1.16 1.31 1.04 1.24 1.61 1.14 0.78 0.36 0.17 0.11 0.06 0.04 0.03 0.06 0.20 0.27 0.25 0.17 0.10 0.15 0.17 0.15
1.15 1.17 1.04 1.11 0.87 0.32 0.16 0.07 0.05 0.09 0.06 0.06 0.07 0.15 0.26 0.28 0.41 0.46 0.89 1.08 1.37 1.28 1.51 1.42 1.35 1.39 1.05 0.98 1.08 0.70 0.31 0.11 0.08 0.07 0.09 0.05 0.16 0.28 0.20 0.13 0.12 0.15 0.13
1.13 1.26 1.45 1.45 0.97 0.60 0.60 0.24 0.08 0.09 0.04 0.05 0.13 0.31 0.30 0.87 1.02 1.18 1.68 2.46 2.53 2.20 2.24 3.15 2.78 1.80 0.91 1.06 1.11 0.71 0.31 0.07 0.06 0.07 0.08 0.06 0.17 0.31 0.25 0.19 0.13 0.11 0.10
1.83 2.55 3.31 2.97 2.41 1.11 0.98 0.77 0.33 0.17 0.09 0.11 0.29 0.71 1.01 1.71 1.47 1.15 0.95 1.02 1.24 2.16 2.18 1.83 1.72 1.71 1.12 0.30 0.15 0.22 0.16 0.06 0.15 0.54 0.24 0.10 0.17 0.27 0.30 0.21 0.17 0.12 0.10
3.36 3.45 5.11 5.72 5.42 4.22 2.66 1.89 1.54 1.36 1.02 0.78 0.55 0.58 0.57 1.01 1.21 0.71 0.39 0.32 0.25 0.30 0.38 0.38 0.33 0.21 0.22 0.09 0.03 0.04 0.05 0.05 0.08 0.84 0.33 0.16 0.16 0.16 0.16 0.15 0.12 0.09 0.10
5.85 5.86 5.26 7.51 5.14 4.03 4.24 3.28 3.33 2.37 2.15 1.89 1.39 0.82 0.43 0.40 0.55 0.31 0.20 0.17 0.13 0.12 0.17 0.25 0.19 0.15 0.08 0.03 0.01 0.01 0.04 0.01 0.05 0.14 0.09 0.06 0.10 0.14 0.21 0.22 0.16 0.14 0.10
6.58 9.34 6.73 6.72 5.23 3.51 3.42 3.97 3.24 3.43 2.81 2.04 1.61 1.32 0.46 0.47 0.38 0.37 0.22 0.18 0.10 0.07 0.10 0.12 0.21 0.24 0.26 0.18 0.03 0.00 0.04 0.01 0.01 0.07 0.02 0.01 0.05 0.09 0.21 0.31 0.28 0.24 0.19
3.69 5.27 5.84 7.31 6.11 3.64 2.51 3.42 2.96 3.65 3.19 2.04 1.58 2.07 0.81 0.39 0.38 0.30 0.14 0.12 0.13 0.07 0.07 0.15 0.37 0.32 0.28 0.24 0.12 0.00 0.03 0.01 0.00 0.01 0.00 0.00 0.03 0.08 0.15 0.21 0.25 0.25 0.25
2.10 2.40 3.33 5.34 6.93 4.40 2.98 2.10 2.21 2.95 4.64 2.34 1.57 1.78 1.44 0.56 0.45 0.28 0.19 0.19 0.20 0.16 0.21 0.49 0.55 0.40 0.20 0.11 0.09 0.01 0.01 0.01 0.00 0.00 0.01 0.01 0.02 0.04 0.13 0.18 0.18 0.16 0.16
1.36 1.46 1.47 2.49 4.22 3.72 3.11 2.58 2.23 2.41 4.16 3.48 1.68 1.24 1.56 0.67 0.66 0.48 0.41 0.44 0.42 0.38 0.45 0.47 0.57 0.58 0.45 0.23 0.13 0.09 0.04 0.01 0.00 0.00 0.00 0.01 0.03 0.04 0.13 0.19 0.20 0.21 0.23
1.21 1.18 1.12 0.87 1.90 1.99 1.77 2.09 1.98 1.37 2.00 3.75 1.89 1.44 1.18 1.18 0.71 0.47 0.28 0.32 0.29 0.24 0.27 0.25 0.44 0.47 0.35 0.33 0.29 0.16 0.08 0.04 0.01 0.01 0.01 0.01 0.02 0.02 0.04 0.07 0.16 0.26 0.25
1.11 1.16 1.07 0.80 0.97 1.54 1.67 1.75 1.47 0.80 1.10 2.59 2.23 1.63 1.00 1.19 0.97 0.66 0.47 0.24 0.17 0.20 0.23 0.13 0.14 0.19 0.18 0.21 0.16 0.12 0.07 0.06 0.03 0.01 0.00 0.01 0.02 0.02 0.03 0.03 0.05 0.18 0.28
0.70 0.58 0.60 0.77 0.65 0.94 1.51 1.21 1.32 0.84 0.87 1.85 2.32 1.67 1.11 0.82 0.82 0.45 0.35 0.35 0.40 0.36 0.24 0.19 0.19 0.15 0.21 0.42 0.33 0.15 0.06 0.05 0.03 0.03 0.02 0.02 0.03 0.02 0.03 0.03 0.02 0.10 0.23
0.49 0.45 0.46 0.50 0.63 1.03 1.29 1.04 0.99 0.84 0.66 1.11 1.95 1.68 1.65 0.94 0.71 0.47 0.32 0.27 0.28 0.35 0.49 0.49 0.41 0.27 0.20 0.24 0.48 0.26 0.16 0.09 0.06 0.05 0.04 0.05 0.06 0.09 0.09 0.03 0.02 0.04 0.10
0.38 0.31 0.31 0.54 0.83 0.94 1.07 0.97 1.01 0.82 0.68 1.01 1.54 1.54 1.59 1.50 0.59 0.51 0.36 0.21 0.20 0.35 0.57 0.71 0.53 0.23 0.22 0.19 0.24 0.12 0.03 0.04 0.04 0.03 0.02 0.03 0.07 0.11 0.16 0.16 0.09 0.05 0.06
0.12 0.17 0.51 0.81 1.18 1.39 1.24 1.16 1.56 1.36 1.08 0.99 1.37 1.39 1.07 1.56 0.88 0.37 0.37 0.28 0.26 0.18 0.25 0.54 0.62 0.42 0.27 0.17 0.18 0.13 0.03 0.01 0.02 0.03 0.02 0.01 0.01 0.03 0.08 0.10 0.13 0.13 0.11
0.13 0.12 0.68 1.07 1.34 1.40 2.09 1.91 1.69 1.03 0.87 0.84 1.13 1.14 0.99 1.16 1.28 0.79 0.53 0.40 0.35 0.38 0.28 0.24 0.32 0.29 0.34 0.30 0.22 0.14 0.05 0.02 0.02 0.03 0.03 0.02 0.02 0.02 0.02 0.04 0.05 0.07 0.11
0.12 0.31 0.81 1.22 1.52 1.15 0.78 0.59 0.86 0.81 0.76 0.86 0.92 0.90 0.74 0.88 0.88 1.11 0.67 0.39 0.30 0.39 0.37 0.32 0.25 0.15 0.16 0.26 0.38 0.24 0.13 0.02 0.01 0.04 0.06 0.08 0.08 0.07 0.05 0.05 0.06 0.04 0.04
0.27 0.38 0.41 0.37 0.54 0.22 0.15 0.23 0.52 0.61 0.67 0.70 0.87 0.72 0.67 0.83 0.69 0.79 0.77 0.62 0.25 0.28 0.36 0.40 0.42 0.24 0.12 0.22 0.27 0.16 0.11 0.10 0.03 0.01 0.03 0.07 0.08 0.12 0.12 0.08 0.08 0.07 0.03
0.15 0.17 0.06 0.06 0.27 0.22 0.10 0.16 0.41 0.69 0.79 0.93 1.25 1.08 0.68 0.79 0.79 0.70 0.68 0.72 0.43 0.31 0.38 0.30 0.34 0.23 0.13 0.13 0.16 0.08 0.05 0.05 0.03 0.01 0.01 0.05 0.07 0.07 0.08 0.09 0.08 0.09 0.06
0.02 0.03 0.02 0.07 0.13 0.18 0.20 0.24 0.32 0.64 0.68 0.78 0.81 1.03 0.71 0.60 0.63 0.54 0.49 0.72 0.64 0.41 0.34 0.31 0.29 0.21 0.11 0.10 0.12 0.05 0.03 0.05 0.07 0.06 0.01 0.00 0.04 0.07 0.11 0.13 0.15 0.14 0.13
0.04 0.04 0.10 0.13 0.15 0.12 0.18 0.32 0.22 0.32 0.46 0.65 0.82 1.12 1.25 0.87 0.61 0.56 0.49 0.63 0.69 0.52 0.49 0.35 0.35 0.38 0.23 0.11 0.07 0.06 0.03 0.02 0.03 0.08 0.06 0.03 0.04 0.05 0.06 0.11 0.15 0.21 0.26
0.12 0.17 0.16 0.13 0.14 0.16 0.22 0.27 0.29 0.21 0.18 0.26 0.52 0.81 1.41 1.44 0.90 0.57 0.52 0.59 0.67 0.66 0.56 0.52 0.54 0.42 0.39 0.29 0.18 0.14 0.09 0.10 0.10 0.16 0.26 0.20 0.15 0.10 0.05 0.07 0.09 0.12 0.18

GFSSE_prec_precacc_132.txt.gz
Total_Precipitation_Accumulation
0.29 0.03 0.03 0.04 0.05 0.06 0.04 0.00 0.00 0.00 0.02 0.07 0.11 0.14 0.17 0.17 0.24 0.32 0.30 0.31 0.34 0.34 0.38 0.29 0.28 0.26 0.29 0.23 0.15 0.13 0.20 0.22 0.10 0.08 0.12 0.15 0.14 0.11 0.13 0.29 0.18 0.17 0.45
0.25 0.09 0.07 0.06 0.04 0.08 0.11 0.05 0.02 0.02 0.02 0.05 0.11 0.13 0.20 0.23 0.33 0.40 0.39 0.39 0.48 0.55 0.58 0.44 0.37 0.36 0.38 0.34 0.21 0.18 0.15 0.12 0.07 0.06 0.08 0.16 0.26 0.20 0.10 0.29 0.16 0.19 0.24
0.58 0.50 0.40 0.11 0.03 0.05 0.08 0.08 0.06 0.05 0.04 0.07 0.09 0.21 0.33 0.37 0.54 0.52 0.39 0.39 0.71 1.13 0.96 0.69 0.62 0.76 0.62 0.46 0.18 0.12 0.09 0.09 0.06 0.05 0.05 0.19 0.32 0.31 0.20 0.35 0.20 0.21 0.21
1.33 0.88 0.85 0.58 0.10 0.04 0.03 0.03 0.03 0.05 0.06 0.05 0.04 0.13 0.36 0.42 0.36 0.35 0.49 0.57 0.86 1.16 1.31 1.04 1.24 1.62 1.17 0.80 0.38 0.19 0.13 0.06 0.04 0.03 0.06 0.20 0.27 0.26 0.19 0.12 0.16 0.18 0.16
1.15 1.17 1.04 1.11 0.87 0.32 0.16 0.07 0.05 0.09 0.06 0.06 0.07 0.15 0.26 0.28 0.41 0.46 0.89 1.08 1.37 1.28 1.51 1.42 1.35 1.39 1.05 0.98 1.08 0.71 0.33 0.11 0.08 0.07 0.09 0.05 0.16 0.28 0.20 0.13 0.12 0.16 0.13
1.13 1.26 1.45 1.45 0.97 0.60 0.60 0.24 0.08 0.09 0.04 0.05 0.13 0.31 0.30 0.87 1.02 1.18 1.68 2.46 2.53 2.20 2.24 3.15 2.78 1.80 0.91 1.06 1.11 0.72 0.32 0.07 0.06 0.07 0.08 0.06 0.17 0.31 0.25 0.19 0.13 0.13 0.11
1.83 2.55 3.31 2.97 2.41 1.11 0.98 0.77 0.33 0.17 0.09 0.11 0.29 0.71 1.01 1.71 1.47 1.15 0.95 1.02 1.24 2.16 2.18 1.83 1.72 1.71 1.12 0.30 0.15 0.25 0.17 0.06 0.16 0.65 0.30 0.11 0.17 0.27 0.32 0.21 0.18 0.13 0.10
3.36 3.45 5.11 5.72 5.42 4.22 2.66 1.89 1.54 1.36 1.02 0.78 0.55 0.58 0.57 1.01 1.21 0.71 0.39 0.32 0.25 0.30 0.38 0.38 0.33 0.21 0.22 0.09 0.03 0.06 0.08 0.07 0.09 0.92 0.36 0.17 0.16 0.16 0.17 0.15 0.12 0.09 0.10
5.85 5.86 5.26 7.51 5.14 4.03 4.24 3.28 3.33 2.37 2.15 1.89 1.39 0.82 0.43 0.40 0.55 0.31 0.20 0.17 0.13 0.12 0.17 0.25 0.19 0.15 0.08 0.03 0.01 0.01 0.10 0.02 0.06 0.16 0.13 0.06 0.11 0.14 0.22 0.22 0.16 0.14 0.10
6.58 9.34 6.73 6.72 5.23 3.51 3.42 3.97 3.24 3.43 2.81 2.04 1.61 1.32 0.46 0.47 0.38 0.37 0.22 0.18 0.10 0.07 0.10 0.12 0.21 0.24 0.26 0.22 0.06 0.02 0.09 0.06 0.03 0.07 0.06 0.05 0.06 0.09 0.22 0.31 0.28 0.24 0.19
3.69 5.27 5.84 7.31 6.11 3.64 2.51 3.42 2.96 3.65 3.19 2.04 1.58 2.07 0.81 0.39 0.38 0.30 0.14 0.12 0.13 0.07 0.07 0.15 0.37 0.32 0.28 0.25 0.14 0.04 0.07 0.06 0.06 0.01 0.05 0.08 0.03 0.09 0.16 0.21 0.25 0.25 0.25
2.10 2.40 3.33 5.34 6.93 4.40 2.98 2.10 2.21 2.95 4.64 2.34 1.57 1.78 1.44 0.56 0.45 0.28 0.19 0.19 0.20 0.16 0.21 0.49 0.55 0.40 0.20 0.11 0.09 0.07 0.05 0.01 0.03 0.00 0.01 0.02 0.03 0.05 0.13 0.18 0.18 0.16 0.16
1.36 1.46 1.47 2.49 4.22 3.72 3.11 2.58 2.23 2.41 4.16 3.48 1.68 1.24 1.56 0.67 0.66 0.48 0.41 0.44 0.42 0.38 0.45 0.47 0.57 0.58 0.45 0.23 0.14 0.17 0.07 0.01 0.01 0.00 0.00 0.01 0.03 0.04 0.13 0.19 0.20 0.21 0.23
1.21 1.18 1.12 0.87 1.90 1.99 1.77 2.09 1.98 1.37 2.00 3.75 1.89 1.44 1.18 1.18 0.71 0.47 0.28 0.32 0.29 0.24 0.27 0.25 0.44 0.47 0.35 0.33 0.29 0.16 0.09 0.04 0.01 0.01 0.01 0.01 0.02 0.02 0.04 0.07 0.17 0.27 0.26
1.11 1.16 1.07 0.80 0.97 1.54 1.67 1.75 1.47 0.80 1.10 2.59 2.23 1.63 1.00 1.19 0.97 0.66 0.47 0.24 0.18 0.20 0.23 0.13 0.14 0.19 0.18 0.21 0.16 0.13 0.08 0.06 0.03 0.01 0.00 0.01 0.02 0.02 0.03 0.03 0.06 0.19 0.29
0.70 0.58 0.60 0.77 0.65 0.94 1.51 1.21 1.32 0.84 0.87 1.85 2.32 1.67 1.11 0.82 0.82 0.45 0.35 0.35 0.40 0.36 0.24 0.19 0.19 0.16 0.29 0.52 0.49 0.30 0.11 0.05 0.03 0.03 0.02 0.02 0.03 0.02 0.03 0.03 0.03 0.10 0.23
0.49 0.45 0.46 0.50 0.63 1.03 1.29 1.04 0.99 0.84 0.66 1.11 1.95 1.68 1.65 0.94 0.71 0.47 0.32 0.27 0.28 0.35 0.49 0.50 0.42 0.27 0.22 0.27 0.53 0.33 0.19 0.09 0.06 0.05 0.04 0.05 0.06 0.09 0.09 0.03 0.02 0.05 0.11
0.38 0.31 0.31 0.54 0.83 0.94 1.07 0.97 1.01 0.82 0.68 1.01 1.54 1.54 1.59 1.50 0.59 0.51 0.36 0.21 0.20 0.39 0.60 0.72 0.54 0.24 0.22 0.19 0.25 0.14 0.03 0.04 0.04 0.03 0.02 0.03 0.07 0.11 0.16 0.16 0.10 0.06 0.06
0.12 0.17 0.51 0.82 1.19 1.41 1.29 1.19 1.58 1.37 1.08 0.99 1.37 1.39 1.07 1.56 0.88 0.38 0.37 0.28 0.26 0.22 0.32 0.55 0.62 0.43 0.28 0.17 0.20 0.16 0.05 0.02 0.02 0.03 0.02 0.01 0.01 0.03 0.08 0.10 0.13 0.14 0.11
0.13 0.12 0.68 1.07 1.36 1.46 2.14 1.95 1.72 1.05 0.88 0.84 1.13 1.14 0.99 1.17 1.30 0.81 0.54 0.41 0.36 0.40 0.36 0.28 0.32 0.29 0.36 0.32 0.29 0.29 0.11 0.03 0.02 0.03 0.03 0.02 0.02 0.02 0.02 0.04 0.05 0.07 0.11
0.12 0.31 0.81 1.22 1.53 1.21 0.82 0.63 0.89 0.83 0.78 0.87 0.93 0.90 0.74 0.90 0.98 1.24 0.80 0.48 0.32 0.43 0.47 0.39 0.25 0.16 0.17 0.26 0.42 0.36 0.23 0.07 0.02 0.04 0.06 0.08 0.08 0.07 0.05 0.05 0.06 0.04 0.04
0.27 0.38 0.41 0.37 0.54 0.22 0.15 0.24 0.54 0.61 0.68 0.70 0.87 0.72 0.68 0.84 0.75 0.89 0.87 0.73 0.32 0.32 0.39 0.43 0.43 0.25 0.13 0.22 0.27 0.18 0.17 0.21 0.08 0.01 0.03 0.07 0.08 0.12 0.12 0.08 0.08 0.07 0.03
0.15 0.17 0.06 0.06 0.27 0.22 0.10 0.16 0.41 0.69 0.79 0.93 1.25 1.08 0.69 0.80 0.82 0.76 0.78 0.81 0.47 0.34 0.40 0.33 0.35 0.24 0.14 0.14 0.16 0.09 0.06 0.10 0.05 0.02 0.01 0.05 0.07 0.07 0.08 0.09 0.08 0.09 0.06
0.02 0.03 0.02 0.07 0.13 0.18 0.20 0.24 0.32 0.64 0.68 0.78 0.81 1.03 0.73 0.64 0.67 0.59 0.55 0.79 0.72 0.47 0.39 0.36 0.31 0.22 0.13 0.11 0.13 0.05 0.03 0.05 0.07 0.06 0.02 0.01 0.04 0.07 0.11 0.13 0.15 0.14 0.13
0.04 0.04 0.10 0.13 0.15 0.12 0.18 0.32 0.23 0.32 0.46 0.65 0.82 1.13 1.26 0.89 0.63 0.59 0.54 0.70 0.75 0.58 0.55 0.40 0.38 0.39 0.24 0.12 0.08 0.07 0.03 0.02 0.03 0.08 0.06 0.03 0.04 0.05 0.06 0.11 0.15 0.21 0.26
0.12 0.17 0.16 0.13 0.14 0.16 0.22 0.27 0.29 0.21 0.19 0.26 0.52 0.83 1.45 1.46 0.92 0.59 0.56 0.64 0.74 0.73 0.63 0.58 0.57 0.43 0.40 0.30 0.20 0.15 0.09 0.11 0.10 0.16 0.26 0.20 0.16 0.10 0.05 0.07 0.09 0.12 0.18

GFSSE_prec_precacc_135.txt.gz
Total_Precipitation_Accumulation
0.29 0.03 0.03 0.04 0.05 0.06 0.04 0.00 0.00 0.00 0.02 0.07 0.11 0.14 0.17 0.17 0.24 0.32 0.30 0.31 0.34 0.34 0.38 0.30 0.29 0.30 0.33 0.25 0.17 0.15 0.22 0.60 0.81 0.39 0.20 0.22 0.17 0.12 0.13 0.29 0.19 0.17 0.48
0.25 0.09 0.07 0.06 0.04 0.08 0.11 0.05 0.02 0.02 0.02 0.05 0.11 0.13 0.20 0.23 0.33 0.40 0.39 0.39 0.48 0.55 0.58 0.44 0.37 0.38 0.45 0.38 0.22 0.18 0.16 0.17 0.30 0.25 0.13 0.21 0.30 0.20 0.12 0.30 0.17 0.19 0.25
0.58 0.50 0.40 0.11 0.03 0.05 0.08 0.08 0.06 0.05 0.04 0.07 0.09 0.21 0.33 0.37 0.54 0.52 0.39 0.39 0.71 1.13 0.96 0.69 0.62 0.76 0.63 0.48 0.19 0.12 0.09 0.09 0.07 0.07 0.07 0.20 0.33 0.32 0.25 0.37 0.21 0.23 0.22
1.33 0.88 0.85 0.58 0.10 0.04 0.03 0.03 0.03 0.05 0.06 0.05 0.04 0.13 0.36 0.42 0.36 0.35 0.49 0.57 0.86 1.16 1.31 1.04 1.24 1.62 1.17 0.80 0.40 0.19 0.13 0.06 0.06 0.04 0.07 0.20 0.27 0.26 0.23 0.12 0.17 0.19 0.17
1.15 1.17 1.04 1.11 0.87 0.32 0.16 0.07 0.05 0.09 0.06 0.06 0.07 0.15 0.26 0.28 0.41 0.46 0.89 1.08 1.37 1.28 1.51 1.42 1.35 1.39 1.06 0.98 1.08 0.71 0.33 0.11 0.08 0.07 0.09 0.06 0.16 0.28 0.20 0.14 0.13 0.16 0.14
1.13 1.26 1.45 1.45 0.97 0.60 0.60 0.24 0.08 0.09 0.04 0.05 0.13 0.31 0.30 0.87 1.02 1.18 1.68 2.46 2.53 2.20 2.24 3.15 2.78 1.80 0.91 1.06 1.11 0.72 0.32 0.07 0.06 0.07 0.09 0.07 0.17 0.32 0.25 0.19 0.14 0.13 0.11
1.83 2.55 3.31 2.97 2.41 1.11 0.98 0.77 0.33 0.17 0.09 0.11 0.29 0.71 1.01 1.71 1.47 1.15 0.95 1.02 1.24 2.16 2.18 1.83 1.72 1.71 1.14 0.30 0.15 0.25 0.17 0.06 0.16 0.67 0.33 0.11 0.17 0.27 0.32 0.22 0.18 0.14 0.11
3.36 3.45 5.11 5.72 5.42 4.22 2.66 1.89 1.54 1.36 1.02 0.78 0.55 0.58 0.57 1.01 1.21 0.71 0.39 0.32 0.25 0.30 0.38 0.38 0.33 0.21 0.22 0.09 0.05 0.06 0.08 0.07 0.09 0.92 0.38 0.21 0.17 0.16 0.17 0.16 0.13 0.10 0.11
5.85 5.86 5.26 7.51 5.14 4.03 4.24 3.28 3.33 2.37 2.15 1.89 1.39 0.82 0.43 0.40 0.55 0.31 0.20 0.17 0.13 0.12 0.17 0.25 0.19 0.15 0.08 0.03 0.01 0.02 0.11 0.02 0.06 0.16 0.16 0.09 0.12 0.16 0.23 0.22 0.16 0.14 0.10
6.58 9.34 6.73 6.72 5.23 3.51 3.42 3.97 3.24 3.43 2.81 2.04 1.61 1.32 0.46 0.47 0.38 0.37 0.22 0.18 0.10 0.07 0.10 0.12 0.21 0.24 0.26 0.22 0.06 0.03 0.09 0.08 0.04 0.07 0.12 0.13 0.15 0.17 0.26 0.31 0.28 0.24 0.19
3.69 5.27 5.84 7.31 6.11 3.64 2.51 3.42 2.96 3.65 3.19 2.04 1.58 2.07 0.81 0.39 0.38 0.30 0.14 0.12 0.13 0.07 0.07 0.15 0.37 0.32 0.28 0.25 0.14 0.04 0.07 0.06 0.07 0.02 0.10 0.24 0.13 0.14 0.20 0.23 0.26 0.25 0.25
2.10 2.40 3.33 5.34 6.93 4.40 2.98 2.10 2.21 2.95 4.64 2.34 1.57 1.78 1.44 0.56 0.45 0.28 0.19 0.19 0.20 0.16 0.21 0.49 0.55 0.40 0.20 0.12 0.09 0.08 0.05 0.01 0.03 0.01 0.02 0.16 0.10 0.11 0.14 0.19 0.19 0.17 0.17
1.36 1.46 1.47 2.49 4.22 3.72 3.11 2.58 2.23 2.41 4.16 3.48 1.68 1.24 1.56 0.67 0.66 0.48 0.41 0.44 0.42 0.38 0.45 0.47 0.57 0.58 0.45 0.23 0.15 0.22 0.08 0.02 0.01 0.00 0.01 0.03 0.06 0.09 0.15 0.20 0.20 0.22 0.23
1.21 1.18 1.12 0.87 1.90 1.99 1.77 2.09 1.98 1.37 2.00 3.75 1.89 1.44 1.18 1.18 0.71 0.47 0.28 0.32 0.29 0.24 0.27 0.25 0.44 0.47 0.35 0.33 0.29 0.17 0.10 0.06 0.04 0.09 0.03 0.02 0.04 0.05 0.05 0.08 0.18 0.28 0.26
1.11 1.16 1.07 0.80 0.97 1.54 1.67 1.75 1.47 0.80 1.10 2.59 2.23 1.63 1.00 1.19 0.97 0.66 0.47 0.24 0.18 0.20 0.23 0.13 0.14 0.19 0.18 0.22 0.20 0.14 0.09 0.07 0.05 0.07 0.03 0.02 0.03 0.04 0.04 0.04 0.07 0.20 0.29
0.70 0.58 0.60 0.77 0.65 0.94 1.51 1.21 1.32 0.84 0.87 1.85 2.32 1.67 1.11 0.82 0.82 0.45 0.35 0.35 0.40 0.36 0.24 0.19 0.19 0.16 0.29 0.53 0.55 0.36 0.15 0.06 0.06 0.05 0.03 0.02 0.03 0.02 0.03 0.03 0.04 0.11 0.24
0.49 0.45 0.46 0.50 0.63 1.03 1.29 1.04 0.99 0.84 0.66 1.11 1.95 1.68 1.66 0.94 0.72 0.47 0.32 0.27 0.28 0.35 0.49 0.50 0.42 0.28 0.22 0.27 0.55 0.37 0.20 0.10 0.09 0.07 0.04 0.05 0.06 0.09 0.09 0.04 0.03 0.06 0.12
0.38 0.31 0.31 0.54 0.83 0.94 1.07 0.97 1.01 0.82 0.68 1.01 1.54 1.54 1.59 1.50 0.60 0.51 0.36 0.21 0.20 0.39 0.61 0.72 0.54 0.24 0.22 0.19 0.25 0.15 0.04 0.05 0.05 0.05 0.03 0.03 0.07 0.11 0.16 0.16 0.10 0.06 0.07
0.12 0.17 0.51 0.82 1.19 1.41 1.29 1.19 1.58 1.37 1.08 0.99 1.37 1.39 1.07 1.56 0.88 0.38 0.37 0.28 0.26 0.22 0.34 0.57 0.63 0.45 0.29 0.17 0.20 0.17 0.06 0.02 0.05 0.05 0.03 0.01 0.01 0.03 0.08 0.10 0.13 0.14 0.12
0.13 0.12 0.68 1.07 1.36 1.46 2.16 2.03 1.81 1.12 0.91 0.85 1.13 1.14 0.99 1.17 1.30 0.81 0.55 0.41 0.36 0.40 0.37 0.32 0.39 0.34 0.38 0.32 0.29 0.29 0.14 0.06 0.07 0.07 0.03 0.02 0.02 0.02 0.02 0.04 0.05 0.08 0.12
0.12 0.31 0.81 1.22 1.53 1.22 0.84 0.67 0.93 0.85 0.79 0.89 0.97 0.91 0.75 0.90 0.99 1.25 0.83 0.53 0.39 0.44 0.49 0.50 0.33 0.20 0.17 0.27 0.43 0.37 0.24 0.08 0.06 0.09 0.06 0.08 0.08 0.07 0.05 0.05 0.06 0.04 0.04
0.27 0.38 0.41 0.37 0.54 0.23 0.16 0.25 0.55 0.62 0.68 0.71 0.92 0.73 0.68 0.85 0.75 0.89 0.89 0.81 0.47 0.52 0.50 0.50 0.45 0.26 0.13 0.22 0.27 0.18 0.19 0.23 0.10 0.03 0.03 0.07 0.08 0.12 0.12 0.08 0.08 0.07 0.03
0.15 0.17 0.06 0.06 0.27 0.23 0.12 0.20 0.43 0.69 0.79 0.93 1.25 1.09 0.70 0.81 0.88 0.78 0.79 0.86 0.62 0.54 0.56 0.42 0.38 0.26 0.16 0.16 0.16 0.09 0.07 0.13 0.08 0.05 0.04 0.06 0.08 0.07 0.08 0.09 0.08 0.09 0.06
0.02 0.03 0.02 0.07 0.13 0.18 0.20 0.25 0.33 0.64 0.68 0.78 0.81 1.03 0.75 0.67 0.75 0.65 0.60 0.82 0.75 0.53 0.47 0.40 0.35 0.27 0.16 0.13 0.14 0.06 0.03 0.05 0.07 0.07 0.04 0.05 0.06 0.08 0.11 0.13 0.15 0.14 0.13
0.04 0.04 0.10 0.13 0.15 0.12 0.18 0.32 0.23 0.33 0.46 0.65 0.82 1.14 1.27 0.90 0.66 0.62 0.57 0.73 0.78 0.60 0.59 0.49 0.46 0.46 0.26 0.15 0.09 0.07 0.04 0.02 0.03 0.08 0.06 0.03 0.05 0.05 0.06 0.11 0.15 0.21 0.26
0.12 0.17 0.16 0.13 0.14 0.16 0.22 0.27 0.29 0.21 0.19 0.26 0.52 0.84 1.48 1.49 0.95 0.63 0.60 0.67 0.77 0.77 0.66 0.65 0.67 0.52 0.46 0.33 0.21 0.16 0.10 0.11 0.10 0.16 0.26 0.20 0.17 0.12 0.06 0.07 0.09 0.12 0.18

GFSSE_prec_precacc_141.txt.gz
Total_Precipitation_Accumulation
0.29 0.03 0.03 0.04 0.05 0.06 0.04 0.00 0.00 0.00 0.02 0.07 0.11 0.14 0.17 0.17 0.24 0.32 0.30 0.31 0.34 0.34 0.38 0.30 0.30 0.32 0.35 0.26 0.18 0.16 0.23 0.62 0.87 0.79 1.08 0.97 0.95 0.52 0.32 0.41 0.21 0.21 0.58
0.25 0.09 0.07 0.06 0.04 0.08 0.11 0.05 0.02 0.02 0.02 0.05 0.11 0.13 0.20 0.23 0.33 0.40 0.39 0.39 0.48 0.55 0.58 0.44 0.38 0.42 0.45 0.38 0.22 0.18 0.16 0.17 0.33 0.41 0.45 0.50 0.70 0.57 0.35 0.55 0.25 0.23 0.37
0.58 0.50 0.40 0.11 0.03 0.05 0.08 0.08 0.06 0.05 0.04 0.07 0.09 0.21 0.33 0.37 0.54 0.52 0.39 0.39 0.71 1.13 0.96 0.69 0.63 0.77 0.64 0.48 0.19 0.12 0.09 0.09 0.07 0.10 0.22 0.39 0.50 0.52 0.45 0.59 0.31 0.31 0.32
1.33 0.88 0.85 0.58 0.10 0.04 0.03 0.03 0.03 0.05 0.06 0.05 0.04 0.13 0.36 0.42 0.36 0.35 0.49 0.57 0.86 1.16 1.31 1.04 1.24 1.62 1.17 0.80 0.40 0.19 0.13 0.06 0.06 0.07 0.15 0.35 0.40 0.43 0.37 0.37 0.30 0.26 0.21
1.15 1.17 1.04 1.11 0.87 0.32 0.16 0.07 0.05 0.09 0.06 0.06 0.07 0.15 0.26 0.28 0.41 0.46 0.89 1.08 1.37 1.28 1.51 1.43 1.37 1.40 1.06 0.98 1.08 0.71 0.33 0.11 0.08 0.08 0.14 0.17 0.20 0.39 0.31 0.24 0.17 0.19 0.15
1.13 1.26 1.45 1.45 0.97 0.60 0.60 0.24 0.08 0.09 0.04 0.05 0.13 0.31 0.30 0.87 1.02 1.18 1.68 2.46 2.53 2.20 2.25 3.18 2.78 1.80 0.91 1.06 1.11 0.72 0.32 0.07 0.06 0.07 0.10 0.26 0.50 0.42 0.34 0.24 0.15 0.13 0.12
1.83 2.55 3.31 2.97 2.41 1.11 0.98 0.77 0.33 0.17 0.09 0.11 0.29 0.71 1.01 1.71 1.47 1.15 0.95 1.02 1.24 2.16 2.18 1.84 1.72 1.71 1.14 0.30 0.15 0.25 0.17 0.06 0.16 0.67 0.33 0.17 0.39 0.37 0.33 0.22 0.19 0.17 0.13
3.36 3.45 5.11 5.72 5.42 4.22 2.66 1.89 1.54 1.36 1.02 0.78 0.55 0.58 0.57 1.01 1.21 0.71 0.39 0.32 0.25 0.30 0.38 0.38 0.33 0.21 0.22 0.09 0.06 0.08 0.08 0.07 0.10 0.93 0.39 0.25 0.27 0.20 0.19 0.16 0.14 0.13 0.11
5.85 5.86 5.26 7.51 5.14 4.03 4.24 3.28 3.33 2.37 2.15 1.89 1.39 0.82 0.43 0.40 0.55 0.31 0.20 0.17 0.13 0.12 0.17 0.25 0.19 0.15 0.08 0.06 0.07 0.05 0.13 0.03 0.08 0.18 0.16 0.10 0.19 0.28 0.31 0.23 0.16 0.15 0.10
6.58 9.34 6.73 6.72 5.23 3.51 3.42 3.97 3.24 3.43 2.81 2.04 1.61 1.32 0.46 0.47 0.38 0.37 0.22 0.18 0.10 0.07 0.10 0.12 0.21 0.24 0.28 0.26 0.08 0.06 0.17 0.16 0.06 0.11 0.17 0.14 0.20 0.39 0.55 0.39 0.28 0.24 0.19
3.69 5.27 5.84 7.31 6.11 3.64 2.51 3.42 2.96 3.65 3.19 2.04 1.58 2.07 0.81 0.39 0.38 0.30 0.14 0.12 0.13 0.07 0.07 0.15 0.37 0.33 0.29 0.26 0.16 0.15 0.16 0.10 0.10 0.05 0.17 0.36 0.26 0.33 0.40 0.36 0.28 0.26 0.25
2.10 2.40 3.33 5.34 6.93 4.40 2.98 2.10 2.21 2.95 4.64 2.34 1.57 1.78 1.44 0.56 0.45 0.28 0.19 0.19 0.20 0.16 0.21 0.49 0.55 0.41 0.23 0.13 0.14 0.21 0.11 0.02 0.05 0.01 0.06 0.26 0.31 0.36 0.30 0.29 0.23 0.19 0.18
1.36 1.46 1.47 2.49 4.22 3.72 3.11 2.58 2.23 2.41 4.16 3.48 1.68 1.24 1.56 0.67 0.66 0.48 0.41 0.44 0.42 0.38 0.45 0.47 0.57 0.58 0.47 0.25 0.22 0.30 0.10 0.02 0.03 0.05 0.14 0.12 0.19 0.24 0.20 0.22 0.23 0.24 0.25
1.21 1.18 1.12 0.87 1.90 1.99 1.77 2.09 1.98 1.37 2.00 3.75 1.89 1.44 1.19 1.18 0.71 0.47 0.28 0.32 0.29 0.24 0.27 0.25 0.44 0.47 0.38 0.33 0.31 0.18 0.11 0.07 0.10 0.22 0.19 0.17 0.11 0.21 0.14 0.10 0.19 0.30 0.27
1.11 1.16 1.07 0.80 0.97 1.54 1.67 1.75 1.47 0.80 1.11 2.59 2.23 1.63 1.00 1.20 0.97 0.66 0.47 0.24 0.18 0.20 0.23 0.13 0.14 0.19 0.19 0.22 0.20 0.14 0.09 0.07 0.06 0.14 0.19 0.27 0.18 0.17 0.16 0.10 0.09 0.23 0.31
0.70 0.58 0.60 0.77 0.65 0.94 1.51 1.21 1.32 0.84 0.87 1.85 2.32 1.67 1.11 0.82 0.82 0.45 0.35 0.35 0.40 0.36 0.24 0.19 0.19 0.16 0.30 0.53 0.55 0.36 0.15 0.06 0.06 0.08 0.14 0.25 0.20 0.13 0.09 0.07 0.06 0.14 0.26
0.49 0.45 0.46 0.50 0.63 1.03 1.29 1.04 0.99 0.84 0.66 1.11 1.95 1.68 1.66 0.94 0.72 0.47 0.32 0.27 0.28 0.35 0.49 0.50 0.43 0.28 0.22 0.27 0.55 0.37 0.20 0.10 0.09 0.09 0.11 0.18 0.28 0.24 0.15 0.06 0.06 0.10 0.14
0.38 0.31 0.31 0.54 0.83 0.94 1.07 0.97 1.01 0.82 0.68 1.01 1.54 1.54 1.59 1.50 0.60 0.51 0.36 0.21 0.20 0.39 0.61 0.72 0.54 0.25 0.22 0.19 0.25 0.15 0.04 0.05 0.06 0.06 0.07 0.07 0.12 0.18 0.22 0.17 0.11 0.10 0.10
0.12 0.17 0.51 0.82 1.19 1.41 1.29 1.19 1.58 1.37 1.08 0.99 1.37 1.39 1.07 1.56 0.88 0.38 0.38 0.28 0.26 0.22 0.34 0.57 0.63 0.51 0.33 0.18 0.20 0.17 0.06 0.03 0.05 0.07 0.07 0.09 0.08 0.09 0.12 0.10 0.13 0.15 0.14
0.13 0.12 0.68 1.07 1.36 1.46 2.16 2.03 1.81 1.12 0.92 0.86 1.15 1.15 0.99 1.17 1.30 0.82 0.55 0.41 0.37 0.41 0.37 0.33 0.40 0.43 0.50 0.35 0.30 0.30 0.14 0.09 0.10 0.10 0.08 0.08 0.10 0.11 0.09 0.05 0.05 0.08 0.13
0.12 0.31 0.81 1.22 1.53 1.22 0.84 0.67 0.93 0.85 0.80 0.91 1.02 0.99 0.78 0.91 0.99 1.25 0.83 0.54 0.39 0.45 0.50 0.54 0.39 0.25 0.27 0.33 0.45 0.38 0.26 0.09 0.08 0.12 0.11 0.11 0.11 0.09 0.08 0.06 0.06 0.04 0.05
0.27 0.38 0.41 0.37 0.54 0.23 0.16 0.25 0.56 0.64 0.75 0.87 1.09 0.85 0.70 0.87 0.76 0.90 0.90 0.82 0.48 0.54 0.54 0.62 0.65 0.44 0.21 0.34 0.31 0.19 0.21 0.24 0.10 0.03 0.05 0.09 0.09 0.12 0.12 0.08 0.08 0.07 0.03
0.15 0.17 0.06 0.06 0.27 0.23 0.13 0.24 0.50 0.83 1.01 1.18 1.43 1.28 0.89 1.04 1.00 0.87 0.84 0.88 0.65 0.62 0.67 0.62 0.62 0.46 0.28 0.25 0.21 0.11 0.07 0.13 0.08 0.05 0.04 0.07 0.08 0.08 0.08 0.09 0.08 0.09 0.06
0.02 0.03 0.02 0.07 0.14 0.20 0.26 0.33 0.43 0.68 0.73 0.83 0.88 1.14 0.94 0.91 1.02 0.94 0.81 0.97 0.85 0.62 0.54 0.53 0.62 0.53 0.36 0.20 0.21 0.07 0.03 0.05 0.07 0.07 0.05 0.09 0.10 0.09 0.12 0.13 0.15 0.14 0.13
0.04 0.04 0.10 0.13 0.16 0.15 0.23 0.41 0.34 0.46 0.62 0.73 0.89 1.16 1.31 0.96 0.78 0.76 0.79 0.92 0.88 0.69 0.65 0.55 0.56 0.58 0.37 0.20 0.10 0.12 0.05 0.02 0.03 0.08 0.06 0.04 0.07 0.06 0.06 0.11 0.15 0.21 0.26
0.12 0.17 0.16 0.15 0.18 0.21 0.29 0.38 0.39 0.31 0.28 0.31 0.62 0.99 1.60 1.55 0.98 0.65 0.64 0.71 0.82 0.83 0.69 0.70 0.77 0.61 0.63 0.47 0.29 0.18 0.12 0.12 0.11 0.16 0.26 0.20 0.17 0.12 0.07 0.08 0.09 0.12 0.18

GFSSE_prec_precacc_144.txt.gz
Total_Precipitation_Accumulation
0.29 0.03 0.03 0.04 0.05 0.06 0.04 0.00 0.00 0.00 0.02 0.07 0.11 0.14 0.17 0.17 0.24 0.32 0.30 0.31 0.34 0.34 0.38 0.30 0.30 0.32 0.35 0.27 0.19 0.16 0.23 0.62 0.87 0.79 1.09 1.05 1.05 0.68 0.65 0.85 0.47 0.24 0.63
0.25 0.09 0.07 0.06 0.04 0.08 0.11 0.05 0.02 0.02 0.02 0.05 0.11 0.13 0.20 0.23 0.33 0.40 0.39 0.39 0.48 0.55 0.58 0.44 0.38 0.42 0.46 0.40 0.23 0.18 0.16 0.17 0.33 0.41 0.45 0.50 0.70 0.62 0.52 0.92 0.56 0.29 0.54
0.58 0.50 0.40 0.11 0.03 0.05 0.08 0.08 0.06 0.05 0.04 0.07 0.09 0.21 0.33 0.37 0.54 0.52 0.39 0.39 0.71 1.13 0.96 0.69 0.63 0.77 0.64 0.48 0.19 0.12 0.09 0.09 0.07 0.10 0.23 0.40 0.51 0.56 0.51 0.75 0.60 0.48 0.55
1.33 0.88 0.85 0.58 0.10 0.04 0.03 0.03 0.03 0.05 0.06 0.05 0.04 0.13 0.36 0.42 0.36 0.35 0.49 0.57 0.86 1.16 1.31 1.04 1.24 1.62 1.17 0.80 0.40 0.19 0.13 0.06 0.06 0.07 0.17 0.40 0.43 0.52 0.47 0.49 0.54 0.46 0.37
1.15 1.17 1.04 1.11 0.87 0.32 0.16 0.07 0.05 0.09 0.06 0.06 0.07 0.15 0.26 0.28 0.41 0.46 0.89 1.08 1.37 1.28 1.51 1.43 1.37 1.40 1.06 0.98 1.08 0.71 0.33 0.11 0.08 0.09 0.14 0.17 0.22 0.47 0.50 0.40 0.36 0.34 0.21
1.13 1.26 1.45 1.45 0.97 0.60 0.60 0.24 0.08 0.09 0.04 0.05 0.13 0.31 0.30 0.87 1.02 1.18 1.68 2.46 2.53 2.20 2.25 3.18 2.78 1.80 0.91 1.06 1.11 0.72 0.32 0.07 0.06 0.07 0.10 0.31 0.59 0.53 0.58 0.45 0.29 0.17 0.12
1.83 2.55 3.31 2.97 2.41 1.11 0.98 0.77 0.33 0.17 0.09 0.11 0.29 0.71 1.01 1.71 1.47 1.15 0.95 1.02 1.24 2.16 2.18 1.84 1.72 1.71 1.14 0.30 0.15 0.25 0.17 0.06 0.17 0.67 0.34 0.22 0.56 0.53 0.44 0.24 0.19 0.17 0.13
3.36 3.45 5.11 5.72 5.42 4.22 2.66 1.89 1.54 1.36 1.02 0.78 0.55 0.58 0.57 1.01 1.21 0.71 0.39 0.32 0.25 0.30 0.38 0.38 0.33 0.21 0.22 0.09 0.06 0.08 0.08 0.07 0.10 0.95 0.41 0.32 0.43 0.31 0.22 0.16 0.14 0.13 0.12
5.85 5.86 5.26 7.51 5.14 4.03 4.24 3.28 3.33 2.37 2.15 1.89 1.39 0.82 0.43 0.40 0.55 0.31 0.20 0.17 0.13 0.12 0.17 0.25 0.19 0.15 0.08 0.06 0.07 0.05 0.13 0.04 0.08 0.18 0.17 0.13 0.26 0.35 0.33 0.23 0.16 0.15 0.10
6.58 9.34 6.73 6.72 5.23 3.51 3.42 3.97 3.24 3.43 2.81 2.04 1.61 1.32 0.46 0.47 0.38 0.37 0.22 0.18 0.10 0.07 0.10 0.12 0.21 0.24 0.28 0.26 0.08 0.08 0.21 0.17 0.07 0.11 0.17 0.14 0.23 0.45 0.58 0.39 0.28 0.24 0.19
3.69 5.27 5.84 7.31 6.11 3.64 2.51 3.42 2.96 3.65 3.19 2.04 1.58 2.07 0.81 0.39 0.38 0.30 0.14 0.12 0.13 0.07 0.07 0.15 0.37 0.33 0.29 0.26 0.18 0.20 0.21 0.12 0.10 0.05 0.18 0.38 0.27 0.42 0.43 0.37 0.28 0.26 0.25
2.10 2.40 3.33 5.34 6.93 4.40 2.98 2.10 2.21 2.95 4.64 2.34 1.57 1.78 1.44 0.56 0.45 0.28 0.19 0.19 0.20 0.16 0.21 0.49 0.55 0.41 0.23 0.13 0.14 0.23 0.12 0.04 0.07 0.03 0.07 0.26 0.36 0.54 0.51 0.35 0.23 0.19 0.18
1.36 1.46 1.47 2.49 4.22 3.72 3.11 2.58 2.23 2.41 4.16 3.48 1.68 1.24 1.56 0.67 0.67 0.48 0.41 0.44 0.42 0.38 0.45 0.47 0.57 0.58 0.47 0.25 0.22 0.30 0.12 0.04 0.06 0.06 0.17 0.18 0.30 0.43 0.33 0.25 0.23 0.24 0.25
1.21 1.18 1.12 0.87 1.90 1.99 1.77 2.09 1.98 1.37 2.00 3.75 1.89 1.44 1.19 1.18 0.72 0.47 0.28 0.32 0.29 0.24 0.27 0.25 0.44 0.47 0.38 0.33 0.31 0.18 0.11 0.07 0.10 0.23 0.20 0.24 0.29 0.42 0.33 0.16 0.20 0.30 0.27
1.11 1.16 1.07 0.80 0.97 1.54 1.67 1.75 1.47 0.80 1.11 2.59 2.23 1.63 1.00 1.20 0.97 0.66 0.47 0.24 0.18 0.20 0.23 0.13 0.14 0.19 0.19 0.22 0.20 0.14 0.09 0.07 0.07 0.15 0.20 0.28 0.21 0.30 0.30 0.16 0.15 0.25 0.31
0.70 0.58 0.60 0.77 0.65 0.94 1.51 1.21 1.32 0.84 0.87 1.85 2.32 1.67 1.11 0.82 0.82 0.45 0.35 0.35 0.40 0.36 0.24 0.19 0.19 0.16 0.30 0.53 0.55 0.36 0.15 0.06 0.06 0.08 0.14 0.25 0.23 0.20 0.21 0.17 0.08 0.17 0.28
0.49 0.45 0.46 0.50 0.63 1.03 1.29 1.04 0.99 0.84 0.66 1.11 1.95 1.68 1.66 0.94 0.73 0.47 0.32 0.27 0.28 0.35 0.49 0.50 0.43 0.28 0.22 0.27 0.55 0.37 0.20 0.10 0.10 0.09 0.11 0.19 0.30 0.31 0.21 0.16 0.13 0.15 0.17
0.38 0.31 0.31 0.54 0.83 0.94 1.07 0.97 1.01 0.82 0.68 1.01 1.54 1.54 1.59 1.51 0.60 0.52 0.36 0.21 0.20 0.39 0.61 0.72 0.54 0.25 0.22 0.19 0.25 0.15 0.04 0.05 0.07 0.06 0.07 0.07 0.12 0.22 0.28 0.19 0.15 0.11 0.12
0.12 0.17 0.51 0.82 1.19 1.41 1.29 1.19 1.58 1.37 1.08 0.99 1.37 1.39 1.07 1.56 0.89 0.38 0.38 0.28 0.26 0.22 0.34 0.57 0.63 0.51 0.33 0.18 0.20 0.17 0.06 0.03 0.06 0.07 0.07 0.09 0.09 0.11 0.18 0.14 0.16 0.16 0.15
0.13 0.12 0.68 1.07 1.36 1.46 2.16 2.03 1.81 1.12 0.92 0.86 1.15 1.15 0.99 1.18 1.31 0.82 0.56 0.42 0.37 0.41 0.37 0.33 0.40 0.43 0.51 0.36 0.30 0.30 0.14 0.09 0.11 0.11 0.09 0.08 0.13 0.20 0.17 0.15 0.06 0.08 0.13
0.12 0.31 0.81 1.22 1.53 1.22 0.84 0.67 0.93 0.85 0.80 0.91 1.02 0.99 0.78 0.91 0.99 1.26 0.84 0.54 0.40 0.45 0.50 0.54 0.40 0.25 0.27 0.34 0.45 0.39 0.26 0.09 0.08 0.12 0.12 0.12 0.11 0.12 0.17 0.15 0.12 0.05 0.05
0.27 0.38 0.41 0.37 0.54 0.23 0.16 0.25 0.56 0.64 0.75 0.87 1.09 0.85 0.71 0.87 0.76 0.91 0.91 0.82 0.49 0.56 0.55 0.65 0.67 0.46 0.23 0.39 0.33 0.20 0.21 0.25 0.10 0.03 0.05 0.10 0.09 0.12 0.14 0.14 0.13 0.09 0.03
0.15 0.17 0.06 0.06 0.27 0.23 0.13 0.24 0.50 0.84 1.02 1.19 1.44 1.29 0.90 1.04 1.00 0.90 0.88 0.93 0.69 0.66 0.72 0.67 0.68 0.50 0.32 0.31 0.25 0.11 0.08 0.14 0.09 0.05 0.05 0.07 0.08 0.08 0.09 0.11 0.11 0.11 0.06
0.02 0.03 0.02 0.07 0.14 0.20 0.26 0.33 0.43 0.68 0.73 0.84 0.89 1.14 0.95 0.91 1.02 1.00 0.91 1.14 1.10 0.90 0.69 0.59 0.69 0.59 0.42 0.25 0.29 0.10 0.03 0.05 0.07 0.08 0.05 0.09 0.11 0.09 0.12 0.15 0.16 0.16 0.13
0.04 0.04 0.10 0.13 0.16 0.15 0.23 0.41 0.35 0.47 0.63 0.75 0.90 1.17 1.32 0.97 0.78 0.77 0.80 1.02 1.12 0.90 0.78 0.64 0.61 0.63 0.40 0.23 0.16 0.14 0.05 0.02 0.03 0.08 0.07 0.04 0.07 0.06 0.06 0.12 0.16 0.23 0.26
0.12 0.17 0.16 0.16 0.18 0.21 0.29 0.38 0.41 0.36 0.35 0.37 0.66 1.02 1.68 1.67 1.09 0.81 0.75 0.75 0.84 0.87 0.76 0.78 0.83 0.67 0.68 0.52 0.31 0.21 0.13 0.13 0.11 0.16 0.26 0.21 0.17 0.12 0.07 0.08 0.09 0.13 0.18

GFSSE_prec_precacc_147.txt.gz
Total_Precipitation_Accumulation
0.29 0.03 0.03 0.04 0.05 0.06 0.04 0.00 0.00 0.00 0.02 0.07 0.11 0.14 0.17 0.17 0.24 0.32 0.30 0.31 0.34 0.34 0.38 0.30 0.30 0.32 0.35 0.28 0.21 0.17 0.23 0.62 0.87 0.79 1.09 1.05 1.05 0.68 0.65 0.91 0.87 0.77 1.03
0.25 0.09 0.07 0.06 0.04 0.08 0.11 0.05 0.02 0.02 0.02 0.05 0.11 0.13 0.20 0.23 0.33 0.40 0.39 0.39 0.48 0.55 0.58 0.44 0.38 0.42 0.47 0.40 0.24 0.18 0.16 0.17 0.33 0.41 0.45 0.50 0.71 0.62 0.52 0.97 0.89 0.79 0.95
0.58 0.50 0.40 0.11 0.03 0.05 0.08 0.08 0.06 0.05 0.04 0.07 0.09 0.21 0.33 0.37 0.54 0.52 0.39 0.39 0.71 1.13 0.96 0.69 0.63 0.77 0.64 0.48 0.19 0.12 0.09 0.09 0.07 0.10 0.23 0.40 0.51 0.56 0.51 0.78 0.84 0.90 0.87
1.33 0.88 0.85 0.58 0.10 0.04 0.03 0.03 0.03 0.05 0.06 0.05 0.04 0.13 0.36 0.42 0.36 0.35 0.49 0.57 0.86 1.16 1.31 1.04 1.24 1.62 1.17 0.80 0.40 0.19 0.13 0.06 0.06 0.07 0.18 0.41 0.43 0.52 0.47 0.51 0.67 0.78 0.79
1.15 1.17 1.04 1.11 0.87 0.32 0.16 0.07 0.05 0.09 0.06 0.06 0.07 0.15 0.26 0.28 0.41 0.46 0.89 1.08 1.37 1.28 1.51 1.43 1.37 1.40 1.06 0.98 1.08 0.71 0.33 0.11 0.08 0.10 0.16 0.18 0.22 0.50 0.66 0.51 0.48 0.64 0.47
1.13 1.26 1.45 1.45 0.97 0.60 0.60 0.24 0.08 0.09 0.04 0.05 0.13 0.31 0.30 0.87 1.02 1.18 1.68 2.46 2.53 2.20 2.25 3.18 2.78 1.80 0.91 1.06 1.11 0.72 0.32 0.07 0.07 0.24 0.30 0.33 0.66 0.57 0.81 0.67 0.39 0.39 0.21
1.83 2.55 3.31 2.97 2.41 1.11 0.98 0.77 0.33 0.17 0.09 0.11 0.29 0.71 1.01 1.71 1.47 1.15 0.95 1.02 1.24 2.16 2.18 1.84 1.72 1.71 1.14 0.30 0.15 0.25 0.17 0.07 0.21 0.72 0.35 0.27 0.66 0.66 0.65 0.43 0.26 0.20 0.14
3.36 3.45 5.11 5.72 5.42 4.22 2.66 1.89 1.54 1.36 1.02 0.78 0.55 0.58 0.57 1.01 1.21 0.71 0.39 0.32 0.25 0.30 0.38 0.38 0.33 0.21 0.22 0.09 0.06 0.08 0.08 0.08 0.11 0.96 0.42 0.36 0.49 0.45 0.30 0.19 0.15 0.13 0.12
5.85 5.86 5.26 7.51 5.14 4.03 4.24 3.28 3.33 2.37 2.15 1.89 1.39 0.82 0.43 0.40 0.55 0.31 0.20 0.17 0.13 0.12 0.17 0.25 0.19 0.15 0.08 0.06 0.07 0.06 0.13 0.04 0.09 0.18 0.19 0.15 0.29 0.49 0.41 0.25 0.16 0.15 0.10
6.58 9.34 6.73 6.72 5.23 3.51 3.42 3.97 3.24 3.43 2.81 2.04 1.61 1.32 0.46 0.47 0.38 0.37 0.22 0.18 0.10 0.07 0.10 0.12 0.21 0.24 0.28 0.26 0.08 0.08 0.22 0.17 0.10 0.15 0.18 0.25 0.28 0.48 0.59 0.39 0.28 0.24 0.19
3.69 5.27 5.84 7.31 6.11 3.64 2.51 3.42 2.96 3.65 3.19 2.04 1.58 2.07 0.81 0.39 0.38 0.30 0.14 0.12 0.13 0.07 0.07 0.15 0.37 0.33 0.29 0.26 0.18 0.20 0.21 0.12 0.10 0.06 0.19 0.41 0.30 0.43 0.44 0.37 0.28 0.26 0.25
2.10 2.40 3.33 5.34 6.93 4.40 2.98 2.10 2.21 2.95 4.64 2.34 1.57 1.78 1.44 0.56 0.45 0.28 0.19 0.19 0.20 0.16 0.21 0.49 0.55 0.41 0.23 0.13 0.14 0.23 0.12 0.04 0.07 0.03 0.14 0.28 0.42 0.63 0.71 0.47 0.25 0.19 0.18
1.36 1.46 1.47 2.49 4.22 3.72 3.11 2.58 2.23 2.41 4.16 3.48 1.68 1.24 1.56 0.67 0.67 0.48 0.41 0.44 0.42 0.38 0.45 0.47 0.57 0.58 0.47 0.25 0.22 0.30 0.12 0.05 0.06 0.06 0.25 0.19 0.38 0.58 0.60 0.46 0.25 0.24 0.25
1.21 1.18 1.12 0.87 1.90 1.99 1.77 2.09 1.98 1.37 2.00 3.75 1.89 1.44 1.19 1.18 0.72 0.47 0.28 0.32 0.29 0.24 0.27 0.25 0.44 0.47 0.38 0.33 0.31 0.18 0.11 0.07 0.10 0.23 0.23 0.24 0.31 0.50 0.56 0.37 0.28 0.31 0.27
1.11 1.16 1.07 0.80 0.97 1.54 1.67 1.75 1.47 0.80 1.11 2.59 2.23 1.63 1.01 1.20 0.98 0.66 0.47 0.24 0.18 0.20 0.23 0.13 0.14 0.19 0.19 0.22 0.20 0.14 0.09 0.07 0.08 0.15 0.20 0.28 0.21 0.36 0.39 0.27 0.25 0.29 0.32
0.70 0.58 0.60 0.77 0.65 0.94 1.51 1.21 1.32 0.84 0.87 1.85 2.32 1.67 1.11 0.82 0.82 0.45 0.35 0.35 0.40 0.36 0.24 0.19 0.19 0.16 0.30 0.53 0.55 0.36 0.15 0.06 0.07 0.08 0.14 0.25 0.26 0.25 0.26 0.26 0.14 0.21 0.32
0.49 0.45 0.46 0.50 0.63 1.03 1.29 1.04 0.99 0.84 0.66 1.11 1.95 1.68 1.66 0.94 0.73 0.47 0.32 0.27 0.28 0.35 0.49 0.50 0.43 0.28 0.22 0.27 0.55 0.37 0.20 0.10 0.12 0.10 0.11 0.19 0.31 0.35 0.24 0.21 0.27 0.20 0.22
0.38 0.31 0.31 0.54 0.83 0.94 1.07 0.97 1.01 0.82 0.68 1.01 1.54 1.54 1.59 1.51 0.60 0.52 0.36 0.21 0.20 0.39 0.61 0.72 0.54 0.25 0.22 0.19 0.25 0.15 0.04 0.05 0.07 0.06 0.07 0.07 0.12 0.22 0.28 0.19 0.17 0.16 0.17
0.12 0.17 0.51 0.82 1.19 1.41 1.29 1.19 1.58 1.37 1.08 0.99 1.37 1.39 1.07 1.56 0.89 0.38 0.38 0.28 0.26 0.22 0.34 0.57 0.63 0.51 0.33 0.18 0.20 0.17 0.06 0.03 0.06 0.07 0.07 0.09 0.09 0.11 0.19 0.16 0.16 0.17 0.15
0.13 0.12 0.68 1.07 1.36 1.46 2.16 2.03 1.81 1.12 0.92 0.86 1.15 1.15 0.99 1.18 1.31 0.82 0.56 0.42 0.37 0.41 0.37 0.33 0.40 0.43 0.51 0.36 0.30 0.30 0.14 0.09 0.11 0.12 0.10 0.08 0.13 0.20 0.19 0.21 0.10 0.08 0.13
0.12 0.31 0.81 1.22 1.53 1.22 0.84 0.67 0.93 0.85 0.80 0.91 1.02 0.99 0.78 0.91 0.99 1.27 0.85 0.55 0.40 0.46 0.50 0.54 0.40 0.26 0.27 0.34 0.46 0.41 0.28 0.10 0.09 0.13 0.13 0.12 0.12 0.13 0.20 0.24 0.18 0.10 0.05
0.27 0.38 0.41 0.37 0.54 0.23 0.16 0.25 0.56 0.64 0.75 0.87 1.09 0.85 0.71 0.87 0.77 0.91 0.91 0.83 0.50 0.56 0.57 0.67 0.68 0.47 0.24 0.40 0.34 0.25 0.23 0.26 0.11 0.04 0.06 0.10 0.09 0.12 0.15 0.19 0.20 0.16 0.06
0.15 0.17 0.06 0.06 0.27 0.23 0.13 0.24 0.50 0.84 1.02 1.19 1.44 1.29 0.90 1.04 1.01 0.91 0.88 0.94 0.70 0.67 0.73 0.69 0.69 0.53 0.35 0.35 0.28 0.13 0.08 0.14 0.10 0.05 0.05 0.07 0.08 0.08 0.09 0.13 0.16 0.17 0.09
0.02 0.03 0.02 0.07 0.14 0.20 0.26 0.33 0.43 0.68 0.73 0.84 0.89 1.14 0.95 0.91 1.02 1.01 0.92 1.16 1.12 0.92 0.80 0.73 0.78 0.68 0.55 0.35 0.38 0.16 0.08 0.07 0.11 0.10 0.06 0.09 0.11 0.09 0.12 0.15 0.17 0.19 0.16
0.04 0.04 0.10 0.13 0.16 0.15 0.23 0.41 0.35 0.47 0.63 0.75 0.91 1.17 1.33 0.98 0.80 0.78 0.82 1.07 1.23 0.94 0.80 0.73 0.76 0.78 0.55 0.39 0.27 0.17 0.08 0.07 0.08 0.11 0.11 0.06 0.08 0.08 0.07 0.12 0.17 0.24 0.28
0.12 0.17 0.16 0.16 0.19 0.21 0.29 0.39 0.41 0.36 0.36 0.38 0.66 1.04 1.70 1.69 1.13 0.87 0.84 0.87 0.96 0.95 0.80 0.81 0.86 0.70 0.70 0.55 0.36 0.27 0.17 0.16 0.13 0.19 0.31 0.26 0.18 0.13 0.08 0.08 0.09 0.13 0.19

GFSSE_prec_precacc_150.txt.gz
Total_Precipitation_Accumulation
0.29 0.03 0.03 0.04 0.05 0.06 0.04 0.00 0.00 0.00 0.02 0.07 0.11 0.14 0.17 0.17 0.24 0.32 0.30 0.31 0.34 0.34 0.38 0.30 0.30 0.32 0.35 0.28 0.21 0.17 0.23 0.62 0.87 0.79 1.09 1.05 1.05 0.68 0.65 0.91 0.88 0.79 1.21
0.25 0.09 0.07 0.06 0.04 0.08 0.11 0.05 0.02 0.02 0.02 0.05 0.11 0.13 0.20 0.23 0.33 0.40 0.39 0.39 0.48 0.55 0.58 0.44 0.38 0.42 0.47 0.40 0.24 0.18 0.16 0.17 0.33 0.41 0.45 0.50 0.71 0.62 0.52 0.97 0.90 0.82 1.20
0.58 0.50 0.40 0.11 0.03 0.05 0.08 0.08 0.06 0.05 0.04 0.07 0.09 0.21 0.33 0.37 0.54 0.52 0.39 0.39 0.71 1.13 0.96 0.69 0.63 0.77 0.64 0.48 0.19 0.12 0.09 0.09 0.07 0.10 0.23 0.40 0.51 0.56 0.51 0.79 0.86 1.00 1.17
1.33 0.88 0.85 0.58 0.10 0.04 0.03 0.03 0.03 0.05 0.06 0.05 0.04 0.13 0.36 0.42 0.36 0.35 0.49 0.57 0.86 1.16 1.31 1.04 1.24 1.62 1.17 0.80 0.40 0.19 0.13 0.06 0.06 0.07 0.22 0.43 0.43 0.52 0.48 0.54 0.68 0.95 1.31
1.15 1.17 1.04 1.11 0.87 0.32 0.16 0.07 0.05 0.09 0.06 0.06 0.07 0.15 0.26 0.28 0.41 0.46 0.89 1.08 1.37 1.28 1.51 1.43 1.37 1.40 1.06 0.98 1.08 0.71 0.33 0.11 0.09 0.14 0.46 0.26 0.22 0.50 0.69 0.62 0.54 1.18 1.14
1.13 1.26 1.45 1.45 0.97 0.60 0.60 0.24 0.08 0.09 0.04 0.05 0.13 0.31 0.30 0.87 1.02 1.18 1.68 2.46 2.53 2.20 2.25 3.18 2.78 1.80 0.91 1.06 1.11 0.72 0.32 0.07 0.08 0.39 1.33 0.50 0.66 0.58 0.87 0.84 0.54 0.56 0.50
1.83 2.55 3.31 2.97 2.41 1.11 0.98 0.77 0.33 0.17 0.09 0.11 0.29 0.71 1.01 1.71 1.47 1.15 0.95 1.02 1.24 2.16 2.18 1.84 1.72 1.71 1.14 0.30 0.15 0.25 0.17 0.07 0.25 0.87 0.56 0.34 0.67 0.66 0.67 0.45 0.31 0.21 0.19
3.36 3.45 5.11 5.72 5.42 4.22 2.66 1.89 1.54 1.36 1.02 0.78 0.55 0.58 0.57 1.01 1.21 0.71 0.39 0.32 0.25 0.30 0.38 0.38 0.33 0.21 0.22 0.09 0.06 0.08 0.08 0.08 0.15 1.05 0.49 0.40 0.49 0.46 0.30 0.19 0.16 0.14 0.12
5.85 5.86 5.26 7.51 5.14 4.03 4.24 3.28 3.33 2.37 2.15 1.89 1.39 0.82 0.43 0.40 0.55 0.31 0.20 0.17 0.13 0.12 0.17 0.25 0.19 0.15 0.08 0.06 0.07 0.06 0.13 0.04 0.13 0.31 0.33 0.22 0.32 0.52 0.41 0.26 0.16 0.15 0.10
6.58 9.34 6.73 6.72 5.23 3.51 3.42 3.97 3.24 3.43 2.81 2.04 1.61 1.32 0.46 0.47 0.38 0.37 0.22 0.18 0.10 0.07 0.10 0.12 0.21 0.24 0.28 0.26 0.08 0.08 0.22 0.17 0.13 0.28 0.35 0.32 0.33 0.51 0.60 0.40 0.29 0.24 0.19
3.69 5.27 5.84 7.31 6.11 3.64 2.51 3.42 2.96 3.65 3.19 2.04 1.58 2.07 0.81 0.39 0.38 0.30 0.14 0.12 0.13 0.07 0.07 0.15 0.37 0.33 0.29 0.26 0.18 0.20 0.21 0.12 0.16 0.09 0.25 0.43 0.36 0.46 0.44 0.38 0.29 0.26 0.25
2.10 2.40 3.33 5.34 6.93 4.40 2.98 2.10 2.21 2.95 4.64 2.34 1.57 1.78 1.44 0.56 0.45 0.28 0.19 0.19 0.20 0.16 0.21 0.49 0.55 0.41 0.23 0.13 0.14 0.23 0.12 0.06 0.09 0.05 0.16 0.32 0.51 0.69 0.75 0.57 0.29 0.19 0.18
1.36 1.46 1.47 2.49 4.22 3.72 3.11 2.58 2.23 2.41 4.16 3.48 1.68 1.24 1.56 0.67 0.67 0.48 0.41 0.44 0.42 0.38 0.45 0.47 0.57 0.58 0.47 0.25 0.22 0.30 0.12 0.05 0.07 0.09 0.31 0.21 0.42 0.63 0.68 0.55 0.29 0.24 0.25
1.21 1.18 1.12 0.87 1.90 1.99 1.77 2.09 1.98 1.37 2.00 3.75 1.89 1.44 1.19 1.18 0.72 0.47 0.28 0.32 0.29 0.24 0.27 0.25 0.44 0.47 0.38 0.33 0.31 0.18 0.11 0.07 0.11 0.26 0.30 0.25 0.31 0.52 0.57 0.40 0.35 0.35 0.27
1.11 1.16 1.07 0.80 0.97 1.54 1.67 1.75 1.47 0.80 1.11 2.59 2.23 1.63 1.01 1.20 0.98 0.66 0.47 0.24 0.18 0.20 0.23 0.13 0.14 0.19 0.19 0.22 0.20 0.14 0.09 0.07 0.08 0.17 0.23 0.28 0.21 0.37 0.42 0.27 0.32 0.37 0.33
0.70 0.58 0.60 0.77 0.65 0.94 1.51 1.21 1.32 0.84 0.87 1.85 2.32 1.67 1.11 0.82 0.82 0.45 0.35 0.35 0.40 0.36 0.24 0.19 0.19 0.16 0.30 0.53 0.55 0.36 0.15 0.06 0.07 0.08 0.14 0.25 0.26 0.25 0.28 0.29 0.16 0.27 0.37
0.49 0.45 0.46 0.50 0.63 1.03 1.29 1.04 0.99 0.84 0.66 1.11 1.95 1.68 1.66 0.94 0.73 0.47 0.32 0.27 0.28 0.35 0.49 0.50 0.43 0.28 0.22 0.27 0.55 0.37 0.20 0.10 0.12 0.10 0.11 0.19 0.31 0.35 0.24 0.23 0.32 0.26 0.25
0.38 0.31 0.31 0.54 0.83 0.95 1.09 1.01 1.02 0.82 0.68 1.01 1.54 1.54 1.59 1.51 0.60 0.52 0.36 0.21 0.20 0.39 0.61 0.72 0.54 0.25 0.22 0.19 0.26 0.15 0.04 0.05 0.07 0.06 0.07 0.07 0.12 0.22 0.28 0.19 0.18 0.18 0.19
0.12 0.17 0.51 0.82 1.19 1.41 1.32 1.28 1.73 1.40 1.08 0.99 1.37 1.39 1.07 1.56 0.89 0.38 0.38 0.28 0.26 0.22 0.34 0.57 0.63 0.51 0.33 0.18 0.20 0.17 0.06 0.03 0.06 0.07 0.07 0.09 0.09 0.11 0.19 0.16 0.16 0.17 0.15
0.13 0.12 0.68 1.07 1.36 1.46 2.16 2.03 1.86 1.25 0.94 0.86 1.15 1.15 0.99 1.18 1.31 0.82 0.56 0.42 0.37 0.43 0.37 0.33 0.40 0.43 0.51 0.36 0.30 0.31 0.14 0.09 0.11 0.12 0.10 0.08 0.13 0.20 0.19 0.21 0.10 0.09 0.13
0.12 0.31 0.81 1.22 1.53 1.22 0.84 0.67 0.93 0.85 0.80 0.92 1.02 0.99 0.78 0.92 1.01 1.27 0.85 0.55 0.41 0.46 0.50 0.57 0.40 0.26 0.28 0.34 0.47 0.48 0.33 0.11 0.09 0.13 0.13 0.12 0.12 0.13 0.20 0.24 0.18 0.10 0.06
0.27 0.38 0.41 0.37 0.54 0.23 0.16 0.25 0.56 0.64 0.75 0.87 1.09 0.85 0.71 0.87 0.87 0.97 0.91 0.83 0.50 0.57 0.58 0.70 0.70 0.47 0.25 0.40 0.35 0.30 0.28 0.27 0.11 0.04 0.06 0.10 0.10 0.13 0.15 0.19 0.20 0.17 0.07
0.15 0.17 0.06 0.06 0.27 0.23 0.13 0.24 0.50 0.84 1.02 1.19 1.44 1.29 0.90 1.04 1.02 1.03 0.90 0.97 0.71 0.69 0.74 0.69 0.70 0.54 0.35 0.36 0.29 0.16 0.09 0.15 0.10 0.06 0.06 0.08 0.10 0.09 0.09 0.13 0.16 0.18 0.12
0.02 0.03 0.02 0.07 0.14 0.20 0.26 0.33 0.43 0.68 0.73 0.84 0.89 1.14 0.95 0.91 1.03 1.05 1.00 1.20 1.14 0.94 0.86 0.78 0.81 0.69 0.55 0.38 0.46 0.26 0.15 0.14 0.16 0.14 0.07 0.10 0.11 0.10 0.13 0.15 0.18 0.20 0.18
0.04 0.04 0.10 0.13 0.16 0.15 0.23 0.41 0.35 0.47 0.63 0.75 0.91 1.17 1.33 0.98 0.80 0.81 0.92 1.12 1.25 1.05 0.93 0.93 0.86 0.87 0.69 0.58 0.46 0.39 0.24 0.19 0.24 0.30 0.20 0.10 0.09 0.09 0.08 0.13 0.17 0.24 0.29
0.12 0.17 0.16 0.16 0.19 0.21 0.29 0.39 0.41 0.36 0.36 0.38 0.67 1.04 1.71 1.70 1.14 0.91 0.89 0.93 1.07 1.10 0.98 1.01 1.01 0.81 0.96 0.80 0.55 0.40 0.22 0.19 0.17 0.27 0.41 0.35 0.24 0.17 0.10 0.09 0.10 0.14 0.20

GFSSE_prec_precacc_153.txt.gz
Total_Precipitation_Accumulation
0.29 0.03 0.03 0.04 0.05 0.06 0.04 0.00 0.00 0.00 0.02 0.07 0.11 0.14 0.17 0.17 0.24 0.32 0.30 0.31 0.34 0.34 0.38 0.30 0.30 0.32 0.36 0.29 0.22 0.18 0.27 0.64 0.87 0.79 1.10 1.05 1.05 0.68 0.65 0.91 0.89 0.79 1.34
0.25 0.09 0.07 0.06 0.04 0.08 0.11 0.05 0.02 0.02 0.02 0.05 0.11 0.13 0.20 0.23 0.33 0.40 0.39 0.39 0.48 0.55 0.58 0.44 0.38 0.43 0.47 0.40 0.24 0.18 0.16 0.17 0.33 0.42 0.45 0.50 0.71 0.62 0.55 1.03 0.92 0.84 1.30
0.58 0.50 0.40 0.11 0.03 0.05 0.08 0.08 0.06 0.05 0.04 0.07 0.09 0.21 0.33 0.37 0.54 0.52 0.39 0.39 0.71 1.13 0.96 0.69 0.63 0.77 0.64 0.48 0.19 0.12 0.09 0.09 0.07 0.11 0.24 0.40 0.51 0.56 0.52 0.87 0.97 1.07 1.20
1.33 0.88 0.85 0.58 0.10 0.04 0.03 0.03 0.03 0.05 0.06 0.05 0.04 0.13 0.36 0.42 0.36 0.35 0.49 0.57 0.86 1.16 1.31 1.04 1.24 1.62 1.17 0.80 0.40 0.19 0.13 0.06 0.06 0.08 0.24 0.43 0.43 0.52 0.49 0.61 0.71 0.97 1.50
1.15 1.17 1.04 1.11 0.87 0.32 0.16 0.07 0.05 0.09 0.06 0.06 0.07 0.15 0.26 0.28 0.41 0.46 0.89 1.08 1.37 1.28 1.51 1.43 1.37 1.40 1.06 0.98 1.08 0.71 0.33 0.11 0.09 0.14 0.48 0.28 0.23 0.50 0.72 0.73 0.61 1.25 1.26
1.13 1.26 1.45 1.45 0.97 0.60 0.60 0.24 0.08 0.09 0.04 0.05 0.13 0.31 0.30 0.87 1.02 1.18 1.68 2.46 2.53 2.20 2.25 3.18 2.78 1.80 0.91 1.06 1.11 0.72 0.32 0.07 0.09 0.41 1.34 0.52 0.66 0.58 0.88 0.85 0.55 0.60 0.59
1.83 2.55 3.31 2.97 2.41 1.11 0.98 0.77 0.33 0.17 0.09 0.11 0.29 0.71 1.01 1.71 1.47 1.15 0.95 1.02 1.24 2.16 2.18 1.84 1.72 1.71 1.14 0.30 0.15 0.25 0.17 0.07 0.29 0.93 0.69 0.42 0.68 0.66 0.67 0.47 0.31 0.21 0.21
3.36 3.45 5.11 5.72 5.42 4.22 2.66 1.89 1.54 1.36 1.02 0.78 0.55 0.58 0.57 1.01 1.21 0.71 0.39 0.32 0.25 0.30 0.38 0.38 0.33 0.21 0.22 0.09 0.06 0.08 0.08 0.08 0.18 1.19 0.64 0.42 0.50 0.48 0.35 0.22 0.16 0.14 0.12
5.85 5.86 5.26 7.51 5.14 4.03 4.24 3.28 3.33 2.37 2.15 1.89 1.39 0.82 0.43 0.40 0.55 0.31 0.20 0.17 0.13 0.12 0.17 0.25 0.19 0.15 0.08 0.06 0.07 0.06 0.13 0.04 0.14 0.47 0.50 0.23 0.33 0.52 0.41 0.26 0.16 0.15 0.10
6.58 9.34 6.73 6.72 5.23 3.51 3.42 3.97 3.24 3.43 2.81 2.04 1.61 1.32 0.46 0.47 0.38 0.37 0.22 0.18 0.10 0.07 0.10 0.12 0.21 0.24 0.28 0.26 0.08 0.08 0.22 0.17 0.13 0.29 0.38 0.33 0.35 0.51 0.60 0.40 0.29 0.24 0.19
3.69 5.27 5.84 7.31 6.11 3.64 2.51 3.42 2.96 3.65 3.19 2.04 1.58 2.07 0.81 0.39 0.38 0.30 0.14 0.12 0.13 0.07 0.07 0.15 0.37 0.33 0.29 0.26 0.18 0.20 0.21 0.12 0.16 0.10 0.26 0.43 0.38 0.46 0.44 0.39 0.29 0.26 0.25
2.10 2.40 3.33 5.34 6.93 4.40 2.98 2.10 2.21 2.95 4.64 2.34 1.57 1.78 1.44 0.56 0.45 0.28 0.19 0.19 0.20 0.16 0.21 0.49 0.55 0.41 0.23 0.13 0.14 0.23 0.12 0.06 0.09 0.05 0.16 0.32 0.54 0.69 0.76 0.59 0.30 0.19 0.18
1.36 1.46 1.48 2.49 4.22 3.72 3.11 2.58 2.23 2.41 4.16 3.48 1.68 1.24 1.56 0.67 0.67 0.48 0.41 0.44 0.42 0.38 0.45 0.47 0.57 0.58 0.47 0.25 0.22 0.30 0.12 0.05 0.07 0.09 0.31 0.21 0.44 0.63 0.68 0.55 0.29 0.24 0.25
1.21 1.18 1.14 0.96 2.00 2.01 1.77 2.09 1.99 1.37 2.00 3.75 1.89 1.44 1.19 1.18 0.72 0.47 0.28 0.32 0.29 0.24 0.27 0.25 0.44 0.47 0.38 0.33 0.31 0.18 0.11 0.07 0.11 0.27 0.30 0.25 0.33 0.52 0.57 0.40 0.35 0.35 0.27
1.11 1.16 1.07 0.86 1.16 1.67 1.71 1.75 1.47 0.80 1.11 2.59 2.23 1.63 1.01 1.20 0.98 0.66 0.47 0.24 0.18 0.20 0.23 0.13 0.14 0.19 0.19 0.22 0.20 0.14 0.09 0.07 0.09 0.17 0.24 0.28 0.24 0.39 0.44 0.27 0.32 0.37 0.33
0.70 0.58 0.60 0.77 0.72 1.07 1.56 1.25 1.34 0.85 0.87 1.85 2.32 1.67 1.11 0.82 0.82 0.45 0.35 0.35 0.40 0.36 0.24 0.19 0.19 0.16 0.30 0.53 0.55 0.36 0.15 0.06 0.07 0.10 0.15 0.25 0.26 0.25 0.28 0.34 0.17 0.28 0.38
0.49 0.45 0.46 0.50 0.63 1.06 1.36 1.10 1.05 0.92 0.72 1.14 1.95 1.68 1.66 0.94 0.73 0.47 0.32 0.27 0.28 0.35 0.49 0.50 0.43 0.28 0.22 0.27 0.55 0.37 0.20 0.10 0.12 0.10 0.11 0.19 0.31 0.35 0.24 0.24 0.34 0.27 0.25
0.38 0.31 0.31 0.54 0.83 0.95 1.11 1.04 1.13 0.94 0.82 1.17 1.57 1.55 1.61 1.51 0.60 0.52 0.36 0.21 0.20 0.39 0.61 0.72 0.54 0.25 0.22 0.19 0.26 0.15 0.04 0.05 0.07 0.06 0.07 0.07 0.12 0.22 0.28 0.19 0.18 0.21 0.20
0.12 0.17 0.51 0.82 1.19 1.41 1.32 1.28 1.78 1.60 1.33 1.17 1.48 1.45 1.10 1.59 0.90 0.39 0.38 0.28 0.26 0.22 0.35 0.57 0.63 0.51 0.33 0.18 0.20 0.18 0.06 0.03 0.06 0.07 0.07 0.09 0.09 0.11 0.19 0.16 0.16 0.17 0.15
0.13 0.12 0.68 1.07 1.36 1.46 2.16 2.03 1.86 1.36 1.31 1.21 1.37 1.31 1.10 1.25 1.38 0.87 0.57 0.42 0.38 0.43 0.37 0.34 0.41 0.43 0.51 0.36 0.30 0.32 0.16 0.09 0.11 0.12 0.10 0.08 0.13 0.21 0.19 0.21 0.10 0.09 0.13
0.12 0.31 0.81 1.22 1.53 1.22 0.84 0.67 0.93 0.85 0.81 1.07 1.36 1.12 0.84 1.03 1.18 1.36 0.87 0.57 0.45 0.47 0.51 0.72 0.50 0.29 0.29 0.34 0.52 0.52 0.36 0.11 0.09 0.13 0.13 0.12 0.12 0.13 0.20 0.24 0.18 0.10 0.06
0.27 0.38 0.41 0.37 0.54 0.23 0.16 0.25 0.56 0.64 0.75 0.87 1.10 0.88 0.78 0.98 1.18 1.18 1.05 0.92 0.56 0.59 0.62 0.94 0.90 0.60 0.28 0.44 0.43 0.45 0.36 0.31 0.11 0.04 0.06 0.10 0.10 0.13 0.15 0.19 0.20 0.17 0.07
0.15 0.17 0.06 0.06 0.27 0.23 0.13 0.24 0.50 0.84 1.02 1.19 1.44 1.29 0.92 1.09 1.09 1.29 0.99 1.17 1.01 0.93 0.90 0.95 1.01 0.73 0.46 0.44 0.40 0.23 0.17 0.17 0.12 0.06 0.07 0.08 0.10 0.09 0.09 0.13 0.16 0.18 0.12
0.02 0.03 0.02 0.07 0.14 0.20 0.26 0.33 0.43 0.68 0.73 0.84 0.89 1.14 0.95 0.93 1.08 1.22 1.27 1.33 1.27 1.16 1.10 0.97 0.99 0.86 0.73 0.55 0.69 0.41 0.26 0.17 0.19 0.17 0.14 0.14 0.12 0.10 0.13 0.15 0.18 0.20 0.18
0.04 0.04 0.10 0.13 0.16 0.15 0.23 0.41 0.35 0.47 0.63 0.75 0.91 1.17 1.33 0.98 0.81 0.84 1.13 1.26 1.35 1.24 1.14 1.15 1.11 1.10 0.87 0.72 0.63 0.71 0.58 0.45 0.44 0.43 0.33 0.18 0.15 0.11 0.10 0.13 0.17 0.24 0.29
0.12 0.17 0.16 0.16 0.19 0.21 0.29 0.39 0.41 0.36 0.36 0.38 0.67 1.04 1.71 1.70 1.16 0.95 1.03 1.09 1.23 1.30 1.16 1.36 1.32 1.13 1.36 1.32 1.01 0.78 0.64 0.64 0.50 0.50 0.54 0.41 0.28 0.21 0.16 0.13 0.11 0.14 0.20

GFSSE_prec_precacc_156.txt.gz
Total_Precipitation_Accumulation
0.29 0.03 0.03 0.04 0.05 0.06 0.04 0.00 0.00 0.00 0.02 0.07 0.11 0.14 0.17 0.17 0.24 0.32 0.30 0.31 0.34 0.34 0.38 0.30 0.30 0.33 0.36 0.29 0.22 0.18 0.27 0.65 0.88 0.80 1.10 1.05 1.05 0.68 0.66 0.94 0.95 0.80 1.39
0.25 0.09 0.07 0.06 0.04 0.08 0.11 0.05 0.02 0.02 0.02 0.05 0.11 0.13 0.20 0.23 0.33 0.40 0.39 0.39 0.48 0.55 0.58 0.44 0.38 0.43 0.47 0.40 0.24 0.18 0.16 0.17 0.33 0.42 0.45 0.50 0.71 0.62 0.55 1.05 1.05 0.86 1.32
0.58 0.50 0.40 0.11 0.03 0.05 0.08 0.08 0.06 0.05 0.04 0.07 0.09 0.21 0.33 0.37 0.54 0.52 0.39 0.39 0.71 1.13 0.96 0.69 0.63 0.77 0.64 0.48 0.19 0.12 0.09 0.09 0.07 0.11 0.24 0.40 0.51 0.56 0.52 0.89 1.05 1.08 1.20
1.33 0.88 0.85 0.58 0.10 0.04 0.03 0.03 0.03 0.05 0.06 0.05 0.04 0.13 0.36 0.42 0.36 0.35 0.49 0.57 0.86 1.16 1.31 1.04 1.24 1.62 1.17 0.80 0.40 0.19 0.13 0.06 0.06 0.08 0.24 0.43 0.43 0.52 0.49 0.66 0.78 1.01 1.50
1.15 1.17 1.04 1.11 0.87 0.32 0.16 0.07 0.05 0.09 0.06 0.06 0.07 0.15 0.26 0.28 0.41 0.46 0.89 1.08 1.37 1.28 1.51 1.43 1.37 1.40 1.06 0.98 1.08 0.71 0.33 0.11 0.09 0.14 0.48 0.28 0.23 0.50 0.74 0.75 0.61 1.25 1.27
1.13 1.26 1.45 1.45 0.97 0.60 0.60 0.24 0.08 0.09 0.04 0.05 0.13 0.31 0.30 0.87 1.02 1.18 1.68 2.46 2.53 2.20 2.25 3.18 2.78 1.80 0.91 1.06 1.11 0.72 0.32 0.07 0.09 0.41 1.34 0.52 0.66 0.58 0.89 0.87 0.55 0.60 0.60
1.83 2.55 3.31 2.97 2.41 1.11 0.98 0.77 0.33 0.17 0.09 0.11 0.29 0.71 1.01 1.71 1.47 1.15 0.95 1.02 1.24 2.16 2.18 1.84 1.72 1.71 1.14 0.30 0.15 0.25 0.17 0.07 0.29 0.93 0.71 0.42 0.69 0.70 0.68 0.47 0.31 0.21 0.21
3.36 3.45 5.11 5.72 5.42 4.22 2.66 1.89 1.54 1.36 1.02 0.78 0.55 0.58 0.57 1.01 1.21 0.71 0.39 0.32 0.25 0.30 0.38 0.38 0.33 0.21 0.22 0.09 0.06 0.08 0.08 0.08 0.18 1.19 0.64 0.42 0.53 0.55 0.35 0.22 0.16 0.14 0.12
5.85 5.86 5.26 7.51 5.14 4.03 4.24 3.28 3.33 2.37 2.15 1.89 1.39 0.82 0.43 0.40 0.55 0.31 0.20 0.17 0.13 0.12 0.17 0.25 0.19 0.15 0.08 0.06 0.07 0.06 0.13 0.04 0.14 0.47 0.50 0.23 0.35 0.54 0.41 0.26 0.16 0.15 0.11
6.58 9.34 6.73 6.72 5.23 3.51 3.42 3.97 3.24 3.43 2.81 2.04 1.61 1.32 0.46 0.47 0.38 0.37 0.22 0.18 0.10 0.07 0.10 0.12 0.21 0.24 0.28 0.26 0.08 0.08 0.22 0.17 0.13 0.29 0.38 0.33 0.40 0.53 0.60 0.40 0.29 0.24 0.19
3.69 5.27 5.84 7.31 6.11 3.64 2.51 3.42 2.96 3.65 3.19 2.04 1.58 2.07 0.81 0.39 0.38 0.30 0.14 0.12 0.13 0.07 0.07 0.15 0.37 0.33 0.29 0.26 0.18 0.20 0.21 0.12 0.16 0.10 0.26 0.43 0.43 0.49 0.44 0.39 0.29 0.26 0.25
2.10 2.40 3.33 5.35 6.93 4.40 2.98 2.10 2.21 2.95 4.64 2.34 1.57 1.78 1.44 0.56 0.45 0.28 0.19 0.19 0.20 0.16 0.21 0.49 0.55 0.41 0.23 0.13 0.14 0.23 0.12 0.06 0.09 0.05 0.16 0.32 0.55 0.69 0.76 0.59 0.30 0.19 0.18
1.36 1.46 1.48 2.50 4.25 3.74 3.12 2.59 2.23 2.41 4.16 3.48 1.68 1.24 1.56 0.67 0.67 0.48 0.41 0.44 0.42 0.38 0.45 0.47 0.57 0.58 0.47 0.25 0.22 0.30 0.12 0.05 0.07 0.09 0.31 0.21 0.45 0.63 0.68 0.55 0.29 0.24 0.25
1.21 1.18 1.14 0.97 2.10 2.11 1.85 2.18 2.04 1.40 2.01 3.75 1.89 1.44 1.19 1.18 0.72 0.47 0.28 0.32 0.29 0.24 0.27 0.25 0.44 0.47 0.38 0.33 0.31 0.18 0.11 0.07 0.11 0.27 0.30 0.25 0.33 0.54 0.57 0.40 0.35 0.35 0.27
1.11 1.16 1.07 0.86 1.17 1.69 1.79 1.87 1.55 0.89 1.19 2.63 2.23 1.63 1.01 1.20 0.98 0.66 0.47 0.24 0.18 0.20 0.23 0.13 0.14 0.19 0.19 0.22 0.20 0.14 0.09 0.07 0.09 0.17 0.24 0.28 0.24 0.42 0.44 0.28 0.33 0.37 0.33
0.70 0.58 0.60 0.77 0.72 1.07 1.58 1.29 1.41 0.94 0.98 1.98 2.39 1.68 1.11 0.82 0.82 0.45 0.35 0.35 0.40 0.36 0.24 0.19 0.19 0.16 0.30 0.53 0.55 0.36 0.15 0.06 0.07 0.10 0.15 0.25 0.26 0.26 0.30 0.36 0.21 0.28 0.38
0.49 0.45 0.46 0.50 0.63 1.06 1.36 1.11 1.06 0.94 0.79 1.25 2.03 1.72 1.68 0.94 0.73 0.47 0.32 0.27 0.28 0.35 0.50 0.50 0.43 0.28 0.22 0.27 0.55 0.37 0.20 0.10 0.12 0.10 0.11 0.19 0.31 0.35 0.24 0.24 0.34 0.31 0.27
0.38 0.31 0.31 0.54 0.83 0.95 1.11 1.04 1.13 0.94 0.83 1.21 1.65 1.63 1.73 1.56 0.61 0.52 0.37 0.21 0.20 0.40 0.64 0.73 0.55 0.26 0.22 0.19 0.26 0.15 0.04 0.05 0.07 0.06 0.07 0.07 0.12 0.22 0.28 0.19 0.18 0.22 0.24
0.12 0.17 0.51 0.82 1.19 1.41 1.32 1.28 1.78 1.60 1.33 1.19 1.53 1.52 1.16 1.66 1.04 0.58 0.47 0.29 0.27 0.23 0.36 0.62 0.65 0.52 0.33 0.18 0.20 0.20 0.06 0.03 0.06 0.07 0.07 0.09 0.09 0.11 0.19 0.16 0.16 0.17 0.16
0.13 0.12 0.68 1.07 1.36 1.46 2.16 2.03 1.86 1.36 1.31 1.21 1.38 1.33 1.15 1.30 1.46 1.02 0.71 0.49 0.47 0.54 0.42 0.37 0.49 0.49 0.53 0.36 0.31 0.38 0.21 0.11 0.12 0.12 0.10 0.08 0.13 0.21 0.19 0.21 0.10 0.09 0.13
0.12 0.31 0.81 1.22 1.53 1.22 0.84 0.67 0.93 0.85 0.81 1.07 1.36 1.12 0.84 1.04 1.20 1.41 0.93 0.61 0.53 0.55 0.59 0.78 0.65 0.47 0.34 0.38 0.63 0.62 0.43 0.15 0.11 0.13 0.13 0.12 0.12 0.13 0.20 0.24 0.18 0.10 0.06
0.27 0.38 0.41 0.37 0.54 0.23 0.16 0.25 0.56 0.64 0.75 0.87 1.10 0.88 0.78 0.98 1.24 1.28 1.21 1.07 0.69 0.67 0.74 1.09 1.05 0.88 0.47 0.57 0.69 0.76 0.53 0.44 0.16 0.10 0.13 0.12 0.10 0.13 0.16 0.20 0.20 0.17 0.07
0.15 0.17 0.06 0.06 0.27 0.23 0.13 0.24 0.50 0.84 1.02 1.19 1.44 1.29 0.92 1.09 1.10 1.33 1.09 1.34 1.20 1.20 1.04 1.17 1.30 0.99 0.62 0.63 0.65 0.48 0.32 0.25 0.21 0.19 0.15 0.15 0.13 0.10 0.09 0.14 0.16 0.18 0.12
0.02 0.03 0.02 0.07 0.14 0.20 0.26 0.33 0.43 0.68 0.73 0.84 0.89 1.14 0.95 0.93 1.08 1.23 1.31 1.46 1.45 1.38 1.36 1.25 1.40 1.21 1.06 0.77 0.93 0.71 0.54 0.47 0.41 0.28 0.20 0.19 0.20 0.15 0.15 0.16 0.18 0.21 0.19
0.04 0.04 0.10 0.13 0.16 0.15 0.23 0.41 0.35 0.47 0.63 0.75 0.91 1.17 1.33 0.98 0.81 0.84 1.13 1.29 1.44 1.40 1.34 1.40 1.38 1.45 1.30 1.28 1.05 1.04 1.00 0.78 0.72 0.69 0.43 0.26 0.25 0.20 0.19 0.20 0.24 0.30 0.31
0.12 0.17 0.16 0.16 0.19 0.21 0.29 0.39 0.41 0.36 0.36 0.38 0.67 1.04 1.71 1.70 1.16 0.95 1.03 1.09 1.24 1.35 1.24 1.47 1.54 1.38 1.58 1.57 1.31 1.10 0.92 0.91 0.71 0.65 0.67 0.54 0.38 0.28 0.22 0.22 0.19 0.18 0.25

GFSSE_prec_precacc_159.txt.gz
Total_Precipitation_Accumulation
0.29 0.03 0.03 0.04 0.05 0.06 0.04 0.00 0.00 0.00 0.02 0.07 0.11 0.14 0.17 0.17 0.24 0.32 0.30 0.31 0.34 0.34 0.38 0.30 0.30 0.33 0.36 0.29 0.22 0.18 0.27 0.65 0.88 0.80 1.10 1.05 1.06 0.68 0.66 0.94 0.95 0.80 1.40
0.25 0.09 0.07 0.06 0.04 0.08 0.11 0.05 0.02 0.02 0.02 0.05 0.11 0.13 0.20 0.23 0.33 0.40 0.39 0.39 0.48 0.55 0.58 0.44 0.38 0.43 0.47 0.40 0.24 0.18 0.16 0.17 0.33 0.42 0.45 0.50 0.71 0.62 0.55 1.05 1.06 0.89 1.39
0.58 0.50 0.40 0.11 0.03 0.05 0.08 0.08 0.06 0.05 0.04 0.07 0.09 0.21 0.33 0.37 0.54 0.52 0.39 0.39 0.71 1.13 0.96 0.69 0.63 0.77 0.64 0.48 0.19 0.12 0.09 0.09 0.07 0.11 0.24 0.40 0.51 0.56 0.53 0.91 1.07 1.09 1.21
1.33 0.88 0.85 0.58 0.10 0.04 0.03 0.03 0.03 0.05 0.06 0.05 0.04 0.13 0.36 0.42 0.36 0.35 0.49 0.57 0.86 1.16 1.31 1.04 1.24 1.62 1.17 0.80 0.40 0.19 0.13 0.06 0.06 0.08 0.24 0.43 0.43 0.52 0.50 0.68 0.78 1.01 1.50
1.15 1.17 1.04 1.11 0.87 0.32 0.16 0.07 0.05 0.09 0.06 0.06 0.07 0.15 0.26 0.28 0.41 0.46 0.89 1.08 1.37 1.28 1.51 1.43 1.37 1.41 1.06 0.98 1.08 0.71 0.33 0.11 0.09 0.14 0.48 0.28 0.23 0.51 0.77 0.78 0.61 1.25 1.28
1.13 1.26 1.45 1.45 0.97 0.60 0.60 0.24 0.08 0.09 0.04 0.05 0.13 0.31 0.30 0.87 1.02 1.18 1.68 2.46 2.53 2.20 2.25 3.18 2.78 1.80 0.91 1.06 1.11 0.72 0.32 0.07 0.09 0.41 1.34 0.52 0.66 0.58 0.90 0.87 0.56 0.63 0.62
1.83 2.55 3.31 2.97 2.41 1.11 0.98 0.77 0.33 0.17 0.09 0.11 0.29 0.71 1.01 1.71 1.47 1.15 0.95 1.02 1.24 2.16 2.18 1.84 1.72 1.71 1.14 0.30 0.15 0.25 0.17 0.07 0.29 0.93 0.71 0.42 0.70 0.75 0.68 0.47 0.31 0.22 0.22
3.36 3.45 5.11 5.72 5.42 4.22 2.66 1.89 1.54 1.36 1.02 0.78 0.55 0.58 0.57 1.01 1.21 0.71 0.39 0.32 0.25 0.30 0.38 0.38 0.33 0.21 0.22 0.09 0.06 0.08 0.08 0.08 0.18 1.19 0.64 0.42 0.55 0.62 0.36 0.22 0.16 0.14 0.12
5.85 5.86 5.26 7.51 5.14 4.03 4.24 3.28 3.33 2.37 2.15 1.89 1.39 0.82 0.43 0.40 0.55 0.31 0.20 0.17 0.13 0.12 0.17 0.25 0.19 0.15 0.08 0.06 0.07 0.06 0.13 0.04 0.14 0.47 0.50 0.23 0.37 0.63 0.46 0.26 0.16 0.15 0.11
6.58 9.34 6.73 6.72 5.23 3.51 3.42 3.97 3.24 3.43 2.81 2.04 1.61 1.32 0.46 0.47 0.38 0.37 0.22 0.18 0.10 0.07 0.10 0.12 0.21 0.24 0.28 0.26 0.08 0.08 0.22 0.17 0.13 0.29 0.38 0.33 0.43 0.60 0.62 0.40 0.29 0.24 0.19
3.69 5.27 5.84 7.31 6.11 3.64 2.51 3.42 2.96 3.65 3.19 2.04 1.58 2.07 0.81 0.39 0.38 0.30 0.14 0.12 0.13 0.07 0.07 0.15 0.37 0.33 0.29 0.26 0.18 0.20 0.21 0.12 0.16 0.10 0.26 0.43 0.44 0.51 0.45 0.39 0.29 0.26 0.25
2.10 2.40 3.33 5.35 6.94 4.40 2.98 2.10 2.21 2.95 4.64 2.34 1.57 1.78 1.44 0.56 0.45 0.28 0.19 0.19 0.20 0.16 0.21 0.49 0.55 0.41 0.23 0.13 0.14 0.23 0.12 0.06 0.09 0.05 0.16 0.32 0.57 0.69 0.77 0.59 0.30 0.19 0.18
1.36 1.46 1.48 2.50 4.26 3.75 3.13 2.60 2.24 2.42 4.16 3.48 1.68 1.24 1.56 0.67 0.67 0.48 0.41 0.44 0.42 0.38 0.45 0.47 0.57 0.58 0.47 0.25 0.22 0.30 0.12 0.05 0.07 0.09 0.31 0.21 0.46 0.65 0.68 0.55 0.29 0.24 0.25
1.21 1.18 1.14 0.97 2.10 2.11 1.86 2.21 2.06 1.43 2.04 3.77 1.89 1.45 1.19 1.19 0.72 0.47 0.28 0.32 0.29 0.24 0.27 0.25 0.44 0.47 0.38 0.33 0.31 0.18 0.11 0.07 0.11 0.27 0.30 0.25 0.34 0.57 0.58 0.41 0.35 0.35 0.27
1.11 1.16 1.07 0.86 1.17 1.69 1.79 1.87 1.57 0.93 1.26 2.73 2.29 1.66 1.03 1.21 0.98 0.66 0.47 0.24 0.18 0.20 0.23 0.13 0.14 0.19 0.19 0.22 0.20 0.14 0.09 0.07 0.09 0.17 0.24 0.28 0.24 0.44 0.44 0.29 0.33 0.38 0.33
0.70 0.58 0.60 0.77 0.72 1.07 1.58 1.29 1.41 0.95 1.01 2.01 2.45 1.75 1.14 0.84 0.84 0.46 0.35 0.35 0.40 0.36 0.24 0.19 0.19 0.16 0.30 0.53 0.55 0.36 0.15 0.06 0.07 0.10 0.15 0.25 0.26 0.26 0.30 0.36 0.21 0.29 0.38
0.49 0.45 0.46 0.50 0.63 1.06 1.36 1.11 1.06 0.94 0.80 1.26 2.05 1.78 1.77 1.02 0.83 0.55 0.36 0.28 0.28 0.35 0.51 0.51 0.43 0.28 0.22 0.27 0.55 0.37 0.20 0.10 0.12 0.10 0.11 0.19 0.31 0.35 0.24 0.24 0.34 0.32 0.29
0.38 0.31 0.31 0.54 0.83 0.95 1.11 1.04 1.13 0.94 0.83 1.21 1.66 1.67 1.84 1.72 0.83 0.77 0.51 0.24 0.23 0.43 0.67 0.79 0.59 0.27 0.22 0.19 0.26 0.15 0.04 0.05 0.07 0.06 0.07 0.07 0.12 0.22 0.28 0.19 0.18 0.22 0.25
0.12 0.17 0.51 0.82 1.19 1.41 1.32 1.28 1.78 1.60 1.33 1.19 1.53 1.52 1.18 1.73 1.17 0.76 0.65 0.37 0.37 0.31 0.43 0.74 0.73 0.59 0.37 0.21 0.22 0.21 0.06 0.03 0.06 0.07 0.07 0.09 0.09 0.11 0.19 0.16 0.16 0.17 0.16
0.13 0.12 0.68 1.07 1.36 1.46 2.16 2.03 1.86 1.36 1.31 1.21 1.38 1.33 1.15 1.31 1.49 1.06 0.78 0.60 0.59 0.64 0.49 0.46 0.58 0.58 0.61 0.50 0.43 0.41 0.22 0.12 0.12 0.12 0.10 0.08 0.13 0.21 0.19 0.21 0.10 0.09 0.13
0.12 0.31 0.81 1.22 1.53 1.22 0.84 0.67 0.93 0.85 0.81 1.07 1.36 1.12 0.84 1.04 1.20 1.42 0.95 0.64 0.60 0.66 0.70 0.88 0.82 0.67 0.42 0.57 0.87 0.78 0.57 0.23 0.16 0.13 0.13 0.12 0.12 0.13 0.20 0.24 0.18 0.10 0.06
0.27 0.38 0.41 0.37 0.54 0.23 0.16 0.25 0.56 0.64 0.75 0.87 1.10 0.88 0.78 0.98 1.24 1.28 1.21 1.08 0.71 0.69 0.79 1.20 1.23 1.16 0.58 0.78 0.91 0.96 0.69 0.61 0.28 0.18 0.17 0.15 0.11 0.16 0.16 0.23 0.22 0.17 0.07
0.15 0.17 0.06 0.06 0.27 0.23 0.13 0.24 0.50 0.84 1.02 1.19 1.44 1.29 0.92 1.09 1.10 1.33 1.09 1.34 1.20 1.20 1.05 1.21 1.42 1.22 0.78 0.83 0.86 0.67 0.47 0.33 0.32 0.37 0.33 0.30 0.30 0.21 0.18 0.19 0.24 0.21 0.12
0.02 0.03 0.02 0.07 0.14 0.20 0.26 0.33 0.43 0.68 0.73 0.84 0.89 1.14 0.95 0.93 1.08 1.23 1.31 1.46 1.46 1.38 1.37 1.26 1.45 1.36 1.29 0.98 1.12 0.86 0.68 0.58 0.55 0.40 0.35 0.36 0.38 0.31 0.30 0.29 0.32 0.33 0.24
0.04 0.04 0.10 0.13 0.16 0.15 0.23 0.41 0.35 0.47 0.63 0.75 0.91 1.17 1.33 0.98 0.81 0.84 1.13 1.29 1.44 1.41 1.34 1.41 1.39 1.49 1.44 1.57 1.58 1.48 1.32 1.17 1.19 1.18 0.90 0.55 0.46 0.32 0.30 0.31 0.39 0.47 0.42
0.12 0.17 0.16 0.16 0.19 0.21 0.29 0.39 0.41 0.36 0.36 0.38 0.67 1.04 1.71 1.70 1.16 0.95 1.03 1.09 1.24 1.35 1.24 1.47 1.55 1.41 1.66 1.76 1.82 2.06 1.99 1.76 1.34 1.12 1.00 0.74 0.54 0.38 0.30 0.31 0.28 0.27 0.35

GFSSE_prec_precacc_162.txt.gz
Total_Precipitation_Accumulation
0.29 0.03 0.03 0.04 0.05 0.06 0.04 0.00 0.00 0.00 0.02 0.07 0.11 0.14 0.17 0.17 0.24 0.32 0.30 0.31 0.34 0.34 0.38 0.30 0.30 0.33 0.36 0.29 0.22 0.18 0.27 0.65 0.88 0.80 1.10 1.05 1.06 0.68 0.66 0.94 0.95 0.80 1.40
0.25 0.09 0.07 0.06 0.04 0.08 0.11 0.05 0.02 0.02 0.02 0.05 0.11 0.13 0.20 0.23 0.33 0.40 0.39 0.39 0.48 0.55 0.58 0.44 0.38 0.43 0.47 0.40 0.24 0.18 0.16 0.17 0.33 0.42 0.45 0.50 0.71 0.62 0.55 1.05 1.06 0.89 1.40
0.58 0.50 0.40 0.11 0.03 0.05 0.08 0.08 0.06 0.05 0.04 0.07 0.09 0.21 0.33 0.37 0.54 0.52 0.39 0.39 0.71 1.13 0.96 0.69 0.63 0.77 0.64 0.48 0.19 0.12 0.09 0.09 0.07 0.11 0.24 0.40 0.51 0.56 0.53 0.91 1.07 1.09 1.21
1.33 0.88 0.85 0.58 0.10 0.04 0.03 0.03 0.03 0.05 0.06 0.05 0.04 0.13 0.36 0.42 0.36 0.35 0.49 0.57 0.86 1.16 1.31 1.04 1.24 1.63 1.17 0.80 0.40 0.19 0.13 0.06 0.06 0.08 0.24 0.43 0.43 0.52 0.50 0.68 0.78 1.01 1.51
1.15 1.17 1.04 1.11 0.87 0.32 0.16 0.07 0.05 0.09 0.06 0.06 0.07 0.15 0.26 0.28 0.41 0.46 0.89 1.08 1.37 1.28 1.51 1.43 1.37 1.41 1.06 0.98 1.08 0.71 0.33 0.11 0.09 0.14 0.48 0.28 0.23 0.52 0.78 0.78 0.61 1.25 1.28
1.13 1.26 1.45 1.45 0.97 0.60 0.60 0.24 0.08 0.09 0.04 0.05 0.13 0.31 0.30 0.87 1.02 1.18 1.68 2.46 2.53 2.20 2.25 3.18 2.78 1.80 0.91 1.06 1.11 0.72 0.32 0.07 0.09 0.41 1.34 0.52 0.67 0.59 0.90 0.87 0.57 0.67 0.67
1.83 2.55 3.31 2.97 2.41 1.11 0.98 0.77 0.33 0.17 0.09 0.11 0.29 0.71 1.01 1.71 1.47 1.15 0.95 1.02 1.24 2.16 2.18 1.84 1.72 1.71 1.14 0.30 0.15 0.25 0.17 0.07 0.29 0.93 0.71 0.42 0.71 0.81 0.68 0.47 0.31 0.24 0.25
3.36 3.45 5.11 5.72 5.42 4.23 2.66 1.89 1.54 1.36 1.02 0.78 0.55 0.58 0.57 1.01 1.21 0.71 0.39 0.32 0.25 0.30 0.38 0.38 0.33 0.21 0.22 0.09 0.06 0.08 0.08 0.08 0.18 1.19 0.64 0.42 0.55 0.68 0.38 0.22 0.16 0.14 0.12
5.85 5.86 5.26 7.51 5.14 4.04 4.25 3.29 3.33 2.37 2.15 1.89 1.39 0.82 0.43 0.40 0.55 0.31 0.20 0.17 0.13 0.12 0.17 0.25 0.19 0.15 0.08 0.06 0.07 0.06 0.13 0.04 0.14 0.47 0.50 0.23 0.39 0.67 0.50 0.26 0.16 0.15 0.11
6.58 9.34 6.73 6.72 5.23 3.51 3.43 3.98 3.24 3.43 2.81 2.04 1.61 1.32 0.46 0.47 0.38 0.37 0.22 0.18 0.10 0.07 0.10 0.12 0.21 0.24 0.28 0.26 0.08 0.08 0.22 0.17 0.13 0.29 0.38 0.33 0.44 0.65 0.67 0.42 0.29 0.24 0.19
3.69 5.27 5.84 7.31 6.11 3.64 2.52 3.42 2.96 3.65 3.19 2.04 1.58 2.08 0.81 0.39 0.38 0.30 0.14 0.12 0.13 0.07 0.07 0.15 0.37 0.33 0.29 0.26 0.18 0.20 0.21 0.12 0.16 0.10 0.26 0.43 0.45 0.53 0.49 0.41 0.30 0.26 0.25
2.10 2.40 3.33 5.35 6.94 4.40 2.98 2.11 2.21 2.95 4.64 2.34 1.57 1.78 1.45 0.57 0.46 0.28 0.19 0.19 0.20 0.16 0.21 0.49 0.55 0.41 0.23 0.13 0.14 0.23 0.12 0.06 0.09 0.05 0.16 0.32 0.57 0.69 0.77 0.60 0.31 0.19 0.18
1.36 1.46 1.48 2.50 4.26 3.75 3.13 2.60 2.25 2.42 4.18 3.51 1.68 1.25 1.58 0.69 0.68 0.49 0.41 0.44 0.42 0.38 0.45 0.47 0.57 0.58 0.47 0.25 0.22 0.30 0.12 0.05 0.07 0.09 0.31 0.21 0.46 0.65 0.69 0.56 0.30 0.24 0.25
1.21 1.18 1.14 0.97 2.10 2.11 1.86 2.21 2.07 1.43 2.06 3.79 1.92 1.46 1.22 1.21 0.74 0.48 0.30 0.34 0.30 0.25 0.28 0.26 0.44 0.47 0.38 0.33 0.31 0.18 0.11 0.07 0.11 0.27 0.30 0.25 0.34 0.57 0.58 0.42 0.36 0.36 0.27
1.11 1.16 1.07 0.86 1.17 1.69 1.79 1.87 1.57 0.93 1.27 2.74 2.32 1.69 1.08 1.29 1.04 0.70 0.49 0.25 0.18 0.21 0.24 0.13 0.14 0.19 0.19 0.22 0.20 0.14 0.09 0.07 0.09 0.17 0.24 0.28 0.24 0.44 0.45 0.31 0.34 0.38 0.34
0.70 0.58 0.60 0.77 0.72 1.07 1.58 1.29 1.41 0.95 1.01 2.01 2.45 1.76 1.19 0.90 0.93 0.53 0.42 0.38 0.41 0.37 0.25 0.20 0.20 0.16 0.30 0.53 0.55 0.36 0.15 0.06 0.07 0.10 0.15 0.25 0.26 0.26 0.30 0.38 0.25 0.30 0.40
0.49 0.45 0.46 0.50 0.63 1.06 1.36 1.11 1.06 0.94 0.80 1.26 2.05 1.78 1.78 1.05 0.87 0.63 0.45 0.35 0.32 0.37 0.54 0.57 0.45 0.29 0.22 0.28 0.55 0.37 0.20 0.10 0.12 0.10 0.11 0.19 0.31 0.35 0.24 0.25 0.35 0.35 0.34
0.38 0.31 0.31 0.54 0.83 0.95 1.11 1.04 1.13 0.94 0.83 1.21 1.66 1.67 1.84 1.72 0.83 0.80 0.61 0.34 0.29 0.48 0.72 0.85 0.61 0.29 0.23 0.23 0.26 0.16 0.05 0.05 0.07 0.06 0.07 0.07 0.12 0.22 0.28 0.19 0.18 0.23 0.25
0.12 0.17 0.51 0.82 1.19 1.41 1.32 1.28 1.78 1.60 1.33 1.19 1.53 1.52 1.18 1.73 1.17 0.76 0.66 0.41 0.41 0.36 0.51 0.83 0.81 0.64 0.40 0.23 0.25 0.26 0.11 0.04 0.06 0.07 0.07 0.09 0.09 0.11 0.19 0.16 0.16 0.17 0.16
0.13 0.12 0.68 1.07 1.36 1.46 2.16 2.03 1.86 1.36 1.31 1.21 1.38 1.33 1.15 1.31 1.49 1.06 0.78 0.61 0.61 0.69 0.59 0.57 0.73 0.71 0.69 0.58 0.54 0.46 0.28 0.15 0.14 0.12 0.10 0.08 0.13 0.21 0.19 0.21 0.10 0.09 0.13
0.12 0.31 0.81 1.22 1.53 1.22 0.84 0.67 0.93 0.85 0.81 1.07 1.36 1.12 0.84 1.04 1.20 1.42 0.95 0.64 0.61 0.68 0.74 0.95 0.92 0.81 0.53 0.69 1.04 0.85 0.62 0.30 0.21 0.14 0.14 0.12 0.12 0.13 0.20 0.24 0.18 0.10 0.06
0.27 0.38 0.41 0.37 0.54 0.23 0.16 0.25 0.56 0.64 0.75 0.87 1.10 0.88 0.78 0.98 1.24 1.28 1.21 1.08 0.71 0.70 0.80 1.22 1.26 1.22 0.73 1.00 1.09 1.07 0.75 0.66 0.32 0.21 0.17 0.15 0.14 0.19 0.18 0.24 0.22 0.17 0.07
0.15 0.17 0.06 0.06 0.27 0.23 0.13 0.24 0.50 0.84 1.02 1.19 1.44 1.29 0.92 1.09 1.10 1.33 1.09 1.34 1.21 1.20 1.05 1.21 1.42 1.23 0.82 0.97 1.13 1.12 1.02 0.71 0.40 0.40 0.36 0.33 0.36 0.27 0.25 0.29 0.40 0.36 0.19
0.02 0.03 0.02 0.07 0.14 0.20 0.26 0.33 0.43 0.68 0.73 0.84 0.89 1.14 0.95 0.93 1.08 1.23 1.31 1.46 1.46 1.39 1.37 1.26 1.45 1.37 1.30 0.99 1.20 1.00 0.84 0.76 0.71 0.46 0.39 0.41 0.46 0.41 0.42 0.39 0.40 0.45 0.38
0.04 0.04 0.10 0.13 0.16 0.15 0.23 0.41 0.35 0.47 0.63 0.75 0.91 1.17 1.33 0.98 0.81 0.84 1.13 1.29 1.44 1.41 1.35 1.42 1.39 1.50 1.45 1.59 1.61 1.68 1.59 1.45 1.48 1.45 1.08 0.63 0.52 0.47 0.56 0.67 0.78 0.73 0.54
0.12 0.17 0.16 0.16 0.19 0.21 0.29 0.39 0.41 0.36 0.36 0.38 0.67 1.04 1.71 1.70 1.16 0.95 1.03 1.09 1.24 1.35 1.24 1.48 1.56 1.42 1.67 1.77 1.84 2.12 2.20 2.21 2.06 2.02 1.93 1.37 0.81 0.54 0.45 0.47 0.48 0.55 0.61